<?xml version="1.0" encoding="UTF-8" standalone="no" ?>
<gpx xmlns="http://www.topografix.com/GPX/1/1" xmlns:xsi="http://www.w3.org/2001/XMLSchema-instance" xsi:schemaLocation="http://www.topografix.com/GPX/1/1 http://www.topografix.com/GPX/1/1/gpx.xsd" version="1.1" creator="VisuGPX - https://www.visugpx.com">
  <metadata>
    <name>Entrainement </name>
    <desc><![CDATA[Villard-léger -champ laurent]]></desc>
  </metadata>
  <trk>
    <name><![CDATA[2012-03-17T11:34:36Z]]></name>
    <trkseg>
      <trkpt lat="45.49332" lon="6.16016">
        <ele>187.1137695</ele>
        <time>2012-03-17T11:34:38Z</time>
      </trkpt>
      <trkpt lat="45.49336" lon="6.16012">
        <ele>187.1137695</ele>
        <time>2012-03-17T11:34:42Z</time>
      </trkpt>
      <trkpt lat="45.4934" lon="6.1601">
        <ele>187.1137695</ele>
        <time>2012-03-17T11:34:45Z</time>
      </trkpt>
      <trkpt lat="45.49349" lon="6.16002">
        <ele>187.5943604</ele>
        <time>2012-03-17T11:34:53Z</time>
      </trkpt>
      <trkpt lat="45.49355" lon="6.16">
        <ele>196.7269287</ele>
        <time>2012-03-17T11:35:00Z</time>
      </trkpt>
      <trkpt lat="45.49357" lon="6.16001">
        <ele>199.6108398</ele>
        <time>2012-03-17T11:35:02Z</time>
      </trkpt>
      <trkpt lat="45.4937" lon="6.16017">
        <ele>209.704834</ele>
        <time>2012-03-17T11:35:09Z</time>
      </trkpt>
      <trkpt lat="45.49377" lon="6.16028">
        <ele>216.43396</ele>
        <time>2012-03-17T11:35:13Z</time>
      </trkpt>
      <trkpt lat="45.49382" lon="6.16035">
        <ele>221.2406006</ele>
        <time>2012-03-17T11:35:16Z</time>
      </trkpt>
      <trkpt lat="45.49388" lon="6.16043">
        <ele>225.0859375</ele>
        <time>2012-03-17T11:35:19Z</time>
      </trkpt>
      <trkpt lat="45.49395" lon="6.16058">
        <ele>228.4504395</ele>
        <time>2012-03-17T11:35:24Z</time>
      </trkpt>
      <trkpt lat="45.49407" lon="6.16077">
        <ele>234.6990967</ele>
        <time>2012-03-17T11:35:31Z</time>
      </trkpt>
      <trkpt lat="45.49414" lon="6.16088">
        <ele>245.7541504</ele>
        <time>2012-03-17T11:35:37Z</time>
      </trkpt>
      <trkpt lat="45.49422" lon="6.16099">
        <ele>261.6159668</ele>
        <time>2012-03-17T11:35:43Z</time>
      </trkpt>
      <trkpt lat="45.49429" lon="6.16109">
        <ele>270.7484131</ele>
        <time>2012-03-17T11:35:48Z</time>
      </trkpt>
      <trkpt lat="45.49438" lon="6.16119">
        <ele>278.9196777</ele>
        <time>2012-03-17T11:35:53Z</time>
      </trkpt>
      <trkpt lat="45.49449" lon="6.16134">
        <ele>284.6876221</ele>
        <time>2012-03-17T11:36:00Z</time>
      </trkpt>
      <trkpt lat="45.49461" lon="6.16149">
        <ele>290.9361572</ele>
        <time>2012-03-17T11:36:07Z</time>
      </trkpt>
      <trkpt lat="45.49476" lon="6.16165">
        <ele>293.3393555</ele>
        <time>2012-03-17T11:36:15Z</time>
      </trkpt>
      <trkpt lat="45.49489" lon="6.1617">
        <ele>296.2235107</ele>
        <time>2012-03-17T11:36:20Z</time>
      </trkpt>
      <trkpt lat="45.49504" lon="6.16182">
        <ele>298.1461182</ele>
        <time>2012-03-17T11:36:27Z</time>
      </trkpt>
      <trkpt lat="45.49516" lon="6.16199">
        <ele>298.1461182</ele>
        <time>2012-03-17T11:36:33Z</time>
      </trkpt>
      <trkpt lat="45.49524" lon="6.16214">
        <ele>298.626709</ele>
        <time>2012-03-17T11:36:38Z</time>
      </trkpt>
      <trkpt lat="45.49535" lon="6.16234">
        <ele>298.626709</ele>
        <time>2012-03-17T11:36:45Z</time>
      </trkpt>
      <trkpt lat="45.49544" lon="6.16251">
        <ele>298.1461182</ele>
        <time>2012-03-17T11:36:51Z</time>
      </trkpt>
      <trkpt lat="45.49554" lon="6.16269">
        <ele>297.6654053</ele>
        <time>2012-03-17T11:36:57Z</time>
      </trkpt>
      <trkpt lat="45.49567" lon="6.16287">
        <ele>298.626709</ele>
        <time>2012-03-17T11:37:04Z</time>
      </trkpt>
      <trkpt lat="45.49575" lon="6.16297">
        <ele>299.5880127</ele>
        <time>2012-03-17T11:37:08Z</time>
      </trkpt>
      <trkpt lat="45.49589" lon="6.16315">
        <ele>300.5493164</ele>
        <time>2012-03-17T11:37:15Z</time>
      </trkpt>
      <trkpt lat="45.49599" lon="6.16327">
        <ele>300.5493164</ele>
        <time>2012-03-17T11:37:20Z</time>
      </trkpt>
      <trkpt lat="45.49612" lon="6.16345">
        <ele>301.0299072</ele>
        <time>2012-03-17T11:37:27Z</time>
      </trkpt>
      <trkpt lat="45.49623" lon="6.16363">
        <ele>303.4332275</ele>
        <time>2012-03-17T11:37:34Z</time>
      </trkpt>
      <trkpt lat="45.49632" lon="6.16377">
        <ele>304.8752441</ele>
        <time>2012-03-17T11:37:39Z</time>
      </trkpt>
      <trkpt lat="45.49645" lon="6.16387">
        <ele>309.2011719</ele>
        <time>2012-03-17T11:37:44Z</time>
      </trkpt>
      <trkpt lat="45.49656" lon="6.16397">
        <ele>311.6044922</ele>
        <time>2012-03-17T11:37:49Z</time>
      </trkpt>
      <trkpt lat="45.49675" lon="6.16408">
        <ele>316.4110107</ele>
        <time>2012-03-17T11:37:56Z</time>
      </trkpt>
      <trkpt lat="45.49688" lon="6.16417">
        <ele>316.4110107</ele>
        <time>2012-03-17T11:38:01Z</time>
      </trkpt>
      <trkpt lat="45.49702" lon="6.16427">
        <ele>317.8530273</ele>
        <time>2012-03-17T11:38:07Z</time>
      </trkpt>
      <trkpt lat="45.49714" lon="6.16436">
        <ele>316.8917236</ele>
        <time>2012-03-17T11:38:12Z</time>
      </trkpt>
      <trkpt lat="45.49722" lon="6.16446">
        <ele>312.0852051</ele>
        <time>2012-03-17T11:38:17Z</time>
      </trkpt>
      <trkpt lat="45.49731" lon="6.16457">
        <ele>308.720459</ele>
        <time>2012-03-17T11:38:22Z</time>
      </trkpt>
      <trkpt lat="45.49748" lon="6.16477">
        <ele>306.3172607</ele>
        <time>2012-03-17T11:38:30Z</time>
      </trkpt>
      <trkpt lat="45.49759" lon="6.16493">
        <ele>304.8752441</ele>
        <time>2012-03-17T11:38:36Z</time>
      </trkpt>
      <trkpt lat="45.49772" lon="6.16507">
        <ele>304.8752441</ele>
        <time>2012-03-17T11:38:42Z</time>
      </trkpt>
      <trkpt lat="45.49785" lon="6.1652">
        <ele>303.9139404</ele>
        <time>2012-03-17T11:38:48Z</time>
      </trkpt>
      <trkpt lat="45.49799" lon="6.1653">
        <ele>304.3946533</ele>
        <time>2012-03-17T11:38:54Z</time>
      </trkpt>
      <trkpt lat="45.49817" lon="6.16545">
        <ele>304.3946533</ele>
        <time>2012-03-17T11:39:02Z</time>
      </trkpt>
      <trkpt lat="45.49831" lon="6.16558">
        <ele>304.3946533</ele>
        <time>2012-03-17T11:39:09Z</time>
      </trkpt>
      <trkpt lat="45.49842" lon="6.16569">
        <ele>303.9139404</ele>
        <time>2012-03-17T11:39:14Z</time>
      </trkpt>
      <trkpt lat="45.49858" lon="6.16582">
        <ele>304.3946533</ele>
        <time>2012-03-17T11:39:21Z</time>
      </trkpt>
      <trkpt lat="45.49874" lon="6.16597">
        <ele>304.3946533</ele>
        <time>2012-03-17T11:39:28Z</time>
      </trkpt>
      <trkpt lat="45.49884" lon="6.16611">
        <ele>303.4332275</ele>
        <time>2012-03-17T11:39:33Z</time>
      </trkpt>
      <trkpt lat="45.49899" lon="6.16634">
        <ele>300.5493164</ele>
        <time>2012-03-17T11:39:41Z</time>
      </trkpt>
      <trkpt lat="45.49913" lon="6.16645">
        <ele>298.626709</ele>
        <time>2012-03-17T11:39:47Z</time>
      </trkpt>
      <trkpt lat="45.4993" lon="6.16652">
        <ele>297.6654053</ele>
        <time>2012-03-17T11:39:53Z</time>
      </trkpt>
      <trkpt lat="45.49946" lon="6.16659">
        <ele>297.6654053</ele>
        <time>2012-03-17T11:39:59Z</time>
      </trkpt>
      <trkpt lat="45.49963" lon="6.16668">
        <ele>297.1846924</ele>
        <time>2012-03-17T11:40:05Z</time>
      </trkpt>
      <trkpt lat="45.49975" lon="6.16677">
        <ele>296.2235107</ele>
        <time>2012-03-17T11:40:10Z</time>
      </trkpt>
      <trkpt lat="45.49989" lon="6.16692">
        <ele>295.7426758</ele>
        <time>2012-03-17T11:40:16Z</time>
      </trkpt>
      <trkpt lat="45.49999" lon="6.16706">
        <ele>296.2235107</ele>
        <time>2012-03-17T11:40:21Z</time>
      </trkpt>
      <trkpt lat="45.50009" lon="6.16722">
        <ele>297.1846924</ele>
        <time>2012-03-17T11:40:26Z</time>
      </trkpt>
      <trkpt lat="45.50015" lon="6.16738">
        <ele>297.1846924</ele>
        <time>2012-03-17T11:40:30Z</time>
      </trkpt>
      <trkpt lat="45.50026" lon="6.16753">
        <ele>297.1846924</ele>
        <time>2012-03-17T11:40:36Z</time>
      </trkpt>
      <trkpt lat="45.50034" lon="6.16768">
        <ele>297.1846924</ele>
        <time>2012-03-17T11:40:41Z</time>
      </trkpt>
      <trkpt lat="45.50042" lon="6.16793">
        <ele>296.2235107</ele>
        <time>2012-03-17T11:40:48Z</time>
      </trkpt>
      <trkpt lat="45.50048" lon="6.16823">
        <ele>295.2619629</ele>
        <time>2012-03-17T11:40:56Z</time>
      </trkpt>
      <trkpt lat="45.50052" lon="6.16845">
        <ele>292.8587646</ele>
        <time>2012-03-17T11:41:02Z</time>
      </trkpt>
      <trkpt lat="45.50061" lon="6.16866">
        <ele>292.3781738</ele>
        <time>2012-03-17T11:41:08Z</time>
      </trkpt>
      <trkpt lat="45.50071" lon="6.16882">
        <ele>291.416748</ele>
        <time>2012-03-17T11:41:14Z</time>
      </trkpt>
      <trkpt lat="45.50088" lon="6.16897">
        <ele>290.9361572</ele>
        <time>2012-03-17T11:41:21Z</time>
      </trkpt>
      <trkpt lat="45.50106" lon="6.16909">
        <ele>291.416748</ele>
        <time>2012-03-17T11:41:28Z</time>
      </trkpt>
      <trkpt lat="45.50121" lon="6.16918">
        <ele>291.416748</ele>
        <time>2012-03-17T11:41:34Z</time>
      </trkpt>
      <trkpt lat="45.50137" lon="6.16924">
        <ele>291.8974609</ele>
        <time>2012-03-17T11:41:40Z</time>
      </trkpt>
      <trkpt lat="45.50153" lon="6.16926">
        <ele>291.416748</ele>
        <time>2012-03-17T11:41:46Z</time>
      </trkpt>
      <trkpt lat="45.5017" lon="6.16925">
        <ele>292.8587646</ele>
        <time>2012-03-17T11:41:52Z</time>
      </trkpt>
      <trkpt lat="45.5019" lon="6.16922">
        <ele>291.416748</ele>
        <time>2012-03-17T11:41:59Z</time>
      </trkpt>
      <trkpt lat="45.50213" lon="6.1692">
        <ele>291.8974609</ele>
        <time>2012-03-17T11:42:07Z</time>
      </trkpt>
      <trkpt lat="45.5023" lon="6.16923">
        <ele>293.3393555</ele>
        <time>2012-03-17T11:42:13Z</time>
      </trkpt>
      <trkpt lat="45.50246" lon="6.16928">
        <ele>294.3007813</ele>
        <time>2012-03-17T11:42:19Z</time>
      </trkpt>
      <trkpt lat="45.50264" lon="6.16937">
        <ele>297.6654053</ele>
        <time>2012-03-17T11:42:25Z</time>
      </trkpt>
      <trkpt lat="45.5028" lon="6.16946">
        <ele>299.5880127</ele>
        <time>2012-03-17T11:42:31Z</time>
      </trkpt>
      <trkpt lat="45.50297" lon="6.16957">
        <ele>298.626709</ele>
        <time>2012-03-17T11:42:38Z</time>
      </trkpt>
      <trkpt lat="45.50312" lon="6.16966">
        <ele>297.1846924</ele>
        <time>2012-03-17T11:42:44Z</time>
      </trkpt>
      <trkpt lat="45.50331" lon="6.16976">
        <ele>296.7041016</ele>
        <time>2012-03-17T11:42:51Z</time>
      </trkpt>
      <trkpt lat="45.50345" lon="6.16988">
        <ele>295.2619629</ele>
        <time>2012-03-17T11:42:57Z</time>
      </trkpt>
      <trkpt lat="45.50356" lon="6.17">
        <ele>295.7426758</ele>
        <time>2012-03-17T11:43:02Z</time>
      </trkpt>
      <trkpt lat="45.50366" lon="6.17017">
        <ele>295.2619629</ele>
        <time>2012-03-17T11:43:08Z</time>
      </trkpt>
      <trkpt lat="45.50378" lon="6.17035">
        <ele>294.7813721</ele>
        <time>2012-03-17T11:43:14Z</time>
      </trkpt>
      <trkpt lat="45.50387" lon="6.17049">
        <ele>294.3007813</ele>
        <time>2012-03-17T11:43:19Z</time>
      </trkpt>
      <trkpt lat="45.50399" lon="6.17071">
        <ele>294.7813721</ele>
        <time>2012-03-17T11:43:26Z</time>
      </trkpt>
      <trkpt lat="45.50406" lon="6.1709">
        <ele>294.3007813</ele>
        <time>2012-03-17T11:43:32Z</time>
      </trkpt>
      <trkpt lat="45.50413" lon="6.1711">
        <ele>294.3007813</ele>
        <time>2012-03-17T11:43:38Z</time>
      </trkpt>
      <trkpt lat="45.50418" lon="6.17126">
        <ele>294.7813721</ele>
        <time>2012-03-17T11:43:43Z</time>
      </trkpt>
      <trkpt lat="45.50422" lon="6.17142">
        <ele>294.3007813</ele>
        <time>2012-03-17T11:43:48Z</time>
      </trkpt>
      <trkpt lat="45.50428" lon="6.1716">
        <ele>293.3393555</ele>
        <time>2012-03-17T11:43:54Z</time>
      </trkpt>
      <trkpt lat="45.50436" lon="6.17179">
        <ele>291.416748</ele>
        <time>2012-03-17T11:44:00Z</time>
      </trkpt>
      <trkpt lat="45.50447" lon="6.17206">
        <ele>290.4555664</ele>
        <time>2012-03-17T11:44:08Z</time>
      </trkpt>
      <trkpt lat="45.50454" lon="6.17225">
        <ele>289.0135498</ele>
        <time>2012-03-17T11:44:14Z</time>
      </trkpt>
      <trkpt lat="45.50465" lon="6.17249">
        <ele>289.4941406</ele>
        <time>2012-03-17T11:44:21Z</time>
      </trkpt>
      <trkpt lat="45.50469" lon="6.17266">
        <ele>288.0522461</ele>
        <time>2012-03-17T11:44:26Z</time>
      </trkpt>
      <trkpt lat="45.50478" lon="6.17285">
        <ele>286.1295166</ele>
        <time>2012-03-17T11:44:32Z</time>
      </trkpt>
      <trkpt lat="45.50492" lon="6.173">
        <ele>285.6488037</ele>
        <time>2012-03-17T11:44:38Z</time>
      </trkpt>
      <trkpt lat="45.50507" lon="6.17313">
        <ele>286.1295166</ele>
        <time>2012-03-17T11:44:44Z</time>
      </trkpt>
      <trkpt lat="45.50522" lon="6.17325">
        <ele>285.6488037</ele>
        <time>2012-03-17T11:44:50Z</time>
      </trkpt>
      <trkpt lat="45.50537" lon="6.17335">
        <ele>287.0908203</ele>
        <time>2012-03-17T11:44:56Z</time>
      </trkpt>
      <trkpt lat="45.50545" lon="6.17348">
        <ele>287.0908203</ele>
        <time>2012-03-17T11:45:01Z</time>
      </trkpt>
      <trkpt lat="45.50553" lon="6.17366">
        <ele>289.4941406</ele>
        <time>2012-03-17T11:45:07Z</time>
      </trkpt>
      <trkpt lat="45.50558" lon="6.17381">
        <ele>290.9361572</ele>
        <time>2012-03-17T11:45:12Z</time>
      </trkpt>
      <trkpt lat="45.5057" lon="6.17394">
        <ele>291.416748</ele>
        <time>2012-03-17T11:45:18Z</time>
      </trkpt>
      <trkpt lat="45.50591" lon="6.17405">
        <ele>293.3393555</ele>
        <time>2012-03-17T11:45:25Z</time>
      </trkpt>
      <trkpt lat="45.50609" lon="6.17416">
        <ele>292.8587646</ele>
        <time>2012-03-17T11:45:32Z</time>
      </trkpt>
      <trkpt lat="45.50626" lon="6.17427">
        <ele>292.8587646</ele>
        <time>2012-03-17T11:45:39Z</time>
      </trkpt>
      <trkpt lat="45.50641" lon="6.17435">
        <ele>292.8587646</ele>
        <time>2012-03-17T11:45:45Z</time>
      </trkpt>
      <trkpt lat="45.50657" lon="6.17445">
        <ele>292.3781738</ele>
        <time>2012-03-17T11:45:51Z</time>
      </trkpt>
      <trkpt lat="45.50672" lon="6.17457">
        <ele>292.3781738</ele>
        <time>2012-03-17T11:45:57Z</time>
      </trkpt>
      <trkpt lat="45.50684" lon="6.17469">
        <ele>291.8974609</ele>
        <time>2012-03-17T11:46:02Z</time>
      </trkpt>
      <trkpt lat="45.50696" lon="6.17484">
        <ele>290.9361572</ele>
        <time>2012-03-17T11:46:08Z</time>
      </trkpt>
      <trkpt lat="45.50707" lon="6.17496">
        <ele>290.4555664</ele>
        <time>2012-03-17T11:46:13Z</time>
      </trkpt>
      <trkpt lat="45.50719" lon="6.17511">
        <ele>290.4555664</ele>
        <time>2012-03-17T11:46:19Z</time>
      </trkpt>
      <trkpt lat="45.5073" lon="6.17525">
        <ele>290.4555664</ele>
        <time>2012-03-17T11:46:24Z</time>
      </trkpt>
      <trkpt lat="45.50739" lon="6.17539">
        <ele>290.4555664</ele>
        <time>2012-03-17T11:46:29Z</time>
      </trkpt>
      <trkpt lat="45.50752" lon="6.17561">
        <ele>289.9748535</ele>
        <time>2012-03-17T11:46:36Z</time>
      </trkpt>
      <trkpt lat="45.50763" lon="6.17579">
        <ele>289.9748535</ele>
        <time>2012-03-17T11:46:42Z</time>
      </trkpt>
      <trkpt lat="45.50774" lon="6.17596">
        <ele>289.9748535</ele>
        <time>2012-03-17T11:46:48Z</time>
      </trkpt>
      <trkpt lat="45.50785" lon="6.17615">
        <ele>289.4941406</ele>
        <time>2012-03-17T11:46:54Z</time>
      </trkpt>
      <trkpt lat="45.50796" lon="6.17633">
        <ele>289.0135498</ele>
        <time>2012-03-17T11:47:00Z</time>
      </trkpt>
      <trkpt lat="45.50808" lon="6.1765">
        <ele>288.0522461</ele>
        <time>2012-03-17T11:47:06Z</time>
      </trkpt>
      <trkpt lat="45.50822" lon="6.17666">
        <ele>288.532959</ele>
        <time>2012-03-17T11:47:12Z</time>
      </trkpt>
      <trkpt lat="45.50838" lon="6.17678">
        <ele>289.4941406</ele>
        <time>2012-03-17T11:47:18Z</time>
      </trkpt>
      <trkpt lat="45.50853" lon="6.17684">
        <ele>291.416748</ele>
        <time>2012-03-17T11:47:23Z</time>
      </trkpt>
      <trkpt lat="45.50867" lon="6.1769">
        <ele>291.8974609</ele>
        <time>2012-03-17T11:47:28Z</time>
      </trkpt>
      <trkpt lat="45.50885" lon="6.17696">
        <ele>292.3781738</ele>
        <time>2012-03-17T11:47:34Z</time>
      </trkpt>
      <trkpt lat="45.50901" lon="6.17705">
        <ele>287.5714111</ele>
        <time>2012-03-17T11:47:41Z</time>
      </trkpt>
      <trkpt lat="45.50917" lon="6.17715">
        <ele>286.6102295</ele>
        <time>2012-03-17T11:47:47Z</time>
      </trkpt>
      <trkpt lat="45.50927" lon="6.17725">
        <ele>288.532959</ele>
        <time>2012-03-17T11:47:52Z</time>
      </trkpt>
      <trkpt lat="45.5094" lon="6.17743">
        <ele>288.532959</ele>
        <time>2012-03-17T11:47:59Z</time>
      </trkpt>
      <trkpt lat="45.50949" lon="6.17758">
        <ele>288.0522461</ele>
        <time>2012-03-17T11:48:04Z</time>
      </trkpt>
      <trkpt lat="45.5096" lon="6.17781">
        <ele>287.0908203</ele>
        <time>2012-03-17T11:48:11Z</time>
      </trkpt>
      <trkpt lat="45.50967" lon="6.17798">
        <ele>287.0908203</ele>
        <time>2012-03-17T11:48:16Z</time>
      </trkpt>
      <trkpt lat="45.50976" lon="6.17819">
        <ele>287.0908203</ele>
        <time>2012-03-17T11:48:22Z</time>
      </trkpt>
      <trkpt lat="45.50986" lon="6.17837">
        <ele>287.5714111</ele>
        <time>2012-03-17T11:48:28Z</time>
      </trkpt>
      <trkpt lat="45.50996" lon="6.17852">
        <ele>288.0522461</ele>
        <time>2012-03-17T11:48:33Z</time>
      </trkpt>
      <trkpt lat="45.51006" lon="6.17867">
        <ele>288.532959</ele>
        <time>2012-03-17T11:48:38Z</time>
      </trkpt>
      <trkpt lat="45.51016" lon="6.1788">
        <ele>289.9748535</ele>
        <time>2012-03-17T11:48:43Z</time>
      </trkpt>
      <trkpt lat="45.51031" lon="6.17904">
        <ele>290.4555664</ele>
        <time>2012-03-17T11:48:51Z</time>
      </trkpt>
      <trkpt lat="45.5104" lon="6.17919">
        <ele>290.9361572</ele>
        <time>2012-03-17T11:48:56Z</time>
      </trkpt>
      <trkpt lat="45.5105" lon="6.17935">
        <ele>290.4555664</ele>
        <time>2012-03-17T11:49:01Z</time>
      </trkpt>
      <trkpt lat="45.51065" lon="6.17959">
        <ele>291.416748</ele>
        <time>2012-03-17T11:49:09Z</time>
      </trkpt>
      <trkpt lat="45.51076" lon="6.17977">
        <ele>290.9361572</ele>
        <time>2012-03-17T11:49:15Z</time>
      </trkpt>
      <trkpt lat="45.51087" lon="6.17996">
        <ele>290.9361572</ele>
        <time>2012-03-17T11:49:21Z</time>
      </trkpt>
      <trkpt lat="45.51097" lon="6.18011">
        <ele>289.9748535</ele>
        <time>2012-03-17T11:49:26Z</time>
      </trkpt>
      <trkpt lat="45.51105" lon="6.18024">
        <ele>289.4941406</ele>
        <time>2012-03-17T11:49:30Z</time>
      </trkpt>
      <trkpt lat="45.51114" lon="6.18039">
        <ele>289.0135498</ele>
        <time>2012-03-17T11:49:35Z</time>
      </trkpt>
      <trkpt lat="45.51123" lon="6.18054">
        <ele>288.532959</ele>
        <time>2012-03-17T11:49:40Z</time>
      </trkpt>
      <trkpt lat="45.51135" lon="6.18073">
        <ele>288.532959</ele>
        <time>2012-03-17T11:49:46Z</time>
      </trkpt>
      <trkpt lat="45.51146" lon="6.18092">
        <ele>288.532959</ele>
        <time>2012-03-17T11:49:52Z</time>
      </trkpt>
      <trkpt lat="45.51156" lon="6.18107">
        <ele>289.0135498</ele>
        <time>2012-03-17T11:49:57Z</time>
      </trkpt>
      <trkpt lat="45.51168" lon="6.18125">
        <ele>289.4941406</ele>
        <time>2012-03-17T11:50:03Z</time>
      </trkpt>
      <trkpt lat="45.51178" lon="6.1814">
        <ele>288.532959</ele>
        <time>2012-03-17T11:50:08Z</time>
      </trkpt>
      <trkpt lat="45.51191" lon="6.18156">
        <ele>288.0522461</ele>
        <time>2012-03-17T11:50:14Z</time>
      </trkpt>
      <trkpt lat="45.51203" lon="6.18172">
        <ele>288.0522461</ele>
        <time>2012-03-17T11:50:20Z</time>
      </trkpt>
      <trkpt lat="45.51215" lon="6.18188">
        <ele>288.0522461</ele>
        <time>2012-03-17T11:50:26Z</time>
      </trkpt>
      <trkpt lat="45.51224" lon="6.18199">
        <ele>289.0135498</ele>
        <time>2012-03-17T11:50:30Z</time>
      </trkpt>
      <trkpt lat="45.51234" lon="6.18213">
        <ele>289.0135498</ele>
        <time>2012-03-17T11:50:35Z</time>
      </trkpt>
      <trkpt lat="45.51243" lon="6.18226">
        <ele>288.532959</ele>
        <time>2012-03-17T11:50:40Z</time>
      </trkpt>
      <trkpt lat="45.51251" lon="6.18241">
        <ele>287.5714111</ele>
        <time>2012-03-17T11:50:45Z</time>
      </trkpt>
      <trkpt lat="45.51261" lon="6.18255">
        <ele>288.0522461</ele>
        <time>2012-03-17T11:50:50Z</time>
      </trkpt>
      <trkpt lat="45.51273" lon="6.18272">
        <ele>289.0135498</ele>
        <time>2012-03-17T11:50:56Z</time>
      </trkpt>
      <trkpt lat="45.51283" lon="6.18286">
        <ele>289.4941406</ele>
        <time>2012-03-17T11:51:01Z</time>
      </trkpt>
      <trkpt lat="45.51288" lon="6.18296">
        <ele>289.4941406</ele>
        <time>2012-03-17T11:51:04Z</time>
      </trkpt>
      <trkpt lat="45.51297" lon="6.18312">
        <ele>289.4941406</ele>
        <time>2012-03-17T11:51:09Z</time>
      </trkpt>
      <trkpt lat="45.51304" lon="6.1833">
        <ele>289.9748535</ele>
        <time>2012-03-17T11:51:14Z</time>
      </trkpt>
      <trkpt lat="45.51309" lon="6.18347">
        <ele>290.9361572</ele>
        <time>2012-03-17T11:51:19Z</time>
      </trkpt>
      <trkpt lat="45.51315" lon="6.18365">
        <ele>290.4555664</ele>
        <time>2012-03-17T11:51:24Z</time>
      </trkpt>
      <trkpt lat="45.51326" lon="6.18383">
        <ele>290.4555664</ele>
        <time>2012-03-17T11:51:30Z</time>
      </trkpt>
      <trkpt lat="45.5134" lon="6.18398">
        <ele>290.9361572</ele>
        <time>2012-03-17T11:51:36Z</time>
      </trkpt>
      <trkpt lat="45.51354" lon="6.1841">
        <ele>291.8974609</ele>
        <time>2012-03-17T11:51:42Z</time>
      </trkpt>
      <trkpt lat="45.51362" lon="6.18419">
        <ele>292.3781738</ele>
        <time>2012-03-17T11:51:46Z</time>
      </trkpt>
      <trkpt lat="45.51376" lon="6.18431">
        <ele>292.3781738</ele>
        <time>2012-03-17T11:51:52Z</time>
      </trkpt>
      <trkpt lat="45.51385" lon="6.18443">
        <ele>291.416748</ele>
        <time>2012-03-17T11:51:57Z</time>
      </trkpt>
      <trkpt lat="45.51397" lon="6.18458">
        <ele>291.8974609</ele>
        <time>2012-03-17T11:52:03Z</time>
      </trkpt>
      <trkpt lat="45.51409" lon="6.18472">
        <ele>292.3781738</ele>
        <time>2012-03-17T11:52:09Z</time>
      </trkpt>
      <trkpt lat="45.51421" lon="6.18486">
        <ele>291.416748</ele>
        <time>2012-03-17T11:52:15Z</time>
      </trkpt>
      <trkpt lat="45.51432" lon="6.18495">
        <ele>290.9361572</ele>
        <time>2012-03-17T11:52:20Z</time>
      </trkpt>
      <trkpt lat="45.51444" lon="6.18508">
        <ele>289.9748535</ele>
        <time>2012-03-17T11:52:26Z</time>
      </trkpt>
      <trkpt lat="45.51458" lon="6.18521">
        <ele>290.9361572</ele>
        <time>2012-03-17T11:52:32Z</time>
      </trkpt>
      <trkpt lat="45.51473" lon="6.18532">
        <ele>292.3781738</ele>
        <time>2012-03-17T11:52:38Z</time>
      </trkpt>
      <trkpt lat="45.51485" lon="6.18544">
        <ele>292.3781738</ele>
        <time>2012-03-17T11:52:44Z</time>
      </trkpt>
      <trkpt lat="45.51491" lon="6.18552">
        <ele>292.3781738</ele>
        <time>2012-03-17T11:52:48Z</time>
      </trkpt>
      <trkpt lat="45.51488" lon="6.18565">
        <ele>290.4555664</ele>
        <time>2012-03-17T11:52:53Z</time>
      </trkpt>
      <trkpt lat="45.51486" lon="6.18567">
        <ele>289.0135498</ele>
        <time>2012-03-17T11:52:55Z</time>
      </trkpt>
      <trkpt lat="45.51483" lon="6.18575">
        <ele>284.2069092</ele>
        <time>2012-03-17T11:53:03Z</time>
      </trkpt>
      <trkpt lat="45.51481" lon="6.18585">
        <ele>278.4389648</ele>
        <time>2012-03-17T11:53:08Z</time>
      </trkpt>
      <trkpt lat="45.5148" lon="6.1859">
        <ele>278.4389648</ele>
        <time>2012-03-17T11:53:13Z</time>
      </trkpt>
      <trkpt lat="45.51476" lon="6.18597">
        <ele>279.4002686</ele>
        <time>2012-03-17T11:53:18Z</time>
      </trkpt>
      <trkpt lat="45.51471" lon="6.18613">
        <ele>280.3616943</ele>
        <time>2012-03-17T11:53:24Z</time>
      </trkpt>
      <trkpt lat="45.5147" lon="6.18619">
        <ele>281.8035889</ele>
        <time>2012-03-17T11:53:26Z</time>
      </trkpt>
      <trkpt lat="45.51461" lon="6.18631">
        <ele>286.6102295</ele>
        <time>2012-03-17T11:53:31Z</time>
      </trkpt>
      <trkpt lat="45.51458" lon="6.18647">
        <ele>289.9748535</ele>
        <time>2012-03-17T11:53:36Z</time>
      </trkpt>
      <trkpt lat="45.51459" lon="6.18653">
        <ele>292.8587646</ele>
        <time>2012-03-17T11:53:38Z</time>
      </trkpt>
      <trkpt lat="45.5147" lon="6.18666">
        <ele>300.0687256</ele>
        <time>2012-03-17T11:53:44Z</time>
      </trkpt>
      <trkpt lat="45.51472" lon="6.18668">
        <ele>301.0299072</ele>
        <time>2012-03-17T11:53:45Z</time>
      </trkpt>
      <trkpt lat="45.51483" lon="6.18682">
        <ele>304.3946533</ele>
        <time>2012-03-17T11:53:52Z</time>
      </trkpt>
      <trkpt lat="45.51495" lon="6.18701">
        <ele>304.8752441</ele>
        <time>2012-03-17T11:54:00Z</time>
      </trkpt>
      <trkpt lat="45.51504" lon="6.1872">
        <ele>303.4332275</ele>
        <time>2012-03-17T11:54:07Z</time>
      </trkpt>
      <trkpt lat="45.51511" lon="6.18737">
        <ele>301.991333</ele>
        <time>2012-03-17T11:54:13Z</time>
      </trkpt>
      <trkpt lat="45.51518" lon="6.18753">
        <ele>299.5880127</ele>
        <time>2012-03-17T11:54:19Z</time>
      </trkpt>
      <trkpt lat="45.51525" lon="6.18766">
        <ele>299.1072998</ele>
        <time>2012-03-17T11:54:24Z</time>
      </trkpt>
      <trkpt lat="45.51531" lon="6.18783">
        <ele>301.991333</ele>
        <time>2012-03-17T11:54:30Z</time>
      </trkpt>
      <trkpt lat="45.51532" lon="6.18785">
        <ele>303.9139404</ele>
        <time>2012-03-17T11:54:34Z</time>
      </trkpt>
      <trkpt lat="45.51533" lon="6.1879">
        <ele>307.7592773</ele>
        <time>2012-03-17T11:54:44Z</time>
      </trkpt>
      <trkpt lat="45.51543" lon="6.18801">
        <ele>309.6818848</ele>
        <time>2012-03-17T11:54:52Z</time>
      </trkpt>
      <trkpt lat="45.51546" lon="6.18808">
        <ele>309.2011719</ele>
        <time>2012-03-17T11:54:56Z</time>
      </trkpt>
      <trkpt lat="45.5155" lon="6.18825">
        <ele>307.7592773</ele>
        <time>2012-03-17T11:55:06Z</time>
      </trkpt>
      <trkpt lat="45.51556" lon="6.18836">
        <ele>309.2011719</ele>
        <time>2012-03-17T11:55:13Z</time>
      </trkpt>
      <trkpt lat="45.51558" lon="6.1884">
        <ele>309.2011719</ele>
        <time>2012-03-17T11:55:16Z</time>
      </trkpt>
      <trkpt lat="45.51559" lon="6.18848">
        <ele>312.0852051</ele>
        <time>2012-03-17T11:55:23Z</time>
      </trkpt>
      <trkpt lat="45.51561" lon="6.18858">
        <ele>312.5657959</ele>
        <time>2012-03-17T11:55:29Z</time>
      </trkpt>
      <trkpt lat="45.5156" lon="6.18865">
        <ele>312.0852051</ele>
        <time>2012-03-17T11:55:35Z</time>
      </trkpt>
      <trkpt lat="45.51559" lon="6.18876">
        <ele>311.1237793</ele>
        <time>2012-03-17T11:55:41Z</time>
      </trkpt>
      <trkpt lat="45.51559" lon="6.18888">
        <ele>309.2011719</ele>
        <time>2012-03-17T11:55:48Z</time>
      </trkpt>
      <trkpt lat="45.51558" lon="6.189">
        <ele>308.720459</ele>
        <time>2012-03-17T11:55:55Z</time>
      </trkpt>
      <trkpt lat="45.51567" lon="6.1891">
        <ele>312.0852051</ele>
        <time>2012-03-17T11:56:00Z</time>
      </trkpt>
      <trkpt lat="45.51572" lon="6.18922">
        <ele>315.9304199</ele>
        <time>2012-03-17T11:56:05Z</time>
      </trkpt>
      <trkpt lat="45.51576" lon="6.18934">
        <ele>317.3724365</ele>
        <time>2012-03-17T11:56:10Z</time>
      </trkpt>
      <trkpt lat="45.5158" lon="6.18946">
        <ele>318.3336182</ele>
        <time>2012-03-17T11:56:15Z</time>
      </trkpt>
      <trkpt lat="45.5158" lon="6.18953">
        <ele>318.3336182</ele>
        <time>2012-03-17T11:56:18Z</time>
      </trkpt>
      <trkpt lat="45.51586" lon="6.18958">
        <ele>319.7756348</ele>
        <time>2012-03-17T11:56:21Z</time>
      </trkpt>
      <trkpt lat="45.51592" lon="6.18969">
        <ele>324.1015625</ele>
        <time>2012-03-17T11:56:27Z</time>
      </trkpt>
      <trkpt lat="45.51593" lon="6.18975">
        <ele>325.0629883</ele>
        <time>2012-03-17T11:56:30Z</time>
      </trkpt>
      <trkpt lat="45.51595" lon="6.18988">
        <ele>325.5435791</ele>
        <time>2012-03-17T11:56:36Z</time>
      </trkpt>
      <trkpt lat="45.51604" lon="6.18999">
        <ele>326.9855957</ele>
        <time>2012-03-17T11:56:41Z</time>
      </trkpt>
      <trkpt lat="45.51608" lon="6.19004">
        <ele>328.4276123</ele>
        <time>2012-03-17T11:56:43Z</time>
      </trkpt>
      <trkpt lat="45.51613" lon="6.19014">
        <ele>329.8695068</ele>
        <time>2012-03-17T11:56:48Z</time>
      </trkpt>
      <trkpt lat="45.51613" lon="6.19016">
        <ele>329.8695068</ele>
        <time>2012-03-17T11:56:49Z</time>
      </trkpt>
      <trkpt lat="45.51616" lon="6.19026">
        <ele>331.7921143</ele>
        <time>2012-03-17T11:56:53Z</time>
      </trkpt>
      <trkpt lat="45.51616" lon="6.19035">
        <ele>332.75354</ele>
        <time>2012-03-17T11:56:57Z</time>
      </trkpt>
      <trkpt lat="45.51623" lon="6.19049">
        <ele>333.2341309</ele>
        <time>2012-03-17T11:57:03Z</time>
      </trkpt>
      <trkpt lat="45.51629" lon="6.19062">
        <ele>334.6761475</ele>
        <time>2012-03-17T11:57:08Z</time>
      </trkpt>
      <trkpt lat="45.51633" lon="6.19074">
        <ele>335.1567383</ele>
        <time>2012-03-17T11:57:13Z</time>
      </trkpt>
      <trkpt lat="45.51636" lon="6.19086">
        <ele>336.598877</ele>
        <time>2012-03-17T11:57:19Z</time>
      </trkpt>
      <trkpt lat="45.51637" lon="6.19097">
        <ele>335.1567383</ele>
        <time>2012-03-17T11:57:24Z</time>
      </trkpt>
      <trkpt lat="45.51632" lon="6.19096">
        <ele>335.6373291</ele>
        <time>2012-03-17T11:57:29Z</time>
      </trkpt>
      <trkpt lat="45.51627" lon="6.19096">
        <ele>332.2728271</ele>
        <time>2012-03-17T11:57:38Z</time>
      </trkpt>
      <trkpt lat="45.51626" lon="6.19095">
        <ele>332.2728271</ele>
        <time>2012-03-17T11:57:40Z</time>
      </trkpt>
      <trkpt lat="45.51624" lon="6.19092">
        <ele>329.8695068</ele>
        <time>2012-03-17T11:57:42Z</time>
      </trkpt>
      <trkpt lat="45.51618" lon="6.19086">
        <ele>327.4661865</ele>
        <time>2012-03-17T11:57:49Z</time>
      </trkpt>
      <trkpt lat="45.51616" lon="6.19084">
        <ele>326.5048828</ele>
        <time>2012-03-17T11:57:51Z</time>
      </trkpt>
      <trkpt lat="45.51611" lon="6.19081">
        <ele>328.4276123</ele>
        <time>2012-03-17T11:57:57Z</time>
      </trkpt>
      <trkpt lat="45.51608" lon="6.19077">
        <ele>328.4276123</ele>
        <time>2012-03-17T11:58:01Z</time>
      </trkpt>
      <trkpt lat="45.51606" lon="6.19073">
        <ele>331.7921143</ele>
        <time>2012-03-17T11:58:05Z</time>
      </trkpt>
      <trkpt lat="45.51601" lon="6.19068">
        <ele>333.2341309</ele>
        <time>2012-03-17T11:58:10Z</time>
      </trkpt>
      <trkpt lat="45.51597" lon="6.19063">
        <ele>332.75354</ele>
        <time>2012-03-17T11:58:15Z</time>
      </trkpt>
      <trkpt lat="45.51591" lon="6.19057">
        <ele>335.1567383</ele>
        <time>2012-03-17T11:58:21Z</time>
      </trkpt>
      <trkpt lat="45.51588" lon="6.19053">
        <ele>332.75354</ele>
        <time>2012-03-17T11:58:26Z</time>
      </trkpt>
      <trkpt lat="45.51582" lon="6.19044">
        <ele>331.3115234</ele>
        <time>2012-03-17T11:58:32Z</time>
      </trkpt>
      <trkpt lat="45.51578" lon="6.19039">
        <ele>331.7921143</ele>
        <time>2012-03-17T11:58:35Z</time>
      </trkpt>
      <trkpt lat="45.51576" lon="6.19034">
        <ele>334.1954346</ele>
        <time>2012-03-17T11:58:38Z</time>
      </trkpt>
      <trkpt lat="45.51567" lon="6.19022">
        <ele>336.598877</ele>
        <time>2012-03-17T11:58:45Z</time>
      </trkpt>
      <trkpt lat="45.51561" lon="6.19012">
        <ele>340.4440918</ele>
        <time>2012-03-17T11:58:49Z</time>
      </trkpt>
      <trkpt lat="45.51554" lon="6.19003">
        <ele>341.8859863</ele>
        <time>2012-03-17T11:58:53Z</time>
      </trkpt>
      <trkpt lat="45.51543" lon="6.1899">
        <ele>342.3666992</ele>
        <time>2012-03-17T11:58:59Z</time>
      </trkpt>
      <trkpt lat="45.5154" lon="6.18986">
        <ele>342.84729</ele>
        <time>2012-03-17T11:59:01Z</time>
      </trkpt>
      <trkpt lat="45.51531" lon="6.18977">
        <ele>343.3278809</ele>
        <time>2012-03-17T11:59:06Z</time>
      </trkpt>
      <trkpt lat="45.51518" lon="6.18972">
        <ele>345.2506104</ele>
        <time>2012-03-17T11:59:12Z</time>
      </trkpt>
      <trkpt lat="45.51512" lon="6.18964">
        <ele>349.0958252</ele>
        <time>2012-03-17T11:59:17Z</time>
      </trkpt>
      <trkpt lat="45.51501" lon="6.18956">
        <ele>347.1732178</ele>
        <time>2012-03-17T11:59:23Z</time>
      </trkpt>
      <trkpt lat="45.51491" lon="6.18947">
        <ele>346.692627</ele>
        <time>2012-03-17T11:59:29Z</time>
      </trkpt>
      <trkpt lat="45.51483" lon="6.1894">
        <ele>342.84729</ele>
        <time>2012-03-17T11:59:34Z</time>
      </trkpt>
      <trkpt lat="45.51476" lon="6.18936">
        <ele>341.8859863</ele>
        <time>2012-03-17T11:59:38Z</time>
      </trkpt>
      <trkpt lat="45.51466" lon="6.18934">
        <ele>344.2894287</ele>
        <time>2012-03-17T11:59:44Z</time>
      </trkpt>
      <trkpt lat="45.51465" lon="6.18939">
        <ele>347.6539307</ele>
        <time>2012-03-17T11:59:49Z</time>
      </trkpt>
      <trkpt lat="45.51465" lon="6.18948">
        <ele>352.9411621</ele>
        <time>2012-03-17T11:59:55Z</time>
      </trkpt>
      <trkpt lat="45.51464" lon="6.18955">
        <ele>356.3057861</ele>
        <time>2012-03-17T11:59:59Z</time>
      </trkpt>
      <trkpt lat="45.51463" lon="6.18958">
        <ele>359.1896973</ele>
        <time>2012-03-17T12:00:01Z</time>
      </trkpt>
      <trkpt lat="45.51461" lon="6.18966">
        <ele>358.7089844</ele>
        <time>2012-03-17T12:00:06Z</time>
      </trkpt>
      <trkpt lat="45.51461" lon="6.18967">
        <ele>358.7089844</ele>
        <time>2012-03-17T12:00:07Z</time>
      </trkpt>
      <trkpt lat="45.51461" lon="6.18975">
        <ele>361.5931396</ele>
        <time>2012-03-17T12:00:12Z</time>
      </trkpt>
      <trkpt lat="45.51464" lon="6.18984">
        <ele>363.9963379</ele>
        <time>2012-03-17T12:00:18Z</time>
      </trkpt>
      <trkpt lat="45.51465" lon="6.18989">
        <ele>363.0350342</ele>
        <time>2012-03-17T12:00:22Z</time>
      </trkpt>
      <trkpt lat="45.51466" lon="6.18996">
        <ele>363.9963379</ele>
        <time>2012-03-17T12:00:27Z</time>
      </trkpt>
      <trkpt lat="45.5147" lon="6.19006">
        <ele>366.880249</ele>
        <time>2012-03-17T12:00:34Z</time>
      </trkpt>
      <trkpt lat="45.51472" lon="6.19011">
        <ele>368.8029785</ele>
        <time>2012-03-17T12:00:37Z</time>
      </trkpt>
      <trkpt lat="45.51473" lon="6.19018">
        <ele>373.6094971</ele>
        <time>2012-03-17T12:00:42Z</time>
      </trkpt>
      <trkpt lat="45.51474" lon="6.19019">
        <ele>374.5708008</ele>
        <time>2012-03-17T12:00:43Z</time>
      </trkpt>
      <trkpt lat="45.51477" lon="6.19027">
        <ele>376.4935303</ele>
        <time>2012-03-17T12:00:50Z</time>
      </trkpt>
      <trkpt lat="45.51479" lon="6.19032">
        <ele>376.4935303</ele>
        <time>2012-03-17T12:00:54Z</time>
      </trkpt>
      <trkpt lat="45.51485" lon="6.19041">
        <ele>379.8580322</ele>
        <time>2012-03-17T12:01:02Z</time>
      </trkpt>
      <trkpt lat="45.51485" lon="6.19047">
        <ele>381.3000488</ele>
        <time>2012-03-17T12:01:06Z</time>
      </trkpt>
      <trkpt lat="45.51486" lon="6.19057">
        <ele>382.2613525</ele>
        <time>2012-03-17T12:01:13Z</time>
      </trkpt>
      <trkpt lat="45.51486" lon="6.19061">
        <ele>382.2613525</ele>
        <time>2012-03-17T12:01:16Z</time>
      </trkpt>
      <trkpt lat="45.5149" lon="6.19067">
        <ele>384.184082</ele>
        <time>2012-03-17T12:01:22Z</time>
      </trkpt>
      <trkpt lat="45.51494" lon="6.19072">
        <ele>385.6259766</ele>
        <time>2012-03-17T12:01:26Z</time>
      </trkpt>
      <trkpt lat="45.51496" lon="6.19074">
        <ele>388.0292969</ele>
        <time>2012-03-17T12:01:28Z</time>
      </trkpt>
      <trkpt lat="45.51502" lon="6.1908">
        <ele>391.3937988</ele>
        <time>2012-03-17T12:01:35Z</time>
      </trkpt>
      <trkpt lat="45.51506" lon="6.19087">
        <ele>395.2391357</ele>
        <time>2012-03-17T12:01:42Z</time>
      </trkpt>
      <trkpt lat="45.5151" lon="6.19099">
        <ele>399.0843506</ele>
        <time>2012-03-17T12:01:49Z</time>
      </trkpt>
      <trkpt lat="45.51509" lon="6.19101">
        <ele>398.1231689</ele>
        <time>2012-03-17T12:01:50Z</time>
      </trkpt>
      <trkpt lat="45.51509" lon="6.19109">
        <ele>400.5264893</ele>
        <time>2012-03-17T12:01:55Z</time>
      </trkpt>
      <trkpt lat="45.51509" lon="6.19123">
        <ele>401.0070801</ele>
        <time>2012-03-17T12:02:01Z</time>
      </trkpt>
      <trkpt lat="45.5151" lon="6.19126">
        <ele>401.487793</ele>
        <time>2012-03-17T12:02:03Z</time>
      </trkpt>
      <trkpt lat="45.51515" lon="6.19135">
        <ele>403.4104004</ele>
        <time>2012-03-17T12:02:10Z</time>
      </trkpt>
      <trkpt lat="45.51517" lon="6.19145">
        <ele>403.8911133</ele>
        <time>2012-03-17T12:02:17Z</time>
      </trkpt>
      <trkpt lat="45.51517" lon="6.19146">
        <ele>403.8911133</ele>
        <time>2012-03-17T12:02:18Z</time>
      </trkpt>
      <trkpt lat="45.51523" lon="6.19157">
        <ele>406.2943115</ele>
        <time>2012-03-17T12:02:25Z</time>
      </trkpt>
      <trkpt lat="45.51525" lon="6.1916">
        <ele>407.7363281</ele>
        <time>2012-03-17T12:02:27Z</time>
      </trkpt>
      <trkpt lat="45.51531" lon="6.19173">
        <ele>411.581665</ele>
        <time>2012-03-17T12:02:33Z</time>
      </trkpt>
      <trkpt lat="45.51533" lon="6.19182">
        <ele>413.0235596</ele>
        <time>2012-03-17T12:02:37Z</time>
      </trkpt>
      <trkpt lat="45.51536" lon="6.19192">
        <ele>413.9848633</ele>
        <time>2012-03-17T12:02:41Z</time>
      </trkpt>
      <trkpt lat="45.51537" lon="6.19197">
        <ele>415.4268799</ele>
        <time>2012-03-17T12:02:43Z</time>
      </trkpt>
      <trkpt lat="45.51539" lon="6.1921">
        <ele>414.946167</ele>
        <time>2012-03-17T12:02:49Z</time>
      </trkpt>
      <trkpt lat="45.51547" lon="6.19221">
        <ele>416.8688965</ele>
        <time>2012-03-17T12:02:58Z</time>
      </trkpt>
      <trkpt lat="45.51551" lon="6.19227">
        <ele>417.8302002</ele>
        <time>2012-03-17T12:03:02Z</time>
      </trkpt>
      <trkpt lat="45.51554" lon="6.19241">
        <ele>417.8302002</ele>
        <time>2012-03-17T12:03:11Z</time>
      </trkpt>
      <trkpt lat="45.51557" lon="6.19246">
        <ele>418.310791</ele>
        <time>2012-03-17T12:03:15Z</time>
      </trkpt>
      <trkpt lat="45.5156" lon="6.19254">
        <ele>419.7528076</ele>
        <time>2012-03-17T12:03:20Z</time>
      </trkpt>
      <trkpt lat="45.51564" lon="6.1926">
        <ele>421.675415</ele>
        <time>2012-03-17T12:03:24Z</time>
      </trkpt>
      <trkpt lat="45.51569" lon="6.1927">
        <ele>425.0401611</ele>
        <time>2012-03-17T12:03:30Z</time>
      </trkpt>
      <trkpt lat="45.51572" lon="6.19276">
        <ele>426.4820557</ele>
        <time>2012-03-17T12:03:33Z</time>
      </trkpt>
      <trkpt lat="45.51575" lon="6.1929">
        <ele>426.9627686</ele>
        <time>2012-03-17T12:03:39Z</time>
      </trkpt>
      <trkpt lat="45.51581" lon="6.19306">
        <ele>428.4046631</ele>
        <time>2012-03-17T12:03:45Z</time>
      </trkpt>
      <trkpt lat="45.51589" lon="6.19322">
        <ele>430.8079834</ele>
        <time>2012-03-17T12:03:51Z</time>
      </trkpt>
      <trkpt lat="45.51592" lon="6.19334">
        <ele>431.769165</ele>
        <time>2012-03-17T12:03:55Z</time>
      </trkpt>
      <trkpt lat="45.516" lon="6.19351">
        <ele>433.2113037</ele>
        <time>2012-03-17T12:04:02Z</time>
      </trkpt>
      <trkpt lat="45.51604" lon="6.19362">
        <ele>437.0565186</ele>
        <time>2012-03-17T12:04:07Z</time>
      </trkpt>
      <trkpt lat="45.5161" lon="6.19373">
        <ele>439.4597168</ele>
        <time>2012-03-17T12:04:12Z</time>
      </trkpt>
      <trkpt lat="45.51614" lon="6.19382">
        <ele>439.4597168</ele>
        <time>2012-03-17T12:04:17Z</time>
      </trkpt>
      <trkpt lat="45.51621" lon="6.1939">
        <ele>441.3824463</ele>
        <time>2012-03-17T12:04:23Z</time>
      </trkpt>
      <trkpt lat="45.51621" lon="6.19395">
        <ele>440.9018555</ele>
        <time>2012-03-17T12:04:26Z</time>
      </trkpt>
      <trkpt lat="45.51625" lon="6.19405">
        <ele>443.3050537</ele>
        <time>2012-03-17T12:04:32Z</time>
      </trkpt>
      <trkpt lat="45.51626" lon="6.19416">
        <ele>440.9018555</ele>
        <time>2012-03-17T12:04:39Z</time>
      </trkpt>
      <trkpt lat="45.5163" lon="6.19424">
        <ele>441.8631592</ele>
        <time>2012-03-17T12:04:44Z</time>
      </trkpt>
      <trkpt lat="45.51631" lon="6.19431">
        <ele>442.3438721</ele>
        <time>2012-03-17T12:04:48Z</time>
      </trkpt>
      <trkpt lat="45.51633" lon="6.19436">
        <ele>442.3438721</ele>
        <time>2012-03-17T12:04:52Z</time>
      </trkpt>
      <trkpt lat="45.51633" lon="6.19444">
        <ele>443.3050537</ele>
        <time>2012-03-17T12:04:57Z</time>
      </trkpt>
      <trkpt lat="45.51634" lon="6.19452">
        <ele>442.3438721</ele>
        <time>2012-03-17T12:05:03Z</time>
      </trkpt>
      <trkpt lat="45.51634" lon="6.19456">
        <ele>441.8631592</ele>
        <time>2012-03-17T12:05:05Z</time>
      </trkpt>
      <trkpt lat="45.51637" lon="6.19461">
        <ele>442.3438721</ele>
        <time>2012-03-17T12:05:10Z</time>
      </trkpt>
      <trkpt lat="45.5164" lon="6.1947">
        <ele>442.3438721</ele>
        <time>2012-03-17T12:05:16Z</time>
      </trkpt>
      <trkpt lat="45.51647" lon="6.1948">
        <ele>443.7857666</ele>
        <time>2012-03-17T12:05:23Z</time>
      </trkpt>
      <trkpt lat="45.51649" lon="6.19487">
        <ele>445.2276611</ele>
        <time>2012-03-17T12:05:29Z</time>
      </trkpt>
      <trkpt lat="45.51654" lon="6.19498">
        <ele>445.708374</ele>
        <time>2012-03-17T12:05:36Z</time>
      </trkpt>
      <trkpt lat="45.51654" lon="6.19503">
        <ele>447.6309814</ele>
        <time>2012-03-17T12:05:40Z</time>
      </trkpt>
      <trkpt lat="45.51654" lon="6.19505">
        <ele>447.1502686</ele>
        <time>2012-03-17T12:05:42Z</time>
      </trkpt>
      <trkpt lat="45.51653" lon="6.19511">
        <ele>449.072998</ele>
        <time>2012-03-17T12:05:48Z</time>
      </trkpt>
      <trkpt lat="45.51652" lon="6.19518">
        <ele>450.0344238</ele>
        <time>2012-03-17T12:05:54Z</time>
      </trkpt>
      <trkpt lat="45.51654" lon="6.19525">
        <ele>452.4376221</ele>
        <time>2012-03-17T12:05:59Z</time>
      </trkpt>
      <trkpt lat="45.51657" lon="6.1953">
        <ele>453.3989258</ele>
        <time>2012-03-17T12:06:03Z</time>
      </trkpt>
      <trkpt lat="45.51662" lon="6.19536">
        <ele>454.8408203</ele>
        <time>2012-03-17T12:06:08Z</time>
      </trkpt>
      <trkpt lat="45.5167" lon="6.19547">
        <ele>462.0507813</ele>
        <time>2012-03-17T12:06:16Z</time>
      </trkpt>
      <trkpt lat="45.51667" lon="6.19553">
        <ele>463.9733887</ele>
        <time>2012-03-17T12:06:21Z</time>
      </trkpt>
      <trkpt lat="45.51663" lon="6.19558">
        <ele>462.5313721</ele>
        <time>2012-03-17T12:06:25Z</time>
      </trkpt>
      <trkpt lat="45.5166" lon="6.19563">
        <ele>462.5313721</ele>
        <time>2012-03-17T12:06:31Z</time>
      </trkpt>
      <trkpt lat="45.5166" lon="6.19564">
        <ele>463.4927979</ele>
        <time>2012-03-17T12:06:32Z</time>
      </trkpt>
      <trkpt lat="45.51656" lon="6.19568">
        <ele>463.4927979</ele>
        <time>2012-03-17T12:06:37Z</time>
      </trkpt>
      <trkpt lat="45.51654" lon="6.19565">
        <ele>464.4541016</ele>
        <time>2012-03-17T12:06:43Z</time>
      </trkpt>
      <trkpt lat="45.51655" lon="6.19561">
        <ele>471.1833496</ele>
        <time>2012-03-17T12:06:53Z</time>
      </trkpt>
      <trkpt lat="45.51657" lon="6.1956">
        <ele>469.2607422</ele>
        <time>2012-03-17T12:07:02Z</time>
      </trkpt>
      <trkpt lat="45.51659" lon="6.19556">
        <ele>466.376709</ele>
        <time>2012-03-17T12:07:07Z</time>
      </trkpt>
      <trkpt lat="45.51662" lon="6.19561">
        <ele>462.0507813</ele>
        <time>2012-03-17T12:07:24Z</time>
      </trkpt>
      <trkpt lat="45.51659" lon="6.19561">
        <ele>459.1668701</ele>
        <time>2012-03-17T12:07:28Z</time>
      </trkpt>
      <trkpt lat="45.51654" lon="6.19562">
        <ele>456.7635498</ele>
        <time>2012-03-17T12:07:32Z</time>
      </trkpt>
      <trkpt lat="45.51649" lon="6.19561">
        <ele>451.9570313</ele>
        <time>2012-03-17T12:07:37Z</time>
      </trkpt>
      <trkpt lat="45.51647" lon="6.19562">
        <ele>450.9956055</ele>
        <time>2012-03-17T12:07:40Z</time>
      </trkpt>
      <trkpt lat="45.51643" lon="6.19563">
        <ele>450.0344238</ele>
        <time>2012-03-17T12:07:44Z</time>
      </trkpt>
      <trkpt lat="45.51641" lon="6.19561">
        <ele>451.9570313</ele>
        <time>2012-03-17T12:07:47Z</time>
      </trkpt>
      <trkpt lat="45.51633" lon="6.19557">
        <ele>449.5537109</ele>
        <time>2012-03-17T12:07:54Z</time>
      </trkpt>
      <trkpt lat="45.51631" lon="6.19557">
        <ele>446.6696777</ele>
        <time>2012-03-17T12:07:56Z</time>
      </trkpt>
      <trkpt lat="45.51625" lon="6.19552">
        <ele>439.4597168</ele>
        <time>2012-03-17T12:08:02Z</time>
      </trkpt>
      <trkpt lat="45.51616" lon="6.1955">
        <ele>442.3438721</ele>
        <time>2012-03-17T12:08:09Z</time>
      </trkpt>
      <trkpt lat="45.51615" lon="6.19549">
        <ele>442.3438721</ele>
        <time>2012-03-17T12:08:10Z</time>
      </trkpt>
      <trkpt lat="45.51611" lon="6.19542">
        <ele>442.3438721</ele>
        <time>2012-03-17T12:08:15Z</time>
      </trkpt>
      <trkpt lat="45.51604" lon="6.19535">
        <ele>442.3438721</ele>
        <time>2012-03-17T12:08:20Z</time>
      </trkpt>
      <trkpt lat="45.51597" lon="6.19527">
        <ele>445.708374</ele>
        <time>2012-03-17T12:08:24Z</time>
      </trkpt>
      <trkpt lat="45.51588" lon="6.19519">
        <ele>450.0344238</ele>
        <time>2012-03-17T12:08:30Z</time>
      </trkpt>
      <trkpt lat="45.51579" lon="6.1951">
        <ele>459.1668701</ele>
        <time>2012-03-17T12:08:35Z</time>
      </trkpt>
      <trkpt lat="45.51576" lon="6.19507">
        <ele>462.0507813</ele>
        <time>2012-03-17T12:08:37Z</time>
      </trkpt>
      <trkpt lat="45.51572" lon="6.19502">
        <ele>460.6087646</ele>
        <time>2012-03-17T12:08:40Z</time>
      </trkpt>
      <trkpt lat="45.5157" lon="6.19498">
        <ele>468.7800293</ele>
        <time>2012-03-17T12:08:45Z</time>
      </trkpt>
      <trkpt lat="45.51567" lon="6.19497">
        <ele>467.3381348</ele>
        <time>2012-03-17T12:08:47Z</time>
      </trkpt>
      <trkpt lat="45.5156" lon="6.19495">
        <ele>462.5313721</ele>
        <time>2012-03-17T12:08:53Z</time>
      </trkpt>
      <trkpt lat="45.51556" lon="6.19492">
        <ele>465.4155273</ele>
        <time>2012-03-17T12:08:57Z</time>
      </trkpt>
      <trkpt lat="45.51554" lon="6.1949">
        <ele>466.8574219</ele>
        <time>2012-03-17T12:08:59Z</time>
      </trkpt>
      <trkpt lat="45.5155" lon="6.19483">
        <ele>468.7800293</ele>
        <time>2012-03-17T12:09:04Z</time>
      </trkpt>
      <trkpt lat="45.51544" lon="6.19471">
        <ele>471.1833496</ele>
        <time>2012-03-17T12:09:13Z</time>
      </trkpt>
      <trkpt lat="45.51543" lon="6.19471">
        <ele>471.1833496</ele>
        <time>2012-03-17T12:09:14Z</time>
      </trkpt>
      <trkpt lat="45.51541" lon="6.19468">
        <ele>471.1833496</ele>
        <time>2012-03-17T12:09:17Z</time>
      </trkpt>
      <trkpt lat="45.51539" lon="6.19466">
        <ele>473.1060791</ele>
        <time>2012-03-17T12:09:20Z</time>
      </trkpt>
      <trkpt lat="45.51536" lon="6.19462">
        <ele>475.5092773</ele>
        <time>2012-03-17T12:09:25Z</time>
      </trkpt>
      <trkpt lat="45.51533" lon="6.1946">
        <ele>476.4705811</ele>
        <time>2012-03-17T12:09:29Z</time>
      </trkpt>
      <trkpt lat="45.51529" lon="6.19458">
        <ele>476.9512939</ele>
        <time>2012-03-17T12:09:33Z</time>
      </trkpt>
      <trkpt lat="45.51528" lon="6.19453">
        <ele>480.315918</ele>
        <time>2012-03-17T12:09:38Z</time>
      </trkpt>
      <trkpt lat="45.51526" lon="6.1945">
        <ele>480.315918</ele>
        <time>2012-03-17T12:09:41Z</time>
      </trkpt>
      <trkpt lat="45.51521" lon="6.19442">
        <ele>479.835083</ele>
        <time>2012-03-17T12:09:46Z</time>
      </trkpt>
      <trkpt lat="45.51513" lon="6.19432">
        <ele>483.6804199</ele>
        <time>2012-03-17T12:09:53Z</time>
      </trkpt>
      <trkpt lat="45.51508" lon="6.19426">
        <ele>480.7966309</ele>
        <time>2012-03-17T12:09:59Z</time>
      </trkpt>
      <trkpt lat="45.51503" lon="6.19421">
        <ele>478.8739014</ele>
        <time>2012-03-17T12:10:04Z</time>
      </trkpt>
      <trkpt lat="45.51499" lon="6.19418">
        <ele>477.4318848</ele>
        <time>2012-03-17T12:10:08Z</time>
      </trkpt>
      <trkpt lat="45.51493" lon="6.19414">
        <ele>479.3544922</ele>
        <time>2012-03-17T12:10:14Z</time>
      </trkpt>
      <trkpt lat="45.51491" lon="6.19413">
        <ele>480.7966309</ele>
        <time>2012-03-17T12:10:16Z</time>
      </trkpt>
      <trkpt lat="45.51485" lon="6.19403">
        <ele>486.0837402</ele>
        <time>2012-03-17T12:10:22Z</time>
      </trkpt>
      <trkpt lat="45.51481" lon="6.19396">
        <ele>489.9290771</ele>
        <time>2012-03-17T12:10:26Z</time>
      </trkpt>
      <trkpt lat="45.51477" lon="6.19391">
        <ele>495.6968994</ele>
        <time>2012-03-17T12:10:29Z</time>
      </trkpt>
      <trkpt lat="45.51472" lon="6.19387">
        <ele>498.1003418</ele>
        <time>2012-03-17T12:10:36Z</time>
      </trkpt>
      <trkpt lat="45.51471" lon="6.19386">
        <ele>496.6583252</ele>
        <time>2012-03-17T12:10:37Z</time>
      </trkpt>
      <trkpt lat="45.51469" lon="6.19381">
        <ele>496.1777344</ele>
        <time>2012-03-17T12:10:41Z</time>
      </trkpt>
      <trkpt lat="45.51464" lon="6.19374">
        <ele>494.2550049</ele>
        <time>2012-03-17T12:10:46Z</time>
      </trkpt>
      <trkpt lat="45.5146" lon="6.19371">
        <ele>496.6583252</ele>
        <time>2012-03-17T12:10:51Z</time>
      </trkpt>
      <trkpt lat="45.51457" lon="6.19367">
        <ele>497.6196289</ele>
        <time>2012-03-17T12:10:55Z</time>
      </trkpt>
      <trkpt lat="45.51451" lon="6.19361">
        <ele>495.6968994</ele>
        <time>2012-03-17T12:11:00Z</time>
      </trkpt>
      <trkpt lat="45.5144" lon="6.19352">
        <ele>497.138916</ele>
        <time>2012-03-17T12:11:07Z</time>
      </trkpt>
      <trkpt lat="45.51437" lon="6.19348">
        <ele>498.1003418</ele>
        <time>2012-03-17T12:11:11Z</time>
      </trkpt>
      <trkpt lat="45.51432" lon="6.19342">
        <ele>499.0615234</ele>
        <time>2012-03-17T12:11:18Z</time>
      </trkpt>
      <trkpt lat="45.51429" lon="6.1934">
        <ele>499.0615234</ele>
        <time>2012-03-17T12:11:22Z</time>
      </trkpt>
      <trkpt lat="45.51423" lon="6.1934">
        <ele>492.3323975</ele>
        <time>2012-03-17T12:11:27Z</time>
      </trkpt>
      <trkpt lat="45.51417" lon="6.19339">
        <ele>485.1224365</ele>
        <time>2012-03-17T12:11:33Z</time>
      </trkpt>
      <trkpt lat="45.51415" lon="6.19336">
        <ele>485.1224365</ele>
        <time>2012-03-17T12:11:36Z</time>
      </trkpt>
      <trkpt lat="45.5141" lon="6.19334">
        <ele>482.7192383</ele>
        <time>2012-03-17T12:11:42Z</time>
      </trkpt>
      <trkpt lat="45.51407" lon="6.19331">
        <ele>486.0837402</ele>
        <time>2012-03-17T12:11:48Z</time>
      </trkpt>
      <trkpt lat="45.51405" lon="6.19331">
        <ele>485.1224365</ele>
        <time>2012-03-17T12:11:50Z</time>
      </trkpt>
      <trkpt lat="45.514" lon="6.19327">
        <ele>483.6804199</ele>
        <time>2012-03-17T12:11:54Z</time>
      </trkpt>
      <trkpt lat="45.51396" lon="6.19322">
        <ele>480.315918</ele>
        <time>2012-03-17T12:12:00Z</time>
      </trkpt>
      <trkpt lat="45.51393" lon="6.19318">
        <ele>479.3544922</ele>
        <time>2012-03-17T12:12:05Z</time>
      </trkpt>
      <trkpt lat="45.51387" lon="6.19313">
        <ele>476.9512939</ele>
        <time>2012-03-17T12:12:12Z</time>
      </trkpt>
      <trkpt lat="45.5138" lon="6.19304">
        <ele>478.3931885</ele>
        <time>2012-03-17T12:12:20Z</time>
      </trkpt>
      <trkpt lat="45.51378" lon="6.193">
        <ele>479.835083</ele>
        <time>2012-03-17T12:12:22Z</time>
      </trkpt>
      <trkpt lat="45.51375" lon="6.19294">
        <ele>485.1224365</ele>
        <time>2012-03-17T12:12:27Z</time>
      </trkpt>
      <trkpt lat="45.51372" lon="6.19287">
        <ele>494.7355957</ele>
        <time>2012-03-17T12:12:33Z</time>
      </trkpt>
      <trkpt lat="45.51371" lon="6.19284">
        <ele>497.6196289</ele>
        <time>2012-03-17T12:12:35Z</time>
      </trkpt>
      <trkpt lat="45.51366" lon="6.19282">
        <ele>498.1003418</ele>
        <time>2012-03-17T12:12:42Z</time>
      </trkpt>
      <trkpt lat="45.51363" lon="6.19281">
        <ele>498.5809326</ele>
        <time>2012-03-17T12:12:47Z</time>
      </trkpt>
      <trkpt lat="45.51357" lon="6.19277">
        <ele>496.1777344</ele>
        <time>2012-03-17T12:12:52Z</time>
      </trkpt>
      <trkpt lat="45.51355" lon="6.19276">
        <ele>495.6968994</ele>
        <time>2012-03-17T12:12:55Z</time>
      </trkpt>
      <trkpt lat="45.51352" lon="6.19279">
        <ele>496.1777344</ele>
        <time>2012-03-17T12:13:00Z</time>
      </trkpt>
      <trkpt lat="45.51347" lon="6.19278">
        <ele>492.8129883</ele>
        <time>2012-03-17T12:13:07Z</time>
      </trkpt>
      <trkpt lat="45.51344" lon="6.19282">
        <ele>494.7355957</ele>
        <time>2012-03-17T12:13:14Z</time>
      </trkpt>
      <trkpt lat="45.51342" lon="6.19283">
        <ele>502.9067383</ele>
        <time>2012-03-17T12:13:26Z</time>
      </trkpt>
      <trkpt lat="45.51341" lon="6.19282">
        <ele>507.2327881</ele>
        <time>2012-03-17T12:13:37Z</time>
      </trkpt>
      <trkpt lat="45.51341" lon="6.19281">
        <ele>507.713501</ele>
        <time>2012-03-17T12:13:52Z</time>
      </trkpt>
      <trkpt lat="45.51338" lon="6.19283">
        <ele>504.348877</ele>
        <time>2012-03-17T12:13:57Z</time>
      </trkpt>
      <trkpt lat="45.51337" lon="6.19287">
        <ele>505.3101807</ele>
        <time>2012-03-17T12:14:02Z</time>
      </trkpt>
      <trkpt lat="45.51331" lon="6.19298">
        <ele>504.8294678</ele>
        <time>2012-03-17T12:14:09Z</time>
      </trkpt>
      <trkpt lat="45.51331" lon="6.193">
        <ele>504.8294678</ele>
        <time>2012-03-17T12:14:11Z</time>
      </trkpt>
      <trkpt lat="45.51331" lon="6.19313">
        <ele>507.713501</ele>
        <time>2012-03-17T12:14:20Z</time>
      </trkpt>
      <trkpt lat="45.51331" lon="6.19322">
        <ele>507.713501</ele>
        <time>2012-03-17T12:14:26Z</time>
      </trkpt>
      <trkpt lat="45.51331" lon="6.19325">
        <ele>509.1553955</ele>
        <time>2012-03-17T12:14:28Z</time>
      </trkpt>
      <trkpt lat="45.51331" lon="6.19334">
        <ele>510.1166992</ele>
        <time>2012-03-17T12:14:34Z</time>
      </trkpt>
      <trkpt lat="45.51329" lon="6.19345">
        <ele>505.7908936</ele>
        <time>2012-03-17T12:14:42Z</time>
      </trkpt>
      <trkpt lat="45.51326" lon="6.1935">
        <ele>508.1940918</ele>
        <time>2012-03-17T12:14:44Z</time>
      </trkpt>
      <trkpt lat="45.51323" lon="6.19359">
        <ele>507.713501</ele>
        <time>2012-03-17T12:14:49Z</time>
      </trkpt>
      <trkpt lat="45.51322" lon="6.19366">
        <ele>510.59729</ele>
        <time>2012-03-17T12:14:55Z</time>
      </trkpt>
      <trkpt lat="45.51324" lon="6.19379">
        <ele>533.6689453</ele>
        <time>2012-03-17T12:15:11Z</time>
      </trkpt>
      <trkpt lat="45.51332" lon="6.19376">
        <ele>533.6689453</ele>
        <time>2012-03-17T12:15:16Z</time>
      </trkpt>
      <trkpt lat="45.51337" lon="6.19374">
        <ele>537.0336914</ele>
        <time>2012-03-17T12:15:19Z</time>
      </trkpt>
      <trkpt lat="45.51344" lon="6.19378">
        <ele>545.204834</ele>
        <time>2012-03-17T12:15:27Z</time>
      </trkpt>
      <trkpt lat="45.51352" lon="6.19381">
        <ele>556.7407227</ele>
        <time>2012-03-17T12:15:37Z</time>
      </trkpt>
      <trkpt lat="45.51354" lon="6.19384">
        <ele>558.6633301</ele>
        <time>2012-03-17T12:15:41Z</time>
      </trkpt>
      <trkpt lat="45.51354" lon="6.19385">
        <ele>559.144043</ele>
        <time>2012-03-17T12:15:42Z</time>
      </trkpt>
      <trkpt lat="45.51354" lon="6.19387">
        <ele>557.7021484</ele>
        <time>2012-03-17T12:15:44Z</time>
      </trkpt>
      <trkpt lat="45.51354" lon="6.19394">
        <ele>558.6633301</ele>
        <time>2012-03-17T12:15:51Z</time>
      </trkpt>
      <trkpt lat="45.51353" lon="6.19396">
        <ele>559.144043</ele>
        <time>2012-03-17T12:15:53Z</time>
      </trkpt>
      <trkpt lat="45.51347" lon="6.19408">
        <ele>552.8952637</ele>
        <time>2012-03-17T12:16:04Z</time>
      </trkpt>
      <trkpt lat="45.51345" lon="6.19418">
        <ele>555.7792969</ele>
        <time>2012-03-17T12:16:19Z</time>
      </trkpt>
      <trkpt lat="45.51345" lon="6.19422">
        <ele>553.3759766</ele>
        <time>2012-03-17T12:16:25Z</time>
      </trkpt>
      <trkpt lat="45.51344" lon="6.19428">
        <ele>552.4145508</ele>
        <time>2012-03-17T12:16:30Z</time>
      </trkpt>
      <trkpt lat="45.51341" lon="6.19433">
        <ele>545.204834</ele>
        <time>2012-03-17T12:16:35Z</time>
      </trkpt>
      <trkpt lat="45.51338" lon="6.19438">
        <ele>538.475708</ele>
        <time>2012-03-17T12:16:39Z</time>
      </trkpt>
      <trkpt lat="45.51335" lon="6.19445">
        <ele>534.6303711</ele>
        <time>2012-03-17T12:16:46Z</time>
      </trkpt>
      <trkpt lat="45.51334" lon="6.19453">
        <ele>533.6689453</ele>
        <time>2012-03-17T12:16:51Z</time>
      </trkpt>
      <trkpt lat="45.51333" lon="6.19457">
        <ele>531.7463379</ele>
        <time>2012-03-17T12:16:55Z</time>
      </trkpt>
      <trkpt lat="45.51332" lon="6.19463">
        <ele>527.4204102</ele>
        <time>2012-03-17T12:17:00Z</time>
      </trkpt>
      <trkpt lat="45.51331" lon="6.19468">
        <ele>532.7077637</ele>
        <time>2012-03-17T12:17:10Z</time>
      </trkpt>
      <trkpt lat="45.51329" lon="6.19466">
        <ele>537.5142822</ele>
        <time>2012-03-17T12:17:20Z</time>
      </trkpt>
      <trkpt lat="45.51334" lon="6.19466">
        <ele>542.3209229</ele>
        <time>2012-03-17T12:17:29Z</time>
      </trkpt>
      <trkpt lat="45.51336" lon="6.19464">
        <ele>543.2821045</ele>
        <time>2012-03-17T12:17:34Z</time>
      </trkpt>
      <trkpt lat="45.51337" lon="6.19464">
        <ele>543.2821045</ele>
        <time>2012-03-17T12:17:36Z</time>
      </trkpt>
      <trkpt lat="45.51339" lon="6.19465">
        <ele>543.7628174</ele>
        <time>2012-03-17T12:17:39Z</time>
      </trkpt>
      <trkpt lat="45.51341" lon="6.19469">
        <ele>542.3209229</ele>
        <time>2012-03-17T12:17:43Z</time>
      </trkpt>
      <trkpt lat="45.51341" lon="6.19471">
        <ele>541.3594971</ele>
        <time>2012-03-17T12:17:45Z</time>
      </trkpt>
      <trkpt lat="45.51343" lon="6.19475">
        <ele>537.5142822</ele>
        <time>2012-03-17T12:17:52Z</time>
      </trkpt>
      <trkpt lat="45.51344" lon="6.19476">
        <ele>536.0723877</ele>
        <time>2012-03-17T12:17:53Z</time>
      </trkpt>
      <trkpt lat="45.51343" lon="6.19485">
        <ele>528.3818359</ele>
        <time>2012-03-17T12:18:00Z</time>
      </trkpt>
      <trkpt lat="45.51343" lon="6.19493">
        <ele>524.0557861</ele>
        <time>2012-03-17T12:18:08Z</time>
      </trkpt>
      <trkpt lat="45.51343" lon="6.19497">
        <ele>522.1331787</ele>
        <time>2012-03-17T12:18:11Z</time>
      </trkpt>
      <trkpt lat="45.51343" lon="6.19501">
        <ele>524.0557861</ele>
        <time>2012-03-17T12:18:14Z</time>
      </trkpt>
      <trkpt lat="45.51342" lon="6.19504">
        <ele>526.9398193</ele>
        <time>2012-03-17T12:18:17Z</time>
      </trkpt>
      <trkpt lat="45.51343" lon="6.19505">
        <ele>529.3431396</ele>
        <time>2012-03-17T12:18:20Z</time>
      </trkpt>
      <trkpt lat="45.51345" lon="6.19502">
        <ele>553.8566895</ele>
        <time>2012-03-17T12:18:29Z</time>
      </trkpt>
      <trkpt lat="45.51343" lon="6.1951">
        <ele>554.3374023</ele>
        <time>2012-03-17T12:18:35Z</time>
      </trkpt>
      <trkpt lat="45.51344" lon="6.19511">
        <ele>564.4311523</ele>
        <time>2012-03-17T12:18:43Z</time>
      </trkpt>
      <trkpt lat="45.51345" lon="6.19511">
        <ele>567.3151855</ele>
        <time>2012-03-17T12:18:45Z</time>
      </trkpt>
      <trkpt lat="45.51348" lon="6.19507">
        <ele>569.237793</ele>
        <time>2012-03-17T12:18:49Z</time>
      </trkpt>
      <trkpt lat="45.51352" lon="6.19502">
        <ele>572.6025391</ele>
        <time>2012-03-17T12:18:54Z</time>
      </trkpt>
      <trkpt lat="45.51358" lon="6.19499">
        <ele>576.9284668</ele>
        <time>2012-03-17T12:19:03Z</time>
      </trkpt>
      <trkpt lat="45.51361" lon="6.19498">
        <ele>578.8510742</ele>
        <time>2012-03-17T12:19:06Z</time>
      </trkpt>
      <trkpt lat="45.51364" lon="6.19501">
        <ele>581.2543945</ele>
        <time>2012-03-17T12:19:12Z</time>
      </trkpt>
      <trkpt lat="45.51365" lon="6.19506">
        <ele>583.6574707</ele>
        <time>2012-03-17T12:19:17Z</time>
      </trkpt>
      <trkpt lat="45.51364" lon="6.19512">
        <ele>579.8122559</ele>
        <time>2012-03-17T12:19:23Z</time>
      </trkpt>
      <trkpt lat="45.51362" lon="6.19518">
        <ele>575.967041</ele>
        <time>2012-03-17T12:19:30Z</time>
      </trkpt>
      <trkpt lat="45.51362" lon="6.19521">
        <ele>576.4477539</ele>
        <time>2012-03-17T12:19:32Z</time>
      </trkpt>
      <trkpt lat="45.51363" lon="6.19533">
        <ele>578.8510742</ele>
        <time>2012-03-17T12:19:40Z</time>
      </trkpt>
      <trkpt lat="45.51362" lon="6.19546">
        <ele>582.2155762</ele>
        <time>2012-03-17T12:19:49Z</time>
      </trkpt>
      <trkpt lat="45.51362" lon="6.19554">
        <ele>582.6962891</ele>
        <time>2012-03-17T12:19:55Z</time>
      </trkpt>
      <trkpt lat="45.51359" lon="6.19557">
        <ele>583.6574707</ele>
        <time>2012-03-17T12:20:02Z</time>
      </trkpt>
      <trkpt lat="45.51359" lon="6.1956">
        <ele>580.2929688</ele>
        <time>2012-03-17T12:20:11Z</time>
      </trkpt>
      <trkpt lat="45.51359" lon="6.19562">
        <ele>581.7348633</ele>
        <time>2012-03-17T12:20:16Z</time>
      </trkpt>
      <trkpt lat="45.51359" lon="6.1957">
        <ele>581.7348633</ele>
        <time>2012-03-17T12:20:24Z</time>
      </trkpt>
      <trkpt lat="45.51359" lon="6.19576">
        <ele>584.1381836</ele>
        <time>2012-03-17T12:20:30Z</time>
      </trkpt>
      <trkpt lat="45.51358" lon="6.19581">
        <ele>584.1381836</ele>
        <time>2012-03-17T12:20:35Z</time>
      </trkpt>
      <trkpt lat="45.51359" lon="6.19586">
        <ele>587.0219727</ele>
        <time>2012-03-17T12:20:41Z</time>
      </trkpt>
      <trkpt lat="45.5136" lon="6.19593">
        <ele>584.6188965</ele>
        <time>2012-03-17T12:20:46Z</time>
      </trkpt>
      <trkpt lat="45.51361" lon="6.196">
        <ele>579.331543</ele>
        <time>2012-03-17T12:20:50Z</time>
      </trkpt>
      <trkpt lat="45.5136" lon="6.19604">
        <ele>579.8122559</ele>
        <time>2012-03-17T12:20:54Z</time>
      </trkpt>
      <trkpt lat="45.51361" lon="6.19608">
        <ele>582.2155762</ele>
        <time>2012-03-17T12:20:57Z</time>
      </trkpt>
      <trkpt lat="45.51362" lon="6.19612">
        <ele>589.4255371</ele>
        <time>2012-03-17T12:21:03Z</time>
      </trkpt>
      <trkpt lat="45.51365" lon="6.19618">
        <ele>599.5192871</ele>
        <time>2012-03-17T12:21:11Z</time>
      </trkpt>
      <trkpt lat="45.51368" lon="6.19624">
        <ele>600.9611816</ele>
        <time>2012-03-17T12:21:15Z</time>
      </trkpt>
      <trkpt lat="45.51365" lon="6.19629">
        <ele>598.5578613</ele>
        <time>2012-03-17T12:21:21Z</time>
      </trkpt>
      <trkpt lat="45.51364" lon="6.19631">
        <ele>597.5966797</ele>
        <time>2012-03-17T12:21:23Z</time>
      </trkpt>
      <trkpt lat="45.51358" lon="6.19639">
        <ele>595.6740723</ele>
        <time>2012-03-17T12:21:30Z</time>
      </trkpt>
      <trkpt lat="45.51354" lon="6.1964">
        <ele>597.1159668</ele>
        <time>2012-03-17T12:21:34Z</time>
      </trkpt>
      <trkpt lat="45.51353" lon="6.19646">
        <ele>600</ele>
        <time>2012-03-17T12:21:39Z</time>
      </trkpt>
      <trkpt lat="45.51355" lon="6.19653">
        <ele>606.729248</ele>
        <time>2012-03-17T12:21:48Z</time>
      </trkpt>
      <trkpt lat="45.51353" lon="6.19658">
        <ele>609.6132813</ele>
        <time>2012-03-17T12:21:54Z</time>
      </trkpt>
      <trkpt lat="45.51348" lon="6.19667">
        <ele>609.6132813</ele>
        <time>2012-03-17T12:22:02Z</time>
      </trkpt>
      <trkpt lat="45.51346" lon="6.19672">
        <ele>608.6518555</ele>
        <time>2012-03-17T12:22:06Z</time>
      </trkpt>
      <trkpt lat="45.51346" lon="6.19681">
        <ele>609.6132813</ele>
        <time>2012-03-17T12:22:14Z</time>
      </trkpt>
      <trkpt lat="45.51344" lon="6.19685">
        <ele>609.6132813</ele>
        <time>2012-03-17T12:22:17Z</time>
      </trkpt>
      <trkpt lat="45.51342" lon="6.19692">
        <ele>610.09375</ele>
        <time>2012-03-17T12:22:21Z</time>
      </trkpt>
      <trkpt lat="45.51339" lon="6.19701">
        <ele>610.09375</ele>
        <time>2012-03-17T12:22:28Z</time>
      </trkpt>
      <trkpt lat="45.51339" lon="6.19705">
        <ele>608.6518555</ele>
        <time>2012-03-17T12:22:30Z</time>
      </trkpt>
      <trkpt lat="45.51337" lon="6.19712">
        <ele>611.5358887</ele>
        <time>2012-03-17T12:22:36Z</time>
      </trkpt>
      <trkpt lat="45.51334" lon="6.19716">
        <ele>613.4584961</ele>
        <time>2012-03-17T12:22:40Z</time>
      </trkpt>
      <trkpt lat="45.51334" lon="6.19719">
        <ele>614.9003906</ele>
        <time>2012-03-17T12:22:47Z</time>
      </trkpt>
      <trkpt lat="45.51336" lon="6.19721">
        <ele>617.7841797</ele>
        <time>2012-03-17T12:22:57Z</time>
      </trkpt>
      <trkpt lat="45.51337" lon="6.1973">
        <ele>619.2263184</ele>
        <time>2012-03-17T12:23:06Z</time>
      </trkpt>
      <trkpt lat="45.51338" lon="6.19731">
        <ele>619.2263184</ele>
        <time>2012-03-17T12:23:07Z</time>
      </trkpt>
      <trkpt lat="45.51345" lon="6.19733">
        <ele>622.1103516</ele>
        <time>2012-03-17T12:23:12Z</time>
      </trkpt>
      <trkpt lat="45.51356" lon="6.19733">
        <ele>624.5136719</ele>
        <time>2012-03-17T12:23:21Z</time>
      </trkpt>
      <trkpt lat="45.51367" lon="6.19732">
        <ele>628.3588867</ele>
        <time>2012-03-17T12:23:29Z</time>
      </trkpt>
      <trkpt lat="45.51375" lon="6.19731">
        <ele>630.762207</ele>
        <time>2012-03-17T12:23:35Z</time>
      </trkpt>
      <trkpt lat="45.51383" lon="6.19734">
        <ele>631.2429199</ele>
        <time>2012-03-17T12:23:42Z</time>
      </trkpt>
      <trkpt lat="45.51389" lon="6.19742">
        <ele>631.7233887</ele>
        <time>2012-03-17T12:23:49Z</time>
      </trkpt>
      <trkpt lat="45.51391" lon="6.19748">
        <ele>632.2041016</ele>
        <time>2012-03-17T12:23:53Z</time>
      </trkpt>
      <trkpt lat="45.5139" lon="6.19751">
        <ele>632.6848145</ele>
        <time>2012-03-17T12:23:55Z</time>
      </trkpt>
      <trkpt lat="45.51389" lon="6.19759">
        <ele>631.7233887</ele>
        <time>2012-03-17T12:24:00Z</time>
      </trkpt>
      <trkpt lat="45.5139" lon="6.19768">
        <ele>630.762207</ele>
        <time>2012-03-17T12:24:06Z</time>
      </trkpt>
      <trkpt lat="45.5139" lon="6.19778">
        <ele>630.762207</ele>
        <time>2012-03-17T12:24:12Z</time>
      </trkpt>
      <trkpt lat="45.51391" lon="6.19782">
        <ele>632.2041016</ele>
        <time>2012-03-17T12:24:17Z</time>
      </trkpt>
      <trkpt lat="45.51397" lon="6.19795">
        <ele>631.7233887</ele>
        <time>2012-03-17T12:24:25Z</time>
      </trkpt>
      <trkpt lat="45.51399" lon="6.19799">
        <ele>633.1652832</ele>
        <time>2012-03-17T12:24:28Z</time>
      </trkpt>
      <trkpt lat="45.51407" lon="6.19808">
        <ele>634.126709</ele>
        <time>2012-03-17T12:24:35Z</time>
      </trkpt>
      <trkpt lat="45.51414" lon="6.19815">
        <ele>636.5302734</ele>
        <time>2012-03-17T12:24:41Z</time>
      </trkpt>
      <trkpt lat="45.51417" lon="6.1982">
        <ele>636.0495605</ele>
        <time>2012-03-17T12:24:45Z</time>
      </trkpt>
      <trkpt lat="45.51419" lon="6.19825">
        <ele>636.5302734</ele>
        <time>2012-03-17T12:24:49Z</time>
      </trkpt>
      <trkpt lat="45.51413" lon="6.19825">
        <ele>633.6459961</ele>
        <time>2012-03-17T12:24:54Z</time>
      </trkpt>
      <trkpt lat="45.51401" lon="6.19815">
        <ele>632.6848145</ele>
        <time>2012-03-17T12:25:01Z</time>
      </trkpt>
      <trkpt lat="45.51392" lon="6.19809">
        <ele>630.2814941</ele>
        <time>2012-03-17T12:25:06Z</time>
      </trkpt>
      <trkpt lat="45.51382" lon="6.19804">
        <ele>629.8007813</ele>
        <time>2012-03-17T12:25:11Z</time>
      </trkpt>
      <trkpt lat="45.51372" lon="6.19801">
        <ele>627.3977051</ele>
        <time>2012-03-17T12:25:16Z</time>
      </trkpt>
      <trkpt lat="45.51359" lon="6.19802">
        <ele>624.032959</ele>
        <time>2012-03-17T12:25:22Z</time>
      </trkpt>
      <trkpt lat="45.51344" lon="6.19802">
        <ele>622.1103516</ele>
        <time>2012-03-17T12:25:29Z</time>
      </trkpt>
      <trkpt lat="45.51332" lon="6.19798">
        <ele>619.7070313</ele>
        <time>2012-03-17T12:25:35Z</time>
      </trkpt>
      <trkpt lat="45.5132" lon="6.19796">
        <ele>617.7841797</ele>
        <time>2012-03-17T12:25:41Z</time>
      </trkpt>
      <trkpt lat="45.51313" lon="6.19797">
        <ele>616.3422852</ele>
        <time>2012-03-17T12:25:44Z</time>
      </trkpt>
      <trkpt lat="45.51302" lon="6.19807">
        <ele>614.4196777</ele>
        <time>2012-03-17T12:25:51Z</time>
      </trkpt>
      <trkpt lat="45.51297" lon="6.19812">
        <ele>618.7456055</ele>
        <time>2012-03-17T12:25:55Z</time>
      </trkpt>
      <trkpt lat="45.51295" lon="6.19815">
        <ele>620.1877441</ele>
        <time>2012-03-17T12:25:57Z</time>
      </trkpt>
      <trkpt lat="45.51295" lon="6.19818">
        <ele>624.9943848</ele>
        <time>2012-03-17T12:26:04Z</time>
      </trkpt>
      <trkpt lat="45.51295" lon="6.19822">
        <ele>630.762207</ele>
        <time>2012-03-17T12:26:10Z</time>
      </trkpt>
      <trkpt lat="45.51296" lon="6.19825">
        <ele>632.6848145</ele>
        <time>2012-03-17T12:26:17Z</time>
      </trkpt>
      <trkpt lat="45.51294" lon="6.19829">
        <ele>631.7233887</ele>
        <time>2012-03-17T12:26:22Z</time>
      </trkpt>
      <trkpt lat="45.51291" lon="6.1983">
        <ele>635.0881348</ele>
        <time>2012-03-17T12:26:26Z</time>
      </trkpt>
      <trkpt lat="45.51288" lon="6.19833">
        <ele>642.7788086</ele>
        <time>2012-03-17T12:26:30Z</time>
      </trkpt>
      <trkpt lat="45.51286" lon="6.1984">
        <ele>648.5463867</ele>
        <time>2012-03-17T12:26:35Z</time>
      </trkpt>
      <trkpt lat="45.51283" lon="6.19844">
        <ele>647.5852051</ele>
        <time>2012-03-17T12:26:42Z</time>
      </trkpt>
      <trkpt lat="45.51282" lon="6.19846">
        <ele>647.5852051</ele>
        <time>2012-03-17T12:26:44Z</time>
      </trkpt>
      <trkpt lat="45.51287" lon="6.19852">
        <ele>651.9111328</ele>
        <time>2012-03-17T12:26:51Z</time>
      </trkpt>
      <trkpt lat="45.51289" lon="6.19858">
        <ele>656.2370605</ele>
        <time>2012-03-17T12:26:57Z</time>
      </trkpt>
      <trkpt lat="45.51289" lon="6.19859">
        <ele>656.2370605</ele>
        <time>2012-03-17T12:26:59Z</time>
      </trkpt>
      <trkpt lat="45.51293" lon="6.19864">
        <ele>657.6791992</ele>
        <time>2012-03-17T12:27:07Z</time>
      </trkpt>
      <trkpt lat="45.51297" lon="6.19869">
        <ele>664.888916</ele>
        <time>2012-03-17T12:27:13Z</time>
      </trkpt>
      <trkpt lat="45.51291" lon="6.19874">
        <ele>664.4082031</ele>
        <time>2012-03-17T12:27:17Z</time>
      </trkpt>
      <trkpt lat="45.51288" lon="6.19877">
        <ele>664.888916</ele>
        <time>2012-03-17T12:27:21Z</time>
      </trkpt>
      <trkpt lat="45.51283" lon="6.19884">
        <ele>666.8115234</ele>
        <time>2012-03-17T12:27:31Z</time>
      </trkpt>
      <trkpt lat="45.51282" lon="6.19887">
        <ele>666.8115234</ele>
        <time>2012-03-17T12:27:35Z</time>
      </trkpt>
      <trkpt lat="45.51283" lon="6.19894">
        <ele>671.1376953</ele>
        <time>2012-03-17T12:27:42Z</time>
      </trkpt>
      <trkpt lat="45.51285" lon="6.19896">
        <ele>672.098877</ele>
        <time>2012-03-17T12:27:45Z</time>
      </trkpt>
      <trkpt lat="45.51283" lon="6.19907">
        <ele>674.0214844</ele>
        <time>2012-03-17T12:27:54Z</time>
      </trkpt>
      <trkpt lat="45.51284" lon="6.19914">
        <ele>678.3474121</ele>
        <time>2012-03-17T12:28:01Z</time>
      </trkpt>
      <trkpt lat="45.51283" lon="6.1992">
        <ele>679.3085938</ele>
        <time>2012-03-17T12:28:07Z</time>
      </trkpt>
      <trkpt lat="45.51282" lon="6.19921">
        <ele>679.3085938</ele>
        <time>2012-03-17T12:28:08Z</time>
      </trkpt>
      <trkpt lat="45.51282" lon="6.19924">
        <ele>679.3085938</ele>
        <time>2012-03-17T12:28:10Z</time>
      </trkpt>
      <trkpt lat="45.51281" lon="6.19929">
        <ele>678.828125</ele>
        <time>2012-03-17T12:28:15Z</time>
      </trkpt>
      <trkpt lat="45.51278" lon="6.19937">
        <ele>676.4248047</ele>
        <time>2012-03-17T12:28:22Z</time>
      </trkpt>
      <trkpt lat="45.51279" lon="6.19939">
        <ele>674.9829102</ele>
        <time>2012-03-17T12:28:25Z</time>
      </trkpt>
      <trkpt lat="45.5128" lon="6.19943">
        <ele>678.3474121</ele>
        <time>2012-03-17T12:28:30Z</time>
      </trkpt>
      <trkpt lat="45.51278" lon="6.1995">
        <ele>678.828125</ele>
        <time>2012-03-17T12:28:37Z</time>
      </trkpt>
      <trkpt lat="45.51278" lon="6.19952">
        <ele>678.828125</ele>
        <time>2012-03-17T12:28:40Z</time>
      </trkpt>
      <trkpt lat="45.51277" lon="6.1996">
        <ele>676.4248047</ele>
        <time>2012-03-17T12:28:44Z</time>
      </trkpt>
      <trkpt lat="45.51278" lon="6.19963">
        <ele>678.3474121</ele>
        <time>2012-03-17T12:28:47Z</time>
      </trkpt>
      <trkpt lat="45.51283" lon="6.19963">
        <ele>680.7507324</ele>
        <time>2012-03-17T12:28:51Z</time>
      </trkpt>
      <trkpt lat="45.51287" lon="6.19963">
        <ele>684.5961914</ele>
        <time>2012-03-17T12:28:57Z</time>
      </trkpt>
      <trkpt lat="45.51287" lon="6.19963">
        <ele>680.7507324</ele>
        <time>2012-03-17T12:29:06Z</time>
      </trkpt>
      <trkpt lat="45.51287" lon="6.19961">
        <ele>683.6345215</ele>
        <time>2012-03-17T12:29:12Z</time>
      </trkpt>
      <trkpt lat="45.51286" lon="6.1996">
        <ele>681.2314453</ele>
        <time>2012-03-17T12:29:19Z</time>
      </trkpt>
      <trkpt lat="45.51286" lon="6.19961">
        <ele>678.828125</ele>
        <time>2012-03-17T12:29:23Z</time>
      </trkpt>
      <trkpt lat="45.51289" lon="6.19964">
        <ele>679.7893066</ele>
        <time>2012-03-17T12:29:35Z</time>
      </trkpt>
      <trkpt lat="45.51294" lon="6.19965">
        <ele>679.7893066</ele>
        <time>2012-03-17T12:29:40Z</time>
      </trkpt>
      <trkpt lat="45.51297" lon="6.19965">
        <ele>681.2314453</ele>
        <time>2012-03-17T12:29:42Z</time>
      </trkpt>
      <trkpt lat="45.51305" lon="6.19968">
        <ele>686.9992676</ele>
        <time>2012-03-17T12:29:48Z</time>
      </trkpt>
      <trkpt lat="45.51311" lon="6.19972">
        <ele>692.767334</ele>
        <time>2012-03-17T12:29:55Z</time>
      </trkpt>
      <trkpt lat="45.51314" lon="6.19975">
        <ele>693.7285156</ele>
        <time>2012-03-17T12:30:00Z</time>
      </trkpt>
      <trkpt lat="45.51317" lon="6.19975">
        <ele>693.2478027</ele>
        <time>2012-03-17T12:30:05Z</time>
      </trkpt>
      <trkpt lat="45.51324" lon="6.19974">
        <ele>692.767334</ele>
        <time>2012-03-17T12:30:11Z</time>
      </trkpt>
      <trkpt lat="45.51329" lon="6.19974">
        <ele>690.8444824</ele>
        <time>2012-03-17T12:30:16Z</time>
      </trkpt>
      <trkpt lat="45.51341" lon="6.19974">
        <ele>693.7285156</ele>
        <time>2012-03-17T12:30:21Z</time>
      </trkpt>
      <trkpt lat="45.51353" lon="6.19974">
        <ele>697.5737305</ele>
        <time>2012-03-17T12:30:26Z</time>
      </trkpt>
      <trkpt lat="45.51362" lon="6.19976">
        <ele>703.8225098</ele>
        <time>2012-03-17T12:30:30Z</time>
      </trkpt>
      <trkpt lat="45.51371" lon="6.19983">
        <ele>711.0322266</ele>
        <time>2012-03-17T12:30:36Z</time>
      </trkpt>
      <trkpt lat="45.51381" lon="6.19991">
        <ele>716.800293</ele>
        <time>2012-03-17T12:30:41Z</time>
      </trkpt>
      <trkpt lat="45.51384" lon="6.19998">
        <ele>718.2421875</ele>
        <time>2012-03-17T12:30:45Z</time>
      </trkpt>
      <trkpt lat="45.51388" lon="6.20009">
        <ele>718.7229004</ele>
        <time>2012-03-17T12:30:50Z</time>
      </trkpt>
      <trkpt lat="45.51388" lon="6.20017">
        <ele>718.7229004</ele>
        <time>2012-03-17T12:30:54Z</time>
      </trkpt>
      <trkpt lat="45.51389" lon="6.20025">
        <ele>717.7614746</ele>
        <time>2012-03-17T12:30:58Z</time>
      </trkpt>
      <trkpt lat="45.51389" lon="6.20034">
        <ele>713.9160156</ele>
        <time>2012-03-17T12:31:05Z</time>
      </trkpt>
      <trkpt lat="45.51391" lon="6.2004">
        <ele>715.8388672</ele>
        <time>2012-03-17T12:31:10Z</time>
      </trkpt>
      <trkpt lat="45.5139" lon="6.20044">
        <ele>715.8388672</ele>
        <time>2012-03-17T12:31:14Z</time>
      </trkpt>
      <trkpt lat="45.51389" lon="6.20047">
        <ele>716.800293</ele>
        <time>2012-03-17T12:31:17Z</time>
      </trkpt>
      <trkpt lat="45.51388" lon="6.20051">
        <ele>718.7229004</ele>
        <time>2012-03-17T12:31:20Z</time>
      </trkpt>
      <trkpt lat="45.51386" lon="6.20052">
        <ele>719.2036133</ele>
        <time>2012-03-17T12:31:22Z</time>
      </trkpt>
      <trkpt lat="45.51378" lon="6.20051">
        <ele>712.4741211</ele>
        <time>2012-03-17T12:31:32Z</time>
      </trkpt>
      <trkpt lat="45.51373" lon="6.20051">
        <ele>706.7062988</ele>
        <time>2012-03-17T12:31:40Z</time>
      </trkpt>
      <trkpt lat="45.5137" lon="6.20051">
        <ele>705.7451172</ele>
        <time>2012-03-17T12:31:45Z</time>
      </trkpt>
      <trkpt lat="45.51365" lon="6.20055">
        <ele>701.8999023</ele>
        <time>2012-03-17T12:31:53Z</time>
      </trkpt>
      <trkpt lat="45.51361" lon="6.20058">
        <ele>701.4191895</ele>
        <time>2012-03-17T12:31:57Z</time>
      </trkpt>
      <trkpt lat="45.51358" lon="6.2006">
        <ele>699.9770508</ele>
        <time>2012-03-17T12:32:01Z</time>
      </trkpt>
      <trkpt lat="45.51356" lon="6.20063">
        <ele>699.015625</ele>
        <time>2012-03-17T12:32:04Z</time>
      </trkpt>
      <trkpt lat="45.51351" lon="6.20071">
        <ele>698.0544434</ele>
        <time>2012-03-17T12:32:11Z</time>
      </trkpt>
      <trkpt lat="45.51346" lon="6.2008">
        <ele>700.9384766</ele>
        <time>2012-03-17T12:32:18Z</time>
      </trkpt>
      <trkpt lat="45.51344" lon="6.20083">
        <ele>703.8225098</ele>
        <time>2012-03-17T12:32:23Z</time>
      </trkpt>
      <trkpt lat="45.51341" lon="6.20084">
        <ele>715.3581543</ele>
        <time>2012-03-17T12:32:31Z</time>
      </trkpt>
      <trkpt lat="45.5134" lon="6.20086">
        <ele>726.894043</ele>
        <time>2012-03-17T12:32:36Z</time>
      </trkpt>
      <trkpt lat="45.51336" lon="6.2009">
        <ele>738.9106445</ele>
        <time>2012-03-17T12:32:43Z</time>
      </trkpt>
      <trkpt lat="45.51332" lon="6.20093">
        <ele>748.0432129</ele>
        <time>2012-03-17T12:32:48Z</time>
      </trkpt>
      <trkpt lat="45.5133" lon="6.20096">
        <ele>750.4465332</ele>
        <time>2012-03-17T12:32:53Z</time>
      </trkpt>
      <trkpt lat="45.51328" lon="6.20101">
        <ele>753.3303223</ele>
        <time>2012-03-17T12:32:59Z</time>
      </trkpt>
      <trkpt lat="45.51326" lon="6.20105">
        <ele>756.6948242</ele>
        <time>2012-03-17T12:33:03Z</time>
      </trkpt>
      <trkpt lat="45.51326" lon="6.20106">
        <ele>757.65625</ele>
        <time>2012-03-17T12:33:04Z</time>
      </trkpt>
      <trkpt lat="45.51325" lon="6.20111">
        <ele>757.1755371</ele>
        <time>2012-03-17T12:33:09Z</time>
      </trkpt>
      <trkpt lat="45.51323" lon="6.20117">
        <ele>754.7722168</ele>
        <time>2012-03-17T12:33:15Z</time>
      </trkpt>
      <trkpt lat="45.51321" lon="6.2012">
        <ele>756.2141113</ele>
        <time>2012-03-17T12:33:18Z</time>
      </trkpt>
      <trkpt lat="45.51318" lon="6.20127">
        <ele>757.65625</ele>
        <time>2012-03-17T12:33:25Z</time>
      </trkpt>
      <trkpt lat="45.51318" lon="6.20129">
        <ele>757.65625</ele>
        <time>2012-03-17T12:33:26Z</time>
      </trkpt>
      <trkpt lat="45.51315" lon="6.20134">
        <ele>754.291748</ele>
        <time>2012-03-17T12:33:31Z</time>
      </trkpt>
      <trkpt lat="45.51308" lon="6.2014">
        <ele>760.0593262</ele>
        <time>2012-03-17T12:33:38Z</time>
      </trkpt>
      <trkpt lat="45.51305" lon="6.20142">
        <ele>761.9821777</ele>
        <time>2012-03-17T12:33:43Z</time>
      </trkpt>
      <trkpt lat="45.51302" lon="6.2015">
        <ele>762.4626465</ele>
        <time>2012-03-17T12:33:50Z</time>
      </trkpt>
      <trkpt lat="45.51299" lon="6.2015">
        <ele>771.1147461</ele>
        <time>2012-03-17T12:34:04Z</time>
      </trkpt>
      <trkpt lat="45.51299" lon="6.2015">
        <ele>771.1147461</ele>
        <time>2012-03-17T12:34:11Z</time>
      </trkpt>
      <trkpt lat="45.51297" lon="6.20152">
        <ele>770.1533203</ele>
        <time>2012-03-17T12:34:13Z</time>
      </trkpt>
      <trkpt lat="45.51295" lon="6.20154">
        <ele>770.6340332</ele>
        <time>2012-03-17T12:34:16Z</time>
      </trkpt>
      <trkpt lat="45.51295" lon="6.20159">
        <ele>769.1921387</ele>
        <time>2012-03-17T12:34:20Z</time>
      </trkpt>
      <trkpt lat="45.51294" lon="6.20163">
        <ele>769.1921387</ele>
        <time>2012-03-17T12:34:24Z</time>
      </trkpt>
      <trkpt lat="45.51294" lon="6.20165">
        <ele>768.7114258</ele>
        <time>2012-03-17T12:34:29Z</time>
      </trkpt>
      <trkpt lat="45.51295" lon="6.20165">
        <ele>768.7114258</ele>
        <time>2012-03-17T12:34:33Z</time>
      </trkpt>
      <trkpt lat="45.51296" lon="6.20159">
        <ele>773.5180664</ele>
        <time>2012-03-17T12:34:37Z</time>
      </trkpt>
      <trkpt lat="45.51298" lon="6.20157">
        <ele>773.9985352</ele>
        <time>2012-03-17T12:34:39Z</time>
      </trkpt>
      <trkpt lat="45.51302" lon="6.20153">
        <ele>776.8825684</ele>
        <time>2012-03-17T12:34:45Z</time>
      </trkpt>
      <trkpt lat="45.51305" lon="6.20154">
        <ele>778.3244629</ele>
        <time>2012-03-17T12:34:53Z</time>
      </trkpt>
      <trkpt lat="45.51304" lon="6.20155">
        <ele>778.3244629</ele>
        <time>2012-03-17T12:34:54Z</time>
      </trkpt>
      <trkpt lat="45.51302" lon="6.20159">
        <ele>777.84375</ele>
        <time>2012-03-17T12:34:57Z</time>
      </trkpt>
      <trkpt lat="45.51301" lon="6.20161">
        <ele>777.3632813</ele>
        <time>2012-03-17T12:34:59Z</time>
      </trkpt>
      <trkpt lat="45.51299" lon="6.20167">
        <ele>774.479248</ele>
        <time>2012-03-17T12:35:07Z</time>
      </trkpt>
      <trkpt lat="45.51297" lon="6.20174">
        <ele>775.9211426</ele>
        <time>2012-03-17T12:35:13Z</time>
      </trkpt>
      <trkpt lat="45.51296" lon="6.20176">
        <ele>780.7280273</ele>
        <time>2012-03-17T12:35:18Z</time>
      </trkpt>
      <trkpt lat="45.51294" lon="6.20175">
        <ele>786.9763184</ele>
        <time>2012-03-17T12:35:30Z</time>
      </trkpt>
      <trkpt lat="45.51294" lon="6.20174">
        <ele>786.0151367</ele>
        <time>2012-03-17T12:35:32Z</time>
      </trkpt>
      <trkpt lat="45.51295" lon="6.20171">
        <ele>786.4958496</ele>
        <time>2012-03-17T12:35:50Z</time>
      </trkpt>
      <trkpt lat="45.51294" lon="6.2017">
        <ele>787.4570313</ele>
        <time>2012-03-17T12:35:54Z</time>
      </trkpt>
      <trkpt lat="45.51294" lon="6.2017">
        <ele>787.9377441</ele>
        <time>2012-03-17T12:35:57Z</time>
      </trkpt>
      <trkpt lat="45.51297" lon="6.20167">
        <ele>796.1091309</ele>
        <time>2012-03-17T12:36:32Z</time>
      </trkpt>
      <trkpt lat="45.513" lon="6.20165">
        <ele>800.9155273</ele>
        <time>2012-03-17T12:36:42Z</time>
      </trkpt>
      <trkpt lat="45.51297" lon="6.20176">
        <ele>793.7055664</ele>
        <time>2012-03-17T12:36:48Z</time>
      </trkpt>
      <trkpt lat="45.51295" lon="6.20181">
        <ele>790.3410645</ele>
        <time>2012-03-17T12:36:52Z</time>
      </trkpt>
      <trkpt lat="45.51293" lon="6.20188">
        <ele>787.4570313</ele>
        <time>2012-03-17T12:36:55Z</time>
      </trkpt>
      <trkpt lat="45.51289" lon="6.20197">
        <ele>783.1311035</ele>
        <time>2012-03-17T12:37:01Z</time>
      </trkpt>
      <trkpt lat="45.51288" lon="6.202">
        <ele>782.1699219</ele>
        <time>2012-03-17T12:37:02Z</time>
      </trkpt>
      <trkpt lat="45.51285" lon="6.20208">
        <ele>780.2473145</ele>
        <time>2012-03-17T12:37:07Z</time>
      </trkpt>
      <trkpt lat="45.5128" lon="6.20212">
        <ele>784.0925293</ele>
        <time>2012-03-17T12:37:11Z</time>
      </trkpt>
      <trkpt lat="45.51274" lon="6.20216">
        <ele>784.0925293</ele>
        <time>2012-03-17T12:37:17Z</time>
      </trkpt>
      <trkpt lat="45.5127" lon="6.2022">
        <ele>779.7663574</ele>
        <time>2012-03-17T12:37:22Z</time>
      </trkpt>
      <trkpt lat="45.51269" lon="6.20221">
        <ele>780.7280273</ele>
        <time>2012-03-17T12:37:23Z</time>
      </trkpt>
      <trkpt lat="45.51266" lon="6.20225">
        <ele>779.7663574</ele>
        <time>2012-03-17T12:37:27Z</time>
      </trkpt>
      <trkpt lat="45.51263" lon="6.20232">
        <ele>777.84375</ele>
        <time>2012-03-17T12:37:32Z</time>
      </trkpt>
      <trkpt lat="45.5126" lon="6.20236">
        <ele>779.2856445</ele>
        <time>2012-03-17T12:37:36Z</time>
      </trkpt>
      <trkpt lat="45.51256" lon="6.20238">
        <ele>785.5344238</ele>
        <time>2012-03-17T12:37:43Z</time>
      </trkpt>
      <trkpt lat="45.51254" lon="6.20239">
        <ele>785.0539551</ele>
        <time>2012-03-17T12:37:46Z</time>
      </trkpt>
      <trkpt lat="45.5125" lon="6.20241">
        <ele>786.9763184</ele>
        <time>2012-03-17T12:37:50Z</time>
      </trkpt>
      <trkpt lat="45.51246" lon="6.20243">
        <ele>791.782959</ele>
        <time>2012-03-17T12:37:56Z</time>
      </trkpt>
      <trkpt lat="45.51248" lon="6.20247">
        <ele>798.512207</ele>
        <time>2012-03-17T12:38:04Z</time>
      </trkpt>
      <trkpt lat="45.51252" lon="6.20246">
        <ele>795.6281738</ele>
        <time>2012-03-17T12:38:14Z</time>
      </trkpt>
      <trkpt lat="45.51255" lon="6.20245">
        <ele>793.7055664</ele>
        <time>2012-03-17T12:38:18Z</time>
      </trkpt>
      <trkpt lat="45.51259" lon="6.20241">
        <ele>794.1862793</ele>
        <time>2012-03-17T12:38:25Z</time>
      </trkpt>
      <trkpt lat="45.51262" lon="6.20241">
        <ele>798.9929199</ele>
        <time>2012-03-17T12:38:32Z</time>
      </trkpt>
      <trkpt lat="45.51272" lon="6.20241">
        <ele>801.3962402</ele>
        <time>2012-03-17T12:38:40Z</time>
      </trkpt>
      <trkpt lat="45.51281" lon="6.20236">
        <ele>802.3574219</ele>
        <time>2012-03-17T12:38:44Z</time>
      </trkpt>
      <trkpt lat="45.51287" lon="6.20235">
        <ele>804.2802734</ele>
        <time>2012-03-17T12:38:48Z</time>
      </trkpt>
      <trkpt lat="45.51299" lon="6.20228">
        <ele>804.7607422</ele>
        <time>2012-03-17T12:38:56Z</time>
      </trkpt>
      <trkpt lat="45.51306" lon="6.20225">
        <ele>806.2026367</ele>
        <time>2012-03-17T12:39:01Z</time>
      </trkpt>
      <trkpt lat="45.51312" lon="6.20225">
        <ele>809.5673828</ele>
        <time>2012-03-17T12:39:06Z</time>
      </trkpt>
      <trkpt lat="45.51323" lon="6.20217">
        <ele>813.4128418</ele>
        <time>2012-03-17T12:39:13Z</time>
      </trkpt>
      <trkpt lat="45.51333" lon="6.20213">
        <ele>816.2966309</ele>
        <time>2012-03-17T12:39:19Z</time>
      </trkpt>
      <trkpt lat="45.51334" lon="6.20213">
        <ele>815.8161621</ele>
        <time>2012-03-17T12:39:20Z</time>
      </trkpt>
      <trkpt lat="45.51337" lon="6.20214">
        <ele>814.3740234</ele>
        <time>2012-03-17T12:39:24Z</time>
      </trkpt>
      <trkpt lat="45.51339" lon="6.20217">
        <ele>817.7385254</ele>
        <time>2012-03-17T12:39:34Z</time>
      </trkpt>
      <trkpt lat="45.51344" lon="6.20219">
        <ele>817.7385254</ele>
        <time>2012-03-17T12:39:40Z</time>
      </trkpt>
      <trkpt lat="45.51348" lon="6.20221">
        <ele>815.3354492</ele>
        <time>2012-03-17T12:39:46Z</time>
      </trkpt>
      <trkpt lat="45.51355" lon="6.20221">
        <ele>814.3740234</ele>
        <time>2012-03-17T12:39:52Z</time>
      </trkpt>
      <trkpt lat="45.51362" lon="6.20224">
        <ele>813.8933105</ele>
        <time>2012-03-17T12:39:56Z</time>
      </trkpt>
      <trkpt lat="45.51367" lon="6.20229">
        <ele>816.7773438</ele>
        <time>2012-03-17T12:40:01Z</time>
      </trkpt>
      <trkpt lat="45.51367" lon="6.20231">
        <ele>818.2192383</ele>
        <time>2012-03-17T12:40:03Z</time>
      </trkpt>
      <trkpt lat="45.51366" lon="6.20233">
        <ele>821.5837402</ele>
        <time>2012-03-17T12:40:07Z</time>
      </trkpt>
      <trkpt lat="45.51364" lon="6.20236">
        <ele>823.9870605</ele>
        <time>2012-03-17T12:40:13Z</time>
      </trkpt>
      <trkpt lat="45.51363" lon="6.2024">
        <ele>825.909668</ele>
        <time>2012-03-17T12:40:18Z</time>
      </trkpt>
      <trkpt lat="45.51363" lon="6.20245">
        <ele>824.9484863</ele>
        <time>2012-03-17T12:40:22Z</time>
      </trkpt>
      <trkpt lat="45.5136" lon="6.20249">
        <ele>825.4289551</ele>
        <time>2012-03-17T12:40:26Z</time>
      </trkpt>
      <trkpt lat="45.51359" lon="6.20252">
        <ele>825.909668</ele>
        <time>2012-03-17T12:40:31Z</time>
      </trkpt>
      <trkpt lat="45.51358" lon="6.20253">
        <ele>826.3903809</ele>
        <time>2012-03-17T12:40:32Z</time>
      </trkpt>
      <trkpt lat="45.51355" lon="6.20255">
        <ele>825.4289551</ele>
        <time>2012-03-17T12:40:36Z</time>
      </trkpt>
      <trkpt lat="45.51351" lon="6.20256">
        <ele>825.4289551</ele>
        <time>2012-03-17T12:40:41Z</time>
      </trkpt>
      <trkpt lat="45.51345" lon="6.20261">
        <ele>827.3518066</ele>
        <time>2012-03-17T12:40:48Z</time>
      </trkpt>
      <trkpt lat="45.51341" lon="6.20263">
        <ele>829.755127</ele>
        <time>2012-03-17T12:40:52Z</time>
      </trkpt>
      <trkpt lat="45.51339" lon="6.20265">
        <ele>832.6391602</ele>
        <time>2012-03-17T12:40:55Z</time>
      </trkpt>
      <trkpt lat="45.51339" lon="6.20267">
        <ele>833.1196289</ele>
        <time>2012-03-17T12:40:58Z</time>
      </trkpt>
      <trkpt lat="45.51343" lon="6.20272">
        <ele>834.5617676</ele>
        <time>2012-03-17T12:41:06Z</time>
      </trkpt>
      <trkpt lat="45.51347" lon="6.20275">
        <ele>834.5617676</ele>
        <time>2012-03-17T12:41:11Z</time>
      </trkpt>
      <trkpt lat="45.51349" lon="6.20277">
        <ele>836.9648438</ele>
        <time>2012-03-17T12:41:14Z</time>
      </trkpt>
      <trkpt lat="45.51344" lon="6.20281">
        <ele>836.0036621</ele>
        <time>2012-03-17T12:41:20Z</time>
      </trkpt>
      <trkpt lat="45.51343" lon="6.20281">
        <ele>838.4069824</ele>
        <time>2012-03-17T12:41:24Z</time>
      </trkpt>
      <trkpt lat="45.51342" lon="6.20282">
        <ele>838.8876953</ele>
        <time>2012-03-17T12:41:26Z</time>
      </trkpt>
      <trkpt lat="45.51339" lon="6.20285">
        <ele>840.8100586</ele>
        <time>2012-03-17T12:41:29Z</time>
      </trkpt>
      <trkpt lat="45.51335" lon="6.20288">
        <ele>840.3295898</ele>
        <time>2012-03-17T12:41:33Z</time>
      </trkpt>
      <trkpt lat="45.51327" lon="6.20295">
        <ele>838.4069824</ele>
        <time>2012-03-17T12:41:41Z</time>
      </trkpt>
      <trkpt lat="45.51326" lon="6.20295">
        <ele>837.9262695</ele>
        <time>2012-03-17T12:41:43Z</time>
      </trkpt>
      <trkpt lat="45.51322" lon="6.20299">
        <ele>837.4455566</ele>
        <time>2012-03-17T12:41:48Z</time>
      </trkpt>
      <trkpt lat="45.51321" lon="6.20303">
        <ele>840.8100586</ele>
        <time>2012-03-17T12:41:51Z</time>
      </trkpt>
      <trkpt lat="45.51315" lon="6.20311">
        <ele>837.9262695</ele>
        <time>2012-03-17T12:42:00Z</time>
      </trkpt>
      <trkpt lat="45.51311" lon="6.20314">
        <ele>838.4069824</ele>
        <time>2012-03-17T12:42:05Z</time>
      </trkpt>
      <trkpt lat="45.51308" lon="6.20315">
        <ele>839.3681641</ele>
        <time>2012-03-17T12:42:10Z</time>
      </trkpt>
      <trkpt lat="45.51303" lon="6.20318">
        <ele>844.6555176</ele>
        <time>2012-03-17T12:42:19Z</time>
      </trkpt>
      <trkpt lat="45.51299" lon="6.20323">
        <ele>848.5007324</ele>
        <time>2012-03-17T12:42:27Z</time>
      </trkpt>
      <trkpt lat="45.51296" lon="6.20329">
        <ele>847.5395508</ele>
        <time>2012-03-17T12:42:32Z</time>
      </trkpt>
      <trkpt lat="45.51293" lon="6.20335">
        <ele>847.0588379</ele>
        <time>2012-03-17T12:42:37Z</time>
      </trkpt>
      <trkpt lat="45.51289" lon="6.20344">
        <ele>858.1140137</ele>
        <time>2012-03-17T12:42:50Z</time>
      </trkpt>
      <trkpt lat="45.51288" lon="6.20347">
        <ele>856.671875</ele>
        <time>2012-03-17T12:43:11Z</time>
      </trkpt>
      <trkpt lat="45.51288" lon="6.20349">
        <ele>856.1911621</ele>
        <time>2012-03-17T12:43:12Z</time>
      </trkpt>
      <trkpt lat="45.51285" lon="6.20353">
        <ele>854.7492676</ele>
        <time>2012-03-17T12:43:15Z</time>
      </trkpt>
      <trkpt lat="45.51283" lon="6.20356">
        <ele>855.7106934</ele>
        <time>2012-03-17T12:43:21Z</time>
      </trkpt>
      <trkpt lat="45.5128" lon="6.20357">
        <ele>858.5944824</ele>
        <time>2012-03-17T12:43:26Z</time>
      </trkpt>
      <trkpt lat="45.51278" lon="6.20358">
        <ele>857.6333008</ele>
        <time>2012-03-17T12:43:27Z</time>
      </trkpt>
      <trkpt lat="45.51272" lon="6.20363">
        <ele>855.7106934</ele>
        <time>2012-03-17T12:43:33Z</time>
      </trkpt>
      <trkpt lat="45.51269" lon="6.20368">
        <ele>853.7880859</ele>
        <time>2012-03-17T12:43:36Z</time>
      </trkpt>
      <trkpt lat="45.51267" lon="6.20371">
        <ele>852.3459473</ele>
        <time>2012-03-17T12:43:39Z</time>
      </trkpt>
      <trkpt lat="45.51264" lon="6.20377">
        <ele>854.7492676</ele>
        <time>2012-03-17T12:43:44Z</time>
      </trkpt>
      <trkpt lat="45.51262" lon="6.20379">
        <ele>859.0751953</ele>
        <time>2012-03-17T12:43:47Z</time>
      </trkpt>
      <trkpt lat="45.51255" lon="6.20384">
        <ele>866.7658691</ele>
        <time>2012-03-17T12:43:56Z</time>
      </trkpt>
      <trkpt lat="45.51254" lon="6.20393">
        <ele>873.9755859</ele>
        <time>2012-03-17T12:44:10Z</time>
      </trkpt>
      <trkpt lat="45.5125" lon="6.2039">
        <ele>872.5336914</ele>
        <time>2012-03-17T12:44:28Z</time>
      </trkpt>
      <trkpt lat="45.5125" lon="6.20383">
        <ele>875.4174805</ele>
        <time>2012-03-17T12:44:41Z</time>
      </trkpt>
      <trkpt lat="45.51252" lon="6.20387">
        <ele>872.0529785</ele>
        <time>2012-03-17T12:44:46Z</time>
      </trkpt>
      <trkpt lat="45.51254" lon="6.20392">
        <ele>866.2851563</ele>
        <time>2012-03-17T12:44:53Z</time>
      </trkpt>
      <trkpt lat="45.51254" lon="6.20392">
        <ele>869.6499023</ele>
        <time>2012-03-17T12:44:58Z</time>
      </trkpt>
      <trkpt lat="45.51249" lon="6.20399">
        <ele>868.2077637</ele>
        <time>2012-03-17T12:45:04Z</time>
      </trkpt>
      <trkpt lat="45.51244" lon="6.20403">
        <ele>868.2077637</ele>
        <time>2012-03-17T12:45:09Z</time>
      </trkpt>
      <trkpt lat="45.51237" lon="6.2041">
        <ele>863.4013672</ele>
        <time>2012-03-17T12:45:15Z</time>
      </trkpt>
      <trkpt lat="45.51233" lon="6.20416">
        <ele>860.517334</ele>
        <time>2012-03-17T12:45:20Z</time>
      </trkpt>
      <trkpt lat="45.51224" lon="6.20417">
        <ele>864.8432617</ele>
        <time>2012-03-17T12:45:28Z</time>
      </trkpt>
      <trkpt lat="45.51218" lon="6.20417">
        <ele>867.246582</ele>
        <time>2012-03-17T12:45:32Z</time>
      </trkpt>
      <trkpt lat="45.51212" lon="6.20425">
        <ele>865.8046875</ele>
        <time>2012-03-17T12:45:39Z</time>
      </trkpt>
      <trkpt lat="45.51208" lon="6.20432">
        <ele>866.7658691</ele>
        <time>2012-03-17T12:45:45Z</time>
      </trkpt>
      <trkpt lat="45.51207" lon="6.20434">
        <ele>867.246582</ele>
        <time>2012-03-17T12:45:47Z</time>
      </trkpt>
      <trkpt lat="45.51198" lon="6.20437">
        <ele>870.611084</ele>
        <time>2012-03-17T12:45:54Z</time>
      </trkpt>
      <trkpt lat="45.51194" lon="6.20441">
        <ele>869.1691895</ele>
        <time>2012-03-17T12:45:59Z</time>
      </trkpt>
      <trkpt lat="45.51185" lon="6.20448">
        <ele>869.1691895</ele>
        <time>2012-03-17T12:46:08Z</time>
      </trkpt>
      <trkpt lat="45.51181" lon="6.20451">
        <ele>871.0917969</ele>
        <time>2012-03-17T12:46:12Z</time>
      </trkpt>
      <trkpt lat="45.51172" lon="6.20459">
        <ele>869.1691895</ele>
        <time>2012-03-17T12:46:21Z</time>
      </trkpt>
      <trkpt lat="45.51165" lon="6.20466">
        <ele>869.1691895</ele>
        <time>2012-03-17T12:46:27Z</time>
      </trkpt>
      <trkpt lat="45.51162" lon="6.20472">
        <ele>871.5722656</ele>
        <time>2012-03-17T12:46:31Z</time>
      </trkpt>
      <trkpt lat="45.51165" lon="6.20477">
        <ele>875.8981934</ele>
        <time>2012-03-17T12:46:37Z</time>
      </trkpt>
      <trkpt lat="45.51169" lon="6.20476">
        <ele>878.7824707</ele>
        <time>2012-03-17T12:46:42Z</time>
      </trkpt>
      <trkpt lat="45.51174" lon="6.20472">
        <ele>880.7050781</ele>
        <time>2012-03-17T12:46:46Z</time>
      </trkpt>
      <trkpt lat="45.51175" lon="6.20471">
        <ele>881.185791</ele>
        <time>2012-03-17T12:46:47Z</time>
      </trkpt>
      <trkpt lat="45.51182" lon="6.20465">
        <ele>885.5114746</ele>
        <time>2012-03-17T12:46:54Z</time>
      </trkpt>
      <trkpt lat="45.51194" lon="6.2045">
        <ele>898.4892578</ele>
        <time>2012-03-17T12:47:05Z</time>
      </trkpt>
      <trkpt lat="45.51204" lon="6.2044">
        <ele>905.2185059</ele>
        <time>2012-03-17T12:47:14Z</time>
      </trkpt>
      <trkpt lat="45.51206" lon="6.20438">
        <ele>907.1411133</ele>
        <time>2012-03-17T12:47:16Z</time>
      </trkpt>
      <trkpt lat="45.51211" lon="6.20433">
        <ele>909.0639648</ele>
        <time>2012-03-17T12:47:21Z</time>
      </trkpt>
      <trkpt lat="45.51215" lon="6.20431">
        <ele>910.0251465</ele>
        <time>2012-03-17T12:47:25Z</time>
      </trkpt>
      <trkpt lat="45.51227" lon="6.20425">
        <ele>913.8703613</ele>
        <time>2012-03-17T12:47:35Z</time>
      </trkpt>
      <trkpt lat="45.51239" lon="6.20428">
        <ele>910.5058594</ele>
        <time>2012-03-17T12:47:44Z</time>
      </trkpt>
      <trkpt lat="45.51245" lon="6.20427">
        <ele>901.8540039</ele>
        <time>2012-03-17T12:47:49Z</time>
      </trkpt>
      <trkpt lat="45.51248" lon="6.20428">
        <ele>898.9699707</ele>
        <time>2012-03-17T12:47:51Z</time>
      </trkpt>
      <trkpt lat="45.51255" lon="6.20426">
        <ele>901.373291</ele>
        <time>2012-03-17T12:47:57Z</time>
      </trkpt>
      <trkpt lat="45.51261" lon="6.20423">
        <ele>899.9313965</ele>
        <time>2012-03-17T12:48:02Z</time>
      </trkpt>
      <trkpt lat="45.51263" lon="6.20424">
        <ele>899.4506836</ele>
        <time>2012-03-17T12:48:04Z</time>
      </trkpt>
      <trkpt lat="45.51273" lon="6.2042">
        <ele>902.8151855</ele>
        <time>2012-03-17T12:48:12Z</time>
      </trkpt>
      <trkpt lat="45.51283" lon="6.20414">
        <ele>908.583252</ele>
        <time>2012-03-17T12:48:20Z</time>
      </trkpt>
      <trkpt lat="45.51292" lon="6.20407">
        <ele>914.3510742</ele>
        <time>2012-03-17T12:48:26Z</time>
      </trkpt>
      <trkpt lat="45.51301" lon="6.204">
        <ele>916.7543945</ele>
        <time>2012-03-17T12:48:31Z</time>
      </trkpt>
      <trkpt lat="45.51313" lon="6.20396">
        <ele>912.9091797</ele>
        <time>2012-03-17T12:48:37Z</time>
      </trkpt>
      <trkpt lat="45.51323" lon="6.20404">
        <ele>907.6218262</ele>
        <time>2012-03-17T12:48:42Z</time>
      </trkpt>
      <trkpt lat="45.51324" lon="6.20412">
        <ele>906.1796875</ele>
        <time>2012-03-17T12:48:45Z</time>
      </trkpt>
      <trkpt lat="45.51315" lon="6.2042">
        <ele>901.8540039</ele>
        <time>2012-03-17T12:48:51Z</time>
      </trkpt>
      <trkpt lat="45.51304" lon="6.20429">
        <ele>898.9699707</ele>
        <time>2012-03-17T12:48:56Z</time>
      </trkpt>
      <trkpt lat="45.51298" lon="6.20431">
        <ele>899.4506836</ele>
        <time>2012-03-17T12:48:59Z</time>
      </trkpt>
      <trkpt lat="45.51294" lon="6.20435">
        <ele>899.4506836</ele>
        <time>2012-03-17T12:49:03Z</time>
      </trkpt>
      <trkpt lat="45.51285" lon="6.20442">
        <ele>902.3344727</ele>
        <time>2012-03-17T12:49:08Z</time>
      </trkpt>
      <trkpt lat="45.51276" lon="6.2045">
        <ele>904.2573242</ele>
        <time>2012-03-17T12:49:13Z</time>
      </trkpt>
      <trkpt lat="45.51267" lon="6.2046">
        <ele>901.373291</ele>
        <time>2012-03-17T12:49:18Z</time>
      </trkpt>
      <trkpt lat="45.51257" lon="6.20466">
        <ele>900.8925781</ele>
        <time>2012-03-17T12:49:23Z</time>
      </trkpt>
      <trkpt lat="45.51254" lon="6.2047">
        <ele>900.4121094</ele>
        <time>2012-03-17T12:49:25Z</time>
      </trkpt>
      <trkpt lat="45.51242" lon="6.20476">
        <ele>900.4121094</ele>
        <time>2012-03-17T12:49:31Z</time>
      </trkpt>
      <trkpt lat="45.5123" lon="6.20483">
        <ele>902.3344727</ele>
        <time>2012-03-17T12:49:36Z</time>
      </trkpt>
      <trkpt lat="45.51221" lon="6.20492">
        <ele>903.2958984</ele>
        <time>2012-03-17T12:49:41Z</time>
      </trkpt>
      <trkpt lat="45.51212" lon="6.20503">
        <ele>901.373291</ele>
        <time>2012-03-17T12:49:47Z</time>
      </trkpt>
      <trkpt lat="45.51211" lon="6.20506">
        <ele>899.9313965</ele>
        <time>2012-03-17T12:49:48Z</time>
      </trkpt>
      <trkpt lat="45.51202" lon="6.2052">
        <ele>898.9699707</ele>
        <time>2012-03-17T12:49:54Z</time>
      </trkpt>
      <trkpt lat="45.51194" lon="6.20526">
        <ele>901.8540039</ele>
        <time>2012-03-17T12:49:58Z</time>
      </trkpt>
      <trkpt lat="45.51183" lon="6.20531">
        <ele>910.0251465</ele>
        <time>2012-03-17T12:50:04Z</time>
      </trkpt>
      <trkpt lat="45.51175" lon="6.20538">
        <ele>911.947998</ele>
        <time>2012-03-17T12:50:09Z</time>
      </trkpt>
      <trkpt lat="45.5117" lon="6.20543">
        <ele>911.4672852</ele>
        <time>2012-03-17T12:50:12Z</time>
      </trkpt>
      <trkpt lat="45.51164" lon="6.20556">
        <ele>909.0639648</ele>
        <time>2012-03-17T12:50:17Z</time>
      </trkpt>
      <trkpt lat="45.51158" lon="6.20562">
        <ele>913.3898926</ele>
        <time>2012-03-17T12:50:22Z</time>
      </trkpt>
      <trkpt lat="45.51152" lon="6.20576">
        <ele>915.3125</ele>
        <time>2012-03-17T12:50:27Z</time>
      </trkpt>
      <trkpt lat="45.51145" lon="6.20588">
        <ele>923.0029297</ele>
        <time>2012-03-17T12:50:33Z</time>
      </trkpt>
      <trkpt lat="45.51141" lon="6.20603">
        <ele>926.3676758</ele>
        <time>2012-03-17T12:50:38Z</time>
      </trkpt>
      <trkpt lat="45.51139" lon="6.20616">
        <ele>928.2902832</ele>
        <time>2012-03-17T12:50:43Z</time>
      </trkpt>
      <trkpt lat="45.51135" lon="6.20624">
        <ele>931.6547852</ele>
        <time>2012-03-17T12:50:47Z</time>
      </trkpt>
      <trkpt lat="45.51129" lon="6.20633">
        <ele>930.2128906</ele>
        <time>2012-03-17T12:50:51Z</time>
      </trkpt>
      <trkpt lat="45.51121" lon="6.20639">
        <ele>930.6936035</ele>
        <time>2012-03-17T12:50:55Z</time>
      </trkpt>
      <trkpt lat="45.51111" lon="6.20644">
        <ele>935.0195313</ele>
        <time>2012-03-17T12:51:00Z</time>
      </trkpt>
      <trkpt lat="45.511" lon="6.20649">
        <ele>939.3452148</ele>
        <time>2012-03-17T12:51:05Z</time>
      </trkpt>
      <trkpt lat="45.5109" lon="6.20659">
        <ele>936.4614258</ele>
        <time>2012-03-17T12:51:11Z</time>
      </trkpt>
      <trkpt lat="45.51078" lon="6.20667">
        <ele>939.8259277</ele>
        <time>2012-03-17T12:51:16Z</time>
      </trkpt>
      <trkpt lat="45.51069" lon="6.20681">
        <ele>934.0581055</ele>
        <time>2012-03-17T12:51:22Z</time>
      </trkpt>
      <trkpt lat="45.51068" lon="6.20683">
        <ele>932.135498</ele>
        <time>2012-03-17T12:51:23Z</time>
      </trkpt>
      <trkpt lat="45.51057" lon="6.20689">
        <ele>934.0581055</ele>
        <time>2012-03-17T12:51:30Z</time>
      </trkpt>
      <trkpt lat="45.51053" lon="6.20693">
        <ele>933.5773926</ele>
        <time>2012-03-17T12:51:33Z</time>
      </trkpt>
      <trkpt lat="45.51052" lon="6.20701">
        <ele>932.6162109</ele>
        <time>2012-03-17T12:51:37Z</time>
      </trkpt>
      <trkpt lat="45.51059" lon="6.20705">
        <ele>937.9033203</ele>
        <time>2012-03-17T12:51:42Z</time>
      </trkpt>
      <trkpt lat="45.51064" lon="6.20701">
        <ele>938.8647461</ele>
        <time>2012-03-17T12:51:45Z</time>
      </trkpt>
      <trkpt lat="45.51072" lon="6.2069">
        <ele>938.8647461</ele>
        <time>2012-03-17T12:51:51Z</time>
      </trkpt>
      <trkpt lat="45.51082" lon="6.20683">
        <ele>941.2680664</ele>
        <time>2012-03-17T12:51:57Z</time>
      </trkpt>
      <trkpt lat="45.51096" lon="6.20679">
        <ele>942.7102051</ele>
        <time>2012-03-17T12:52:04Z</time>
      </trkpt>
      <trkpt lat="45.51099" lon="6.20685">
        <ele>937.4226074</ele>
        <time>2012-03-17T12:52:11Z</time>
      </trkpt>
      <trkpt lat="45.511" lon="6.2069">
        <ele>934.0581055</ele>
        <time>2012-03-17T12:52:18Z</time>
      </trkpt>
      <trkpt lat="45.51099" lon="6.20691">
        <ele>936.4614258</ele>
        <time>2012-03-17T12:52:34Z</time>
      </trkpt>
      <trkpt lat="45.51098" lon="6.20692">
        <ele>933.0966797</ele>
        <time>2012-03-17T12:52:40Z</time>
      </trkpt>
      <trkpt lat="45.51098" lon="6.20695">
        <ele>928.2902832</ele>
        <time>2012-03-17T12:52:45Z</time>
      </trkpt>
      <trkpt lat="45.51098" lon="6.207">
        <ele>919.1577148</ele>
        <time>2012-03-17T12:52:55Z</time>
      </trkpt>
      <trkpt lat="45.51097" lon="6.20692">
        <ele>930.6936035</ele>
        <time>2012-03-17T12:53:01Z</time>
      </trkpt>
      <trkpt lat="45.51098" lon="6.20692">
        <ele>935.5</ele>
        <time>2012-03-17T12:53:06Z</time>
      </trkpt>
      <trkpt lat="45.51099" lon="6.20692">
        <ele>939.8259277</ele>
        <time>2012-03-17T12:53:12Z</time>
      </trkpt>
      <trkpt lat="45.511" lon="6.20695">
        <ele>937.4226074</ele>
        <time>2012-03-17T12:53:40Z</time>
      </trkpt>
      <trkpt lat="45.511" lon="6.2069">
        <ele>946.5554199</ele>
        <time>2012-03-17T12:53:46Z</time>
      </trkpt>
      <trkpt lat="45.51098" lon="6.20692">
        <ele>946.074707</ele>
        <time>2012-03-17T12:53:48Z</time>
      </trkpt>
      <trkpt lat="45.51098" lon="6.20691">
        <ele>947.0358887</ele>
        <time>2012-03-17T12:53:53Z</time>
      </trkpt>
      <trkpt lat="45.51097" lon="6.20694">
        <ele>948.4777832</ele>
        <time>2012-03-17T12:53:57Z</time>
      </trkpt>
      <trkpt lat="45.511" lon="6.20687">
        <ele>961.4558105</ele>
        <time>2012-03-17T12:54:06Z</time>
      </trkpt>
      <trkpt lat="45.51104" lon="6.20681">
        <ele>967.2236328</ele>
        <time>2012-03-17T12:54:12Z</time>
      </trkpt>
      <trkpt lat="45.51106" lon="6.20675">
        <ele>974.4335938</ele>
        <time>2012-03-17T12:54:18Z</time>
      </trkpt>
      <trkpt lat="45.51107" lon="6.20672">
        <ele>976.8369141</ele>
        <time>2012-03-17T12:54:22Z</time>
      </trkpt>
      <trkpt lat="45.51112" lon="6.20672">
        <ele>975.8754883</ele>
        <time>2012-03-17T12:54:28Z</time>
      </trkpt>
      <trkpt lat="45.51117" lon="6.20671">
        <ele>976.3562012</ele>
        <time>2012-03-17T12:54:34Z</time>
      </trkpt>
      <trkpt lat="45.51119" lon="6.20674">
        <ele>972.5109863</ele>
        <time>2012-03-17T12:54:37Z</time>
      </trkpt>
      <trkpt lat="45.51124" lon="6.2068">
        <ele>964.3395996</ele>
        <time>2012-03-17T12:54:41Z</time>
      </trkpt>
      <trkpt lat="45.51131" lon="6.20685">
        <ele>961.4558105</ele>
        <time>2012-03-17T12:54:46Z</time>
      </trkpt>
      <trkpt lat="45.51135" lon="6.20682">
        <ele>960.9750977</ele>
        <time>2012-03-17T12:54:54Z</time>
      </trkpt>
      <trkpt lat="45.51138" lon="6.20681">
        <ele>964.3395996</ele>
        <time>2012-03-17T12:54:57Z</time>
      </trkpt>
      <trkpt lat="45.51142" lon="6.20686">
        <ele>964.3395996</ele>
        <time>2012-03-17T12:55:05Z</time>
      </trkpt>
      <trkpt lat="45.51148" lon="6.20677">
        <ele>970.5881348</ele>
        <time>2012-03-17T12:55:11Z</time>
      </trkpt>
      <trkpt lat="45.51154" lon="6.20674">
        <ele>968.6655273</ele>
        <time>2012-03-17T12:55:18Z</time>
      </trkpt>
      <trkpt lat="45.5116" lon="6.20666">
        <ele>973.9528809</ele>
        <time>2012-03-17T12:55:28Z</time>
      </trkpt>
      <trkpt lat="45.51164" lon="6.20664">
        <ele>976.3562012</ele>
        <time>2012-03-17T12:55:34Z</time>
      </trkpt>
      <trkpt lat="45.51166" lon="6.20661">
        <ele>979.2399902</ele>
        <time>2012-03-17T12:55:38Z</time>
      </trkpt>
      <trkpt lat="45.51169" lon="6.2066">
        <ele>978.7595215</ele>
        <time>2012-03-17T12:55:44Z</time>
      </trkpt>
      <trkpt lat="45.51172" lon="6.20656">
        <ele>982.6047363</ele>
        <time>2012-03-17T12:55:50Z</time>
      </trkpt>
      <trkpt lat="45.51176" lon="6.20652">
        <ele>987.4111328</ele>
        <time>2012-03-17T12:55:55Z</time>
      </trkpt>
      <trkpt lat="45.5118" lon="6.20646">
        <ele>991.7373047</ele>
        <time>2012-03-17T12:56:01Z</time>
      </trkpt>
      <trkpt lat="45.51185" lon="6.20644">
        <ele>992.2180176</ele>
        <time>2012-03-17T12:56:04Z</time>
      </trkpt>
      <trkpt lat="45.51192" lon="6.20635">
        <ele>989.3339844</ele>
        <time>2012-03-17T12:56:10Z</time>
      </trkpt>
      <trkpt lat="45.512" lon="6.2063">
        <ele>987.4111328</ele>
        <time>2012-03-17T12:56:16Z</time>
      </trkpt>
      <trkpt lat="45.51208" lon="6.20625">
        <ele>983.565918</ele>
        <time>2012-03-17T12:56:22Z</time>
      </trkpt>
      <trkpt lat="45.51211" lon="6.20623">
        <ele>984.0466309</ele>
        <time>2012-03-17T12:56:27Z</time>
      </trkpt>
      <trkpt lat="45.51213" lon="6.20625">
        <ele>981.6433105</ele>
        <time>2012-03-17T12:56:29Z</time>
      </trkpt>
      <trkpt lat="45.5122" lon="6.20622">
        <ele>986.4499512</ele>
        <time>2012-03-17T12:56:35Z</time>
      </trkpt>
      <trkpt lat="45.51226" lon="6.20618">
        <ele>985.4885254</ele>
        <time>2012-03-17T12:56:40Z</time>
      </trkpt>
      <trkpt lat="45.51228" lon="6.20616">
        <ele>987.4111328</ele>
        <time>2012-03-17T12:56:42Z</time>
      </trkpt>
      <trkpt lat="45.51233" lon="6.20611">
        <ele>987.8918457</ele>
        <time>2012-03-17T12:56:49Z</time>
      </trkpt>
      <trkpt lat="45.51236" lon="6.20609">
        <ele>987.8918457</ele>
        <time>2012-03-17T12:56:53Z</time>
      </trkpt>
      <trkpt lat="45.51243" lon="6.20603">
        <ele>991.7373047</ele>
        <time>2012-03-17T12:57:00Z</time>
      </trkpt>
      <trkpt lat="45.51244" lon="6.20603">
        <ele>992.6987305</ele>
        <time>2012-03-17T12:57:01Z</time>
      </trkpt>
      <trkpt lat="45.51253" lon="6.20612">
        <ele>996.0632324</ele>
        <time>2012-03-17T12:57:10Z</time>
      </trkpt>
      <trkpt lat="45.5125" lon="6.20621">
        <ele>990.2954102</ele>
        <time>2012-03-17T12:57:15Z</time>
      </trkpt>
      <trkpt lat="45.51245" lon="6.20631">
        <ele>986.4499512</ele>
        <time>2012-03-17T12:57:21Z</time>
      </trkpt>
      <trkpt lat="45.51239" lon="6.20642">
        <ele>983.0852051</ele>
        <time>2012-03-17T12:57:30Z</time>
      </trkpt>
      <trkpt lat="45.5124" lon="6.20644">
        <ele>982.6047363</ele>
        <time>2012-03-17T12:57:32Z</time>
      </trkpt>
      <trkpt lat="45.51238" lon="6.20652">
        <ele>976.8369141</ele>
        <time>2012-03-17T12:57:36Z</time>
      </trkpt>
      <trkpt lat="45.51236" lon="6.20659">
        <ele>972.5109863</ele>
        <time>2012-03-17T12:57:40Z</time>
      </trkpt>
      <trkpt lat="45.51233" lon="6.2066">
        <ele>975.8754883</ele>
        <time>2012-03-17T12:57:45Z</time>
      </trkpt>
      <trkpt lat="45.51232" lon="6.20668">
        <ele>977.7980957</ele>
        <time>2012-03-17T12:57:51Z</time>
      </trkpt>
      <trkpt lat="45.51229" lon="6.20674">
        <ele>976.8369141</ele>
        <time>2012-03-17T12:57:57Z</time>
      </trkpt>
      <trkpt lat="45.51225" lon="6.20679">
        <ele>978.2788086</ele>
        <time>2012-03-17T12:58:03Z</time>
      </trkpt>
      <trkpt lat="45.51219" lon="6.20695">
        <ele>1003.7536621</ele>
        <time>2012-03-17T12:58:22Z</time>
      </trkpt>
      <trkpt lat="45.51223" lon="6.20704">
        <ele>1005.1958008</ele>
        <time>2012-03-17T12:58:29Z</time>
      </trkpt>
      <trkpt lat="45.5122" lon="6.20706">
        <ele>1008.079834</ele>
        <time>2012-03-17T12:58:32Z</time>
      </trkpt>
      <trkpt lat="45.51221" lon="6.20708">
        <ele>1010.0021973</ele>
        <time>2012-03-17T12:58:34Z</time>
      </trkpt>
      <trkpt lat="45.51214" lon="6.20719">
        <ele>1005.1958008</ele>
        <time>2012-03-17T12:58:42Z</time>
      </trkpt>
      <trkpt lat="45.51211" lon="6.20722">
        <ele>1001.8310547</ele>
        <time>2012-03-17T12:58:45Z</time>
      </trkpt>
      <trkpt lat="45.51205" lon="6.20732">
        <ele>1000.3891602</ele>
        <time>2012-03-17T12:58:52Z</time>
      </trkpt>
      <trkpt lat="45.51202" lon="6.20743">
        <ele>994.6210938</ele>
        <time>2012-03-17T12:58:59Z</time>
      </trkpt>
      <trkpt lat="45.51199" lon="6.20745">
        <ele>997.9858398</ele>
        <time>2012-03-17T12:59:04Z</time>
      </trkpt>
      <trkpt lat="45.51193" lon="6.20754">
        <ele>1000.3891602</ele>
        <time>2012-03-17T12:59:12Z</time>
      </trkpt>
      <trkpt lat="45.51186" lon="6.20759">
        <ele>1001.3503418</ele>
        <time>2012-03-17T12:59:17Z</time>
      </trkpt>
      <trkpt lat="45.51182" lon="6.20764">
        <ele>1004.7150879</ele>
        <time>2012-03-17T12:59:22Z</time>
      </trkpt>
      <trkpt lat="45.51181" lon="6.20769">
        <ele>1002.3115234</ele>
        <time>2012-03-17T12:59:27Z</time>
      </trkpt>
      <trkpt lat="45.51177" lon="6.20774">
        <ele>1003.2729492</ele>
        <time>2012-03-17T12:59:36Z</time>
      </trkpt>
      <trkpt lat="45.51176" lon="6.20776">
        <ele>1001.8310547</ele>
        <time>2012-03-17T12:59:37Z</time>
      </trkpt>
      <trkpt lat="45.51172" lon="6.2078">
        <ele>1004.2346191</ele>
        <time>2012-03-17T12:59:43Z</time>
      </trkpt>
      <trkpt lat="45.51168" lon="6.20786">
        <ele>1006.1569824</ele>
        <time>2012-03-17T12:59:47Z</time>
      </trkpt>
      <trkpt lat="45.51166" lon="6.2079">
        <ele>1005.6765137</ele>
        <time>2012-03-17T12:59:51Z</time>
      </trkpt>
      <trkpt lat="45.51162" lon="6.20792">
        <ele>1009.0410156</ele>
        <time>2012-03-17T12:59:58Z</time>
      </trkpt>
      <trkpt lat="45.51158" lon="6.20798">
        <ele>1011.9250488</ele>
        <time>2012-03-17T13:00:06Z</time>
      </trkpt>
      <trkpt lat="45.51154" lon="6.20804">
        <ele>1016.2507324</ele>
        <time>2012-03-17T13:00:16Z</time>
      </trkpt>
      <trkpt lat="45.51153" lon="6.20809">
        <ele>1014.8088379</ele>
        <time>2012-03-17T13:00:23Z</time>
      </trkpt>
      <trkpt lat="45.5115" lon="6.20818">
        <ele>1015.2895508</ele>
        <time>2012-03-17T13:00:31Z</time>
      </trkpt>
      <trkpt lat="45.51148" lon="6.2082">
        <ele>1017.2121582</ele>
        <time>2012-03-17T13:00:33Z</time>
      </trkpt>
      <trkpt lat="45.51146" lon="6.20827">
        <ele>1022.9802246</ele>
        <time>2012-03-17T13:00:42Z</time>
      </trkpt>
      <trkpt lat="45.51144" lon="6.20831">
        <ele>1023.4609375</ele>
        <time>2012-03-17T13:00:48Z</time>
      </trkpt>
      <trkpt lat="45.51139" lon="6.20834">
        <ele>1026.3447266</ele>
        <time>2012-03-17T13:00:57Z</time>
      </trkpt>
      <trkpt lat="45.51132" lon="6.20842">
        <ele>1039.8032227</ele>
        <time>2012-03-17T13:01:11Z</time>
      </trkpt>
      <trkpt lat="45.51132" lon="6.20848">
        <ele>1042.6872559</ele>
        <time>2012-03-17T13:01:16Z</time>
      </trkpt>
      <trkpt lat="45.51126" lon="6.20856">
        <ele>1046.5324707</ele>
        <time>2012-03-17T13:01:23Z</time>
      </trkpt>
      <trkpt lat="45.51123" lon="6.20869">
        <ele>1038.842041</ele>
        <time>2012-03-17T13:01:31Z</time>
      </trkpt>
      <trkpt lat="45.51121" lon="6.20872">
        <ele>1037.8806152</ele>
        <time>2012-03-17T13:01:34Z</time>
      </trkpt>
      <trkpt lat="45.51119" lon="6.20878">
        <ele>1035.4770508</ele>
        <time>2012-03-17T13:01:40Z</time>
      </trkpt>
      <trkpt lat="45.5112" lon="6.20875">
        <ele>1047.0129395</ele>
        <time>2012-03-17T13:01:54Z</time>
      </trkpt>
      <trkpt lat="45.51119" lon="6.20873">
        <ele>1050.3776855</ele>
        <time>2012-03-17T13:01:56Z</time>
      </trkpt>
      <trkpt lat="45.51119" lon="6.2087">
        <ele>1056.6262207</ele>
        <time>2012-03-17T13:02:00Z</time>
      </trkpt>
      <trkpt lat="45.5112" lon="6.20872">
        <ele>1055.6650391</ele>
        <time>2012-03-17T13:02:07Z</time>
      </trkpt>
      <trkpt lat="45.51119" lon="6.20876">
        <ele>1046.5324707</ele>
        <time>2012-03-17T13:02:17Z</time>
      </trkpt>
      <trkpt lat="45.51117" lon="6.20873">
        <ele>1054.2231445</ele>
        <time>2012-03-17T13:02:28Z</time>
      </trkpt>
      <trkpt lat="45.51116" lon="6.20871">
        <ele>1056.1455078</ele>
        <time>2012-03-17T13:02:32Z</time>
      </trkpt>
      <trkpt lat="45.51116" lon="6.20871">
        <ele>1056.6262207</ele>
        <time>2012-03-17T13:02:33Z</time>
      </trkpt>
      <trkpt lat="45.51111" lon="6.2087">
        <ele>1057.5876465</ele>
        <time>2012-03-17T13:02:39Z</time>
      </trkpt>
      <trkpt lat="45.51108" lon="6.20872">
        <ele>1051.8195801</ele>
        <time>2012-03-17T13:02:43Z</time>
      </trkpt>
      <trkpt lat="45.51103" lon="6.2088">
        <ele>1038.842041</ele>
        <time>2012-03-17T13:02:50Z</time>
      </trkpt>
      <trkpt lat="45.51102" lon="6.20881">
        <ele>1036.4387207</ele>
        <time>2012-03-17T13:02:51Z</time>
      </trkpt>
      <trkpt lat="45.51095" lon="6.20887">
        <ele>1036.4387207</ele>
        <time>2012-03-17T13:02:57Z</time>
      </trkpt>
      <trkpt lat="45.5109" lon="6.20894">
        <ele>1034.996582</ele>
        <time>2012-03-17T13:03:03Z</time>
      </trkpt>
      <trkpt lat="45.51088" lon="6.20898">
        <ele>1034.5158691</ele>
        <time>2012-03-17T13:03:10Z</time>
      </trkpt>
      <trkpt lat="45.51083" lon="6.20905">
        <ele>1033.5544434</ele>
        <time>2012-03-17T13:03:21Z</time>
      </trkpt>
      <trkpt lat="45.51079" lon="6.20911">
        <ele>1035.9577637</ele>
        <time>2012-03-17T13:03:26Z</time>
      </trkpt>
      <trkpt lat="45.51075" lon="6.20917">
        <ele>1036.9191895</ele>
        <time>2012-03-17T13:03:32Z</time>
      </trkpt>
      <trkpt lat="45.51075" lon="6.20918">
        <ele>1037.3999023</ele>
        <time>2012-03-17T13:03:33Z</time>
      </trkpt>
      <trkpt lat="45.51074" lon="6.20921">
        <ele>1038.3613281</ele>
        <time>2012-03-17T13:03:35Z</time>
      </trkpt>
      <trkpt lat="45.51068" lon="6.20928">
        <ele>1039.3225098</ele>
        <time>2012-03-17T13:03:40Z</time>
      </trkpt>
      <trkpt lat="45.51059" lon="6.20935">
        <ele>1043.1677246</ele>
        <time>2012-03-17T13:03:46Z</time>
      </trkpt>
      <trkpt lat="45.51044" lon="6.20944">
        <ele>1044.1291504</ele>
        <time>2012-03-17T13:03:53Z</time>
      </trkpt>
      <trkpt lat="45.51032" lon="6.20949">
        <ele>1043.6484375</ele>
        <time>2012-03-17T13:03:58Z</time>
      </trkpt>
      <trkpt lat="45.51022" lon="6.20951">
        <ele>1045.5710449</ele>
        <time>2012-03-17T13:04:03Z</time>
      </trkpt>
      <trkpt lat="45.51012" lon="6.20955">
        <ele>1045.090332</ele>
        <time>2012-03-17T13:04:08Z</time>
      </trkpt>
      <trkpt lat="45.51006" lon="6.20958">
        <ele>1046.0517578</ele>
        <time>2012-03-17T13:04:11Z</time>
      </trkpt>
      <trkpt lat="45.50995" lon="6.20963">
        <ele>1047.0129395</ele>
        <time>2012-03-17T13:04:17Z</time>
      </trkpt>
      <trkpt lat="45.50992" lon="6.20965">
        <ele>1047.0129395</ele>
        <time>2012-03-17T13:04:19Z</time>
      </trkpt>
      <trkpt lat="45.5098" lon="6.2097">
        <ele>1047.0129395</ele>
        <time>2012-03-17T13:04:25Z</time>
      </trkpt>
      <trkpt lat="45.5097" lon="6.20975">
        <ele>1046.0517578</ele>
        <time>2012-03-17T13:04:30Z</time>
      </trkpt>
      <trkpt lat="45.50956" lon="6.20978">
        <ele>1042.6872559</ele>
        <time>2012-03-17T13:04:37Z</time>
      </trkpt>
      <trkpt lat="45.50941" lon="6.20981">
        <ele>1041.7258301</ele>
        <time>2012-03-17T13:04:44Z</time>
      </trkpt>
      <trkpt lat="45.50923" lon="6.20999">
        <ele>1042.206543</ele>
        <time>2012-03-17T13:04:49Z</time>
      </trkpt>
      <trkpt lat="45.50914" lon="6.21013">
        <ele>1042.6872559</ele>
        <time>2012-03-17T13:04:53Z</time>
      </trkpt>
      <trkpt lat="45.50909" lon="6.21025">
        <ele>1043.6484375</ele>
        <time>2012-03-17T13:04:58Z</time>
      </trkpt>
      <trkpt lat="45.509" lon="6.21039">
        <ele>1046.5324707</ele>
        <time>2012-03-17T13:05:04Z</time>
      </trkpt>
      <trkpt lat="45.50897" lon="6.21047">
        <ele>1045.090332</ele>
        <time>2012-03-17T13:05:08Z</time>
      </trkpt>
      <trkpt lat="45.50896" lon="6.21049">
        <ele>1045.5710449</ele>
        <time>2012-03-17T13:05:09Z</time>
      </trkpt>
      <trkpt lat="45.50892" lon="6.21057">
        <ele>1044.6096191</ele>
        <time>2012-03-17T13:05:14Z</time>
      </trkpt>
      <trkpt lat="45.5089" lon="6.21066">
        <ele>1043.1677246</ele>
        <time>2012-03-17T13:05:21Z</time>
      </trkpt>
      <trkpt lat="45.5089" lon="6.21079">
        <ele>1043.1677246</ele>
        <time>2012-03-17T13:05:25Z</time>
      </trkpt>
      <trkpt lat="45.5089" lon="6.21105">
        <ele>1043.1677246</ele>
        <time>2012-03-17T13:05:32Z</time>
      </trkpt>
      <trkpt lat="45.50888" lon="6.21129">
        <ele>1043.6484375</ele>
        <time>2012-03-17T13:05:38Z</time>
      </trkpt>
      <trkpt lat="45.50885" lon="6.21149">
        <ele>1043.6484375</ele>
        <time>2012-03-17T13:05:43Z</time>
      </trkpt>
      <trkpt lat="45.50881" lon="6.21172">
        <ele>1043.1677246</ele>
        <time>2012-03-17T13:05:49Z</time>
      </trkpt>
      <trkpt lat="45.50877" lon="6.21195">
        <ele>1042.6872559</ele>
        <time>2012-03-17T13:05:55Z</time>
      </trkpt>
      <trkpt lat="45.5087" lon="6.21222">
        <ele>1041.2451172</ele>
        <time>2012-03-17T13:06:02Z</time>
      </trkpt>
      <trkpt lat="45.50867" lon="6.2124">
        <ele>1042.6872559</ele>
        <time>2012-03-17T13:06:07Z</time>
      </trkpt>
      <trkpt lat="45.50863" lon="6.21251">
        <ele>1043.1677246</ele>
        <time>2012-03-17T13:06:10Z</time>
      </trkpt>
      <trkpt lat="45.50858" lon="6.21276">
        <ele>1044.6096191</ele>
        <time>2012-03-17T13:06:17Z</time>
      </trkpt>
      <trkpt lat="45.50854" lon="6.21298">
        <ele>1045.5710449</ele>
        <time>2012-03-17T13:06:23Z</time>
      </trkpt>
      <trkpt lat="45.50849" lon="6.2132">
        <ele>1044.6096191</ele>
        <time>2012-03-17T13:06:29Z</time>
      </trkpt>
      <trkpt lat="45.50844" lon="6.21337">
        <ele>1044.6096191</ele>
        <time>2012-03-17T13:06:34Z</time>
      </trkpt>
      <trkpt lat="45.50839" lon="6.21348">
        <ele>1044.6096191</ele>
        <time>2012-03-17T13:06:38Z</time>
      </trkpt>
      <trkpt lat="45.50828" lon="6.21368">
        <ele>1044.6096191</ele>
        <time>2012-03-17T13:06:45Z</time>
      </trkpt>
      <trkpt lat="45.50821" lon="6.21388">
        <ele>1042.6872559</ele>
        <time>2012-03-17T13:06:52Z</time>
      </trkpt>
      <trkpt lat="45.50821" lon="6.21405">
        <ele>1044.6096191</ele>
        <time>2012-03-17T13:06:58Z</time>
      </trkpt>
      <trkpt lat="45.50817" lon="6.21418">
        <ele>1048.454834</ele>
        <time>2012-03-17T13:07:03Z</time>
      </trkpt>
      <trkpt lat="45.50812" lon="6.21432">
        <ele>1050.3776855</ele>
        <time>2012-03-17T13:07:08Z</time>
      </trkpt>
      <trkpt lat="45.50804" lon="6.21446">
        <ele>1051.3388672</ele>
        <time>2012-03-17T13:07:14Z</time>
      </trkpt>
      <trkpt lat="45.50797" lon="6.21457">
        <ele>1047.9743652</ele>
        <time>2012-03-17T13:07:18Z</time>
      </trkpt>
      <trkpt lat="45.50787" lon="6.21469">
        <ele>1048.9355469</ele>
        <time>2012-03-17T13:07:23Z</time>
      </trkpt>
      <trkpt lat="45.5078" lon="6.21465">
        <ele>1049.4162598</ele>
        <time>2012-03-17T13:07:26Z</time>
      </trkpt>
      <trkpt lat="45.50775" lon="6.2146">
        <ele>1051.8195801</ele>
        <time>2012-03-17T13:07:29Z</time>
      </trkpt>
      <trkpt lat="45.50771" lon="6.21458">
        <ele>1052.300293</ele>
        <time>2012-03-17T13:07:31Z</time>
      </trkpt>
      <trkpt lat="45.50761" lon="6.21453">
        <ele>1051.8195801</ele>
        <time>2012-03-17T13:07:36Z</time>
      </trkpt>
      <trkpt lat="45.50746" lon="6.21448">
        <ele>1054.2231445</ele>
        <time>2012-03-17T13:07:42Z</time>
      </trkpt>
      <trkpt lat="45.50735" lon="6.2145">
        <ele>1052.300293</ele>
        <time>2012-03-17T13:07:46Z</time>
      </trkpt>
      <trkpt lat="45.50721" lon="6.2145">
        <ele>1053.2617188</ele>
        <time>2012-03-17T13:07:52Z</time>
      </trkpt>
      <trkpt lat="45.50712" lon="6.21448">
        <ele>1057.1069336</ele>
        <time>2012-03-17T13:07:57Z</time>
      </trkpt>
      <trkpt lat="45.507" lon="6.21451">
        <ele>1059.9907227</ele>
        <time>2012-03-17T13:08:02Z</time>
      </trkpt>
      <trkpt lat="45.50696" lon="6.21453">
        <ele>1060.4714355</ele>
        <time>2012-03-17T13:08:04Z</time>
      </trkpt>
      <trkpt lat="45.50698" lon="6.21458">
        <ele>1063.8359375</ele>
        <time>2012-03-17T13:08:10Z</time>
      </trkpt>
      <trkpt lat="45.507" lon="6.21459">
        <ele>1064.7973633</ele>
        <time>2012-03-17T13:08:12Z</time>
      </trkpt>
      <trkpt lat="45.50698" lon="6.21466">
        <ele>1064.7973633</ele>
        <time>2012-03-17T13:08:17Z</time>
      </trkpt>
      <trkpt lat="45.50696" lon="6.21467">
        <ele>1063.8359375</ele>
        <time>2012-03-17T13:08:22Z</time>
      </trkpt>
      <trkpt lat="45.50693" lon="6.21475">
        <ele>1064.7973633</ele>
        <time>2012-03-17T13:08:28Z</time>
      </trkpt>
      <trkpt lat="45.50693" lon="6.21477">
        <ele>1064.7973633</ele>
        <time>2012-03-17T13:08:29Z</time>
      </trkpt>
      <trkpt lat="45.50693" lon="6.21483">
        <ele>1062.8747559</ele>
        <time>2012-03-17T13:08:34Z</time>
      </trkpt>
      <trkpt lat="45.50693" lon="6.21489">
        <ele>1062.8747559</ele>
        <time>2012-03-17T13:08:39Z</time>
      </trkpt>
      <trkpt lat="45.50692" lon="6.21492">
        <ele>1061.9135742</ele>
        <time>2012-03-17T13:08:41Z</time>
      </trkpt>
      <trkpt lat="45.50694" lon="6.21496">
        <ele>1061.9135742</ele>
        <time>2012-03-17T13:08:45Z</time>
      </trkpt>
      <trkpt lat="45.50695" lon="6.21503">
        <ele>1064.3166504</ele>
        <time>2012-03-17T13:08:50Z</time>
      </trkpt>
      <trkpt lat="45.50697" lon="6.21512">
        <ele>1066.2392578</ele>
        <time>2012-03-17T13:08:58Z</time>
      </trkpt>
      <trkpt lat="45.50697" lon="6.21514">
        <ele>1066.7199707</ele>
        <time>2012-03-17T13:09:00Z</time>
      </trkpt>
      <trkpt lat="45.50696" lon="6.21519">
        <ele>1067.2006836</ele>
        <time>2012-03-17T13:09:04Z</time>
      </trkpt>
      <trkpt lat="45.50696" lon="6.21522">
        <ele>1067.6811523</ele>
        <time>2012-03-17T13:09:06Z</time>
      </trkpt>
      <trkpt lat="45.50696" lon="6.21525">
        <ele>1068.1621094</ele>
        <time>2012-03-17T13:09:09Z</time>
      </trkpt>
      <trkpt lat="45.50696" lon="6.2153">
        <ele>1068.6428223</ele>
        <time>2012-03-17T13:09:13Z</time>
      </trkpt>
      <trkpt lat="45.50699" lon="6.21541">
        <ele>1072.4880371</ele>
        <time>2012-03-17T13:09:22Z</time>
      </trkpt>
      <trkpt lat="45.50698" lon="6.2155">
        <ele>1075.3718262</ele>
        <time>2012-03-17T13:09:28Z</time>
      </trkpt>
      <trkpt lat="45.50699" lon="6.2156">
        <ele>1080.1784668</ele>
        <time>2012-03-17T13:09:35Z</time>
      </trkpt>
      <trkpt lat="45.50694" lon="6.21573">
        <ele>1081.1398926</ele>
        <time>2012-03-17T13:09:42Z</time>
      </trkpt>
      <trkpt lat="45.50694" lon="6.21574">
        <ele>1081.1398926</ele>
        <time>2012-03-17T13:09:43Z</time>
      </trkpt>
      <trkpt lat="45.50693" lon="6.21584">
        <ele>1081.1398926</ele>
        <time>2012-03-17T13:09:51Z</time>
      </trkpt>
      <trkpt lat="45.5069" lon="6.21594">
        <ele>1080.6591797</ele>
        <time>2012-03-17T13:09:57Z</time>
      </trkpt>
      <trkpt lat="45.50687" lon="6.21604">
        <ele>1081.1398926</ele>
        <time>2012-03-17T13:10:04Z</time>
      </trkpt>
      <trkpt lat="45.50683" lon="6.21612">
        <ele>1080.6591797</ele>
        <time>2012-03-17T13:10:08Z</time>
      </trkpt>
      <trkpt lat="45.50676" lon="6.21618">
        <ele>1080.6591797</ele>
        <time>2012-03-17T13:10:12Z</time>
      </trkpt>
      <trkpt lat="45.5067" lon="6.21618">
        <ele>1083.0622559</ele>
        <time>2012-03-17T13:10:17Z</time>
      </trkpt>
      <trkpt lat="45.50661" lon="6.21624">
        <ele>1083.5429688</ele>
        <time>2012-03-17T13:10:22Z</time>
      </trkpt>
      <trkpt lat="45.50648" lon="6.21632">
        <ele>1083.5429688</ele>
        <time>2012-03-17T13:10:28Z</time>
      </trkpt>
      <trkpt lat="45.50644" lon="6.21636">
        <ele>1083.0622559</ele>
        <time>2012-03-17T13:10:31Z</time>
      </trkpt>
      <trkpt lat="45.50638" lon="6.21638">
        <ele>1083.0622559</ele>
        <time>2012-03-17T13:10:39Z</time>
      </trkpt>
      <trkpt lat="45.50633" lon="6.21642">
        <ele>1082.5817871</ele>
        <time>2012-03-17T13:10:46Z</time>
      </trkpt>
      <trkpt lat="45.50631" lon="6.21649">
        <ele>1084.9853516</ele>
        <time>2012-03-17T13:10:52Z</time>
      </trkpt>
      <trkpt lat="45.50629" lon="6.21661">
        <ele>1087.3884277</ele>
        <time>2012-03-17T13:10:58Z</time>
      </trkpt>
      <trkpt lat="45.50627" lon="6.21675">
        <ele>1088.8305664</ele>
        <time>2012-03-17T13:11:06Z</time>
      </trkpt>
      <trkpt lat="45.50627" lon="6.21687">
        <ele>1090.7529297</ele>
        <time>2012-03-17T13:11:13Z</time>
      </trkpt>
      <trkpt lat="45.50628" lon="6.21701">
        <ele>1092.6757813</ele>
        <time>2012-03-17T13:11:21Z</time>
      </trkpt>
      <trkpt lat="45.50628" lon="6.21712">
        <ele>1093.15625</ele>
        <time>2012-03-17T13:11:26Z</time>
      </trkpt>
      <trkpt lat="45.50627" lon="6.21725">
        <ele>1094.5981445</ele>
        <time>2012-03-17T13:11:31Z</time>
      </trkpt>
      <trkpt lat="45.50627" lon="6.21733">
        <ele>1096.0402832</ele>
        <time>2012-03-17T13:11:34Z</time>
      </trkpt>
      <trkpt lat="45.50623" lon="6.21747">
        <ele>1098.4433594</ele>
        <time>2012-03-17T13:11:40Z</time>
      </trkpt>
      <trkpt lat="45.50617" lon="6.21758">
        <ele>1100.3664551</ele>
        <time>2012-03-17T13:11:45Z</time>
      </trkpt>
      <trkpt lat="45.50612" lon="6.21765">
        <ele>1099.4047852</ele>
        <time>2012-03-17T13:11:51Z</time>
      </trkpt>
      <trkpt lat="45.5061" lon="6.21765">
        <ele>1097.9628906</ele>
        <time>2012-03-17T13:11:53Z</time>
      </trkpt>
      <trkpt lat="45.50608" lon="6.21767">
        <ele>1097.9628906</ele>
        <time>2012-03-17T13:11:58Z</time>
      </trkpt>
      <trkpt lat="45.50605" lon="6.21775">
        <ele>1099.4047852</ele>
        <time>2012-03-17T13:12:04Z</time>
      </trkpt>
      <trkpt lat="45.50605" lon="6.21777">
        <ele>1099.4047852</ele>
        <time>2012-03-17T13:12:05Z</time>
      </trkpt>
      <trkpt lat="45.50605" lon="6.2178">
        <ele>1100.3664551</ele>
        <time>2012-03-17T13:12:07Z</time>
      </trkpt>
      <trkpt lat="45.50606" lon="6.21796">
        <ele>1101.8083496</ele>
        <time>2012-03-17T13:12:17Z</time>
      </trkpt>
      <trkpt lat="45.50606" lon="6.21809">
        <ele>1103.730957</ele>
        <time>2012-03-17T13:12:26Z</time>
      </trkpt>
      <trkpt lat="45.50606" lon="6.2181">
        <ele>1104.2116699</ele>
        <time>2012-03-17T13:12:27Z</time>
      </trkpt>
      <trkpt lat="45.50606" lon="6.21822">
        <ele>1106.1340332</ele>
        <time>2012-03-17T13:12:33Z</time>
      </trkpt>
      <trkpt lat="45.50604" lon="6.21829">
        <ele>1106.6147461</ele>
        <time>2012-03-17T13:12:38Z</time>
      </trkpt>
      <trkpt lat="45.50603" lon="6.21837">
        <ele>1106.1340332</ele>
        <time>2012-03-17T13:12:45Z</time>
      </trkpt>
      <trkpt lat="45.50601" lon="6.21842">
        <ele>1105.6535645</ele>
        <time>2012-03-17T13:12:51Z</time>
      </trkpt>
      <trkpt lat="45.50598" lon="6.21848">
        <ele>1106.1340332</ele>
        <time>2012-03-17T13:12:55Z</time>
      </trkpt>
      <trkpt lat="45.50592" lon="6.21854">
        <ele>1107.5761719</ele>
        <time>2012-03-17T13:13:02Z</time>
      </trkpt>
      <trkpt lat="45.50588" lon="6.21858">
        <ele>1107.5761719</ele>
        <time>2012-03-17T13:13:08Z</time>
      </trkpt>
      <trkpt lat="45.50578" lon="6.21863">
        <ele>1107.5761719</ele>
        <time>2012-03-17T13:13:17Z</time>
      </trkpt>
      <trkpt lat="45.50578" lon="6.21864">
        <ele>1107.5761719</ele>
        <time>2012-03-17T13:13:18Z</time>
      </trkpt>
      <trkpt lat="45.50574" lon="6.21865">
        <ele>1107.5761719</ele>
        <time>2012-03-17T13:13:22Z</time>
      </trkpt>
      <trkpt lat="45.50569" lon="6.21867">
        <ele>1107.5761719</ele>
        <time>2012-03-17T13:13:27Z</time>
      </trkpt>
      <trkpt lat="45.50565" lon="6.21868">
        <ele>1106.6147461</ele>
        <time>2012-03-17T13:13:34Z</time>
      </trkpt>
      <trkpt lat="45.50558" lon="6.21872">
        <ele>1107.095459</ele>
        <time>2012-03-17T13:13:41Z</time>
      </trkpt>
      <trkpt lat="45.50546" lon="6.21883">
        <ele>1109.979248</ele>
        <time>2012-03-17T13:13:48Z</time>
      </trkpt>
      <trkpt lat="45.50538" lon="6.21887">
        <ele>1109.4987793</ele>
        <time>2012-03-17T13:13:55Z</time>
      </trkpt>
      <trkpt lat="45.50533" lon="6.21894">
        <ele>1111.4213867</ele>
        <time>2012-03-17T13:14:02Z</time>
      </trkpt>
      <trkpt lat="45.50531" lon="6.21895">
        <ele>1109.979248</ele>
        <time>2012-03-17T13:14:10Z</time>
      </trkpt>
      <trkpt lat="45.50528" lon="6.21896">
        <ele>1108.5373535</ele>
        <time>2012-03-17T13:14:15Z</time>
      </trkpt>
      <trkpt lat="45.50526" lon="6.21896">
        <ele>1108.5373535</ele>
        <time>2012-03-17T13:14:17Z</time>
      </trkpt>
      <trkpt lat="45.50522" lon="6.21896">
        <ele>1107.5761719</ele>
        <time>2012-03-17T13:14:22Z</time>
      </trkpt>
      <trkpt lat="45.50516" lon="6.21896">
        <ele>1107.095459</ele>
        <time>2012-03-17T13:14:29Z</time>
      </trkpt>
      <trkpt lat="45.50509" lon="6.21899">
        <ele>1107.095459</ele>
        <time>2012-03-17T13:14:35Z</time>
      </trkpt>
      <trkpt lat="45.50504" lon="6.219">
        <ele>1106.6147461</ele>
        <time>2012-03-17T13:14:40Z</time>
      </trkpt>
      <trkpt lat="45.50499" lon="6.21901">
        <ele>1106.6147461</ele>
        <time>2012-03-17T13:14:44Z</time>
      </trkpt>
      <trkpt lat="45.5049" lon="6.21901">
        <ele>1106.1340332</ele>
        <time>2012-03-17T13:14:52Z</time>
      </trkpt>
      <trkpt lat="45.50483" lon="6.21902">
        <ele>1106.6147461</ele>
        <time>2012-03-17T13:14:59Z</time>
      </trkpt>
      <trkpt lat="45.50475" lon="6.21899">
        <ele>1104.2116699</ele>
        <time>2012-03-17T13:15:06Z</time>
      </trkpt>
      <trkpt lat="45.50467" lon="6.21897">
        <ele>1103.730957</ele>
        <time>2012-03-17T13:15:13Z</time>
      </trkpt>
      <trkpt lat="45.5046" lon="6.21895">
        <ele>1103.730957</ele>
        <time>2012-03-17T13:15:20Z</time>
      </trkpt>
      <trkpt lat="45.50455" lon="6.21893">
        <ele>1103.730957</ele>
        <time>2012-03-17T13:15:27Z</time>
      </trkpt>
      <trkpt lat="45.50449" lon="6.21891">
        <ele>1103.2502441</ele>
        <time>2012-03-17T13:15:34Z</time>
      </trkpt>
      <trkpt lat="45.50438" lon="6.21887">
        <ele>1103.2502441</ele>
        <time>2012-03-17T13:15:46Z</time>
      </trkpt>
      <trkpt lat="45.5043" lon="6.21886">
        <ele>1103.2502441</ele>
        <time>2012-03-17T13:15:54Z</time>
      </trkpt>
      <trkpt lat="45.50419" lon="6.21883">
        <ele>1103.2502441</ele>
        <time>2012-03-17T13:16:04Z</time>
      </trkpt>
      <trkpt lat="45.50409" lon="6.2188">
        <ele>1102.2888184</ele>
        <time>2012-03-17T13:16:13Z</time>
      </trkpt>
      <trkpt lat="45.50405" lon="6.21879">
        <ele>1102.2888184</ele>
        <time>2012-03-17T13:16:16Z</time>
      </trkpt>
      <trkpt lat="45.50402" lon="6.21878">
        <ele>1101.8083496</ele>
        <time>2012-03-17T13:16:20Z</time>
      </trkpt>
      <trkpt lat="45.50394" lon="6.21875">
        <ele>1101.3276367</ele>
        <time>2012-03-17T13:16:27Z</time>
      </trkpt>
      <trkpt lat="45.50387" lon="6.21873">
        <ele>1101.8083496</ele>
        <time>2012-03-17T13:16:34Z</time>
      </trkpt>
      <trkpt lat="45.50382" lon="6.21871">
        <ele>1101.8083496</ele>
        <time>2012-03-17T13:16:39Z</time>
      </trkpt>
      <trkpt lat="45.50373" lon="6.2187">
        <ele>1101.3276367</ele>
        <time>2012-03-17T13:16:45Z</time>
      </trkpt>
      <trkpt lat="45.50362" lon="6.21867">
        <ele>1101.3276367</ele>
        <time>2012-03-17T13:16:53Z</time>
      </trkpt>
      <trkpt lat="45.50352" lon="6.21865">
        <ele>1100.3664551</ele>
        <time>2012-03-17T13:17:00Z</time>
      </trkpt>
      <trkpt lat="45.50344" lon="6.21858">
        <ele>1097.9628906</ele>
        <time>2012-03-17T13:17:08Z</time>
      </trkpt>
      <trkpt lat="45.5034" lon="6.21847">
        <ele>1096.5209961</ele>
        <time>2012-03-17T13:17:15Z</time>
      </trkpt>
      <trkpt lat="45.50336" lon="6.21841">
        <ele>1095.0788574</ele>
        <time>2012-03-17T13:17:20Z</time>
      </trkpt>
      <trkpt lat="45.5033" lon="6.21832">
        <ele>1095.0788574</ele>
        <time>2012-03-17T13:17:27Z</time>
      </trkpt>
      <trkpt lat="45.50329" lon="6.21831">
        <ele>1095.0788574</ele>
        <time>2012-03-17T13:17:28Z</time>
      </trkpt>
      <trkpt lat="45.50323" lon="6.21828">
        <ele>1094.5981445</ele>
        <time>2012-03-17T13:17:32Z</time>
      </trkpt>
      <trkpt lat="45.5032" lon="6.21824">
        <ele>1094.1176758</ele>
        <time>2012-03-17T13:17:35Z</time>
      </trkpt>
      <trkpt lat="45.50313" lon="6.21818">
        <ele>1093.15625</ele>
        <time>2012-03-17T13:17:41Z</time>
      </trkpt>
      <trkpt lat="45.50307" lon="6.21812">
        <ele>1091.7143555</ele>
        <time>2012-03-17T13:17:47Z</time>
      </trkpt>
      <trkpt lat="45.50294" lon="6.21809">
        <ele>1090.2724609</ele>
        <time>2012-03-17T13:17:53Z</time>
      </trkpt>
      <trkpt lat="45.50281" lon="6.21815">
        <ele>1088.3498535</ele>
        <time>2012-03-17T13:17:59Z</time>
      </trkpt>
      <trkpt lat="45.50269" lon="6.21831">
        <ele>1087.3884277</ele>
        <time>2012-03-17T13:18:05Z</time>
      </trkpt>
      <trkpt lat="45.50265" lon="6.21844">
        <ele>1086.4272461</ele>
        <time>2012-03-17T13:18:09Z</time>
      </trkpt>
      <trkpt lat="45.50264" lon="6.21852">
        <ele>1086.4272461</ele>
        <time>2012-03-17T13:18:11Z</time>
      </trkpt>
      <trkpt lat="45.50265" lon="6.21873">
        <ele>1085.4658203</ele>
        <time>2012-03-17T13:18:17Z</time>
      </trkpt>
      <trkpt lat="45.50267" lon="6.21896">
        <ele>1085.4658203</ele>
        <time>2012-03-17T13:18:23Z</time>
      </trkpt>
      <trkpt lat="45.5027" lon="6.21919">
        <ele>1084.9853516</ele>
        <time>2012-03-17T13:18:29Z</time>
      </trkpt>
      <trkpt lat="45.50275" lon="6.21941">
        <ele>1083.0622559</ele>
        <time>2012-03-17T13:18:35Z</time>
      </trkpt>
      <trkpt lat="45.50285" lon="6.21959">
        <ele>1086.4272461</ele>
        <time>2012-03-17T13:18:41Z</time>
      </trkpt>
      <trkpt lat="45.50294" lon="6.21976">
        <ele>1089.791748</ele>
        <time>2012-03-17T13:18:47Z</time>
      </trkpt>
      <trkpt lat="45.50295" lon="6.21987">
        <ele>1087.3884277</ele>
        <time>2012-03-17T13:18:51Z</time>
      </trkpt>
      <trkpt lat="45.50294" lon="6.22">
        <ele>1082.5817871</ele>
        <time>2012-03-17T13:18:56Z</time>
      </trkpt>
      <trkpt lat="45.50285" lon="6.22011">
        <ele>1083.0622559</ele>
        <time>2012-03-17T13:19:01Z</time>
      </trkpt>
      <trkpt lat="45.50283" lon="6.22013">
        <ele>1082.5817871</ele>
        <time>2012-03-17T13:19:05Z</time>
      </trkpt>
      <trkpt lat="45.50281" lon="6.22016">
        <ele>1080.6591797</ele>
        <time>2012-03-17T13:19:10Z</time>
      </trkpt>
      <trkpt lat="45.50279" lon="6.22017">
        <ele>1080.1784668</ele>
        <time>2012-03-17T13:19:11Z</time>
      </trkpt>
      <trkpt lat="45.50269" lon="6.22032">
        <ele>1074.8913574</ele>
        <time>2012-03-17T13:19:16Z</time>
      </trkpt>
      <trkpt lat="45.5026" lon="6.22048">
        <ele>1070.0847168</ele>
        <time>2012-03-17T13:19:22Z</time>
      </trkpt>
      <trkpt lat="45.50258" lon="6.22053">
        <ele>1068.6428223</ele>
        <time>2012-03-17T13:19:24Z</time>
      </trkpt>
      <trkpt lat="45.50253" lon="6.22062">
        <ele>1067.2006836</ele>
        <time>2012-03-17T13:19:28Z</time>
      </trkpt>
      <trkpt lat="45.50247" lon="6.22072">
        <ele>1065.7587891</ele>
        <time>2012-03-17T13:19:32Z</time>
      </trkpt>
      <trkpt lat="45.50241" lon="6.22086">
        <ele>1065.7587891</ele>
        <time>2012-03-17T13:19:36Z</time>
      </trkpt>
      <trkpt lat="45.5023" lon="6.22103">
        <ele>1066.7199707</ele>
        <time>2012-03-17T13:19:42Z</time>
      </trkpt>
      <trkpt lat="45.50228" lon="6.2212">
        <ele>1064.7973633</ele>
        <time>2012-03-17T13:19:46Z</time>
      </trkpt>
      <trkpt lat="45.5023" lon="6.22139">
        <ele>1060.9521484</ele>
        <time>2012-03-17T13:19:52Z</time>
      </trkpt>
      <trkpt lat="45.50231" lon="6.22157">
        <ele>1058.5488281</ele>
        <time>2012-03-17T13:19:57Z</time>
      </trkpt>
      <trkpt lat="45.5023" lon="6.22161">
        <ele>1058.5488281</ele>
        <time>2012-03-17T13:19:58Z</time>
      </trkpt>
      <trkpt lat="45.50228" lon="6.22185">
        <ele>1055.1843262</ele>
        <time>2012-03-17T13:20:04Z</time>
      </trkpt>
      <trkpt lat="45.50228" lon="6.22188">
        <ele>1055.1843262</ele>
        <time>2012-03-17T13:20:05Z</time>
      </trkpt>
      <trkpt lat="45.5022" lon="6.22214">
        <ele>1054.7036133</ele>
        <time>2012-03-17T13:20:11Z</time>
      </trkpt>
      <trkpt lat="45.5022" lon="6.22218">
        <ele>1054.7036133</ele>
        <time>2012-03-17T13:20:12Z</time>
      </trkpt>
      <trkpt lat="45.50216" lon="6.22239">
        <ele>1055.1843262</ele>
        <time>2012-03-17T13:20:17Z</time>
      </trkpt>
      <trkpt lat="45.50215" lon="6.22266">
        <ele>1048.9355469</ele>
        <time>2012-03-17T13:20:24Z</time>
      </trkpt>
      <trkpt lat="45.50218" lon="6.22287">
        <ele>1046.5324707</ele>
        <time>2012-03-17T13:20:30Z</time>
      </trkpt>
      <trkpt lat="45.50219" lon="6.22306">
        <ele>1045.5710449</ele>
        <time>2012-03-17T13:20:36Z</time>
      </trkpt>
      <trkpt lat="45.5022" lon="6.2233">
        <ele>1044.1291504</ele>
        <time>2012-03-17T13:20:43Z</time>
      </trkpt>
      <trkpt lat="45.50221" lon="6.22356">
        <ele>1042.6872559</ele>
        <time>2012-03-17T13:20:50Z</time>
      </trkpt>
      <trkpt lat="45.50221" lon="6.22379">
        <ele>1042.206543</ele>
        <time>2012-03-17T13:20:56Z</time>
      </trkpt>
      <trkpt lat="45.50221" lon="6.224">
        <ele>1041.2451172</ele>
        <time>2012-03-17T13:21:02Z</time>
      </trkpt>
      <trkpt lat="45.50221" lon="6.22421">
        <ele>1039.8032227</ele>
        <time>2012-03-17T13:21:08Z</time>
      </trkpt>
      <trkpt lat="45.50221" lon="6.22437">
        <ele>1037.8806152</ele>
        <time>2012-03-17T13:21:13Z</time>
      </trkpt>
      <trkpt lat="45.50221" lon="6.22441">
        <ele>1037.3999023</ele>
        <time>2012-03-17T13:21:14Z</time>
      </trkpt>
      <trkpt lat="45.50224" lon="6.22466">
        <ele>1035.4770508</ele>
        <time>2012-03-17T13:21:22Z</time>
      </trkpt>
      <trkpt lat="45.50226" lon="6.22483">
        <ele>1034.996582</ele>
        <time>2012-03-17T13:21:27Z</time>
      </trkpt>
      <trkpt lat="45.50228" lon="6.22488">
        <ele>1034.5158691</ele>
        <time>2012-03-17T13:21:29Z</time>
      </trkpt>
      <trkpt lat="45.50228" lon="6.22509">
        <ele>1036.4387207</ele>
        <time>2012-03-17T13:21:35Z</time>
      </trkpt>
      <trkpt lat="45.50227" lon="6.22525">
        <ele>1034.0351563</ele>
        <time>2012-03-17T13:21:40Z</time>
      </trkpt>
      <trkpt lat="45.50227" lon="6.22531">
        <ele>1032.5932617</ele>
        <time>2012-03-17T13:21:42Z</time>
      </trkpt>
      <trkpt lat="45.50227" lon="6.2255">
        <ele>1025.3833008</ele>
        <time>2012-03-17T13:21:48Z</time>
      </trkpt>
      <trkpt lat="45.50226" lon="6.22567">
        <ele>1023.9414063</ele>
        <time>2012-03-17T13:21:53Z</time>
      </trkpt>
      <trkpt lat="45.50221" lon="6.22581">
        <ele>1022.4995117</ele>
        <time>2012-03-17T13:21:57Z</time>
      </trkpt>
      <trkpt lat="45.50218" lon="6.22597">
        <ele>1020.5769043</ele>
        <time>2012-03-17T13:22:01Z</time>
      </trkpt>
      <trkpt lat="45.50217" lon="6.22601">
        <ele>1020.0961914</ele>
        <time>2012-03-17T13:22:02Z</time>
      </trkpt>
      <trkpt lat="45.50214" lon="6.22616">
        <ele>1019.1347656</ele>
        <time>2012-03-17T13:22:07Z</time>
      </trkpt>
      <trkpt lat="45.50213" lon="6.22631">
        <ele>1018.1733398</ele>
        <time>2012-03-17T13:22:11Z</time>
      </trkpt>
      <trkpt lat="45.50211" lon="6.22648">
        <ele>1016.2507324</ele>
        <time>2012-03-17T13:22:16Z</time>
      </trkpt>
      <trkpt lat="45.50209" lon="6.22668">
        <ele>1013.3669434</ele>
        <time>2012-03-17T13:22:22Z</time>
      </trkpt>
      <trkpt lat="45.50206" lon="6.22683">
        <ele>1011.4443359</ele>
        <time>2012-03-17T13:22:27Z</time>
      </trkpt>
      <trkpt lat="45.50203" lon="6.22689">
        <ele>1011.4443359</ele>
        <time>2012-03-17T13:22:29Z</time>
      </trkpt>
      <trkpt lat="45.50203" lon="6.22703">
        <ele>1008.5603027</ele>
        <time>2012-03-17T13:22:34Z</time>
      </trkpt>
      <trkpt lat="45.50202" lon="6.22717">
        <ele>1006.6376953</ele>
        <time>2012-03-17T13:22:38Z</time>
      </trkpt>
      <trkpt lat="45.502" lon="6.22727">
        <ele>1004.7150879</ele>
        <time>2012-03-17T13:22:42Z</time>
      </trkpt>
      <trkpt lat="45.50199" lon="6.22733">
        <ele>1002.3115234</ele>
        <time>2012-03-17T13:22:44Z</time>
      </trkpt>
      <trkpt lat="45.50201" lon="6.22747">
        <ele>1000.8696289</ele>
        <time>2012-03-17T13:22:50Z</time>
      </trkpt>
      <trkpt lat="45.50203" lon="6.22759">
        <ele>999.4277344</ele>
        <time>2012-03-17T13:22:56Z</time>
      </trkpt>
      <trkpt lat="45.50203" lon="6.22768">
        <ele>997.0244141</ele>
        <time>2012-03-17T13:23:00Z</time>
      </trkpt>
      <trkpt lat="45.50202" lon="6.22773">
        <ele>995.5825195</ele>
        <time>2012-03-17T13:23:02Z</time>
      </trkpt>
      <trkpt lat="45.502" lon="6.22789">
        <ele>991.2565918</ele>
        <time>2012-03-17T13:23:08Z</time>
      </trkpt>
      <trkpt lat="45.50198" lon="6.22801">
        <ele>987.4111328</ele>
        <time>2012-03-17T13:23:12Z</time>
      </trkpt>
      <trkpt lat="45.502" lon="6.22812">
        <ele>985.0080566</ele>
        <time>2012-03-17T13:23:17Z</time>
      </trkpt>
      <trkpt lat="45.50199" lon="6.22821">
        <ele>983.0852051</ele>
        <time>2012-03-17T13:23:21Z</time>
      </trkpt>
      <trkpt lat="45.50197" lon="6.22827">
        <ele>982.6047363</ele>
        <time>2012-03-17T13:23:24Z</time>
      </trkpt>
      <trkpt lat="45.50196" lon="6.22832">
        <ele>982.6047363</ele>
        <time>2012-03-17T13:23:29Z</time>
      </trkpt>
      <trkpt lat="45.502" lon="6.22838">
        <ele>982.6047363</ele>
        <time>2012-03-17T13:23:39Z</time>
      </trkpt>
      <trkpt lat="45.50199" lon="6.22843">
        <ele>983.0852051</ele>
        <time>2012-03-17T13:23:43Z</time>
      </trkpt>
      <trkpt lat="45.50198" lon="6.22848">
        <ele>984.0466309</ele>
        <time>2012-03-17T13:23:47Z</time>
      </trkpt>
      <trkpt lat="45.50201" lon="6.22851">
        <ele>980.6821289</ele>
        <time>2012-03-17T13:23:56Z</time>
      </trkpt>
      <trkpt lat="45.50202" lon="6.22852">
        <ele>978.2788086</ele>
        <time>2012-03-17T13:23:58Z</time>
      </trkpt>
      <trkpt lat="45.50194" lon="6.22871">
        <ele>977.7980957</ele>
        <time>2012-03-17T13:24:05Z</time>
      </trkpt>
      <trkpt lat="45.50193" lon="6.22876">
        <ele>976.3562012</ele>
        <time>2012-03-17T13:24:12Z</time>
      </trkpt>
      <trkpt lat="45.50195" lon="6.2289">
        <ele>975.3947754</ele>
        <time>2012-03-17T13:24:17Z</time>
      </trkpt>
      <trkpt lat="45.50197" lon="6.22895">
        <ele>975.3947754</ele>
        <time>2012-03-17T13:24:19Z</time>
      </trkpt>
      <trkpt lat="45.50199" lon="6.22899">
        <ele>975.3947754</ele>
        <time>2012-03-17T13:24:21Z</time>
      </trkpt>
      <trkpt lat="45.50204" lon="6.22901">
        <ele>974.4335938</ele>
        <time>2012-03-17T13:24:24Z</time>
      </trkpt>
      <trkpt lat="45.50204" lon="6.22907">
        <ele>971.0688477</ele>
        <time>2012-03-17T13:24:28Z</time>
      </trkpt>
      <trkpt lat="45.50198" lon="6.22907">
        <ele>967.2236328</ele>
        <time>2012-03-17T13:24:31Z</time>
      </trkpt>
      <trkpt lat="45.50194" lon="6.22907">
        <ele>966.7429199</ele>
        <time>2012-03-17T13:24:37Z</time>
      </trkpt>
      <trkpt lat="45.50192" lon="6.22913">
        <ele>966.262207</ele>
        <time>2012-03-17T13:24:40Z</time>
      </trkpt>
      <trkpt lat="45.50192" lon="6.22921">
        <ele>965.7817383</ele>
        <time>2012-03-17T13:24:44Z</time>
      </trkpt>
      <trkpt lat="45.50199" lon="6.22932">
        <ele>962.4169922</ele>
        <time>2012-03-17T13:24:50Z</time>
      </trkpt>
      <trkpt lat="45.50197" lon="6.22938">
        <ele>962.4169922</ele>
        <time>2012-03-17T13:24:52Z</time>
      </trkpt>
      <trkpt lat="45.50196" lon="6.22944">
        <ele>961.9365234</ele>
        <time>2012-03-17T13:24:54Z</time>
      </trkpt>
      <trkpt lat="45.50196" lon="6.22961">
        <ele>962.8977051</ele>
        <time>2012-03-17T13:25:00Z</time>
      </trkpt>
      <trkpt lat="45.50204" lon="6.22969">
        <ele>961.4558105</ele>
        <time>2012-03-17T13:25:05Z</time>
      </trkpt>
      <trkpt lat="45.50212" lon="6.22977">
        <ele>959.5332031</ele>
        <time>2012-03-17T13:25:10Z</time>
      </trkpt>
      <trkpt lat="45.50215" lon="6.22979">
        <ele>959.0524902</ele>
        <time>2012-03-17T13:25:12Z</time>
      </trkpt>
      <trkpt lat="45.5022" lon="6.22981">
        <ele>959.0524902</ele>
        <time>2012-03-17T13:25:14Z</time>
      </trkpt>
      <trkpt lat="45.5022" lon="6.22995">
        <ele>958.0913086</ele>
        <time>2012-03-17T13:25:19Z</time>
      </trkpt>
      <trkpt lat="45.50216" lon="6.23012">
        <ele>955.6877441</ele>
        <time>2012-03-17T13:25:25Z</time>
      </trkpt>
      <trkpt lat="45.50209" lon="6.23034">
        <ele>955.2070313</ele>
        <time>2012-03-17T13:25:31Z</time>
      </trkpt>
      <trkpt lat="45.50206" lon="6.23053">
        <ele>954.7263184</ele>
        <time>2012-03-17T13:25:36Z</time>
      </trkpt>
      <trkpt lat="45.50203" lon="6.23071">
        <ele>954.2458496</ele>
        <time>2012-03-17T13:25:41Z</time>
      </trkpt>
      <trkpt lat="45.50202" lon="6.23084">
        <ele>954.2458496</ele>
        <time>2012-03-17T13:25:45Z</time>
      </trkpt>
      <trkpt lat="45.50201" lon="6.23099">
        <ele>952.8037109</ele>
        <time>2012-03-17T13:25:49Z</time>
      </trkpt>
      <trkpt lat="45.50201" lon="6.23116">
        <ele>950.8811035</ele>
        <time>2012-03-17T13:25:54Z</time>
      </trkpt>
      <trkpt lat="45.502" lon="6.23131">
        <ele>949.439209</ele>
        <time>2012-03-17T13:25:58Z</time>
      </trkpt>
      <trkpt lat="45.50198" lon="6.23152">
        <ele>945.5939941</ele>
        <time>2012-03-17T13:26:03Z</time>
      </trkpt>
      <trkpt lat="45.50197" lon="6.23173">
        <ele>944.1520996</ele>
        <time>2012-03-17T13:26:08Z</time>
      </trkpt>
      <trkpt lat="45.50197" lon="6.2319">
        <ele>942.2294922</ele>
        <time>2012-03-17T13:26:13Z</time>
      </trkpt>
      <trkpt lat="45.50195" lon="6.232">
        <ele>940.3068848</ele>
        <time>2012-03-17T13:26:16Z</time>
      </trkpt>
      <trkpt lat="45.50197" lon="6.23212">
        <ele>940.7873535</ele>
        <time>2012-03-17T13:26:22Z</time>
      </trkpt>
      <trkpt lat="45.50199" lon="6.23218">
        <ele>940.7873535</ele>
        <time>2012-03-17T13:26:26Z</time>
      </trkpt>
      <trkpt lat="45.502" lon="6.23226">
        <ele>939.8259277</ele>
        <time>2012-03-17T13:26:29Z</time>
      </trkpt>
      <trkpt lat="45.50194" lon="6.23243">
        <ele>933.5773926</ele>
        <time>2012-03-17T13:26:34Z</time>
      </trkpt>
      <trkpt lat="45.50191" lon="6.23251">
        <ele>932.135498</ele>
        <time>2012-03-17T13:26:36Z</time>
      </trkpt>
      <trkpt lat="45.50185" lon="6.23274">
        <ele>926.3676758</ele>
        <time>2012-03-17T13:26:43Z</time>
      </trkpt>
      <trkpt lat="45.5018" lon="6.2329">
        <ele>919.1577148</ele>
        <time>2012-03-17T13:26:48Z</time>
      </trkpt>
      <trkpt lat="45.5018" lon="6.23298">
        <ele>918.1962891</ele>
        <time>2012-03-17T13:26:50Z</time>
      </trkpt>
      <trkpt lat="45.50177" lon="6.23316">
        <ele>910.0251465</ele>
        <time>2012-03-17T13:26:56Z</time>
      </trkpt>
      <trkpt lat="45.50177" lon="6.23319">
        <ele>909.5446777</ele>
        <time>2012-03-17T13:26:57Z</time>
      </trkpt>
      <trkpt lat="45.50176" lon="6.23339">
        <ele>911.4672852</ele>
        <time>2012-03-17T13:27:03Z</time>
      </trkpt>
      <trkpt lat="45.50171" lon="6.23355">
        <ele>908.1027832</ele>
        <time>2012-03-17T13:27:08Z</time>
      </trkpt>
      <trkpt lat="45.50171" lon="6.23378">
        <ele>906.6604004</ele>
        <time>2012-03-17T13:27:14Z</time>
      </trkpt>
      <trkpt lat="45.50175" lon="6.23391">
        <ele>908.1027832</ele>
        <time>2012-03-17T13:27:18Z</time>
      </trkpt>
      <trkpt lat="45.50167" lon="6.23422">
        <ele>907.1411133</ele>
        <time>2012-03-17T13:27:24Z</time>
      </trkpt>
      <trkpt lat="45.50164" lon="6.23445">
        <ele>901.8540039</ele>
        <time>2012-03-17T13:27:30Z</time>
      </trkpt>
      <trkpt lat="45.50162" lon="6.2347">
        <ele>899.4506836</ele>
        <time>2012-03-17T13:27:36Z</time>
      </trkpt>
      <trkpt lat="45.50161" lon="6.23477">
        <ele>899.4506836</ele>
        <time>2012-03-17T13:27:38Z</time>
      </trkpt>
      <trkpt lat="45.50156" lon="6.23493">
        <ele>901.8540039</ele>
        <time>2012-03-17T13:27:43Z</time>
      </trkpt>
      <trkpt lat="45.50151" lon="6.23511">
        <ele>900.8925781</ele>
        <time>2012-03-17T13:27:48Z</time>
      </trkpt>
      <trkpt lat="45.50149" lon="6.23527">
        <ele>898.4892578</ele>
        <time>2012-03-17T13:27:52Z</time>
      </trkpt>
      <trkpt lat="45.50149" lon="6.23548">
        <ele>904.737793</ele>
        <time>2012-03-17T13:27:58Z</time>
      </trkpt>
      <trkpt lat="45.50153" lon="6.23569">
        <ele>897.5280762</ele>
        <time>2012-03-17T13:28:04Z</time>
      </trkpt>
      <trkpt lat="45.50154" lon="6.23585">
        <ele>893.6828613</ele>
        <time>2012-03-17T13:28:08Z</time>
      </trkpt>
      <trkpt lat="45.50154" lon="6.23606">
        <ele>888.3955078</ele>
        <time>2012-03-17T13:28:13Z</time>
      </trkpt>
      <trkpt lat="45.50157" lon="6.23628">
        <ele>883.5888672</ele>
        <time>2012-03-17T13:28:19Z</time>
      </trkpt>
      <trkpt lat="45.50154" lon="6.23646">
        <ele>882.1469727</ele>
        <time>2012-03-17T13:28:24Z</time>
      </trkpt>
      <trkpt lat="45.50152" lon="6.23669">
        <ele>877.8210449</ele>
        <time>2012-03-17T13:28:30Z</time>
      </trkpt>
      <trkpt lat="45.50151" lon="6.23673">
        <ele>877.3405762</ele>
        <time>2012-03-17T13:28:31Z</time>
      </trkpt>
      <trkpt lat="45.50146" lon="6.23696">
        <ele>879.7436523</ele>
        <time>2012-03-17T13:28:37Z</time>
      </trkpt>
      <trkpt lat="45.50142" lon="6.23709">
        <ele>876.8598633</ele>
        <time>2012-03-17T13:28:42Z</time>
      </trkpt>
      <trkpt lat="45.50136" lon="6.23722">
        <ele>877.3405762</ele>
        <time>2012-03-17T13:28:46Z</time>
      </trkpt>
      <trkpt lat="45.50127" lon="6.23735">
        <ele>881.6662598</ele>
        <time>2012-03-17T13:28:53Z</time>
      </trkpt>
      <trkpt lat="45.50124" lon="6.23739">
        <ele>884.0695801</ele>
        <time>2012-03-17T13:28:58Z</time>
      </trkpt>
      <trkpt lat="45.50119" lon="6.23743">
        <ele>884.0695801</ele>
        <time>2012-03-17T13:29:03Z</time>
      </trkpt>
      <trkpt lat="45.50113" lon="6.23749">
        <ele>885.0310059</ele>
        <time>2012-03-17T13:29:13Z</time>
      </trkpt>
      <trkpt lat="45.50112" lon="6.23751">
        <ele>885.9921875</ele>
        <time>2012-03-17T13:29:18Z</time>
      </trkpt>
      <trkpt lat="45.50108" lon="6.23752">
        <ele>885.0310059</ele>
        <time>2012-03-17T13:29:25Z</time>
      </trkpt>
      <trkpt lat="45.50106" lon="6.23756">
        <ele>885.9921875</ele>
        <time>2012-03-17T13:29:28Z</time>
      </trkpt>
      <trkpt lat="45.50095" lon="6.23758">
        <ele>884.550293</ele>
        <time>2012-03-17T13:29:33Z</time>
      </trkpt>
      <trkpt lat="45.50091" lon="6.23758">
        <ele>883.5888672</ele>
        <time>2012-03-17T13:29:35Z</time>
      </trkpt>
      <trkpt lat="45.50083" lon="6.2376">
        <ele>883.5888672</ele>
        <time>2012-03-17T13:29:39Z</time>
      </trkpt>
      <trkpt lat="45.50078" lon="6.23757">
        <ele>885.0310059</ele>
        <time>2012-03-17T13:29:43Z</time>
      </trkpt>
      <trkpt lat="45.50075" lon="6.23755">
        <ele>885.0310059</ele>
        <time>2012-03-17T13:29:46Z</time>
      </trkpt>
      <trkpt lat="45.50068" lon="6.23746">
        <ele>881.185791</ele>
        <time>2012-03-17T13:29:55Z</time>
      </trkpt>
      <trkpt lat="45.50061" lon="6.23735">
        <ele>878.7824707</ele>
        <time>2012-03-17T13:30:01Z</time>
      </trkpt>
      <trkpt lat="45.50052" lon="6.23736">
        <ele>877.3405762</ele>
        <time>2012-03-17T13:30:05Z</time>
      </trkpt>
      <trkpt lat="45.50042" lon="6.2374">
        <ele>876.8598633</ele>
        <time>2012-03-17T13:30:09Z</time>
      </trkpt>
      <trkpt lat="45.50031" lon="6.23744">
        <ele>877.3405762</ele>
        <time>2012-03-17T13:30:14Z</time>
      </trkpt>
      <trkpt lat="45.50016" lon="6.23749">
        <ele>876.3791504</ele>
        <time>2012-03-17T13:30:20Z</time>
      </trkpt>
      <trkpt lat="45.49997" lon="6.23758">
        <ele>875.8981934</ele>
        <time>2012-03-17T13:30:26Z</time>
      </trkpt>
      <trkpt lat="45.49983" lon="6.23757">
        <ele>874.9370117</ele>
        <time>2012-03-17T13:30:31Z</time>
      </trkpt>
      <trkpt lat="45.49969" lon="6.23756">
        <ele>874.9370117</ele>
        <time>2012-03-17T13:30:36Z</time>
      </trkpt>
      <trkpt lat="45.49954" lon="6.23755">
        <ele>878.3017578</ele>
        <time>2012-03-17T13:30:42Z</time>
      </trkpt>
      <trkpt lat="45.49942" lon="6.23759">
        <ele>878.3017578</ele>
        <time>2012-03-17T13:30:47Z</time>
      </trkpt>
      <trkpt lat="45.49927" lon="6.23756">
        <ele>876.3791504</ele>
        <time>2012-03-17T13:30:53Z</time>
      </trkpt>
      <trkpt lat="45.49912" lon="6.23751">
        <ele>874.4562988</ele>
        <time>2012-03-17T13:30:59Z</time>
      </trkpt>
      <trkpt lat="45.49896" lon="6.23747">
        <ele>873.4951172</ele>
        <time>2012-03-17T13:31:05Z</time>
      </trkpt>
      <trkpt lat="45.4988" lon="6.23744">
        <ele>872.0529785</ele>
        <time>2012-03-17T13:31:11Z</time>
      </trkpt>
      <trkpt lat="45.49862" lon="6.23741">
        <ele>870.1303711</ele>
        <time>2012-03-17T13:31:17Z</time>
      </trkpt>
      <trkpt lat="45.49847" lon="6.23739">
        <ele>869.6499023</ele>
        <time>2012-03-17T13:31:22Z</time>
      </trkpt>
      <trkpt lat="45.49835" lon="6.23735">
        <ele>869.6499023</ele>
        <time>2012-03-17T13:31:27Z</time>
      </trkpt>
      <trkpt lat="45.49818" lon="6.23732">
        <ele>869.1691895</ele>
        <time>2012-03-17T13:31:33Z</time>
      </trkpt>
      <trkpt lat="45.498" lon="6.2373">
        <ele>868.2077637</ele>
        <time>2012-03-17T13:31:39Z</time>
      </trkpt>
      <trkpt lat="45.49786" lon="6.23726">
        <ele>867.246582</ele>
        <time>2012-03-17T13:31:44Z</time>
      </trkpt>
      <trkpt lat="45.49769" lon="6.23721">
        <ele>867.246582</ele>
        <time>2012-03-17T13:31:50Z</time>
      </trkpt>
      <trkpt lat="45.49753" lon="6.23715">
        <ele>867.7270508</ele>
        <time>2012-03-17T13:31:56Z</time>
      </trkpt>
      <trkpt lat="45.49733" lon="6.23709">
        <ele>867.7270508</ele>
        <time>2012-03-17T13:32:03Z</time>
      </trkpt>
      <trkpt lat="45.4972" lon="6.23705">
        <ele>867.246582</ele>
        <time>2012-03-17T13:32:08Z</time>
      </trkpt>
      <trkpt lat="45.49706" lon="6.237">
        <ele>867.246582</ele>
        <time>2012-03-17T13:32:13Z</time>
      </trkpt>
      <trkpt lat="45.49694" lon="6.23695">
        <ele>866.7658691</ele>
        <time>2012-03-17T13:32:18Z</time>
      </trkpt>
      <trkpt lat="45.49681" lon="6.23692">
        <ele>866.7658691</ele>
        <time>2012-03-17T13:32:23Z</time>
      </trkpt>
      <trkpt lat="45.49667" lon="6.2369">
        <ele>866.7658691</ele>
        <time>2012-03-17T13:32:28Z</time>
      </trkpt>
      <trkpt lat="45.49653" lon="6.2369">
        <ele>866.7658691</ele>
        <time>2012-03-17T13:32:33Z</time>
      </trkpt>
      <trkpt lat="45.49638" lon="6.23688">
        <ele>867.246582</ele>
        <time>2012-03-17T13:32:40Z</time>
      </trkpt>
      <trkpt lat="45.49631" lon="6.23686">
        <ele>867.7270508</ele>
        <time>2012-03-17T13:32:44Z</time>
      </trkpt>
      <trkpt lat="45.49618" lon="6.23685">
        <ele>865.8046875</ele>
        <time>2012-03-17T13:32:49Z</time>
      </trkpt>
      <trkpt lat="45.49614" lon="6.23685">
        <ele>864.3625488</ele>
        <time>2012-03-17T13:32:51Z</time>
      </trkpt>
      <trkpt lat="45.49605" lon="6.23674">
        <ele>869.1691895</ele>
        <time>2012-03-17T13:32:57Z</time>
      </trkpt>
      <trkpt lat="45.49597" lon="6.23676">
        <ele>869.1691895</ele>
        <time>2012-03-17T13:33:02Z</time>
      </trkpt>
      <trkpt lat="45.49589" lon="6.23677">
        <ele>866.7658691</ele>
        <time>2012-03-17T13:33:08Z</time>
      </trkpt>
      <trkpt lat="45.49588" lon="6.23675">
        <ele>865.3239746</ele>
        <time>2012-03-17T13:33:11Z</time>
      </trkpt>
      <trkpt lat="45.49583" lon="6.23664">
        <ele>860.9980469</ele>
        <time>2012-03-17T13:33:17Z</time>
      </trkpt>
      <trkpt lat="45.49577" lon="6.23658">
        <ele>859.0751953</ele>
        <time>2012-03-17T13:33:22Z</time>
      </trkpt>
      <trkpt lat="45.49576" lon="6.23656">
        <ele>858.5944824</ele>
        <time>2012-03-17T13:33:23Z</time>
      </trkpt>
      <trkpt lat="45.49567" lon="6.23644">
        <ele>857.1525879</ele>
        <time>2012-03-17T13:33:29Z</time>
      </trkpt>
      <trkpt lat="45.49561" lon="6.23633">
        <ele>856.1911621</ele>
        <time>2012-03-17T13:33:34Z</time>
      </trkpt>
      <trkpt lat="45.49557" lon="6.23622">
        <ele>854.7492676</ele>
        <time>2012-03-17T13:33:39Z</time>
      </trkpt>
      <trkpt lat="45.49552" lon="6.23609">
        <ele>850.423584</ele>
        <time>2012-03-17T13:33:45Z</time>
      </trkpt>
      <trkpt lat="45.49544" lon="6.23589">
        <ele>854.7492676</ele>
        <time>2012-03-17T13:33:51Z</time>
      </trkpt>
      <trkpt lat="45.49543" lon="6.23587">
        <ele>854.7492676</ele>
        <time>2012-03-17T13:33:52Z</time>
      </trkpt>
      <trkpt lat="45.49535" lon="6.23573">
        <ele>859.5559082</ele>
        <time>2012-03-17T13:33:58Z</time>
      </trkpt>
      <trkpt lat="45.49533" lon="6.23571">
        <ele>860.0366211</ele>
        <time>2012-03-17T13:33:59Z</time>
      </trkpt>
      <trkpt lat="45.49525" lon="6.23555">
        <ele>859.5559082</ele>
        <time>2012-03-17T13:34:06Z</time>
      </trkpt>
      <trkpt lat="45.49518" lon="6.23545">
        <ele>860.9980469</ele>
        <time>2012-03-17T13:34:11Z</time>
      </trkpt>
      <trkpt lat="45.49513" lon="6.23534">
        <ele>860.0366211</ele>
        <time>2012-03-17T13:34:16Z</time>
      </trkpt>
      <trkpt lat="45.49506" lon="6.23522">
        <ele>857.1525879</ele>
        <time>2012-03-17T13:34:22Z</time>
      </trkpt>
      <trkpt lat="45.49502" lon="6.23517">
        <ele>855.2299805</ele>
        <time>2012-03-17T13:34:25Z</time>
      </trkpt>
      <trkpt lat="45.49493" lon="6.23509">
        <ele>855.7106934</ele>
        <time>2012-03-17T13:34:30Z</time>
      </trkpt>
      <trkpt lat="45.49487" lon="6.23507">
        <ele>852.3459473</ele>
        <time>2012-03-17T13:34:35Z</time>
      </trkpt>
      <trkpt lat="45.49484" lon="6.23506">
        <ele>849.9428711</ele>
        <time>2012-03-17T13:34:37Z</time>
      </trkpt>
      <trkpt lat="45.4947" lon="6.23489">
        <ele>853.7880859</ele>
        <time>2012-03-17T13:34:45Z</time>
      </trkpt>
      <trkpt lat="45.49465" lon="6.23481">
        <ele>856.1911621</ele>
        <time>2012-03-17T13:34:49Z</time>
      </trkpt>
      <trkpt lat="45.49458" lon="6.23471">
        <ele>854.7492676</ele>
        <time>2012-03-17T13:34:55Z</time>
      </trkpt>
      <trkpt lat="45.49452" lon="6.23459">
        <ele>853.307373</ele>
        <time>2012-03-17T13:35:00Z</time>
      </trkpt>
      <trkpt lat="45.49442" lon="6.23448">
        <ele>852.8266602</ele>
        <time>2012-03-17T13:35:05Z</time>
      </trkpt>
      <trkpt lat="45.49437" lon="6.2344">
        <ele>853.7880859</ele>
        <time>2012-03-17T13:35:08Z</time>
      </trkpt>
      <trkpt lat="45.49434" lon="6.23433">
        <ele>853.307373</ele>
        <time>2012-03-17T13:35:11Z</time>
      </trkpt>
      <trkpt lat="45.49421" lon="6.23419">
        <ele>857.1525879</ele>
        <time>2012-03-17T13:35:18Z</time>
      </trkpt>
      <trkpt lat="45.49415" lon="6.23412">
        <ele>857.1525879</ele>
        <time>2012-03-17T13:35:23Z</time>
      </trkpt>
      <trkpt lat="45.49407" lon="6.23401">
        <ele>857.1525879</ele>
        <time>2012-03-17T13:35:28Z</time>
      </trkpt>
      <trkpt lat="45.49401" lon="6.23394">
        <ele>859.0751953</ele>
        <time>2012-03-17T13:35:31Z</time>
      </trkpt>
      <trkpt lat="45.49394" lon="6.2338">
        <ele>864.3625488</ele>
        <time>2012-03-17T13:35:37Z</time>
      </trkpt>
      <trkpt lat="45.49392" lon="6.23379">
        <ele>861.9594727</ele>
        <time>2012-03-17T13:35:39Z</time>
      </trkpt>
      <trkpt lat="45.49385" lon="6.23374">
        <ele>855.7106934</ele>
        <time>2012-03-17T13:35:44Z</time>
      </trkpt>
      <trkpt lat="45.49376" lon="6.23363">
        <ele>850.9040527</ele>
        <time>2012-03-17T13:35:50Z</time>
      </trkpt>
      <trkpt lat="45.49375" lon="6.23361">
        <ele>848.5007324</ele>
        <time>2012-03-17T13:35:51Z</time>
      </trkpt>
      <trkpt lat="45.49371" lon="6.23349">
        <ele>844.6555176</ele>
        <time>2012-03-17T13:35:56Z</time>
      </trkpt>
      <trkpt lat="45.49363" lon="6.23333">
        <ele>839.848877</ele>
        <time>2012-03-17T13:36:03Z</time>
      </trkpt>
      <trkpt lat="45.49361" lon="6.23328">
        <ele>840.3295898</ele>
        <time>2012-03-17T13:36:05Z</time>
      </trkpt>
      <trkpt lat="45.4936" lon="6.23324">
        <ele>838.4069824</ele>
        <time>2012-03-17T13:36:07Z</time>
      </trkpt>
      <trkpt lat="45.49357" lon="6.23315">
        <ele>839.848877</ele>
        <time>2012-03-17T13:36:10Z</time>
      </trkpt>
      <trkpt lat="45.4935" lon="6.23293">
        <ele>843.2133789</ele>
        <time>2012-03-17T13:36:17Z</time>
      </trkpt>
      <trkpt lat="45.49343" lon="6.23278">
        <ele>842.7329102</ele>
        <time>2012-03-17T13:36:22Z</time>
      </trkpt>
      <trkpt lat="45.49337" lon="6.23256">
        <ele>854.2687988</ele>
        <time>2012-03-17T13:36:27Z</time>
      </trkpt>
      <trkpt lat="45.49333" lon="6.2324">
        <ele>853.307373</ele>
        <time>2012-03-17T13:36:33Z</time>
      </trkpt>
      <trkpt lat="45.49327" lon="6.23218">
        <ele>852.3459473</ele>
        <time>2012-03-17T13:36:39Z</time>
      </trkpt>
      <trkpt lat="45.49327" lon="6.232">
        <ele>851.3847656</ele>
        <time>2012-03-17T13:36:45Z</time>
      </trkpt>
      <trkpt lat="45.49327" lon="6.23183">
        <ele>852.3459473</ele>
        <time>2012-03-17T13:36:50Z</time>
      </trkpt>
      <trkpt lat="45.49326" lon="6.23164">
        <ele>855.2299805</ele>
        <time>2012-03-17T13:36:55Z</time>
      </trkpt>
      <trkpt lat="45.49326" lon="6.23146">
        <ele>862.9206543</ele>
        <time>2012-03-17T13:37:00Z</time>
      </trkpt>
      <trkpt lat="45.49326" lon="6.23132">
        <ele>862.4399414</ele>
        <time>2012-03-17T13:37:05Z</time>
      </trkpt>
      <trkpt lat="45.49323" lon="6.23117">
        <ele>860.0366211</ele>
        <time>2012-03-17T13:37:10Z</time>
      </trkpt>
      <trkpt lat="45.4932" lon="6.23101">
        <ele>857.6333008</ele>
        <time>2012-03-17T13:37:16Z</time>
      </trkpt>
      <trkpt lat="45.4932" lon="6.23098">
        <ele>856.671875</ele>
        <time>2012-03-17T13:37:17Z</time>
      </trkpt>
      <trkpt lat="45.49321" lon="6.23088">
        <ele>852.8266602</ele>
        <time>2012-03-17T13:37:21Z</time>
      </trkpt>
      <trkpt lat="45.4932" lon="6.23086">
        <ele>853.7880859</ele>
        <time>2012-03-17T13:37:25Z</time>
      </trkpt>
      <trkpt lat="45.49319" lon="6.23082">
        <ele>857.1525879</ele>
        <time>2012-03-17T13:37:30Z</time>
      </trkpt>
      <trkpt lat="45.49318" lon="6.23076">
        <ele>857.1525879</ele>
        <time>2012-03-17T13:37:33Z</time>
      </trkpt>
      <trkpt lat="45.49319" lon="6.23067">
        <ele>856.1911621</ele>
        <time>2012-03-17T13:37:38Z</time>
      </trkpt>
      <trkpt lat="45.49318" lon="6.23058">
        <ele>854.7492676</ele>
        <time>2012-03-17T13:37:42Z</time>
      </trkpt>
      <trkpt lat="45.49316" lon="6.23038">
        <ele>852.3459473</ele>
        <time>2012-03-17T13:37:48Z</time>
      </trkpt>
      <trkpt lat="45.49315" lon="6.23022">
        <ele>849.4621582</ele>
        <time>2012-03-17T13:37:53Z</time>
      </trkpt>
      <trkpt lat="45.49312" lon="6.23015">
        <ele>847.5395508</ele>
        <time>2012-03-17T13:37:56Z</time>
      </trkpt>
      <trkpt lat="45.49308" lon="6.23001">
        <ele>843.6940918</ele>
        <time>2012-03-17T13:38:02Z</time>
      </trkpt>
      <trkpt lat="45.49306" lon="6.22988">
        <ele>840.8100586</ele>
        <time>2012-03-17T13:38:07Z</time>
      </trkpt>
      <trkpt lat="45.49304" lon="6.22971">
        <ele>840.3295898</ele>
        <time>2012-03-17T13:38:13Z</time>
      </trkpt>
      <trkpt lat="45.49304" lon="6.22956">
        <ele>839.848877</ele>
        <time>2012-03-17T13:38:18Z</time>
      </trkpt>
      <trkpt lat="45.49303" lon="6.22943">
        <ele>838.8876953</ele>
        <time>2012-03-17T13:38:23Z</time>
      </trkpt>
      <trkpt lat="45.49303" lon="6.22938">
        <ele>839.3681641</ele>
        <time>2012-03-17T13:38:25Z</time>
      </trkpt>
      <trkpt lat="45.493" lon="6.2292">
        <ele>852.3459473</ele>
        <time>2012-03-17T13:38:31Z</time>
      </trkpt>
      <trkpt lat="45.49296" lon="6.22908">
        <ele>856.671875</ele>
        <time>2012-03-17T13:38:36Z</time>
      </trkpt>
      <trkpt lat="45.49296" lon="6.22905">
        <ele>856.1911621</ele>
        <time>2012-03-17T13:38:37Z</time>
      </trkpt>
      <trkpt lat="45.49294" lon="6.22898">
        <ele>854.2687988</ele>
        <time>2012-03-17T13:38:40Z</time>
      </trkpt>
      <trkpt lat="45.49293" lon="6.22891">
        <ele>851.8654785</ele>
        <time>2012-03-17T13:38:44Z</time>
      </trkpt>
      <trkpt lat="45.49291" lon="6.2288">
        <ele>845.6169434</ele>
        <time>2012-03-17T13:38:50Z</time>
      </trkpt>
      <trkpt lat="45.4929" lon="6.22876">
        <ele>845.1362305</ele>
        <time>2012-03-17T13:38:52Z</time>
      </trkpt>
      <trkpt lat="45.4929" lon="6.22865">
        <ele>843.6940918</ele>
        <time>2012-03-17T13:38:58Z</time>
      </trkpt>
      <trkpt lat="45.49287" lon="6.22861">
        <ele>847.0588379</ele>
        <time>2012-03-17T13:39:02Z</time>
      </trkpt>
      <trkpt lat="45.49282" lon="6.22859">
        <ele>852.3459473</ele>
        <time>2012-03-17T13:39:08Z</time>
      </trkpt>
      <trkpt lat="45.4928" lon="6.22851">
        <ele>856.1911621</ele>
        <time>2012-03-17T13:39:23Z</time>
      </trkpt>
      <trkpt lat="45.49275" lon="6.22855">
        <ele>868.2077637</ele>
        <time>2012-03-17T13:39:35Z</time>
      </trkpt>
      <trkpt lat="45.49277" lon="6.22853">
        <ele>867.7270508</ele>
        <time>2012-03-17T13:39:40Z</time>
      </trkpt>
      <trkpt lat="45.4928" lon="6.22852">
        <ele>867.246582</ele>
        <time>2012-03-17T13:39:44Z</time>
      </trkpt>
      <trkpt lat="45.49282" lon="6.22851">
        <ele>866.2851563</ele>
        <time>2012-03-17T13:39:47Z</time>
      </trkpt>
      <trkpt lat="45.49286" lon="6.22851">
        <ele>866.7658691</ele>
        <time>2012-03-17T13:39:50Z</time>
      </trkpt>
      <trkpt lat="45.49287" lon="6.22844">
        <ele>861.9594727</ele>
        <time>2012-03-17T13:39:56Z</time>
      </trkpt>
      <trkpt lat="45.49289" lon="6.22838">
        <ele>858.5944824</ele>
        <time>2012-03-17T13:40:01Z</time>
      </trkpt>
      <trkpt lat="45.49289" lon="6.22836">
        <ele>858.1140137</ele>
        <time>2012-03-17T13:40:04Z</time>
      </trkpt>
      <trkpt lat="45.49292" lon="6.2283">
        <ele>857.6333008</ele>
        <time>2012-03-17T13:40:11Z</time>
      </trkpt>
      <trkpt lat="45.49292" lon="6.22823">
        <ele>858.1140137</ele>
        <time>2012-03-17T13:40:18Z</time>
      </trkpt>
      <trkpt lat="45.49288" lon="6.22819">
        <ele>873.4951172</ele>
        <time>2012-03-17T13:40:46Z</time>
      </trkpt>
      <trkpt lat="45.49288" lon="6.2282">
        <ele>874.4562988</ele>
        <time>2012-03-17T13:40:57Z</time>
      </trkpt>
      <trkpt lat="45.49288" lon="6.2282">
        <ele>874.9370117</ele>
        <time>2012-03-17T13:41:04Z</time>
      </trkpt>
      <trkpt lat="45.49294" lon="6.22823">
        <ele>871.5722656</ele>
        <time>2012-03-17T13:41:26Z</time>
      </trkpt>
      <trkpt lat="45.49296" lon="6.22821">
        <ele>868.6884766</ele>
        <time>2012-03-17T13:41:35Z</time>
      </trkpt>
      <trkpt lat="45.49296" lon="6.2282">
        <ele>867.7270508</ele>
        <time>2012-03-17T13:41:43Z</time>
      </trkpt>
      <trkpt lat="45.49294" lon="6.22818">
        <ele>868.2077637</ele>
        <time>2012-03-17T13:41:53Z</time>
      </trkpt>
      <trkpt lat="45.4929" lon="6.22811">
        <ele>865.8046875</ele>
        <time>2012-03-17T13:41:58Z</time>
      </trkpt>
      <trkpt lat="45.49291" lon="6.22809">
        <ele>864.8432617</ele>
        <time>2012-03-17T13:42:00Z</time>
      </trkpt>
      <trkpt lat="45.49293" lon="6.22808">
        <ele>864.8432617</ele>
        <time>2012-03-17T13:42:02Z</time>
      </trkpt>
      <trkpt lat="45.493" lon="6.22809">
        <ele>863.8818359</ele>
        <time>2012-03-17T13:42:07Z</time>
      </trkpt>
      <trkpt lat="45.49305" lon="6.22804">
        <ele>872.0529785</ele>
        <time>2012-03-17T13:42:14Z</time>
      </trkpt>
      <trkpt lat="45.49312" lon="6.22804">
        <ele>871.5722656</ele>
        <time>2012-03-17T13:42:19Z</time>
      </trkpt>
      <trkpt lat="45.49323" lon="6.22804">
        <ele>869.6499023</ele>
        <time>2012-03-17T13:42:27Z</time>
      </trkpt>
      <trkpt lat="45.49325" lon="6.22803">
        <ele>869.1691895</ele>
        <time>2012-03-17T13:42:29Z</time>
      </trkpt>
      <trkpt lat="45.49331" lon="6.22802">
        <ele>867.7270508</ele>
        <time>2012-03-17T13:42:34Z</time>
      </trkpt>
      <trkpt lat="45.49333" lon="6.22801">
        <ele>869.1691895</ele>
        <time>2012-03-17T13:42:36Z</time>
      </trkpt>
      <trkpt lat="45.49341" lon="6.22798">
        <ele>865.8046875</ele>
        <time>2012-03-17T13:42:44Z</time>
      </trkpt>
      <trkpt lat="45.49342" lon="6.22794">
        <ele>864.3625488</ele>
        <time>2012-03-17T13:42:48Z</time>
      </trkpt>
      <trkpt lat="45.49342" lon="6.22787">
        <ele>865.3239746</ele>
        <time>2012-03-17T13:42:52Z</time>
      </trkpt>
      <trkpt lat="45.49345" lon="6.22783">
        <ele>864.8432617</ele>
        <time>2012-03-17T13:42:56Z</time>
      </trkpt>
      <trkpt lat="45.49349" lon="6.22777">
        <ele>862.9206543</ele>
        <time>2012-03-17T13:43:01Z</time>
      </trkpt>
      <trkpt lat="45.4935" lon="6.22769">
        <ele>861.4787598</ele>
        <time>2012-03-17T13:43:06Z</time>
      </trkpt>
      <trkpt lat="45.49355" lon="6.22756">
        <ele>860.0366211</ele>
        <time>2012-03-17T13:43:13Z</time>
      </trkpt>
      <trkpt lat="45.49358" lon="6.22745">
        <ele>856.1911621</ele>
        <time>2012-03-17T13:43:19Z</time>
      </trkpt>
      <trkpt lat="45.49359" lon="6.22739">
        <ele>856.671875</ele>
        <time>2012-03-17T13:43:22Z</time>
      </trkpt>
      <trkpt lat="45.49361" lon="6.22735">
        <ele>858.1140137</ele>
        <time>2012-03-17T13:43:25Z</time>
      </trkpt>
      <trkpt lat="45.49363" lon="6.22725">
        <ele>863.8818359</ele>
        <time>2012-03-17T13:43:32Z</time>
      </trkpt>
      <trkpt lat="45.49364" lon="6.22722">
        <ele>864.8432617</ele>
        <time>2012-03-17T13:43:34Z</time>
      </trkpt>
      <trkpt lat="45.49366" lon="6.22713">
        <ele>867.7270508</ele>
        <time>2012-03-17T13:43:39Z</time>
      </trkpt>
      <trkpt lat="45.49369" lon="6.2271">
        <ele>868.2077637</ele>
        <time>2012-03-17T13:43:43Z</time>
      </trkpt>
      <trkpt lat="45.49373" lon="6.22704">
        <ele>869.6499023</ele>
        <time>2012-03-17T13:43:48Z</time>
      </trkpt>
      <trkpt lat="45.49377" lon="6.22697">
        <ele>870.1303711</ele>
        <time>2012-03-17T13:43:53Z</time>
      </trkpt>
      <trkpt lat="45.49383" lon="6.22692">
        <ele>870.1303711</ele>
        <time>2012-03-17T13:43:59Z</time>
      </trkpt>
      <trkpt lat="45.49384" lon="6.22687">
        <ele>871.0917969</ele>
        <time>2012-03-17T13:44:03Z</time>
      </trkpt>
      <trkpt lat="45.49389" lon="6.22677">
        <ele>872.5336914</ele>
        <time>2012-03-17T13:44:09Z</time>
      </trkpt>
      <trkpt lat="45.49393" lon="6.22666">
        <ele>869.6499023</ele>
        <time>2012-03-17T13:44:17Z</time>
      </trkpt>
      <trkpt lat="45.49392" lon="6.22651">
        <ele>871.0917969</ele>
        <time>2012-03-17T13:44:26Z</time>
      </trkpt>
      <trkpt lat="45.49391" lon="6.22648">
        <ele>871.0917969</ele>
        <time>2012-03-17T13:44:28Z</time>
      </trkpt>
      <trkpt lat="45.49389" lon="6.22637">
        <ele>869.1691895</ele>
        <time>2012-03-17T13:44:34Z</time>
      </trkpt>
      <trkpt lat="45.49384" lon="6.22622">
        <ele>871.0917969</ele>
        <time>2012-03-17T13:44:42Z</time>
      </trkpt>
      <trkpt lat="45.49379" lon="6.22605">
        <ele>876.3791504</ele>
        <time>2012-03-17T13:44:50Z</time>
      </trkpt>
      <trkpt lat="45.49374" lon="6.2259">
        <ele>882.6276855</ele>
        <time>2012-03-17T13:44:55Z</time>
      </trkpt>
      <trkpt lat="45.4937" lon="6.22579">
        <ele>885.9921875</ele>
        <time>2012-03-17T13:45:00Z</time>
      </trkpt>
      <trkpt lat="45.49365" lon="6.22566">
        <ele>888.8762207</ele>
        <time>2012-03-17T13:45:05Z</time>
      </trkpt>
      <trkpt lat="45.49357" lon="6.2255">
        <ele>893.6828613</ele>
        <time>2012-03-17T13:45:11Z</time>
      </trkpt>
      <trkpt lat="45.49353" lon="6.22541">
        <ele>895.6054688</ele>
        <time>2012-03-17T13:45:15Z</time>
      </trkpt>
      <trkpt lat="45.49344" lon="6.22526">
        <ele>900.4121094</ele>
        <time>2012-03-17T13:45:24Z</time>
      </trkpt>
      <trkpt lat="45.49339" lon="6.22513">
        <ele>900.8925781</ele>
        <time>2012-03-17T13:45:32Z</time>
      </trkpt>
      <trkpt lat="45.49339" lon="6.22512">
        <ele>901.373291</ele>
        <time>2012-03-17T13:45:33Z</time>
      </trkpt>
      <trkpt lat="45.49331" lon="6.22503">
        <ele>900.4121094</ele>
        <time>2012-03-17T13:45:40Z</time>
      </trkpt>
      <trkpt lat="45.4933" lon="6.22501">
        <ele>900.4121094</ele>
        <time>2012-03-17T13:45:41Z</time>
      </trkpt>
      <trkpt lat="45.49321" lon="6.22484">
        <ele>902.3344727</ele>
        <time>2012-03-17T13:45:47Z</time>
      </trkpt>
      <trkpt lat="45.49316" lon="6.22469">
        <ele>903.2958984</ele>
        <time>2012-03-17T13:45:52Z</time>
      </trkpt>
      <trkpt lat="45.49311" lon="6.22448">
        <ele>903.7766113</ele>
        <time>2012-03-17T13:45:59Z</time>
      </trkpt>
      <trkpt lat="45.49308" lon="6.22436">
        <ele>905.2185059</ele>
        <time>2012-03-17T13:46:05Z</time>
      </trkpt>
      <trkpt lat="45.49306" lon="6.22424">
        <ele>904.737793</ele>
        <time>2012-03-17T13:46:11Z</time>
      </trkpt>
      <trkpt lat="45.49306" lon="6.22416">
        <ele>904.737793</ele>
        <time>2012-03-17T13:46:14Z</time>
      </trkpt>
      <trkpt lat="45.49313" lon="6.22397">
        <ele>904.2573242</ele>
        <time>2012-03-17T13:46:20Z</time>
      </trkpt>
      <trkpt lat="45.49314" lon="6.22377">
        <ele>907.6218262</ele>
        <time>2012-03-17T13:46:25Z</time>
      </trkpt>
      <trkpt lat="45.49315" lon="6.22371">
        <ele>907.1411133</ele>
        <time>2012-03-17T13:46:27Z</time>
      </trkpt>
      <trkpt lat="45.4932" lon="6.22358">
        <ele>908.583252</ele>
        <time>2012-03-17T13:46:31Z</time>
      </trkpt>
      <trkpt lat="45.49323" lon="6.22348">
        <ele>907.6218262</ele>
        <time>2012-03-17T13:46:34Z</time>
      </trkpt>
      <trkpt lat="45.49317" lon="6.22331">
        <ele>907.6218262</ele>
        <time>2012-03-17T13:46:39Z</time>
      </trkpt>
      <trkpt lat="45.49312" lon="6.22317">
        <ele>904.737793</ele>
        <time>2012-03-17T13:46:44Z</time>
      </trkpt>
      <trkpt lat="45.49306" lon="6.223">
        <ele>902.8151855</ele>
        <time>2012-03-17T13:46:50Z</time>
      </trkpt>
      <trkpt lat="45.49306" lon="6.22298">
        <ele>902.8151855</ele>
        <time>2012-03-17T13:46:51Z</time>
      </trkpt>
      <trkpt lat="45.49307" lon="6.223">
        <ele>903.7766113</ele>
        <time>2012-03-17T13:46:58Z</time>
      </trkpt>
      <trkpt lat="45.49311" lon="6.22308">
        <ele>904.2573242</ele>
        <time>2012-03-17T13:47:06Z</time>
      </trkpt>
      <trkpt lat="45.49312" lon="6.22306">
        <ele>903.7766113</ele>
        <time>2012-03-17T13:47:14Z</time>
      </trkpt>
      <trkpt lat="45.49311" lon="6.22304">
        <ele>904.737793</ele>
        <time>2012-03-17T13:47:49Z</time>
      </trkpt>
      <trkpt lat="45.49312" lon="6.22305">
        <ele>901.8540039</ele>
        <time>2012-03-17T13:47:59Z</time>
      </trkpt>
      <trkpt lat="45.49314" lon="6.22305">
        <ele>900.8925781</ele>
        <time>2012-03-17T13:48:05Z</time>
      </trkpt>
      <trkpt lat="45.49312" lon="6.22305">
        <ele>898.9699707</ele>
        <time>2012-03-17T13:48:20Z</time>
      </trkpt>
      <trkpt lat="45.49308" lon="6.22305">
        <ele>902.3344727</ele>
        <time>2012-03-17T13:48:43Z</time>
      </trkpt>
      <trkpt lat="45.49305" lon="6.22298">
        <ele>902.8151855</ele>
        <time>2012-03-17T13:48:51Z</time>
      </trkpt>
      <trkpt lat="45.49305" lon="6.22297">
        <ele>904.2573242</ele>
        <time>2012-03-17T13:48:59Z</time>
      </trkpt>
      <trkpt lat="45.49304" lon="6.22292">
        <ele>903.7766113</ele>
        <time>2012-03-17T13:49:05Z</time>
      </trkpt>
      <trkpt lat="45.49301" lon="6.22288">
        <ele>903.7766113</ele>
        <time>2012-03-17T13:49:09Z</time>
      </trkpt>
      <trkpt lat="45.49299" lon="6.22281">
        <ele>903.7766113</ele>
        <time>2012-03-17T13:49:14Z</time>
      </trkpt>
      <trkpt lat="45.49299" lon="6.2227">
        <ele>904.737793</ele>
        <time>2012-03-17T13:49:21Z</time>
      </trkpt>
      <trkpt lat="45.49299" lon="6.22266">
        <ele>904.737793</ele>
        <time>2012-03-17T13:49:24Z</time>
      </trkpt>
      <trkpt lat="45.49301" lon="6.2226">
        <ele>906.1796875</ele>
        <time>2012-03-17T13:49:28Z</time>
      </trkpt>
      <trkpt lat="45.49302" lon="6.22246">
        <ele>905.6992188</ele>
        <time>2012-03-17T13:49:36Z</time>
      </trkpt>
      <trkpt lat="45.49301" lon="6.22237">
        <ele>904.737793</ele>
        <time>2012-03-17T13:49:41Z</time>
      </trkpt>
      <trkpt lat="45.493" lon="6.22222">
        <ele>905.6992188</ele>
        <time>2012-03-17T13:49:48Z</time>
      </trkpt>
      <trkpt lat="45.49302" lon="6.22207">
        <ele>904.2573242</ele>
        <time>2012-03-17T13:49:55Z</time>
      </trkpt>
      <trkpt lat="45.49304" lon="6.2219">
        <ele>903.2958984</ele>
        <time>2012-03-17T13:50:00Z</time>
      </trkpt>
      <trkpt lat="45.49306" lon="6.22172">
        <ele>902.8151855</ele>
        <time>2012-03-17T13:50:05Z</time>
      </trkpt>
      <trkpt lat="45.49307" lon="6.22153">
        <ele>903.7766113</ele>
        <time>2012-03-17T13:50:10Z</time>
      </trkpt>
      <trkpt lat="45.49307" lon="6.22134">
        <ele>905.2185059</ele>
        <time>2012-03-17T13:50:16Z</time>
      </trkpt>
      <trkpt lat="45.49306" lon="6.22115">
        <ele>906.6604004</ele>
        <time>2012-03-17T13:50:22Z</time>
      </trkpt>
      <trkpt lat="45.49301" lon="6.22092">
        <ele>907.1411133</ele>
        <time>2012-03-17T13:50:29Z</time>
      </trkpt>
      <trkpt lat="45.49294" lon="6.2207">
        <ele>909.0639648</ele>
        <time>2012-03-17T13:50:36Z</time>
      </trkpt>
      <trkpt lat="45.49289" lon="6.22055">
        <ele>910.0251465</ele>
        <time>2012-03-17T13:50:41Z</time>
      </trkpt>
      <trkpt lat="45.49284" lon="6.22035">
        <ele>911.4672852</ele>
        <time>2012-03-17T13:50:47Z</time>
      </trkpt>
      <trkpt lat="45.4928" lon="6.22014">
        <ele>912.4284668</ele>
        <time>2012-03-17T13:50:53Z</time>
      </trkpt>
      <trkpt lat="45.49274" lon="6.2199">
        <ele>914.3510742</ele>
        <time>2012-03-17T13:51:00Z</time>
      </trkpt>
      <trkpt lat="45.49271" lon="6.21973">
        <ele>915.3125</ele>
        <time>2012-03-17T13:51:05Z</time>
      </trkpt>
      <trkpt lat="45.49269" lon="6.21954">
        <ele>913.8703613</ele>
        <time>2012-03-17T13:51:11Z</time>
      </trkpt>
      <trkpt lat="45.49268" lon="6.21934">
        <ele>914.8317871</ele>
        <time>2012-03-17T13:51:17Z</time>
      </trkpt>
      <trkpt lat="45.49269" lon="6.21915">
        <ele>915.3125</ele>
        <time>2012-03-17T13:51:23Z</time>
      </trkpt>
      <trkpt lat="45.49267" lon="6.21896">
        <ele>915.3125</ele>
        <time>2012-03-17T13:51:29Z</time>
      </trkpt>
      <trkpt lat="45.49264" lon="6.21876">
        <ele>916.2736816</ele>
        <time>2012-03-17T13:51:35Z</time>
      </trkpt>
      <trkpt lat="45.49261" lon="6.21852">
        <ele>918.1962891</ele>
        <time>2012-03-17T13:51:42Z</time>
      </trkpt>
      <trkpt lat="45.49258" lon="6.2183">
        <ele>919.1577148</ele>
        <time>2012-03-17T13:51:48Z</time>
      </trkpt>
      <trkpt lat="45.49254" lon="6.21809">
        <ele>920.1188965</ele>
        <time>2012-03-17T13:51:54Z</time>
      </trkpt>
      <trkpt lat="45.49251" lon="6.21791">
        <ele>921.0803223</ele>
        <time>2012-03-17T13:52:00Z</time>
      </trkpt>
      <trkpt lat="45.49248" lon="6.21772">
        <ele>923.0029297</ele>
        <time>2012-03-17T13:52:06Z</time>
      </trkpt>
      <trkpt lat="45.49244" lon="6.21754">
        <ele>924.4450684</ele>
        <time>2012-03-17T13:52:12Z</time>
      </trkpt>
      <trkpt lat="45.49241" lon="6.21734">
        <ele>925.40625</ele>
        <time>2012-03-17T13:52:18Z</time>
      </trkpt>
      <trkpt lat="45.4924" lon="6.21719">
        <ele>918.1962891</ele>
        <time>2012-03-17T13:52:24Z</time>
      </trkpt>
      <trkpt lat="45.49238" lon="6.21701">
        <ele>913.3898926</ele>
        <time>2012-03-17T13:52:30Z</time>
      </trkpt>
      <trkpt lat="45.49234" lon="6.21682">
        <ele>911.947998</ele>
        <time>2012-03-17T13:52:36Z</time>
      </trkpt>
      <trkpt lat="45.49233" lon="6.21666">
        <ele>913.3898926</ele>
        <time>2012-03-17T13:52:41Z</time>
      </trkpt>
      <trkpt lat="45.4923" lon="6.21649">
        <ele>916.2736816</ele>
        <time>2012-03-17T13:52:47Z</time>
      </trkpt>
      <trkpt lat="45.49228" lon="6.2164">
        <ele>917.7155762</ele>
        <time>2012-03-17T13:52:51Z</time>
      </trkpt>
      <trkpt lat="45.49225" lon="6.21628">
        <ele>917.2351074</ele>
        <time>2012-03-17T13:52:56Z</time>
      </trkpt>
      <trkpt lat="45.49222" lon="6.21611">
        <ele>913.3898926</ele>
        <time>2012-03-17T13:53:03Z</time>
      </trkpt>
      <trkpt lat="45.4922" lon="6.21608">
        <ele>911.947998</ele>
        <time>2012-03-17T13:53:04Z</time>
      </trkpt>
      <trkpt lat="45.49216" lon="6.21593">
        <ele>905.6992188</ele>
        <time>2012-03-17T13:53:08Z</time>
      </trkpt>
      <trkpt lat="45.49206" lon="6.21573">
        <ele>900.8925781</ele>
        <time>2012-03-17T13:53:14Z</time>
      </trkpt>
      <trkpt lat="45.49198" lon="6.21557">
        <ele>895.6054688</ele>
        <time>2012-03-17T13:53:20Z</time>
      </trkpt>
      <trkpt lat="45.49193" lon="6.21544">
        <ele>894.644043</ele>
        <time>2012-03-17T13:53:25Z</time>
      </trkpt>
      <trkpt lat="45.49192" lon="6.2153">
        <ele>897.5280762</ele>
        <time>2012-03-17T13:53:29Z</time>
      </trkpt>
      <trkpt lat="45.49193" lon="6.21508">
        <ele>900.8925781</ele>
        <time>2012-03-17T13:53:36Z</time>
      </trkpt>
      <trkpt lat="45.49191" lon="6.21492">
        <ele>904.737793</ele>
        <time>2012-03-17T13:53:40Z</time>
      </trkpt>
      <trkpt lat="45.49184" lon="6.21476">
        <ele>905.2185059</ele>
        <time>2012-03-17T13:53:45Z</time>
      </trkpt>
      <trkpt lat="45.49178" lon="6.21465">
        <ele>905.6992188</ele>
        <time>2012-03-17T13:53:48Z</time>
      </trkpt>
      <trkpt lat="45.49175" lon="6.21441">
        <ele>905.2185059</ele>
        <time>2012-03-17T13:53:55Z</time>
      </trkpt>
      <trkpt lat="45.49171" lon="6.21425">
        <ele>905.2185059</ele>
        <time>2012-03-17T13:53:59Z</time>
      </trkpt>
      <trkpt lat="45.49171" lon="6.21423">
        <ele>905.6992188</ele>
        <time>2012-03-17T13:54:00Z</time>
      </trkpt>
      <trkpt lat="45.49166" lon="6.2141">
        <ele>904.737793</ele>
        <time>2012-03-17T13:54:06Z</time>
      </trkpt>
      <trkpt lat="45.49165" lon="6.21408">
        <ele>905.2185059</ele>
        <time>2012-03-17T13:54:07Z</time>
      </trkpt>
      <trkpt lat="45.49163" lon="6.21391">
        <ele>904.737793</ele>
        <time>2012-03-17T13:54:13Z</time>
      </trkpt>
      <trkpt lat="45.49163" lon="6.21392">
        <ele>903.7766113</ele>
        <time>2012-03-17T13:54:17Z</time>
      </trkpt>
      <trkpt lat="45.49163" lon="6.21384">
        <ele>900.4121094</ele>
        <time>2012-03-17T13:54:25Z</time>
      </trkpt>
      <trkpt lat="45.49164" lon="6.21382">
        <ele>897.0473633</ele>
        <time>2012-03-17T13:54:27Z</time>
      </trkpt>
      <trkpt lat="45.49165" lon="6.21375">
        <ele>895.6054688</ele>
        <time>2012-03-17T13:54:32Z</time>
      </trkpt>
      <trkpt lat="45.49172" lon="6.21376">
        <ele>889.3566895</ele>
        <time>2012-03-17T13:54:37Z</time>
      </trkpt>
      <trkpt lat="45.49182" lon="6.21373">
        <ele>887.9147949</ele>
        <time>2012-03-17T13:54:45Z</time>
      </trkpt>
      <trkpt lat="45.49186" lon="6.21371">
        <ele>887.9147949</ele>
        <time>2012-03-17T13:54:48Z</time>
      </trkpt>
      <trkpt lat="45.49189" lon="6.21369">
        <ele>889.3566895</ele>
        <time>2012-03-17T13:54:50Z</time>
      </trkpt>
      <trkpt lat="45.49196" lon="6.21362">
        <ele>892.2409668</ele>
        <time>2012-03-17T13:54:57Z</time>
      </trkpt>
      <trkpt lat="45.492" lon="6.21358">
        <ele>892.7216797</ele>
        <time>2012-03-17T13:54:59Z</time>
      </trkpt>
      <trkpt lat="45.49213" lon="6.21346">
        <ele>894.644043</ele>
        <time>2012-03-17T13:55:05Z</time>
      </trkpt>
      <trkpt lat="45.49223" lon="6.21333">
        <ele>897.5280762</ele>
        <time>2012-03-17T13:55:12Z</time>
      </trkpt>
      <trkpt lat="45.49226" lon="6.21329">
        <ele>898.4892578</ele>
        <time>2012-03-17T13:55:14Z</time>
      </trkpt>
      <trkpt lat="45.49231" lon="6.21317">
        <ele>899.4506836</ele>
        <time>2012-03-17T13:55:19Z</time>
      </trkpt>
      <trkpt lat="45.49237" lon="6.21305">
        <ele>898.9699707</ele>
        <time>2012-03-17T13:55:25Z</time>
      </trkpt>
      <trkpt lat="45.49241" lon="6.21299">
        <ele>898.9699707</ele>
        <time>2012-03-17T13:55:27Z</time>
      </trkpt>
      <trkpt lat="45.49245" lon="6.21294">
        <ele>899.9313965</ele>
        <time>2012-03-17T13:55:29Z</time>
      </trkpt>
      <trkpt lat="45.49249" lon="6.21284">
        <ele>900.4121094</ele>
        <time>2012-03-17T13:55:34Z</time>
      </trkpt>
      <trkpt lat="45.49253" lon="6.21269">
        <ele>900.4121094</ele>
        <time>2012-03-17T13:55:40Z</time>
      </trkpt>
      <trkpt lat="45.49253" lon="6.21265">
        <ele>901.8540039</ele>
        <time>2012-03-17T13:55:42Z</time>
      </trkpt>
      <trkpt lat="45.49252" lon="6.21245">
        <ele>906.1796875</ele>
        <time>2012-03-17T13:55:48Z</time>
      </trkpt>
      <trkpt lat="45.49253" lon="6.21228">
        <ele>906.1796875</ele>
        <time>2012-03-17T13:55:54Z</time>
      </trkpt>
      <trkpt lat="45.49252" lon="6.21211">
        <ele>910.9865723</ele>
        <time>2012-03-17T13:55:59Z</time>
      </trkpt>
      <trkpt lat="45.49248" lon="6.21191">
        <ele>916.7543945</ele>
        <time>2012-03-17T13:56:05Z</time>
      </trkpt>
      <trkpt lat="45.49246" lon="6.21169">
        <ele>917.7155762</ele>
        <time>2012-03-17T13:56:12Z</time>
      </trkpt>
      <trkpt lat="45.49244" lon="6.21155">
        <ele>918.677002</ele>
        <time>2012-03-17T13:56:17Z</time>
      </trkpt>
      <trkpt lat="45.49244" lon="6.2114">
        <ele>921.0803223</ele>
        <time>2012-03-17T13:56:22Z</time>
      </trkpt>
      <trkpt lat="45.49243" lon="6.21137">
        <ele>922.0415039</ele>
        <time>2012-03-17T13:56:23Z</time>
      </trkpt>
      <trkpt lat="45.49241" lon="6.2112">
        <ele>924.4450684</ele>
        <time>2012-03-17T13:56:29Z</time>
      </trkpt>
      <trkpt lat="45.49241" lon="6.21118">
        <ele>924.4450684</ele>
        <time>2012-03-17T13:56:30Z</time>
      </trkpt>
      <trkpt lat="45.4924" lon="6.21103">
        <ele>924.4450684</ele>
        <time>2012-03-17T13:56:36Z</time>
      </trkpt>
      <trkpt lat="45.49242" lon="6.21096">
        <ele>923.0029297</ele>
        <time>2012-03-17T13:56:40Z</time>
      </trkpt>
      <trkpt lat="45.49242" lon="6.21083">
        <ele>924.4450684</ele>
        <time>2012-03-17T13:56:44Z</time>
      </trkpt>
      <trkpt lat="45.49242" lon="6.21076">
        <ele>924.9257813</ele>
        <time>2012-03-17T13:56:46Z</time>
      </trkpt>
      <trkpt lat="45.49241" lon="6.21061">
        <ele>929.2514648</ele>
        <time>2012-03-17T13:56:50Z</time>
      </trkpt>
      <trkpt lat="45.49247" lon="6.2106">
        <ele>927.3291016</ele>
        <time>2012-03-17T13:56:54Z</time>
      </trkpt>
      <trkpt lat="45.49251" lon="6.21063">
        <ele>924.9257813</ele>
        <time>2012-03-17T13:56:59Z</time>
      </trkpt>
      <trkpt lat="45.49258" lon="6.21069">
        <ele>924.4450684</ele>
        <time>2012-03-17T13:57:08Z</time>
      </trkpt>
      <trkpt lat="45.49264" lon="6.21067">
        <ele>927.8095703</ele>
        <time>2012-03-17T13:57:16Z</time>
      </trkpt>
      <trkpt lat="45.49265" lon="6.21064">
        <ele>930.6936035</ele>
        <time>2012-03-17T13:57:20Z</time>
      </trkpt>
      <trkpt lat="45.49266" lon="6.21051">
        <ele>936.9418945</ele>
        <time>2012-03-17T13:57:27Z</time>
      </trkpt>
      <trkpt lat="45.49266" lon="6.21042">
        <ele>937.4226074</ele>
        <time>2012-03-17T13:57:32Z</time>
      </trkpt>
      <trkpt lat="45.49263" lon="6.21031">
        <ele>940.7873535</ele>
        <time>2012-03-17T13:57:38Z</time>
      </trkpt>
      <trkpt lat="45.49263" lon="6.21031">
        <ele>940.3068848</ele>
        <time>2012-03-17T13:57:39Z</time>
      </trkpt>
      <trkpt lat="45.49263" lon="6.21029">
        <ele>937.9033203</ele>
        <time>2012-03-17T13:57:42Z</time>
      </trkpt>
      <trkpt lat="45.49269" lon="6.21029">
        <ele>930.2128906</ele>
        <time>2012-03-17T13:57:48Z</time>
      </trkpt>
      <trkpt lat="45.49276" lon="6.21025">
        <ele>925.8869629</ele>
        <time>2012-03-17T13:57:56Z</time>
      </trkpt>
      <trkpt lat="45.49277" lon="6.21024">
        <ele>926.3676758</ele>
        <time>2012-03-17T13:57:58Z</time>
      </trkpt>
      <trkpt lat="45.49278" lon="6.21022">
        <ele>927.8095703</ele>
        <time>2012-03-17T13:58:01Z</time>
      </trkpt>
      <trkpt lat="45.49282" lon="6.21018">
        <ele>928.7709961</ele>
        <time>2012-03-17T13:58:06Z</time>
      </trkpt>
      <trkpt lat="45.49283" lon="6.21019">
        <ele>929.2514648</ele>
        <time>2012-03-17T13:58:08Z</time>
      </trkpt>
      <trkpt lat="45.49284" lon="6.21021">
        <ele>932.6162109</ele>
        <time>2012-03-17T13:58:12Z</time>
      </trkpt>
      <trkpt lat="45.49289" lon="6.21023">
        <ele>936.4614258</ele>
        <time>2012-03-17T13:58:25Z</time>
      </trkpt>
      <trkpt lat="45.49292" lon="6.21022">
        <ele>938.8647461</ele>
        <time>2012-03-17T13:58:34Z</time>
      </trkpt>
      <trkpt lat="45.49294" lon="6.21022">
        <ele>942.7102051</ele>
        <time>2012-03-17T13:58:47Z</time>
      </trkpt>
      <trkpt lat="45.49296" lon="6.21022">
        <ele>944.6325684</ele>
        <time>2012-03-17T13:58:53Z</time>
      </trkpt>
      <trkpt lat="45.49296" lon="6.21024">
        <ele>945.1132813</ele>
        <time>2012-03-17T13:58:54Z</time>
      </trkpt>
      <trkpt lat="45.49298" lon="6.21026">
        <ele>944.1520996</ele>
        <time>2012-03-17T13:58:57Z</time>
      </trkpt>
      <trkpt lat="45.49298" lon="6.21029">
        <ele>945.1132813</ele>
        <time>2012-03-17T13:58:59Z</time>
      </trkpt>
      <trkpt lat="45.49302" lon="6.21033">
        <ele>942.2294922</ele>
        <time>2012-03-17T13:59:06Z</time>
      </trkpt>
      <trkpt lat="45.49302" lon="6.21033">
        <ele>942.7102051</ele>
        <time>2012-03-17T13:59:07Z</time>
      </trkpt>
      <trkpt lat="45.49305" lon="6.21031">
        <ele>943.6713867</ele>
        <time>2012-03-17T13:59:13Z</time>
      </trkpt>
      <trkpt lat="45.49307" lon="6.21017">
        <ele>942.7102051</ele>
        <time>2012-03-17T13:59:21Z</time>
      </trkpt>
      <trkpt lat="45.49308" lon="6.21016">
        <ele>941.2680664</ele>
        <time>2012-03-17T13:59:22Z</time>
      </trkpt>
      <trkpt lat="45.49305" lon="6.21011">
        <ele>940.3068848</ele>
        <time>2012-03-17T13:59:26Z</time>
      </trkpt>
      <trkpt lat="45.49303" lon="6.21007">
        <ele>942.2294922</ele>
        <time>2012-03-17T13:59:29Z</time>
      </trkpt>
      <trkpt lat="45.49301" lon="6.20998">
        <ele>945.5939941</ele>
        <time>2012-03-17T13:59:34Z</time>
      </trkpt>
      <trkpt lat="45.49299" lon="6.20985">
        <ele>950.8811035</ele>
        <time>2012-03-17T13:59:40Z</time>
      </trkpt>
      <trkpt lat="45.49297" lon="6.20971">
        <ele>950.8811035</ele>
        <time>2012-03-17T13:59:47Z</time>
      </trkpt>
      <trkpt lat="45.49298" lon="6.20967">
        <ele>951.3618164</ele>
        <time>2012-03-17T13:59:49Z</time>
      </trkpt>
      <trkpt lat="45.493" lon="6.20951">
        <ele>954.7263184</ele>
        <time>2012-03-17T13:59:56Z</time>
      </trkpt>
      <trkpt lat="45.49305" lon="6.20939">
        <ele>954.2458496</ele>
        <time>2012-03-17T14:00:03Z</time>
      </trkpt>
      <trkpt lat="45.49309" lon="6.20926">
        <ele>956.168457</ele>
        <time>2012-03-17T14:00:08Z</time>
      </trkpt>
      <trkpt lat="45.49313" lon="6.20912">
        <ele>956.6491699</ele>
        <time>2012-03-17T14:00:13Z</time>
      </trkpt>
      <trkpt lat="45.49315" lon="6.20891">
        <ele>961.4558105</ele>
        <time>2012-03-17T14:00:19Z</time>
      </trkpt>
      <trkpt lat="45.49319" lon="6.20877">
        <ele>963.378418</ele>
        <time>2012-03-17T14:00:24Z</time>
      </trkpt>
      <trkpt lat="45.49322" lon="6.20861">
        <ele>966.7429199</ele>
        <time>2012-03-17T14:00:29Z</time>
      </trkpt>
      <trkpt lat="45.49325" lon="6.20847">
        <ele>970.5881348</ele>
        <time>2012-03-17T14:00:34Z</time>
      </trkpt>
      <trkpt lat="45.49328" lon="6.2083">
        <ele>973.4724121</ele>
        <time>2012-03-17T14:00:40Z</time>
      </trkpt>
      <trkpt lat="45.49333" lon="6.20816">
        <ele>974.9143066</ele>
        <time>2012-03-17T14:00:46Z</time>
      </trkpt>
      <trkpt lat="45.4934" lon="6.20806">
        <ele>974.4335938</ele>
        <time>2012-03-17T14:00:52Z</time>
      </trkpt>
      <trkpt lat="45.4934" lon="6.20804">
        <ele>974.4335938</ele>
        <time>2012-03-17T14:00:53Z</time>
      </trkpt>
      <trkpt lat="45.49342" lon="6.20796">
        <ele>972.9916992</ele>
        <time>2012-03-17T14:00:57Z</time>
      </trkpt>
      <trkpt lat="45.49344" lon="6.20787">
        <ele>971.5493164</ele>
        <time>2012-03-17T14:01:01Z</time>
      </trkpt>
      <trkpt lat="45.49351" lon="6.2078">
        <ele>967.2236328</ele>
        <time>2012-03-17T14:01:06Z</time>
      </trkpt>
      <trkpt lat="45.49355" lon="6.20776">
        <ele>965.3010254</ele>
        <time>2012-03-17T14:01:08Z</time>
      </trkpt>
      <trkpt lat="45.49358" lon="6.20762">
        <ele>964.3395996</ele>
        <time>2012-03-17T14:01:14Z</time>
      </trkpt>
      <trkpt lat="45.4936" lon="6.20757">
        <ele>963.8588867</ele>
        <time>2012-03-17T14:01:16Z</time>
      </trkpt>
      <trkpt lat="45.49362" lon="6.20751">
        <ele>964.3395996</ele>
        <time>2012-03-17T14:01:18Z</time>
      </trkpt>
      <trkpt lat="45.49361" lon="6.20728">
        <ele>970.5881348</ele>
        <time>2012-03-17T14:01:25Z</time>
      </trkpt>
      <trkpt lat="45.49359" lon="6.20713">
        <ele>970.1074219</ele>
        <time>2012-03-17T14:01:31Z</time>
      </trkpt>
      <trkpt lat="45.49361" lon="6.20705">
        <ele>971.5493164</ele>
        <time>2012-03-17T14:01:37Z</time>
      </trkpt>
      <trkpt lat="45.49366" lon="6.20713">
        <ele>968.6655273</ele>
        <time>2012-03-17T14:01:45Z</time>
      </trkpt>
      <trkpt lat="45.49368" lon="6.20717">
        <ele>968.6655273</ele>
        <time>2012-03-17T14:01:49Z</time>
      </trkpt>
      <trkpt lat="45.49374" lon="6.20728">
        <ele>967.2236328</ele>
        <time>2012-03-17T14:01:58Z</time>
      </trkpt>
      <trkpt lat="45.49376" lon="6.20729">
        <ele>966.7429199</ele>
        <time>2012-03-17T14:01:59Z</time>
      </trkpt>
      <trkpt lat="45.49377" lon="6.20732">
        <ele>966.262207</ele>
        <time>2012-03-17T14:02:01Z</time>
      </trkpt>
      <trkpt lat="45.49383" lon="6.20739">
        <ele>964.8203125</ele>
        <time>2012-03-17T14:02:08Z</time>
      </trkpt>
      <trkpt lat="45.49385" lon="6.20742">
        <ele>964.8203125</ele>
        <time>2012-03-17T14:02:10Z</time>
      </trkpt>
      <trkpt lat="45.49386" lon="6.20743">
        <ele>965.7817383</ele>
        <time>2012-03-17T14:02:12Z</time>
      </trkpt>
      <trkpt lat="45.49391" lon="6.20751">
        <ele>967.7041016</ele>
        <time>2012-03-17T14:02:20Z</time>
      </trkpt>
      <trkpt lat="45.49394" lon="6.20754">
        <ele>969.6269531</ele>
        <time>2012-03-17T14:02:26Z</time>
      </trkpt>
      <trkpt lat="45.49401" lon="6.20759">
        <ele>969.1462402</ele>
        <time>2012-03-17T14:02:33Z</time>
      </trkpt>
      <trkpt lat="45.49404" lon="6.20762">
        <ele>970.5881348</ele>
        <time>2012-03-17T14:02:37Z</time>
      </trkpt>
      <trkpt lat="45.4941" lon="6.2077">
        <ele>973.4724121</ele>
        <time>2012-03-17T14:02:46Z</time>
      </trkpt>
      <trkpt lat="45.49414" lon="6.2077">
        <ele>975.8754883</ele>
        <time>2012-03-17T14:02:51Z</time>
      </trkpt>
      <trkpt lat="45.49415" lon="6.2077">
        <ele>976.8369141</ele>
        <time>2012-03-17T14:02:53Z</time>
      </trkpt>
      <trkpt lat="45.49421" lon="6.20769">
        <ele>976.8369141</ele>
        <time>2012-03-17T14:02:58Z</time>
      </trkpt>
      <trkpt lat="45.49426" lon="6.20772">
        <ele>976.3562012</ele>
        <time>2012-03-17T14:03:03Z</time>
      </trkpt>
      <trkpt lat="45.4943" lon="6.20777">
        <ele>975.8754883</ele>
        <time>2012-03-17T14:03:08Z</time>
      </trkpt>
      <trkpt lat="45.49437" lon="6.20783">
        <ele>978.2788086</ele>
        <time>2012-03-17T14:03:17Z</time>
      </trkpt>
      <trkpt lat="45.49441" lon="6.2079">
        <ele>982.1240234</ele>
        <time>2012-03-17T14:03:24Z</time>
      </trkpt>
      <trkpt lat="45.49444" lon="6.20791">
        <ele>985.0080566</ele>
        <time>2012-03-17T14:03:29Z</time>
      </trkpt>
      <trkpt lat="45.49448" lon="6.20791">
        <ele>986.4499512</ele>
        <time>2012-03-17T14:03:34Z</time>
      </trkpt>
      <trkpt lat="45.49452" lon="6.20791">
        <ele>985.4885254</ele>
        <time>2012-03-17T14:03:37Z</time>
      </trkpt>
      <trkpt lat="45.49456" lon="6.20793">
        <ele>986.4499512</ele>
        <time>2012-03-17T14:03:42Z</time>
      </trkpt>
      <trkpt lat="45.49462" lon="6.20793">
        <ele>988.3728027</ele>
        <time>2012-03-17T14:03:48Z</time>
      </trkpt>
      <trkpt lat="45.49471" lon="6.2079">
        <ele>994.6210938</ele>
        <time>2012-03-17T14:04:00Z</time>
      </trkpt>
      <trkpt lat="45.49473" lon="6.2079">
        <ele>994.6210938</ele>
        <time>2012-03-17T14:04:02Z</time>
      </trkpt>
      <trkpt lat="45.49481" lon="6.2079">
        <ele>993.1791992</ele>
        <time>2012-03-17T14:04:09Z</time>
      </trkpt>
      <trkpt lat="45.49484" lon="6.20789">
        <ele>992.2180176</ele>
        <time>2012-03-17T14:04:12Z</time>
      </trkpt>
      <trkpt lat="45.49487" lon="6.20786">
        <ele>990.7758789</ele>
        <time>2012-03-17T14:04:15Z</time>
      </trkpt>
      <trkpt lat="45.49491" lon="6.20783">
        <ele>989.8146973</ele>
        <time>2012-03-17T14:04:19Z</time>
      </trkpt>
      <trkpt lat="45.49493" lon="6.20782">
        <ele>989.8146973</ele>
        <time>2012-03-17T14:04:21Z</time>
      </trkpt>
      <trkpt lat="45.49499" lon="6.2078">
        <ele>990.2954102</ele>
        <time>2012-03-17T14:04:27Z</time>
      </trkpt>
      <trkpt lat="45.49507" lon="6.2078">
        <ele>992.6987305</ele>
        <time>2012-03-17T14:04:33Z</time>
      </trkpt>
      <trkpt lat="45.49514" lon="6.20777">
        <ele>995.1018066</ele>
        <time>2012-03-17T14:04:41Z</time>
      </trkpt>
      <trkpt lat="45.49523" lon="6.20778">
        <ele>997.505127</ele>
        <time>2012-03-17T14:04:51Z</time>
      </trkpt>
      <trkpt lat="45.49533" lon="6.20776">
        <ele>1003.2729492</ele>
        <time>2012-03-17T14:04:59Z</time>
      </trkpt>
      <trkpt lat="45.49539" lon="6.20771">
        <ele>1009.0410156</ele>
        <time>2012-03-17T14:05:09Z</time>
      </trkpt>
      <trkpt lat="45.49538" lon="6.20766">
        <ele>1020.0961914</ele>
        <time>2012-03-17T14:05:13Z</time>
      </trkpt>
      <trkpt lat="45.4954" lon="6.20765">
        <ele>1023.4609375</ele>
        <time>2012-03-17T14:05:17Z</time>
      </trkpt>
      <trkpt lat="45.49552" lon="6.20766">
        <ele>1022.9802246</ele>
        <time>2012-03-17T14:05:24Z</time>
      </trkpt>
      <trkpt lat="45.49555" lon="6.20768">
        <ele>1022.4995117</ele>
        <time>2012-03-17T14:05:27Z</time>
      </trkpt>
      <trkpt lat="45.4957" lon="6.20767">
        <ele>1017.692627</ele>
        <time>2012-03-17T14:05:37Z</time>
      </trkpt>
      <trkpt lat="45.49574" lon="6.20768">
        <ele>1015.7702637</ele>
        <time>2012-03-17T14:05:41Z</time>
      </trkpt>
      <trkpt lat="45.49578" lon="6.20767">
        <ele>1018.1733398</ele>
        <time>2012-03-17T14:05:43Z</time>
      </trkpt>
      <trkpt lat="45.49578" lon="6.20765">
        <ele>1020.0961914</ele>
        <time>2012-03-17T14:05:45Z</time>
      </trkpt>
      <trkpt lat="45.49584" lon="6.20761">
        <ele>1023.4609375</ele>
        <time>2012-03-17T14:05:51Z</time>
      </trkpt>
      <trkpt lat="45.49588" lon="6.20764">
        <ele>1025.8640137</ele>
        <time>2012-03-17T14:05:59Z</time>
      </trkpt>
      <trkpt lat="45.49589" lon="6.20764">
        <ele>1026.3447266</ele>
        <time>2012-03-17T14:06:00Z</time>
      </trkpt>
      <trkpt lat="45.49591" lon="6.20765">
        <ele>1026.3447266</ele>
        <time>2012-03-17T14:06:02Z</time>
      </trkpt>
      <trkpt lat="45.49595" lon="6.20764">
        <ele>1026.3447266</ele>
        <time>2012-03-17T14:06:05Z</time>
      </trkpt>
      <trkpt lat="45.49598" lon="6.20763">
        <ele>1026.8254395</ele>
        <time>2012-03-17T14:06:09Z</time>
      </trkpt>
      <trkpt lat="45.49605" lon="6.20766">
        <ele>1025.3833008</ele>
        <time>2012-03-17T14:06:14Z</time>
      </trkpt>
      <trkpt lat="45.49611" lon="6.20767">
        <ele>1024.4221191</ele>
        <time>2012-03-17T14:06:18Z</time>
      </trkpt>
      <trkpt lat="45.49616" lon="6.2077">
        <ele>1025.3833008</ele>
        <time>2012-03-17T14:06:23Z</time>
      </trkpt>
      <trkpt lat="45.49623" lon="6.20773">
        <ele>1026.3447266</ele>
        <time>2012-03-17T14:06:29Z</time>
      </trkpt>
      <trkpt lat="45.49624" lon="6.20773">
        <ele>1026.8254395</ele>
        <time>2012-03-17T14:06:30Z</time>
      </trkpt>
      <trkpt lat="45.4963" lon="6.20779">
        <ele>1028.267334</ele>
        <time>2012-03-17T14:06:35Z</time>
      </trkpt>
      <trkpt lat="45.49638" lon="6.20785">
        <ele>1028.267334</ele>
        <time>2012-03-17T14:06:43Z</time>
      </trkpt>
      <trkpt lat="45.49645" lon="6.20793">
        <ele>1030.1899414</ele>
        <time>2012-03-17T14:06:50Z</time>
      </trkpt>
      <trkpt lat="45.49651" lon="6.20796">
        <ele>1027.7866211</ele>
        <time>2012-03-17T14:06:54Z</time>
      </trkpt>
      <trkpt lat="45.49657" lon="6.20801">
        <ele>1026.8254395</ele>
        <time>2012-03-17T14:07:00Z</time>
      </trkpt>
      <trkpt lat="45.4966" lon="6.20803">
        <ele>1026.3447266</ele>
        <time>2012-03-17T14:07:04Z</time>
      </trkpt>
      <trkpt lat="45.49664" lon="6.20808">
        <ele>1023.9414063</ele>
        <time>2012-03-17T14:07:11Z</time>
      </trkpt>
      <trkpt lat="45.49665" lon="6.20809">
        <ele>1023.4609375</ele>
        <time>2012-03-17T14:07:12Z</time>
      </trkpt>
      <trkpt lat="45.4967" lon="6.20813">
        <ele>1022.0187988</ele>
        <time>2012-03-17T14:07:18Z</time>
      </trkpt>
      <trkpt lat="45.4967" lon="6.20823">
        <ele>1034.0351563</ele>
        <time>2012-03-17T14:07:25Z</time>
      </trkpt>
      <trkpt lat="45.49672" lon="6.20827">
        <ele>1034.0351563</ele>
        <time>2012-03-17T14:07:31Z</time>
      </trkpt>
      <trkpt lat="45.4967" lon="6.20828">
        <ele>1042.206543</ele>
        <time>2012-03-17T14:07:43Z</time>
      </trkpt>
      <trkpt lat="45.49671" lon="6.20831">
        <ele>1040.2839355</ele>
        <time>2012-03-17T14:07:46Z</time>
      </trkpt>
      <trkpt lat="45.49673" lon="6.20835">
        <ele>1036.9191895</ele>
        <time>2012-03-17T14:07:49Z</time>
      </trkpt>
      <trkpt lat="45.49676" lon="6.20842">
        <ele>1031.6318359</ele>
        <time>2012-03-17T14:07:53Z</time>
      </trkpt>
      <trkpt lat="45.49674" lon="6.20851">
        <ele>1031.1513672</ele>
        <time>2012-03-17T14:07:58Z</time>
      </trkpt>
      <trkpt lat="45.49672" lon="6.20864">
        <ele>1037.3999023</ele>
        <time>2012-03-17T14:08:06Z</time>
      </trkpt>
      <trkpt lat="45.49668" lon="6.20871">
        <ele>1038.842041</ele>
        <time>2012-03-17T14:08:11Z</time>
      </trkpt>
      <trkpt lat="45.49666" lon="6.20874">
        <ele>1039.3225098</ele>
        <time>2012-03-17T14:08:13Z</time>
      </trkpt>
      <trkpt lat="45.49666" lon="6.20878">
        <ele>1036.9191895</ele>
        <time>2012-03-17T14:08:17Z</time>
      </trkpt>
      <trkpt lat="45.4967" lon="6.20882">
        <ele>1033.0737305</ele>
        <time>2012-03-17T14:08:23Z</time>
      </trkpt>
      <trkpt lat="45.49668" lon="6.20886">
        <ele>1035.4770508</ele>
        <time>2012-03-17T14:08:25Z</time>
      </trkpt>
      <trkpt lat="45.49668" lon="6.20889">
        <ele>1037.8806152</ele>
        <time>2012-03-17T14:08:27Z</time>
      </trkpt>
      <trkpt lat="45.4967" lon="6.20896">
        <ele>1037.3999023</ele>
        <time>2012-03-17T14:08:32Z</time>
      </trkpt>
      <trkpt lat="45.49671" lon="6.20897">
        <ele>1038.3613281</ele>
        <time>2012-03-17T14:08:34Z</time>
      </trkpt>
      <trkpt lat="45.49671" lon="6.20903">
        <ele>1038.3613281</ele>
        <time>2012-03-17T14:08:39Z</time>
      </trkpt>
      <trkpt lat="45.49669" lon="6.20919">
        <ele>1041.2451172</ele>
        <time>2012-03-17T14:08:47Z</time>
      </trkpt>
      <trkpt lat="45.4967" lon="6.20921">
        <ele>1040.7644043</ele>
        <time>2012-03-17T14:08:49Z</time>
      </trkpt>
      <trkpt lat="45.49668" lon="6.20928">
        <ele>1040.7644043</ele>
        <time>2012-03-17T14:08:53Z</time>
      </trkpt>
      <trkpt lat="45.49669" lon="6.20936">
        <ele>1039.8032227</ele>
        <time>2012-03-17T14:08:57Z</time>
      </trkpt>
      <trkpt lat="45.49669" lon="6.20939">
        <ele>1038.3613281</ele>
        <time>2012-03-17T14:08:59Z</time>
      </trkpt>
      <trkpt lat="45.49668" lon="6.20945">
        <ele>1036.4387207</ele>
        <time>2012-03-17T14:09:03Z</time>
      </trkpt>
      <trkpt lat="45.49667" lon="6.20952">
        <ele>1035.4770508</ele>
        <time>2012-03-17T14:09:06Z</time>
      </trkpt>
      <trkpt lat="45.49663" lon="6.20972">
        <ele>1042.6872559</ele>
        <time>2012-03-17T14:09:13Z</time>
      </trkpt>
      <trkpt lat="45.49662" lon="6.20976">
        <ele>1044.1291504</ele>
        <time>2012-03-17T14:09:15Z</time>
      </trkpt>
      <trkpt lat="45.4966" lon="6.20988">
        <ele>1045.090332</ele>
        <time>2012-03-17T14:09:21Z</time>
      </trkpt>
      <trkpt lat="45.49658" lon="6.20992">
        <ele>1045.090332</ele>
        <time>2012-03-17T14:09:24Z</time>
      </trkpt>
      <trkpt lat="45.49658" lon="6.20996">
        <ele>1045.090332</ele>
        <time>2012-03-17T14:09:26Z</time>
      </trkpt>
      <trkpt lat="45.49659" lon="6.20998">
        <ele>1044.6096191</ele>
        <time>2012-03-17T14:09:28Z</time>
      </trkpt>
      <trkpt lat="45.49658" lon="6.21003">
        <ele>1046.5324707</ele>
        <time>2012-03-17T14:09:31Z</time>
      </trkpt>
      <trkpt lat="45.49658" lon="6.21015">
        <ele>1045.090332</ele>
        <time>2012-03-17T14:09:38Z</time>
      </trkpt>
      <trkpt lat="45.4966" lon="6.21018">
        <ele>1043.6484375</ele>
        <time>2012-03-17T14:09:41Z</time>
      </trkpt>
      <trkpt lat="45.49668" lon="6.21033">
        <ele>1043.6484375</ele>
        <time>2012-03-17T14:09:50Z</time>
      </trkpt>
      <trkpt lat="45.49678" lon="6.21041">
        <ele>1045.5710449</ele>
        <time>2012-03-17T14:09:56Z</time>
      </trkpt>
      <trkpt lat="45.49679" lon="6.21045">
        <ele>1044.1291504</ele>
        <time>2012-03-17T14:09:59Z</time>
      </trkpt>
      <trkpt lat="45.49684" lon="6.21055">
        <ele>1042.6872559</ele>
        <time>2012-03-17T14:10:06Z</time>
      </trkpt>
      <trkpt lat="45.49685" lon="6.21058">
        <ele>1043.1677246</ele>
        <time>2012-03-17T14:10:08Z</time>
      </trkpt>
      <trkpt lat="45.49685" lon="6.21061">
        <ele>1044.6096191</ele>
        <time>2012-03-17T14:10:10Z</time>
      </trkpt>
      <trkpt lat="45.49687" lon="6.21072">
        <ele>1049.8969727</ele>
        <time>2012-03-17T14:10:16Z</time>
      </trkpt>
      <trkpt lat="45.49693" lon="6.21084">
        <ele>1047.0129395</ele>
        <time>2012-03-17T14:10:24Z</time>
      </trkpt>
      <trkpt lat="45.49701" lon="6.21096">
        <ele>1041.7258301</ele>
        <time>2012-03-17T14:10:32Z</time>
      </trkpt>
      <trkpt lat="45.49701" lon="6.21098">
        <ele>1041.2451172</ele>
        <time>2012-03-17T14:10:33Z</time>
      </trkpt>
      <trkpt lat="45.49706" lon="6.21108">
        <ele>1038.842041</ele>
        <time>2012-03-17T14:10:41Z</time>
      </trkpt>
      <trkpt lat="45.49707" lon="6.21112">
        <ele>1037.8806152</ele>
        <time>2012-03-17T14:10:45Z</time>
      </trkpt>
      <trkpt lat="45.49708" lon="6.21121">
        <ele>1039.3225098</ele>
        <time>2012-03-17T14:10:52Z</time>
      </trkpt>
      <trkpt lat="45.49711" lon="6.2113">
        <ele>1039.8032227</ele>
        <time>2012-03-17T14:10:57Z</time>
      </trkpt>
      <trkpt lat="45.49712" lon="6.21132">
        <ele>1040.7644043</ele>
        <time>2012-03-17T14:10:58Z</time>
      </trkpt>
      <trkpt lat="45.49714" lon="6.2114">
        <ele>1045.090332</ele>
        <time>2012-03-17T14:11:03Z</time>
      </trkpt>
      <trkpt lat="45.49717" lon="6.21153">
        <ele>1046.0517578</ele>
        <time>2012-03-17T14:11:10Z</time>
      </trkpt>
      <trkpt lat="45.49721" lon="6.2116">
        <ele>1046.5324707</ele>
        <time>2012-03-17T14:11:14Z</time>
      </trkpt>
      <trkpt lat="45.49726" lon="6.21177">
        <ele>1048.454834</ele>
        <time>2012-03-17T14:11:22Z</time>
      </trkpt>
      <trkpt lat="45.49724" lon="6.21183">
        <ele>1047.4936523</ele>
        <time>2012-03-17T14:11:27Z</time>
      </trkpt>
      <trkpt lat="45.49724" lon="6.21192">
        <ele>1046.0517578</ele>
        <time>2012-03-17T14:11:33Z</time>
      </trkpt>
      <trkpt lat="45.49724" lon="6.21202">
        <ele>1047.4936523</ele>
        <time>2012-03-17T14:11:39Z</time>
      </trkpt>
      <trkpt lat="45.49724" lon="6.21214">
        <ele>1048.9355469</ele>
        <time>2012-03-17T14:11:46Z</time>
      </trkpt>
      <trkpt lat="45.49727" lon="6.21218">
        <ele>1048.454834</ele>
        <time>2012-03-17T14:11:49Z</time>
      </trkpt>
      <trkpt lat="45.49727" lon="6.2123">
        <ele>1046.0517578</ele>
        <time>2012-03-17T14:11:56Z</time>
      </trkpt>
      <trkpt lat="45.49727" lon="6.21236">
        <ele>1044.1291504</ele>
        <time>2012-03-17T14:12:01Z</time>
      </trkpt>
      <trkpt lat="45.49728" lon="6.21242">
        <ele>1042.6872559</ele>
        <time>2012-03-17T14:12:10Z</time>
      </trkpt>
      <trkpt lat="45.49727" lon="6.21247">
        <ele>1041.2451172</ele>
        <time>2012-03-17T14:12:16Z</time>
      </trkpt>
      <trkpt lat="45.49728" lon="6.21253">
        <ele>1040.2839355</ele>
        <time>2012-03-17T14:12:21Z</time>
      </trkpt>
      <trkpt lat="45.49725" lon="6.21263">
        <ele>1048.454834</ele>
        <time>2012-03-17T14:12:28Z</time>
      </trkpt>
      <trkpt lat="45.49729" lon="6.2127">
        <ele>1051.3388672</ele>
        <time>2012-03-17T14:12:59Z</time>
      </trkpt>
      <trkpt lat="45.49728" lon="6.21273">
        <ele>1052.7810059</ele>
        <time>2012-03-17T14:13:05Z</time>
      </trkpt>
      <trkpt lat="45.49726" lon="6.21277">
        <ele>1053.7424316</ele>
        <time>2012-03-17T14:13:09Z</time>
      </trkpt>
      <trkpt lat="45.49723" lon="6.21277">
        <ele>1052.7810059</ele>
        <time>2012-03-17T14:13:17Z</time>
      </trkpt>
      <trkpt lat="45.49723" lon="6.21278">
        <ele>1053.7424316</ele>
        <time>2012-03-17T14:13:30Z</time>
      </trkpt>
      <trkpt lat="45.49724" lon="6.21281">
        <ele>1049.8969727</ele>
        <time>2012-03-17T14:13:38Z</time>
      </trkpt>
      <trkpt lat="45.4973" lon="6.21288">
        <ele>1051.3388672</ele>
        <time>2012-03-17T14:13:48Z</time>
      </trkpt>
      <trkpt lat="45.49729" lon="6.21289">
        <ele>1051.3388672</ele>
        <time>2012-03-17T14:13:49Z</time>
      </trkpt>
      <trkpt lat="45.49726" lon="6.21287">
        <ele>1045.090332</ele>
        <time>2012-03-17T14:13:58Z</time>
      </trkpt>
      <trkpt lat="45.49721" lon="6.21281">
        <ele>1042.6872559</ele>
        <time>2012-03-17T14:14:08Z</time>
      </trkpt>
      <trkpt lat="45.49713" lon="6.21277">
        <ele>1042.6872559</ele>
        <time>2012-03-17T14:14:13Z</time>
      </trkpt>
      <trkpt lat="45.49707" lon="6.21277">
        <ele>1044.1291504</ele>
        <time>2012-03-17T14:14:18Z</time>
      </trkpt>
      <trkpt lat="45.49694" lon="6.21277">
        <ele>1046.5324707</ele>
        <time>2012-03-17T14:14:24Z</time>
      </trkpt>
      <trkpt lat="45.49685" lon="6.21282">
        <ele>1050.8581543</ele>
        <time>2012-03-17T14:14:29Z</time>
      </trkpt>
      <trkpt lat="45.49678" lon="6.21288">
        <ele>1053.2617188</ele>
        <time>2012-03-17T14:14:34Z</time>
      </trkpt>
      <trkpt lat="45.49666" lon="6.21304">
        <ele>1059.9907227</ele>
        <time>2012-03-17T14:14:41Z</time>
      </trkpt>
      <trkpt lat="45.49654" lon="6.21318">
        <ele>1056.1455078</ele>
        <time>2012-03-17T14:14:48Z</time>
      </trkpt>
      <trkpt lat="45.49653" lon="6.2132">
        <ele>1055.6650391</ele>
        <time>2012-03-17T14:14:49Z</time>
      </trkpt>
      <trkpt lat="45.49652" lon="6.21327">
        <ele>1058.5488281</ele>
        <time>2012-03-17T14:14:53Z</time>
      </trkpt>
      <trkpt lat="45.49654" lon="6.21336">
        <ele>1060.9521484</ele>
        <time>2012-03-17T14:14:58Z</time>
      </trkpt>
      <trkpt lat="45.49657" lon="6.21348">
        <ele>1055.1843262</ele>
        <time>2012-03-17T14:15:05Z</time>
      </trkpt>
      <trkpt lat="45.49658" lon="6.2135">
        <ele>1054.2231445</ele>
        <time>2012-03-17T14:15:06Z</time>
      </trkpt>
      <trkpt lat="45.49663" lon="6.21355">
        <ele>1051.8195801</ele>
        <time>2012-03-17T14:15:10Z</time>
      </trkpt>
      <trkpt lat="45.49672" lon="6.21367">
        <ele>1048.454834</ele>
        <time>2012-03-17T14:15:16Z</time>
      </trkpt>
      <trkpt lat="45.49678" lon="6.21382">
        <ele>1045.5710449</ele>
        <time>2012-03-17T14:15:23Z</time>
      </trkpt>
      <trkpt lat="45.49681" lon="6.21398">
        <ele>1043.1677246</ele>
        <time>2012-03-17T14:15:29Z</time>
      </trkpt>
      <trkpt lat="45.49683" lon="6.21413">
        <ele>1047.9743652</ele>
        <time>2012-03-17T14:15:33Z</time>
      </trkpt>
      <trkpt lat="45.4968" lon="6.21439">
        <ele>1058.5488281</ele>
        <time>2012-03-17T14:15:40Z</time>
      </trkpt>
      <trkpt lat="45.49677" lon="6.2146">
        <ele>1061.9135742</ele>
        <time>2012-03-17T14:15:46Z</time>
      </trkpt>
      <trkpt lat="45.49681" lon="6.2147">
        <ele>1061.9135742</ele>
        <time>2012-03-17T14:15:51Z</time>
      </trkpt>
      <trkpt lat="45.49683" lon="6.21471">
        <ele>1060.9521484</ele>
        <time>2012-03-17T14:15:53Z</time>
      </trkpt>
      <trkpt lat="45.49685" lon="6.21474">
        <ele>1059.9907227</ele>
        <time>2012-03-17T14:15:58Z</time>
      </trkpt>
      <trkpt lat="45.49686" lon="6.21476">
        <ele>1059.5102539</ele>
        <time>2012-03-17T14:16:00Z</time>
      </trkpt>
      <trkpt lat="45.49689" lon="6.21477">
        <ele>1057.1069336</ele>
        <time>2012-03-17T14:16:03Z</time>
      </trkpt>
      <trkpt lat="45.49701" lon="6.21482">
        <ele>1056.1455078</ele>
        <time>2012-03-17T14:16:12Z</time>
      </trkpt>
      <trkpt lat="45.49707" lon="6.21484">
        <ele>1053.2617188</ele>
        <time>2012-03-17T14:16:18Z</time>
      </trkpt>
      <trkpt lat="45.49713" lon="6.21488">
        <ele>1052.300293</ele>
        <time>2012-03-17T14:16:25Z</time>
      </trkpt>
      <trkpt lat="45.49717" lon="6.21485">
        <ele>1052.300293</ele>
        <time>2012-03-17T14:16:31Z</time>
      </trkpt>
      <trkpt lat="45.49729" lon="6.21481">
        <ele>1055.6650391</ele>
        <time>2012-03-17T14:16:36Z</time>
      </trkpt>
      <trkpt lat="45.49742" lon="6.21477">
        <ele>1058.5488281</ele>
        <time>2012-03-17T14:16:43Z</time>
      </trkpt>
      <trkpt lat="45.49755" lon="6.21474">
        <ele>1059.5102539</ele>
        <time>2012-03-17T14:16:49Z</time>
      </trkpt>
      <trkpt lat="45.49771" lon="6.21473">
        <ele>1059.9907227</ele>
        <time>2012-03-17T14:16:55Z</time>
      </trkpt>
      <trkpt lat="45.49786" lon="6.21479">
        <ele>1059.9907227</ele>
        <time>2012-03-17T14:17:01Z</time>
      </trkpt>
      <trkpt lat="45.49799" lon="6.21481">
        <ele>1062.8747559</ele>
        <time>2012-03-17T14:17:06Z</time>
      </trkpt>
      <trkpt lat="45.49809" lon="6.21492">
        <ele>1063.8359375</ele>
        <time>2012-03-17T14:17:11Z</time>
      </trkpt>
      <trkpt lat="45.49814" lon="6.21502">
        <ele>1064.7973633</ele>
        <time>2012-03-17T14:17:15Z</time>
      </trkpt>
      <trkpt lat="45.49822" lon="6.2151">
        <ele>1062.8747559</ele>
        <time>2012-03-17T14:17:20Z</time>
      </trkpt>
      <trkpt lat="45.49824" lon="6.21512">
        <ele>1063.3554688</ele>
        <time>2012-03-17T14:17:22Z</time>
      </trkpt>
      <trkpt lat="45.49837" lon="6.21519">
        <ele>1061.9135742</ele>
        <time>2012-03-17T14:17:29Z</time>
      </trkpt>
      <trkpt lat="45.49847" lon="6.21524">
        <ele>1062.8747559</ele>
        <time>2012-03-17T14:17:33Z</time>
      </trkpt>
      <trkpt lat="45.49862" lon="6.21529">
        <ele>1065.7587891</ele>
        <time>2012-03-17T14:17:39Z</time>
      </trkpt>
      <trkpt lat="45.49875" lon="6.21531">
        <ele>1065.2780762</ele>
        <time>2012-03-17T14:17:46Z</time>
      </trkpt>
      <trkpt lat="45.49876" lon="6.21531">
        <ele>1065.7587891</ele>
        <time>2012-03-17T14:17:47Z</time>
      </trkpt>
      <trkpt lat="45.49881" lon="6.21534">
        <ele>1065.7587891</ele>
        <time>2012-03-17T14:17:53Z</time>
      </trkpt>
      <trkpt lat="45.49889" lon="6.21541">
        <ele>1067.2006836</ele>
        <time>2012-03-17T14:18:00Z</time>
      </trkpt>
      <trkpt lat="45.499" lon="6.21549">
        <ele>1070.0847168</ele>
        <time>2012-03-17T14:18:05Z</time>
      </trkpt>
      <trkpt lat="45.49905" lon="6.21557">
        <ele>1071.5266113</ele>
        <time>2012-03-17T14:18:09Z</time>
      </trkpt>
      <trkpt lat="45.49918" lon="6.21565">
        <ele>1072.96875</ele>
        <time>2012-03-17T14:18:15Z</time>
      </trkpt>
      <trkpt lat="45.49924" lon="6.21566">
        <ele>1073.9299316</ele>
        <time>2012-03-17T14:18:18Z</time>
      </trkpt>
      <trkpt lat="45.49934" lon="6.21567">
        <ele>1073.4494629</ele>
        <time>2012-03-17T14:18:24Z</time>
      </trkpt>
      <trkpt lat="45.49938" lon="6.21568">
        <ele>1073.4494629</ele>
        <time>2012-03-17T14:18:26Z</time>
      </trkpt>
      <trkpt lat="45.4995" lon="6.21577">
        <ele>1071.5266113</ele>
        <time>2012-03-17T14:18:32Z</time>
      </trkpt>
      <trkpt lat="45.49954" lon="6.21581">
        <ele>1072.0073242</ele>
        <time>2012-03-17T14:18:34Z</time>
      </trkpt>
      <trkpt lat="45.49961" lon="6.21588">
        <ele>1069.604248</ele>
        <time>2012-03-17T14:18:39Z</time>
      </trkpt>
      <trkpt lat="45.49967" lon="6.21593">
        <ele>1068.1621094</ele>
        <time>2012-03-17T14:18:44Z</time>
      </trkpt>
      <trkpt lat="45.49973" lon="6.21592">
        <ele>1067.6811523</ele>
        <time>2012-03-17T14:18:51Z</time>
      </trkpt>
      <trkpt lat="45.49982" lon="6.21593">
        <ele>1067.2006836</ele>
        <time>2012-03-17T14:18:58Z</time>
      </trkpt>
      <trkpt lat="45.49991" lon="6.21596">
        <ele>1066.7199707</ele>
        <time>2012-03-17T14:19:05Z</time>
      </trkpt>
      <trkpt lat="45.49998" lon="6.21596">
        <ele>1069.1235352</ele>
        <time>2012-03-17T14:19:10Z</time>
      </trkpt>
      <trkpt lat="45.50012" lon="6.21597">
        <ele>1065.7587891</ele>
        <time>2012-03-17T14:19:19Z</time>
      </trkpt>
      <trkpt lat="45.50019" lon="6.21598">
        <ele>1067.2006836</ele>
        <time>2012-03-17T14:19:24Z</time>
      </trkpt>
      <trkpt lat="45.50025" lon="6.21598">
        <ele>1066.7199707</ele>
        <time>2012-03-17T14:19:28Z</time>
      </trkpt>
      <trkpt lat="45.50026" lon="6.21598">
        <ele>1069.1235352</ele>
        <time>2012-03-17T14:19:30Z</time>
      </trkpt>
      <trkpt lat="45.50031" lon="6.21598">
        <ele>1075.8525391</ele>
        <time>2012-03-17T14:19:37Z</time>
      </trkpt>
      <trkpt lat="45.50038" lon="6.21596">
        <ele>1075.8525391</ele>
        <time>2012-03-17T14:19:43Z</time>
      </trkpt>
      <trkpt lat="45.50041" lon="6.21595">
        <ele>1078.2558594</ele>
        <time>2012-03-17T14:19:45Z</time>
      </trkpt>
      <trkpt lat="45.50045" lon="6.21593">
        <ele>1080.6591797</ele>
        <time>2012-03-17T14:19:51Z</time>
      </trkpt>
      <trkpt lat="45.5005" lon="6.21591">
        <ele>1081.1398926</ele>
        <time>2012-03-17T14:19:55Z</time>
      </trkpt>
      <trkpt lat="45.50056" lon="6.21593">
        <ele>1081.6203613</ele>
        <time>2012-03-17T14:20:00Z</time>
      </trkpt>
      <trkpt lat="45.50067" lon="6.21593">
        <ele>1080.6591797</ele>
        <time>2012-03-17T14:20:08Z</time>
      </trkpt>
      <trkpt lat="45.50075" lon="6.21591">
        <ele>1080.1784668</ele>
        <time>2012-03-17T14:20:14Z</time>
      </trkpt>
      <trkpt lat="45.50078" lon="6.21592">
        <ele>1080.1784668</ele>
        <time>2012-03-17T14:20:17Z</time>
      </trkpt>
      <trkpt lat="45.50088" lon="6.21593">
        <ele>1079.217041</ele>
        <time>2012-03-17T14:20:25Z</time>
      </trkpt>
      <trkpt lat="45.50096" lon="6.21596">
        <ele>1078.2558594</ele>
        <time>2012-03-17T14:20:32Z</time>
      </trkpt>
      <trkpt lat="45.50105" lon="6.21603">
        <ele>1074.8913574</ele>
        <time>2012-03-17T14:20:42Z</time>
      </trkpt>
      <trkpt lat="45.50113" lon="6.21612">
        <ele>1077.2946777</ele>
        <time>2012-03-17T14:20:50Z</time>
      </trkpt>
      <trkpt lat="45.50121" lon="6.21627">
        <ele>1083.5429688</ele>
        <time>2012-03-17T14:20:59Z</time>
      </trkpt>
      <trkpt lat="45.50123" lon="6.21628">
        <ele>1083.5429688</ele>
        <time>2012-03-17T14:21:01Z</time>
      </trkpt>
      <trkpt lat="45.50131" lon="6.2163">
        <ele>1081.1398926</ele>
        <time>2012-03-17T14:21:07Z</time>
      </trkpt>
      <trkpt lat="45.50138" lon="6.21633">
        <ele>1081.1398926</ele>
        <time>2012-03-17T14:21:13Z</time>
      </trkpt>
      <trkpt lat="45.50142" lon="6.21633">
        <ele>1079.217041</ele>
        <time>2012-03-17T14:21:17Z</time>
      </trkpt>
      <trkpt lat="45.50148" lon="6.21634">
        <ele>1079.217041</ele>
        <time>2012-03-17T14:21:22Z</time>
      </trkpt>
      <trkpt lat="45.50153" lon="6.21638">
        <ele>1081.6203613</ele>
        <time>2012-03-17T14:21:27Z</time>
      </trkpt>
      <trkpt lat="45.50159" lon="6.21642">
        <ele>1082.5817871</ele>
        <time>2012-03-17T14:21:35Z</time>
      </trkpt>
      <trkpt lat="45.50161" lon="6.21642">
        <ele>1083.0622559</ele>
        <time>2012-03-17T14:21:36Z</time>
      </trkpt>
      <trkpt lat="45.50173" lon="6.21645">
        <ele>1087.3884277</ele>
        <time>2012-03-17T14:21:44Z</time>
      </trkpt>
      <trkpt lat="45.50179" lon="6.21654">
        <ele>1088.3498535</ele>
        <time>2012-03-17T14:21:51Z</time>
      </trkpt>
      <trkpt lat="45.50182" lon="6.2166">
        <ele>1089.3110352</ele>
        <time>2012-03-17T14:21:54Z</time>
      </trkpt>
      <trkpt lat="45.50188" lon="6.21678">
        <ele>1090.7529297</ele>
        <time>2012-03-17T14:22:00Z</time>
      </trkpt>
      <trkpt lat="45.50191" lon="6.21696">
        <ele>1091.2336426</ele>
        <time>2012-03-17T14:22:06Z</time>
      </trkpt>
      <trkpt lat="45.50195" lon="6.21709">
        <ele>1092.6757813</ele>
        <time>2012-03-17T14:22:11Z</time>
      </trkpt>
      <trkpt lat="45.50201" lon="6.21722">
        <ele>1094.5981445</ele>
        <time>2012-03-17T14:22:17Z</time>
      </trkpt>
      <trkpt lat="45.50203" lon="6.21726">
        <ele>1094.1176758</ele>
        <time>2012-03-17T14:22:19Z</time>
      </trkpt>
      <trkpt lat="45.50209" lon="6.21746">
        <ele>1089.791748</ele>
        <time>2012-03-17T14:22:27Z</time>
      </trkpt>
      <trkpt lat="45.50214" lon="6.21759">
        <ele>1087.8691406</ele>
        <time>2012-03-17T14:22:33Z</time>
      </trkpt>
      <trkpt lat="45.50216" lon="6.21763">
        <ele>1087.3884277</ele>
        <time>2012-03-17T14:22:35Z</time>
      </trkpt>
      <trkpt lat="45.5022" lon="6.21774">
        <ele>1084.9853516</ele>
        <time>2012-03-17T14:22:41Z</time>
      </trkpt>
      <trkpt lat="45.50222" lon="6.21784">
        <ele>1081.6203613</ele>
        <time>2012-03-17T14:22:45Z</time>
      </trkpt>
      <trkpt lat="45.50223" lon="6.2181">
        <ele>1088.3498535</ele>
        <time>2012-03-17T14:22:51Z</time>
      </trkpt>
      <trkpt lat="45.50223" lon="6.21829">
        <ele>1091.7143555</ele>
        <time>2012-03-17T14:22:56Z</time>
      </trkpt>
      <trkpt lat="45.50224" lon="6.21846">
        <ele>1093.6369629</ele>
        <time>2012-03-17T14:23:01Z</time>
      </trkpt>
      <trkpt lat="45.50228" lon="6.21859">
        <ele>1094.1176758</ele>
        <time>2012-03-17T14:23:07Z</time>
      </trkpt>
      <trkpt lat="45.50234" lon="6.21864">
        <ele>1090.7529297</ele>
        <time>2012-03-17T14:23:15Z</time>
      </trkpt>
      <trkpt lat="45.50236" lon="6.21863">
        <ele>1091.2336426</ele>
        <time>2012-03-17T14:23:18Z</time>
      </trkpt>
      <trkpt lat="45.50241" lon="6.21853">
        <ele>1091.7143555</ele>
        <time>2012-03-17T14:23:27Z</time>
      </trkpt>
      <trkpt lat="45.50245" lon="6.21848">
        <ele>1091.2336426</ele>
        <time>2012-03-17T14:23:31Z</time>
      </trkpt>
      <trkpt lat="45.5025" lon="6.21844">
        <ele>1092.6757813</ele>
        <time>2012-03-17T14:23:36Z</time>
      </trkpt>
      <trkpt lat="45.50257" lon="6.21842">
        <ele>1093.6369629</ele>
        <time>2012-03-17T14:23:41Z</time>
      </trkpt>
      <trkpt lat="45.50261" lon="6.21838">
        <ele>1089.791748</ele>
        <time>2012-03-17T14:23:45Z</time>
      </trkpt>
      <trkpt lat="45.50267" lon="6.21835">
        <ele>1088.3498535</ele>
        <time>2012-03-17T14:23:51Z</time>
      </trkpt>
      <trkpt lat="45.50273" lon="6.21827">
        <ele>1090.7529297</ele>
        <time>2012-03-17T14:23:57Z</time>
      </trkpt>
      <trkpt lat="45.5028" lon="6.21819">
        <ele>1093.15625</ele>
        <time>2012-03-17T14:24:04Z</time>
      </trkpt>
      <trkpt lat="45.5029" lon="6.21812">
        <ele>1096.5209961</ele>
        <time>2012-03-17T14:24:11Z</time>
      </trkpt>
      <trkpt lat="45.50299" lon="6.21808">
        <ele>1096.5209961</ele>
        <time>2012-03-17T14:24:16Z</time>
      </trkpt>
      <trkpt lat="45.50311" lon="6.21813">
        <ele>1095.5595703</ele>
        <time>2012-03-17T14:24:22Z</time>
      </trkpt>
      <trkpt lat="45.50317" lon="6.21821">
        <ele>1094.5981445</ele>
        <time>2012-03-17T14:24:26Z</time>
      </trkpt>
      <trkpt lat="45.50324" lon="6.21833">
        <ele>1094.1176758</ele>
        <time>2012-03-17T14:24:31Z</time>
      </trkpt>
      <trkpt lat="45.50332" lon="6.21848">
        <ele>1095.5595703</ele>
        <time>2012-03-17T14:24:37Z</time>
      </trkpt>
      <trkpt lat="45.50341" lon="6.21861">
        <ele>1096.5209961</ele>
        <time>2012-03-17T14:24:43Z</time>
      </trkpt>
      <trkpt lat="45.50352" lon="6.21867">
        <ele>1097.9628906</ele>
        <time>2012-03-17T14:24:48Z</time>
      </trkpt>
      <trkpt lat="45.50366" lon="6.2187">
        <ele>1100.8469238</ele>
        <time>2012-03-17T14:24:53Z</time>
      </trkpt>
      <trkpt lat="45.5038" lon="6.21876">
        <ele>1103.730957</ele>
        <time>2012-03-17T14:25:00Z</time>
      </trkpt>
      <trkpt lat="45.50394" lon="6.2188">
        <ele>1105.6535645</ele>
        <time>2012-03-17T14:25:06Z</time>
      </trkpt>
      <trkpt lat="45.50407" lon="6.21884">
        <ele>1107.095459</ele>
        <time>2012-03-17T14:25:12Z</time>
      </trkpt>
      <trkpt lat="45.50423" lon="6.21888">
        <ele>1109.0180664</ele>
        <time>2012-03-17T14:25:19Z</time>
      </trkpt>
      <trkpt lat="45.50437" lon="6.21893">
        <ele>1109.0180664</ele>
        <time>2012-03-17T14:25:25Z</time>
      </trkpt>
      <trkpt lat="45.50447" lon="6.21895">
        <ele>1109.0180664</ele>
        <time>2012-03-17T14:25:29Z</time>
      </trkpt>
      <trkpt lat="45.50458" lon="6.21899">
        <ele>1109.4987793</ele>
        <time>2012-03-17T14:25:34Z</time>
      </trkpt>
      <trkpt lat="45.5047" lon="6.21901">
        <ele>1109.979248</ele>
        <time>2012-03-17T14:25:40Z</time>
      </trkpt>
      <trkpt lat="45.5048" lon="6.21903">
        <ele>1111.4213867</ele>
        <time>2012-03-17T14:25:45Z</time>
      </trkpt>
      <trkpt lat="45.5049" lon="6.21904">
        <ele>1111.9020996</ele>
        <time>2012-03-17T14:25:50Z</time>
      </trkpt>
      <trkpt lat="45.50504" lon="6.21903">
        <ele>1111.4213867</ele>
        <time>2012-03-17T14:25:56Z</time>
      </trkpt>
      <trkpt lat="45.50514" lon="6.21902">
        <ele>1111.9020996</ele>
        <time>2012-03-17T14:26:01Z</time>
      </trkpt>
      <trkpt lat="45.50529" lon="6.21897">
        <ele>1113.8244629</ele>
        <time>2012-03-17T14:26:07Z</time>
      </trkpt>
      <trkpt lat="45.50535" lon="6.21894">
        <ele>1112.3825684</ele>
        <time>2012-03-17T14:26:12Z</time>
      </trkpt>
      <trkpt lat="45.50541" lon="6.21892">
        <ele>1112.3825684</ele>
        <time>2012-03-17T14:26:18Z</time>
      </trkpt>
      <trkpt lat="45.50546" lon="6.2189">
        <ele>1109.979248</ele>
        <time>2012-03-17T14:26:34Z</time>
      </trkpt>
      <trkpt lat="45.50548" lon="6.21892">
        <ele>1107.095459</ele>
        <time>2012-03-17T14:26:40Z</time>
      </trkpt>
      <trkpt lat="45.50548" lon="6.21892">
        <ele>1106.6147461</ele>
        <time>2012-03-17T14:26:45Z</time>
      </trkpt>
      <trkpt lat="45.50547" lon="6.2189">
        <ele>1108.0568848</ele>
        <time>2012-03-17T14:26:54Z</time>
      </trkpt>
      <trkpt lat="45.50547" lon="6.2189">
        <ele>1111.9020996</ele>
        <time>2012-03-17T14:27:02Z</time>
      </trkpt>
      <trkpt lat="45.5055" lon="6.21889">
        <ele>1114.7858887</ele>
        <time>2012-03-17T14:27:08Z</time>
      </trkpt>
      <trkpt lat="45.50554" lon="6.21885">
        <ele>1113.3439941</ele>
        <time>2012-03-17T14:27:13Z</time>
      </trkpt>
      <trkpt lat="45.5056" lon="6.2188">
        <ele>1110.9406738</ele>
        <time>2012-03-17T14:27:19Z</time>
      </trkpt>
      <trkpt lat="45.5057" lon="6.21875">
        <ele>1108.5373535</ele>
        <time>2012-03-17T14:27:28Z</time>
      </trkpt>
      <trkpt lat="45.50575" lon="6.21873">
        <ele>1107.5761719</ele>
        <time>2012-03-17T14:27:33Z</time>
      </trkpt>
      <trkpt lat="45.50577" lon="6.21872">
        <ele>1107.5761719</ele>
        <time>2012-03-17T14:27:34Z</time>
      </trkpt>
      <trkpt lat="45.50584" lon="6.21865">
        <ele>1108.5373535</ele>
        <time>2012-03-17T14:27:42Z</time>
      </trkpt>
      <trkpt lat="45.50593" lon="6.21853">
        <ele>1109.4987793</ele>
        <time>2012-03-17T14:27:50Z</time>
      </trkpt>
      <trkpt lat="45.50599" lon="6.21841">
        <ele>1109.4987793</ele>
        <time>2012-03-17T14:27:57Z</time>
      </trkpt>
      <trkpt lat="45.50602" lon="6.21828">
        <ele>1110.9406738</ele>
        <time>2012-03-17T14:28:03Z</time>
      </trkpt>
      <trkpt lat="45.50604" lon="6.21807">
        <ele>1112.3825684</ele>
        <time>2012-03-17T14:28:09Z</time>
      </trkpt>
      <trkpt lat="45.50605" lon="6.21788">
        <ele>1113.8244629</ele>
        <time>2012-03-17T14:28:14Z</time>
      </trkpt>
      <trkpt lat="45.50609" lon="6.21768">
        <ele>1113.8244629</ele>
        <time>2012-03-17T14:28:19Z</time>
      </trkpt>
      <trkpt lat="45.50612" lon="6.21746">
        <ele>1114.7858887</ele>
        <time>2012-03-17T14:28:25Z</time>
      </trkpt>
      <trkpt lat="45.50614" lon="6.21728">
        <ele>1114.3051758</ele>
        <time>2012-03-17T14:28:30Z</time>
      </trkpt>
      <trkpt lat="45.50619" lon="6.21729">
        <ele>1109.0180664</ele>
        <time>2012-03-17T14:28:33Z</time>
      </trkpt>
      <trkpt lat="45.50622" lon="6.2172">
        <ele>1106.6147461</ele>
        <time>2012-03-17T14:28:39Z</time>
      </trkpt>
      <trkpt lat="45.50623" lon="6.21708">
        <ele>1102.7695313</ele>
        <time>2012-03-17T14:28:44Z</time>
      </trkpt>
      <trkpt lat="45.50623" lon="6.21705">
        <ele>1102.2888184</ele>
        <time>2012-03-17T14:28:45Z</time>
      </trkpt>
      <trkpt lat="45.50621" lon="6.21694">
        <ele>1101.3276367</ele>
        <time>2012-03-17T14:28:50Z</time>
      </trkpt>
      <trkpt lat="45.50622" lon="6.21678">
        <ele>1098.9240723</ele>
        <time>2012-03-17T14:28:55Z</time>
      </trkpt>
      <trkpt lat="45.50624" lon="6.21655">
        <ele>1097.9628906</ele>
        <time>2012-03-17T14:29:01Z</time>
      </trkpt>
      <trkpt lat="45.50627" lon="6.21639">
        <ele>1097.0014648</ele>
        <time>2012-03-17T14:29:06Z</time>
      </trkpt>
      <trkpt lat="45.50628" lon="6.21637">
        <ele>1096.0402832</ele>
        <time>2012-03-17T14:29:07Z</time>
      </trkpt>
      <trkpt lat="45.50639" lon="6.21633">
        <ele>1091.2336426</ele>
        <time>2012-03-17T14:29:12Z</time>
      </trkpt>
      <trkpt lat="45.50645" lon="6.21633">
        <ele>1087.8691406</ele>
        <time>2012-03-17T14:29:15Z</time>
      </trkpt>
      <trkpt lat="45.50658" lon="6.21623">
        <ele>1083.5429688</ele>
        <time>2012-03-17T14:29:21Z</time>
      </trkpt>
      <trkpt lat="45.5066" lon="6.21619">
        <ele>1083.0622559</ele>
        <time>2012-03-17T14:29:23Z</time>
      </trkpt>
      <trkpt lat="45.50672" lon="6.21615">
        <ele>1081.1398926</ele>
        <time>2012-03-17T14:29:29Z</time>
      </trkpt>
      <trkpt lat="45.50675" lon="6.21615">
        <ele>1080.6591797</ele>
        <time>2012-03-17T14:29:30Z</time>
      </trkpt>
      <trkpt lat="45.50684" lon="6.21602">
        <ele>1075.8525391</ele>
        <time>2012-03-17T14:29:36Z</time>
      </trkpt>
      <trkpt lat="45.50687" lon="6.21589">
        <ele>1074.4106445</ele>
        <time>2012-03-17T14:29:40Z</time>
      </trkpt>
      <trkpt lat="45.50689" lon="6.21584">
        <ele>1072.4880371</ele>
        <time>2012-03-17T14:29:42Z</time>
      </trkpt>
      <trkpt lat="45.50693" lon="6.21564">
        <ele>1072.4880371</ele>
        <time>2012-03-17T14:29:48Z</time>
      </trkpt>
      <trkpt lat="45.50695" lon="6.21546">
        <ele>1072.0073242</ele>
        <time>2012-03-17T14:29:54Z</time>
      </trkpt>
      <trkpt lat="45.50695" lon="6.21536">
        <ele>1072.4880371</ele>
        <time>2012-03-17T14:29:57Z</time>
      </trkpt>
      <trkpt lat="45.50695" lon="6.21529">
        <ele>1072.96875</ele>
        <time>2012-03-17T14:30:00Z</time>
      </trkpt>
      <trkpt lat="45.50695" lon="6.21517">
        <ele>1072.96875</ele>
        <time>2012-03-17T14:30:05Z</time>
      </trkpt>
      <trkpt lat="45.50695" lon="6.21504">
        <ele>1072.0073242</ele>
        <time>2012-03-17T14:30:11Z</time>
      </trkpt>
      <trkpt lat="45.50695" lon="6.21496">
        <ele>1070.0847168</ele>
        <time>2012-03-17T14:30:15Z</time>
      </trkpt>
      <trkpt lat="45.50693" lon="6.21483">
        <ele>1071.0461426</ele>
        <time>2012-03-17T14:30:20Z</time>
      </trkpt>
      <trkpt lat="45.50691" lon="6.21466">
        <ele>1072.96875</ele>
        <time>2012-03-17T14:30:24Z</time>
      </trkpt>
      <trkpt lat="45.50696" lon="6.2146">
        <ele>1070.5654297</ele>
        <time>2012-03-17T14:30:28Z</time>
      </trkpt>
      <trkpt lat="45.50698" lon="6.21456">
        <ele>1068.6428223</ele>
        <time>2012-03-17T14:30:31Z</time>
      </trkpt>
      <trkpt lat="45.50694" lon="6.21454">
        <ele>1064.7973633</ele>
        <time>2012-03-17T14:30:34Z</time>
      </trkpt>
      <trkpt lat="45.50695" lon="6.21451">
        <ele>1061.4328613</ele>
        <time>2012-03-17T14:30:39Z</time>
      </trkpt>
      <trkpt lat="45.50697" lon="6.21451">
        <ele>1059.5102539</ele>
        <time>2012-03-17T14:30:42Z</time>
      </trkpt>
      <trkpt lat="45.50699" lon="6.21451">
        <ele>1058.0683594</ele>
        <time>2012-03-17T14:30:46Z</time>
      </trkpt>
      <trkpt lat="45.50702" lon="6.2145">
        <ele>1055.6650391</ele>
        <time>2012-03-17T14:30:50Z</time>
      </trkpt>
      <trkpt lat="45.50708" lon="6.2145">
        <ele>1053.7424316</ele>
        <time>2012-03-17T14:30:54Z</time>
      </trkpt>
      <trkpt lat="45.50714" lon="6.21449">
        <ele>1052.300293</ele>
        <time>2012-03-17T14:30:59Z</time>
      </trkpt>
      <trkpt lat="45.50725" lon="6.21448">
        <ele>1050.8581543</ele>
        <time>2012-03-17T14:31:04Z</time>
      </trkpt>
      <trkpt lat="45.50739" lon="6.21449">
        <ele>1051.8195801</ele>
        <time>2012-03-17T14:31:09Z</time>
      </trkpt>
      <trkpt lat="45.5075" lon="6.2145">
        <ele>1051.3388672</ele>
        <time>2012-03-17T14:31:14Z</time>
      </trkpt>
      <trkpt lat="45.50767" lon="6.21459">
        <ele>1053.2617188</ele>
        <time>2012-03-17T14:31:20Z</time>
      </trkpt>
      <trkpt lat="45.5078" lon="6.21468">
        <ele>1051.8195801</ele>
        <time>2012-03-17T14:31:25Z</time>
      </trkpt>
      <trkpt lat="45.50785" lon="6.21471">
        <ele>1050.3776855</ele>
        <time>2012-03-17T14:31:28Z</time>
      </trkpt>
      <trkpt lat="45.5079" lon="6.21459">
        <ele>1050.3776855</ele>
        <time>2012-03-17T14:31:33Z</time>
      </trkpt>
      <trkpt lat="45.50787" lon="6.21451">
        <ele>1050.3776855</ele>
        <time>2012-03-17T14:31:35Z</time>
      </trkpt>
      <trkpt lat="45.50776" lon="6.21431">
        <ele>1047.4936523</ele>
        <time>2012-03-17T14:31:41Z</time>
      </trkpt>
      <trkpt lat="45.50763" lon="6.21421">
        <ele>1047.0129395</ele>
        <time>2012-03-17T14:31:47Z</time>
      </trkpt>
      <trkpt lat="45.50751" lon="6.21403">
        <ele>1043.6484375</ele>
        <time>2012-03-17T14:31:53Z</time>
      </trkpt>
      <trkpt lat="45.50743" lon="6.21387">
        <ele>1041.2451172</ele>
        <time>2012-03-17T14:31:58Z</time>
      </trkpt>
      <trkpt lat="45.50738" lon="6.21367">
        <ele>1040.7644043</ele>
        <time>2012-03-17T14:32:03Z</time>
      </trkpt>
      <trkpt lat="45.50734" lon="6.21346">
        <ele>1040.2839355</ele>
        <time>2012-03-17T14:32:08Z</time>
      </trkpt>
      <trkpt lat="45.50728" lon="6.2132">
        <ele>1040.7644043</ele>
        <time>2012-03-17T14:32:14Z</time>
      </trkpt>
      <trkpt lat="45.50724" lon="6.21299">
        <ele>1041.2451172</ele>
        <time>2012-03-17T14:32:19Z</time>
      </trkpt>
      <trkpt lat="45.5072" lon="6.21274">
        <ele>1039.3225098</ele>
        <time>2012-03-17T14:32:25Z</time>
      </trkpt>
      <trkpt lat="45.50715" lon="6.21252">
        <ele>1039.3225098</ele>
        <time>2012-03-17T14:32:30Z</time>
      </trkpt>
      <trkpt lat="45.50708" lon="6.21224">
        <ele>1040.7644043</ele>
        <time>2012-03-17T14:32:37Z</time>
      </trkpt>
      <trkpt lat="45.50704" lon="6.212">
        <ele>1041.7258301</ele>
        <time>2012-03-17T14:32:43Z</time>
      </trkpt>
      <trkpt lat="45.50701" lon="6.21179">
        <ele>1042.206543</ele>
        <time>2012-03-17T14:32:48Z</time>
      </trkpt>
      <trkpt lat="45.50699" lon="6.21155">
        <ele>1043.1677246</ele>
        <time>2012-03-17T14:32:54Z</time>
      </trkpt>
      <trkpt lat="45.50697" lon="6.21135">
        <ele>1044.1291504</ele>
        <time>2012-03-17T14:32:59Z</time>
      </trkpt>
      <trkpt lat="45.50694" lon="6.2111">
        <ele>1044.6096191</ele>
        <time>2012-03-17T14:33:05Z</time>
      </trkpt>
      <trkpt lat="45.50693" lon="6.21087">
        <ele>1045.090332</ele>
        <time>2012-03-17T14:33:11Z</time>
      </trkpt>
      <trkpt lat="45.5069" lon="6.21059">
        <ele>1045.090332</ele>
        <time>2012-03-17T14:33:18Z</time>
      </trkpt>
      <trkpt lat="45.50687" lon="6.21041">
        <ele>1045.090332</ele>
        <time>2012-03-17T14:33:23Z</time>
      </trkpt>
      <trkpt lat="45.50684" lon="6.21038">
        <ele>1034.5158691</ele>
        <time>2012-03-17T14:33:28Z</time>
      </trkpt>
      <trkpt lat="45.50674" lon="6.21035">
        <ele>1029.2285156</ele>
        <time>2012-03-17T14:33:33Z</time>
      </trkpt>
      <trkpt lat="45.50662" lon="6.21032">
        <ele>1028.267334</ele>
        <time>2012-03-17T14:33:38Z</time>
      </trkpt>
      <trkpt lat="45.5065" lon="6.21024">
        <ele>1028.267334</ele>
        <time>2012-03-17T14:33:44Z</time>
      </trkpt>
      <trkpt lat="45.50639" lon="6.21015">
        <ele>1029.7092285</ele>
        <time>2012-03-17T14:33:50Z</time>
      </trkpt>
      <trkpt lat="45.50628" lon="6.21008">
        <ele>1031.1513672</ele>
        <time>2012-03-17T14:33:55Z</time>
      </trkpt>
      <trkpt lat="45.50615" lon="6.20999">
        <ele>1035.4770508</ele>
        <time>2012-03-17T14:34:01Z</time>
      </trkpt>
      <trkpt lat="45.50606" lon="6.20988">
        <ele>1039.3225098</ele>
        <time>2012-03-17T14:34:06Z</time>
      </trkpt>
      <trkpt lat="45.50602" lon="6.20977">
        <ele>1040.7644043</ele>
        <time>2012-03-17T14:34:10Z</time>
      </trkpt>
      <trkpt lat="45.50599" lon="6.20961">
        <ele>1042.206543</ele>
        <time>2012-03-17T14:34:15Z</time>
      </trkpt>
      <trkpt lat="45.506" lon="6.20942">
        <ele>1044.1291504</ele>
        <time>2012-03-17T14:34:20Z</time>
      </trkpt>
      <trkpt lat="45.50602" lon="6.20924">
        <ele>1047.0129395</ele>
        <time>2012-03-17T14:34:25Z</time>
      </trkpt>
      <trkpt lat="45.50607" lon="6.20911">
        <ele>1044.6096191</ele>
        <time>2012-03-17T14:34:30Z</time>
      </trkpt>
      <trkpt lat="45.50611" lon="6.20895">
        <ele>1042.6872559</ele>
        <time>2012-03-17T14:34:36Z</time>
      </trkpt>
      <trkpt lat="45.50613" lon="6.20891">
        <ele>1039.3225098</ele>
        <time>2012-03-17T14:34:41Z</time>
      </trkpt>
      <trkpt lat="45.50613" lon="6.20885">
        <ele>1037.8806152</ele>
        <time>2012-03-17T14:34:45Z</time>
      </trkpt>
      <trkpt lat="45.50614" lon="6.20883">
        <ele>1037.3999023</ele>
        <time>2012-03-17T14:34:47Z</time>
      </trkpt>
      <trkpt lat="45.50613" lon="6.20871">
        <ele>1035.9577637</ele>
        <time>2012-03-17T14:34:55Z</time>
      </trkpt>
      <trkpt lat="45.50612" lon="6.20864">
        <ele>1035.9577637</ele>
        <time>2012-03-17T14:34:59Z</time>
      </trkpt>
      <trkpt lat="45.50608" lon="6.20847">
        <ele>1037.8806152</ele>
        <time>2012-03-17T14:35:09Z</time>
      </trkpt>
      <trkpt lat="45.50605" lon="6.20838">
        <ele>1037.3999023</ele>
        <time>2012-03-17T14:35:16Z</time>
      </trkpt>
      <trkpt lat="45.506" lon="6.2083">
        <ele>1037.3999023</ele>
        <time>2012-03-17T14:35:22Z</time>
      </trkpt>
      <trkpt lat="45.50597" lon="6.20826">
        <ele>1038.3613281</ele>
        <time>2012-03-17T14:35:25Z</time>
      </trkpt>
      <trkpt lat="45.50589" lon="6.20814">
        <ele>1038.842041</ele>
        <time>2012-03-17T14:35:34Z</time>
      </trkpt>
      <trkpt lat="45.50582" lon="6.20805">
        <ele>1038.842041</ele>
        <time>2012-03-17T14:35:41Z</time>
      </trkpt>
      <trkpt lat="45.50572" lon="6.2079">
        <ele>1040.7644043</ele>
        <time>2012-03-17T14:35:51Z</time>
      </trkpt>
      <trkpt lat="45.50564" lon="6.20779">
        <ele>1040.7644043</ele>
        <time>2012-03-17T14:35:58Z</time>
      </trkpt>
      <trkpt lat="45.50555" lon="6.20764">
        <ele>1042.6872559</ele>
        <time>2012-03-17T14:36:07Z</time>
      </trkpt>
      <trkpt lat="45.50547" lon="6.20751">
        <ele>1044.1291504</ele>
        <time>2012-03-17T14:36:15Z</time>
      </trkpt>
      <trkpt lat="45.50544" lon="6.20741">
        <ele>1042.206543</ele>
        <time>2012-03-17T14:36:22Z</time>
      </trkpt>
      <trkpt lat="45.50539" lon="6.20726">
        <ele>1042.206543</ele>
        <time>2012-03-17T14:36:30Z</time>
      </trkpt>
      <trkpt lat="45.50533" lon="6.20707">
        <ele>1044.1291504</ele>
        <time>2012-03-17T14:36:39Z</time>
      </trkpt>
      <trkpt lat="45.50526" lon="6.20692">
        <ele>1045.090332</ele>
        <time>2012-03-17T14:36:44Z</time>
      </trkpt>
      <trkpt lat="45.50518" lon="6.20678">
        <ele>1047.0129395</ele>
        <time>2012-03-17T14:36:49Z</time>
      </trkpt>
      <trkpt lat="45.50508" lon="6.20666">
        <ele>1045.090332</ele>
        <time>2012-03-17T14:36:55Z</time>
      </trkpt>
      <trkpt lat="45.50498" lon="6.20655">
        <ele>1043.1677246</ele>
        <time>2012-03-17T14:37:01Z</time>
      </trkpt>
      <trkpt lat="45.50488" lon="6.20645">
        <ele>1042.6872559</ele>
        <time>2012-03-17T14:37:06Z</time>
      </trkpt>
      <trkpt lat="45.50477" lon="6.20633">
        <ele>1042.6872559</ele>
        <time>2012-03-17T14:37:12Z</time>
      </trkpt>
      <trkpt lat="45.50468" lon="6.2062">
        <ele>1042.6872559</ele>
        <time>2012-03-17T14:37:17Z</time>
      </trkpt>
      <trkpt lat="45.50457" lon="6.20603">
        <ele>1043.6484375</ele>
        <time>2012-03-17T14:37:23Z</time>
      </trkpt>
      <trkpt lat="45.50447" lon="6.20585">
        <ele>1045.5710449</ele>
        <time>2012-03-17T14:37:29Z</time>
      </trkpt>
      <trkpt lat="45.50435" lon="6.20564">
        <ele>1047.4936523</ele>
        <time>2012-03-17T14:37:36Z</time>
      </trkpt>
      <trkpt lat="45.50427" lon="6.20547">
        <ele>1046.5324707</ele>
        <time>2012-03-17T14:37:43Z</time>
      </trkpt>
      <trkpt lat="45.50422" lon="6.20536">
        <ele>1046.5324707</ele>
        <time>2012-03-17T14:37:47Z</time>
      </trkpt>
      <trkpt lat="45.50415" lon="6.20521">
        <ele>1046.5324707</ele>
        <time>2012-03-17T14:37:52Z</time>
      </trkpt>
      <trkpt lat="45.50402" lon="6.20496">
        <ele>1046.5324707</ele>
        <time>2012-03-17T14:38:01Z</time>
      </trkpt>
      <trkpt lat="45.50393" lon="6.20478">
        <ele>1045.090332</ele>
        <time>2012-03-17T14:38:07Z</time>
      </trkpt>
      <trkpt lat="45.50384" lon="6.20461">
        <ele>1046.0517578</ele>
        <time>2012-03-17T14:38:13Z</time>
      </trkpt>
      <trkpt lat="45.50376" lon="6.20445">
        <ele>1045.090332</ele>
        <time>2012-03-17T14:38:18Z</time>
      </trkpt>
      <trkpt lat="45.50365" lon="6.20423">
        <ele>1047.4936523</ele>
        <time>2012-03-17T14:38:25Z</time>
      </trkpt>
      <trkpt lat="45.50358" lon="6.20399">
        <ele>1049.8969727</ele>
        <time>2012-03-17T14:38:31Z</time>
      </trkpt>
      <trkpt lat="45.50349" lon="6.20369">
        <ele>1056.6262207</ele>
        <time>2012-03-17T14:38:37Z</time>
      </trkpt>
      <trkpt lat="45.50347" lon="6.20353">
        <ele>1061.4328613</ele>
        <time>2012-03-17T14:38:41Z</time>
      </trkpt>
      <trkpt lat="45.50348" lon="6.20329">
        <ele>1065.7587891</ele>
        <time>2012-03-17T14:38:47Z</time>
      </trkpt>
      <trkpt lat="45.50348" lon="6.203">
        <ele>1061.4328613</ele>
        <time>2012-03-17T14:38:53Z</time>
      </trkpt>
      <trkpt lat="45.50351" lon="6.20276">
        <ele>1056.6262207</ele>
        <time>2012-03-17T14:38:59Z</time>
      </trkpt>
      <trkpt lat="45.50355" lon="6.20252">
        <ele>1050.8581543</ele>
        <time>2012-03-17T14:39:05Z</time>
      </trkpt>
      <trkpt lat="45.50361" lon="6.20234">
        <ele>1047.0129395</ele>
        <time>2012-03-17T14:39:10Z</time>
      </trkpt>
      <trkpt lat="45.50373" lon="6.20216">
        <ele>1043.1677246</ele>
        <time>2012-03-17T14:39:16Z</time>
      </trkpt>
      <trkpt lat="45.50385" lon="6.20205">
        <ele>1040.2839355</ele>
        <time>2012-03-17T14:39:21Z</time>
      </trkpt>
      <trkpt lat="45.50397" lon="6.20199">
        <ele>1037.8806152</ele>
        <time>2012-03-17T14:39:26Z</time>
      </trkpt>
      <trkpt lat="45.50414" lon="6.20205">
        <ele>1033.0737305</ele>
        <time>2012-03-17T14:39:31Z</time>
      </trkpt>
      <trkpt lat="45.50422" lon="6.20207">
        <ele>1032.1125488</ele>
        <time>2012-03-17T14:39:34Z</time>
      </trkpt>
      <trkpt lat="45.50429" lon="6.20193">
        <ele>1031.1513672</ele>
        <time>2012-03-17T14:39:40Z</time>
      </trkpt>
      <trkpt lat="45.50429" lon="6.20187">
        <ele>1031.1513672</ele>
        <time>2012-03-17T14:39:44Z</time>
      </trkpt>
      <trkpt lat="45.50421" lon="6.20179">
        <ele>1027.7866211</ele>
        <time>2012-03-17T14:39:49Z</time>
      </trkpt>
      <trkpt lat="45.50404" lon="6.2017">
        <ele>1023.9414063</ele>
        <time>2012-03-17T14:39:56Z</time>
      </trkpt>
      <trkpt lat="45.5039" lon="6.20167">
        <ele>1021.5380859</ele>
        <time>2012-03-17T14:40:01Z</time>
      </trkpt>
      <trkpt lat="45.50376" lon="6.20167">
        <ele>1019.6154785</ele>
        <time>2012-03-17T14:40:06Z</time>
      </trkpt>
      <trkpt lat="45.50361" lon="6.20167">
        <ele>1017.2121582</ele>
        <time>2012-03-17T14:40:11Z</time>
      </trkpt>
      <trkpt lat="45.50344" lon="6.20168">
        <ele>1015.2895508</ele>
        <time>2012-03-17T14:40:17Z</time>
      </trkpt>
      <trkpt lat="45.50327" lon="6.20161">
        <ele>1013.3669434</ele>
        <time>2012-03-17T14:40:23Z</time>
      </trkpt>
      <trkpt lat="45.50321" lon="6.20157">
        <ele>1012.8862305</ele>
        <time>2012-03-17T14:40:25Z</time>
      </trkpt>
      <trkpt lat="45.50322" lon="6.20139">
        <ele>1014.328125</ele>
        <time>2012-03-17T14:40:29Z</time>
      </trkpt>
      <trkpt lat="45.50321" lon="6.20118">
        <ele>1016.2507324</ele>
        <time>2012-03-17T14:40:34Z</time>
      </trkpt>
      <trkpt lat="45.50317" lon="6.20106">
        <ele>1017.692627</ele>
        <time>2012-03-17T14:40:38Z</time>
      </trkpt>
      <trkpt lat="45.50313" lon="6.20094">
        <ele>1020.5769043</ele>
        <time>2012-03-17T14:40:42Z</time>
      </trkpt>
      <trkpt lat="45.50307" lon="6.2008">
        <ele>1024.902832</ele>
        <time>2012-03-17T14:40:47Z</time>
      </trkpt>
      <trkpt lat="45.50298" lon="6.20062">
        <ele>1027.7866211</ele>
        <time>2012-03-17T14:40:52Z</time>
      </trkpt>
      <trkpt lat="45.50297" lon="6.20057">
        <ele>1026.8254395</ele>
        <time>2012-03-17T14:40:53Z</time>
      </trkpt>
      <trkpt lat="45.50302" lon="6.20034">
        <ele>1020.5769043</ele>
        <time>2012-03-17T14:40:58Z</time>
      </trkpt>
      <trkpt lat="45.50308" lon="6.20013">
        <ele>1016.2507324</ele>
        <time>2012-03-17T14:41:03Z</time>
      </trkpt>
      <trkpt lat="45.50322" lon="6.20006">
        <ele>1012.8862305</ele>
        <time>2012-03-17T14:41:08Z</time>
      </trkpt>
      <trkpt lat="45.50342" lon="6.19999">
        <ele>1008.5603027</ele>
        <time>2012-03-17T14:41:15Z</time>
      </trkpt>
      <trkpt lat="45.50359" lon="6.19993">
        <ele>1005.6765137</ele>
        <time>2012-03-17T14:41:21Z</time>
      </trkpt>
      <trkpt lat="45.50372" lon="6.19981">
        <ele>1003.7536621</ele>
        <time>2012-03-17T14:41:26Z</time>
      </trkpt>
      <trkpt lat="45.50387" lon="6.19966">
        <ele>999.9084473</ele>
        <time>2012-03-17T14:41:32Z</time>
      </trkpt>
      <trkpt lat="45.50399" lon="6.19954">
        <ele>997.505127</ele>
        <time>2012-03-17T14:41:37Z</time>
      </trkpt>
      <trkpt lat="45.5041" lon="6.1994">
        <ele>995.1018066</ele>
        <time>2012-03-17T14:41:42Z</time>
      </trkpt>
      <trkpt lat="45.50422" lon="6.19924">
        <ele>993.6599121</ele>
        <time>2012-03-17T14:41:47Z</time>
      </trkpt>
      <trkpt lat="45.50422" lon="6.1992">
        <ele>994.6210938</ele>
        <time>2012-03-17T14:41:48Z</time>
      </trkpt>
      <trkpt lat="45.50424" lon="6.19892">
        <ele>994.140625</ele>
        <time>2012-03-17T14:41:54Z</time>
      </trkpt>
      <trkpt lat="45.50424" lon="6.19887">
        <ele>994.140625</ele>
        <time>2012-03-17T14:41:55Z</time>
      </trkpt>
      <trkpt lat="45.50427" lon="6.1985">
        <ele>991.7373047</ele>
        <time>2012-03-17T14:42:03Z</time>
      </trkpt>
      <trkpt lat="45.50429" lon="6.19828">
        <ele>990.7758789</ele>
        <time>2012-03-17T14:42:08Z</time>
      </trkpt>
      <trkpt lat="45.50432" lon="6.19802">
        <ele>989.3339844</ele>
        <time>2012-03-17T14:42:14Z</time>
      </trkpt>
      <trkpt lat="45.50433" lon="6.1978">
        <ele>989.3339844</ele>
        <time>2012-03-17T14:42:19Z</time>
      </trkpt>
      <trkpt lat="45.50436" lon="6.1976">
        <ele>989.3339844</ele>
        <time>2012-03-17T14:42:24Z</time>
      </trkpt>
      <trkpt lat="45.50439" lon="6.19737">
        <ele>989.3339844</ele>
        <time>2012-03-17T14:42:30Z</time>
      </trkpt>
      <trkpt lat="45.5044" lon="6.19712">
        <ele>988.8535156</ele>
        <time>2012-03-17T14:42:36Z</time>
      </trkpt>
      <trkpt lat="45.50436" lon="6.19689">
        <ele>987.8918457</ele>
        <time>2012-03-17T14:42:42Z</time>
      </trkpt>
      <trkpt lat="45.50432" lon="6.19674">
        <ele>987.8918457</ele>
        <time>2012-03-17T14:42:46Z</time>
      </trkpt>
      <trkpt lat="45.50425" lon="6.19652">
        <ele>988.3728027</ele>
        <time>2012-03-17T14:42:51Z</time>
      </trkpt>
      <trkpt lat="45.50421" lon="6.19636">
        <ele>988.8535156</ele>
        <time>2012-03-17T14:42:55Z</time>
      </trkpt>
      <trkpt lat="45.50417" lon="6.19617">
        <ele>985.9692383</ele>
        <time>2012-03-17T14:43:00Z</time>
      </trkpt>
      <trkpt lat="45.50418" lon="6.19608">
        <ele>984.5273438</ele>
        <time>2012-03-17T14:43:05Z</time>
      </trkpt>
      <trkpt lat="45.50416" lon="6.19604">
        <ele>983.0852051</ele>
        <time>2012-03-17T14:43:11Z</time>
      </trkpt>
      <trkpt lat="45.50411" lon="6.19595">
        <ele>983.565918</ele>
        <time>2012-03-17T14:43:18Z</time>
      </trkpt>
      <trkpt lat="45.50411" lon="6.19595">
        <ele>984.0466309</ele>
        <time>2012-03-17T14:43:19Z</time>
      </trkpt>
      <trkpt lat="45.50413" lon="6.19591">
        <ele>992.6987305</ele>
        <time>2012-03-17T14:43:29Z</time>
      </trkpt>
      <trkpt lat="45.50414" lon="6.19579">
        <ele>999.4277344</ele>
        <time>2012-03-17T14:43:45Z</time>
      </trkpt>
      <trkpt lat="45.50409" lon="6.19577">
        <ele>993.1791992</ele>
        <time>2012-03-17T14:43:50Z</time>
      </trkpt>
      <trkpt lat="45.50411" lon="6.19579">
        <ele>990.7758789</ele>
        <time>2012-03-17T14:44:03Z</time>
      </trkpt>
      <trkpt lat="45.50414" lon="6.19577">
        <ele>999.4277344</ele>
        <time>2012-03-17T14:44:10Z</time>
      </trkpt>
      <trkpt lat="45.50413" lon="6.19576">
        <ele>999.9084473</ele>
        <time>2012-03-17T14:44:11Z</time>
      </trkpt>
      <trkpt lat="45.50404" lon="6.1956">
        <ele>998.9470215</ele>
        <time>2012-03-17T14:44:17Z</time>
      </trkpt>
      <trkpt lat="45.50399" lon="6.19543">
        <ele>997.0244141</ele>
        <time>2012-03-17T14:44:22Z</time>
      </trkpt>
      <trkpt lat="45.504" lon="6.1953">
        <ele>994.140625</ele>
        <time>2012-03-17T14:44:26Z</time>
      </trkpt>
      <trkpt lat="45.504" lon="6.19525">
        <ele>994.140625</ele>
        <time>2012-03-17T14:44:27Z</time>
      </trkpt>
      <trkpt lat="45.50397" lon="6.19489">
        <ele>996.5439453</ele>
        <time>2012-03-17T14:44:35Z</time>
      </trkpt>
      <trkpt lat="45.50397" lon="6.19475">
        <ele>998.4663086</ele>
        <time>2012-03-17T14:44:39Z</time>
      </trkpt>
      <trkpt lat="45.50398" lon="6.19464">
        <ele>999.4277344</ele>
        <time>2012-03-17T14:44:44Z</time>
      </trkpt>
      <trkpt lat="45.50399" lon="6.19461">
        <ele>1000.3891602</ele>
        <time>2012-03-17T14:44:47Z</time>
      </trkpt>
      <trkpt lat="45.50397" lon="6.19459">
        <ele>997.0244141</ele>
        <time>2012-03-17T14:44:56Z</time>
      </trkpt>
      <trkpt lat="45.50396" lon="6.1946">
        <ele>997.505127</ele>
        <time>2012-03-17T14:44:57Z</time>
      </trkpt>
      <trkpt lat="45.50396" lon="6.19464">
        <ele>994.140625</ele>
        <time>2012-03-17T14:44:59Z</time>
      </trkpt>
      <trkpt lat="45.50397" lon="6.1947">
        <ele>987.4111328</ele>
        <time>2012-03-17T14:45:08Z</time>
      </trkpt>
      <trkpt lat="45.50397" lon="6.19468">
        <ele>989.3339844</ele>
        <time>2012-03-17T14:45:16Z</time>
      </trkpt>
      <trkpt lat="45.50399" lon="6.19472">
        <ele>987.8918457</ele>
        <time>2012-03-17T14:45:24Z</time>
      </trkpt>
      <trkpt lat="45.50402" lon="6.1947">
        <ele>988.8535156</ele>
        <time>2012-03-17T14:45:28Z</time>
      </trkpt>
      <trkpt lat="45.50408" lon="6.19469">
        <ele>988.3728027</ele>
        <time>2012-03-17T14:45:40Z</time>
      </trkpt>
      <trkpt lat="45.5041" lon="6.19459">
        <ele>1005.1958008</ele>
        <time>2012-03-17T14:45:53Z</time>
      </trkpt>
      <trkpt lat="45.50411" lon="6.19457">
        <ele>1000.3891602</ele>
        <time>2012-03-17T14:46:03Z</time>
      </trkpt>
      <trkpt lat="45.50416" lon="6.19461">
        <ele>997.0244141</ele>
        <time>2012-03-17T14:46:09Z</time>
      </trkpt>
      <trkpt lat="45.50411" lon="6.1946">
        <ele>992.6987305</ele>
        <time>2012-03-17T14:46:15Z</time>
      </trkpt>
      <trkpt lat="45.5041" lon="6.1945">
        <ele>1003.7536621</ele>
        <time>2012-03-17T14:46:47Z</time>
      </trkpt>
      <trkpt lat="45.50407" lon="6.19454">
        <ele>991.2565918</ele>
        <time>2012-03-17T14:46:58Z</time>
      </trkpt>
      <trkpt lat="45.50409" lon="6.1946">
        <ele>985.4885254</ele>
        <time>2012-03-17T14:47:04Z</time>
      </trkpt>
      <trkpt lat="45.50406" lon="6.19458">
        <ele>991.2565918</ele>
        <time>2012-03-17T14:47:11Z</time>
      </trkpt>
      <trkpt lat="45.50406" lon="6.19457">
        <ele>997.9858398</ele>
        <time>2012-03-17T14:47:24Z</time>
      </trkpt>
      <trkpt lat="45.50414" lon="6.1947">
        <ele>990.7758789</ele>
        <time>2012-03-17T14:47:31Z</time>
      </trkpt>
      <trkpt lat="45.50426" lon="6.19484">
        <ele>979.7207031</ele>
        <time>2012-03-17T14:47:39Z</time>
      </trkpt>
      <trkpt lat="45.50435" lon="6.19494">
        <ele>974.4335938</ele>
        <time>2012-03-17T14:47:44Z</time>
      </trkpt>
      <trkpt lat="45.50446" lon="6.19507">
        <ele>970.1074219</ele>
        <time>2012-03-17T14:47:50Z</time>
      </trkpt>
      <trkpt lat="45.50458" lon="6.19519">
        <ele>967.2236328</ele>
        <time>2012-03-17T14:47:56Z</time>
      </trkpt>
      <trkpt lat="45.50459" lon="6.19522">
        <ele>965.7817383</ele>
        <time>2012-03-17T14:47:57Z</time>
      </trkpt>
      <trkpt lat="45.5046" lon="6.19536">
        <ele>959.5332031</ele>
        <time>2012-03-17T14:48:03Z</time>
      </trkpt>
      <trkpt lat="45.50467" lon="6.19547">
        <ele>953.7651367</ele>
        <time>2012-03-17T14:48:07Z</time>
      </trkpt>
      <trkpt lat="45.5047" lon="6.1955">
        <ele>951.8425293</ele>
        <time>2012-03-17T14:48:09Z</time>
      </trkpt>
      <trkpt lat="45.50477" lon="6.19545">
        <ele>947.0358887</ele>
        <time>2012-03-17T14:48:15Z</time>
      </trkpt>
      <trkpt lat="45.50476" lon="6.19533">
        <ele>947.9973145</ele>
        <time>2012-03-17T14:48:19Z</time>
      </trkpt>
      <trkpt lat="45.50471" lon="6.19503">
        <ele>945.1132813</ele>
        <time>2012-03-17T14:48:26Z</time>
      </trkpt>
      <trkpt lat="45.50472" lon="6.19486">
        <ele>944.6325684</ele>
        <time>2012-03-17T14:48:30Z</time>
      </trkpt>
      <trkpt lat="45.50474" lon="6.19462">
        <ele>946.5554199</ele>
        <time>2012-03-17T14:48:36Z</time>
      </trkpt>
      <trkpt lat="45.50483" lon="6.19444">
        <ele>943.6713867</ele>
        <time>2012-03-17T14:48:43Z</time>
      </trkpt>
      <trkpt lat="45.50484" lon="6.19442">
        <ele>942.7102051</ele>
        <time>2012-03-17T14:48:44Z</time>
      </trkpt>
      <trkpt lat="45.50489" lon="6.19417">
        <ele>945.1132813</ele>
        <time>2012-03-17T14:48:50Z</time>
      </trkpt>
      <trkpt lat="45.50488" lon="6.19411">
        <ele>945.1132813</ele>
        <time>2012-03-17T14:48:51Z</time>
      </trkpt>
      <trkpt lat="45.50494" lon="6.19402">
        <ele>938.3840332</ele>
        <time>2012-03-17T14:48:56Z</time>
      </trkpt>
      <trkpt lat="45.50494" lon="6.19399">
        <ele>935.5</ele>
        <time>2012-03-17T14:48:58Z</time>
      </trkpt>
      <trkpt lat="45.50494" lon="6.19405">
        <ele>940.3068848</ele>
        <time>2012-03-17T14:49:03Z</time>
      </trkpt>
      <trkpt lat="45.50499" lon="6.19406">
        <ele>938.3840332</ele>
        <time>2012-03-17T14:49:08Z</time>
      </trkpt>
      <trkpt lat="45.505" lon="6.19404">
        <ele>938.8647461</ele>
        <time>2012-03-17T14:49:09Z</time>
      </trkpt>
      <trkpt lat="45.50498" lon="6.19397">
        <ele>937.4226074</ele>
        <time>2012-03-17T14:49:13Z</time>
      </trkpt>
      <trkpt lat="45.50496" lon="6.19391">
        <ele>937.9033203</ele>
        <time>2012-03-17T14:49:15Z</time>
      </trkpt>
      <trkpt lat="45.50495" lon="6.19378">
        <ele>936.4614258</ele>
        <time>2012-03-17T14:49:20Z</time>
      </trkpt>
      <trkpt lat="45.50494" lon="6.19368">
        <ele>935.0195313</ele>
        <time>2012-03-17T14:49:24Z</time>
      </trkpt>
      <trkpt lat="45.50498" lon="6.19358">
        <ele>932.6162109</ele>
        <time>2012-03-17T14:49:28Z</time>
      </trkpt>
      <trkpt lat="45.505" lon="6.19354">
        <ele>931.6547852</ele>
        <time>2012-03-17T14:49:30Z</time>
      </trkpt>
      <trkpt lat="45.50501" lon="6.19341">
        <ele>928.7709961</ele>
        <time>2012-03-17T14:49:35Z</time>
      </trkpt>
      <trkpt lat="45.50502" lon="6.19328">
        <ele>927.8095703</ele>
        <time>2012-03-17T14:49:40Z</time>
      </trkpt>
      <trkpt lat="45.50503" lon="6.1932">
        <ele>926.8483887</ele>
        <time>2012-03-17T14:49:43Z</time>
      </trkpt>
      <trkpt lat="45.50504" lon="6.19301">
        <ele>927.8095703</ele>
        <time>2012-03-17T14:49:49Z</time>
      </trkpt>
      <trkpt lat="45.50503" lon="6.19286">
        <ele>931.1743164</ele>
        <time>2012-03-17T14:49:54Z</time>
      </trkpt>
      <trkpt lat="45.50501" lon="6.19274">
        <ele>930.2128906</ele>
        <time>2012-03-17T14:49:59Z</time>
      </trkpt>
      <trkpt lat="45.50498" lon="6.19256">
        <ele>933.0966797</ele>
        <time>2012-03-17T14:50:05Z</time>
      </trkpt>
      <trkpt lat="45.50497" lon="6.19254">
        <ele>933.0966797</ele>
        <time>2012-03-17T14:50:06Z</time>
      </trkpt>
      <trkpt lat="45.50494" lon="6.19242">
        <ele>933.0966797</ele>
        <time>2012-03-17T14:50:13Z</time>
      </trkpt>
      <trkpt lat="45.50491" lon="6.19228">
        <ele>935.5</ele>
        <time>2012-03-17T14:50:19Z</time>
      </trkpt>
      <trkpt lat="45.50489" lon="6.19215">
        <ele>933.0966797</ele>
        <time>2012-03-17T14:50:24Z</time>
      </trkpt>
      <trkpt lat="45.50488" lon="6.19207">
        <ele>931.1743164</ele>
        <time>2012-03-17T14:50:27Z</time>
      </trkpt>
      <trkpt lat="45.50488" lon="6.19198">
        <ele>929.7321777</ele>
        <time>2012-03-17T14:50:31Z</time>
      </trkpt>
      <trkpt lat="45.50489" lon="6.19178">
        <ele>927.8095703</ele>
        <time>2012-03-17T14:50:37Z</time>
      </trkpt>
      <trkpt lat="45.5049" lon="6.19157">
        <ele>924.4450684</ele>
        <time>2012-03-17T14:50:43Z</time>
      </trkpt>
      <trkpt lat="45.50492" lon="6.19143">
        <ele>922.5222168</ele>
        <time>2012-03-17T14:50:47Z</time>
      </trkpt>
      <trkpt lat="45.50491" lon="6.19136">
        <ele>921.560791</ele>
        <time>2012-03-17T14:50:49Z</time>
      </trkpt>
      <trkpt lat="45.50487" lon="6.19115">
        <ele>919.1577148</ele>
        <time>2012-03-17T14:50:55Z</time>
      </trkpt>
      <trkpt lat="45.50487" lon="6.19113">
        <ele>918.677002</ele>
        <time>2012-03-17T14:50:56Z</time>
      </trkpt>
      <trkpt lat="45.50484" lon="6.19098">
        <ele>918.677002</ele>
        <time>2012-03-17T14:51:03Z</time>
      </trkpt>
      <trkpt lat="45.50484" lon="6.19094">
        <ele>919.6384277</ele>
        <time>2012-03-17T14:51:04Z</time>
      </trkpt>
      <trkpt lat="45.50486" lon="6.19088">
        <ele>919.6384277</ele>
        <time>2012-03-17T14:51:10Z</time>
      </trkpt>
      <trkpt lat="45.50485" lon="6.19084">
        <ele>921.0803223</ele>
        <time>2012-03-17T14:51:12Z</time>
      </trkpt>
      <trkpt lat="45.50482" lon="6.19078">
        <ele>920.1188965</ele>
        <time>2012-03-17T14:51:16Z</time>
      </trkpt>
      <trkpt lat="45.50479" lon="6.19069">
        <ele>919.6384277</ele>
        <time>2012-03-17T14:51:20Z</time>
      </trkpt>
      <trkpt lat="45.50476" lon="6.19061">
        <ele>918.677002</ele>
        <time>2012-03-17T14:51:26Z</time>
      </trkpt>
      <trkpt lat="45.50474" lon="6.19051">
        <ele>919.1577148</ele>
        <time>2012-03-17T14:51:30Z</time>
      </trkpt>
      <trkpt lat="45.50471" lon="6.19041">
        <ele>922.0415039</ele>
        <time>2012-03-17T14:51:35Z</time>
      </trkpt>
      <trkpt lat="45.50464" lon="6.19026">
        <ele>922.0415039</ele>
        <time>2012-03-17T14:51:40Z</time>
      </trkpt>
      <trkpt lat="45.50453" lon="6.19018">
        <ele>918.1962891</ele>
        <time>2012-03-17T14:51:44Z</time>
      </trkpt>
      <trkpt lat="45.50445" lon="6.18999">
        <ele>918.677002</ele>
        <time>2012-03-17T14:51:52Z</time>
      </trkpt>
      <trkpt lat="45.50443" lon="6.18997">
        <ele>919.1577148</ele>
        <time>2012-03-17T14:51:53Z</time>
      </trkpt>
      <trkpt lat="45.50436" lon="6.18994">
        <ele>923.0029297</ele>
        <time>2012-03-17T14:51:57Z</time>
      </trkpt>
      <trkpt lat="45.50427" lon="6.18991">
        <ele>923.9641113</ele>
        <time>2012-03-17T14:52:02Z</time>
      </trkpt>
      <trkpt lat="45.5042" lon="6.18981">
        <ele>931.6547852</ele>
        <time>2012-03-17T14:52:08Z</time>
      </trkpt>
      <trkpt lat="45.50413" lon="6.18974">
        <ele>938.8647461</ele>
        <time>2012-03-17T14:52:12Z</time>
      </trkpt>
      <trkpt lat="45.50405" lon="6.18966">
        <ele>945.1132813</ele>
        <time>2012-03-17T14:52:16Z</time>
      </trkpt>
      <trkpt lat="45.50393" lon="6.18952">
        <ele>951.8425293</ele>
        <time>2012-03-17T14:52:23Z</time>
      </trkpt>
      <trkpt lat="45.50386" lon="6.18941">
        <ele>949.439209</ele>
        <time>2012-03-17T14:52:30Z</time>
      </trkpt>
      <trkpt lat="45.50382" lon="6.18931">
        <ele>945.5939941</ele>
        <time>2012-03-17T14:52:35Z</time>
      </trkpt>
      <trkpt lat="45.50381" lon="6.18928">
        <ele>946.5554199</ele>
        <time>2012-03-17T14:52:37Z</time>
      </trkpt>
      <trkpt lat="45.50377" lon="6.18922">
        <ele>943.1906738</ele>
        <time>2012-03-17T14:52:43Z</time>
      </trkpt>
      <trkpt lat="45.50373" lon="6.18915">
        <ele>942.2294922</ele>
        <time>2012-03-17T14:52:48Z</time>
      </trkpt>
      <trkpt lat="45.50373" lon="6.18915">
        <ele>937.9033203</ele>
        <time>2012-03-17T14:52:51Z</time>
      </trkpt>
      <trkpt lat="45.50371" lon="6.18911">
        <ele>937.4226074</ele>
        <time>2012-03-17T14:52:57Z</time>
      </trkpt>
      <trkpt lat="45.5037" lon="6.18906">
        <ele>939.3452148</ele>
        <time>2012-03-17T14:53:00Z</time>
      </trkpt>
      <trkpt lat="45.50364" lon="6.18899">
        <ele>943.1906738</ele>
        <time>2012-03-17T14:53:06Z</time>
      </trkpt>
      <trkpt lat="45.5036" lon="6.18894">
        <ele>944.6325684</ele>
        <time>2012-03-17T14:53:12Z</time>
      </trkpt>
      <trkpt lat="45.50359" lon="6.18894">
        <ele>941.7487793</ele>
        <time>2012-03-17T14:53:15Z</time>
      </trkpt>
      <trkpt lat="45.5035" lon="6.18889">
        <ele>942.7102051</ele>
        <time>2012-03-17T14:53:22Z</time>
      </trkpt>
      <trkpt lat="45.50349" lon="6.18888">
        <ele>943.1906738</ele>
        <time>2012-03-17T14:53:23Z</time>
      </trkpt>
      <trkpt lat="45.50344" lon="6.18886">
        <ele>941.2680664</ele>
        <time>2012-03-17T14:53:29Z</time>
      </trkpt>
      <trkpt lat="45.50342" lon="6.18882">
        <ele>942.2294922</ele>
        <time>2012-03-17T14:53:32Z</time>
      </trkpt>
      <trkpt lat="45.50338" lon="6.18875">
        <ele>941.7487793</ele>
        <time>2012-03-17T14:53:42Z</time>
      </trkpt>
      <trkpt lat="45.50332" lon="6.18874">
        <ele>940.3068848</ele>
        <time>2012-03-17T14:53:48Z</time>
      </trkpt>
      <trkpt lat="45.50327" lon="6.18874">
        <ele>940.7873535</ele>
        <time>2012-03-17T14:53:52Z</time>
      </trkpt>
      <trkpt lat="45.50325" lon="6.1887">
        <ele>943.1906738</ele>
        <time>2012-03-17T14:53:56Z</time>
      </trkpt>
      <trkpt lat="45.50325" lon="6.18862">
        <ele>947.5166016</ele>
        <time>2012-03-17T14:54:06Z</time>
      </trkpt>
      <trkpt lat="45.50323" lon="6.18865">
        <ele>945.1132813</ele>
        <time>2012-03-17T14:54:11Z</time>
      </trkpt>
      <trkpt lat="45.50319" lon="6.18864">
        <ele>941.2680664</ele>
        <time>2012-03-17T14:54:16Z</time>
      </trkpt>
      <trkpt lat="45.50316" lon="6.18857">
        <ele>944.6325684</ele>
        <time>2012-03-17T14:54:22Z</time>
      </trkpt>
      <trkpt lat="45.50313" lon="6.18852">
        <ele>945.5939941</ele>
        <time>2012-03-17T14:54:29Z</time>
      </trkpt>
      <trkpt lat="45.5031" lon="6.18845">
        <ele>947.5166016</ele>
        <time>2012-03-17T14:54:46Z</time>
      </trkpt>
      <trkpt lat="45.50309" lon="6.18847">
        <ele>945.1132813</ele>
        <time>2012-03-17T14:54:48Z</time>
      </trkpt>
      <trkpt lat="45.50306" lon="6.18849">
        <ele>943.6713867</ele>
        <time>2012-03-17T14:54:54Z</time>
      </trkpt>
      <trkpt lat="45.50303" lon="6.18846">
        <ele>946.5554199</ele>
        <time>2012-03-17T14:54:58Z</time>
      </trkpt>
      <trkpt lat="45.50302" lon="6.18845">
        <ele>947.0358887</ele>
        <time>2012-03-17T14:55:01Z</time>
      </trkpt>
      <trkpt lat="45.50298" lon="6.18841">
        <ele>946.074707</ele>
        <time>2012-03-17T14:55:08Z</time>
      </trkpt>
      <trkpt lat="45.50296" lon="6.1884">
        <ele>944.6325684</ele>
        <time>2012-03-17T14:55:13Z</time>
      </trkpt>
      <trkpt lat="45.50293" lon="6.18837">
        <ele>945.1132813</ele>
        <time>2012-03-17T14:55:16Z</time>
      </trkpt>
      <trkpt lat="45.50291" lon="6.18838">
        <ele>946.074707</ele>
        <time>2012-03-17T14:55:24Z</time>
      </trkpt>
      <trkpt lat="45.50291" lon="6.18836">
        <ele>945.1132813</ele>
        <time>2012-03-17T14:55:30Z</time>
      </trkpt>
      <trkpt lat="45.50289" lon="6.18833">
        <ele>944.6325684</ele>
        <time>2012-03-17T14:55:33Z</time>
      </trkpt>
      <trkpt lat="45.50287" lon="6.1883">
        <ele>945.5939941</ele>
        <time>2012-03-17T14:55:36Z</time>
      </trkpt>
      <trkpt lat="45.50288" lon="6.1883">
        <ele>947.0358887</ele>
        <time>2012-03-17T14:55:42Z</time>
      </trkpt>
      <trkpt lat="45.5029" lon="6.18827">
        <ele>946.074707</ele>
        <time>2012-03-17T14:55:48Z</time>
      </trkpt>
      <trkpt lat="45.50289" lon="6.18819">
        <ele>947.5166016</ele>
        <time>2012-03-17T14:55:58Z</time>
      </trkpt>
      <trkpt lat="45.50288" lon="6.18815">
        <ele>947.0358887</ele>
        <time>2012-03-17T14:56:03Z</time>
      </trkpt>
      <trkpt lat="45.50288" lon="6.18812">
        <ele>947.5166016</ele>
        <time>2012-03-17T14:56:05Z</time>
      </trkpt>
      <trkpt lat="45.50286" lon="6.18808">
        <ele>949.439209</ele>
        <time>2012-03-17T14:56:09Z</time>
      </trkpt>
      <trkpt lat="45.50283" lon="6.18809">
        <ele>947.9973145</ele>
        <time>2012-03-17T14:56:12Z</time>
      </trkpt>
      <trkpt lat="45.50273" lon="6.18812">
        <ele>944.1520996</ele>
        <time>2012-03-17T14:56:19Z</time>
      </trkpt>
      <trkpt lat="45.50273" lon="6.18811">
        <ele>944.6325684</ele>
        <time>2012-03-17T14:56:20Z</time>
      </trkpt>
      <trkpt lat="45.50268" lon="6.18806">
        <ele>943.6713867</ele>
        <time>2012-03-17T14:56:27Z</time>
      </trkpt>
      <trkpt lat="45.50262" lon="6.18805">
        <ele>939.8259277</ele>
        <time>2012-03-17T14:56:33Z</time>
      </trkpt>
      <trkpt lat="45.50258" lon="6.18805">
        <ele>935.5</ele>
        <time>2012-03-17T14:56:36Z</time>
      </trkpt>
      <trkpt lat="45.50254" lon="6.18798">
        <ele>930.2128906</ele>
        <time>2012-03-17T14:56:49Z</time>
      </trkpt>
      <trkpt lat="45.50257" lon="6.18798">
        <ele>928.7709961</ele>
        <time>2012-03-17T14:56:52Z</time>
      </trkpt>
      <trkpt lat="45.50251" lon="6.188">
        <ele>923.4836426</ele>
        <time>2012-03-17T14:56:55Z</time>
      </trkpt>
      <trkpt lat="45.50248" lon="6.188">
        <ele>918.677002</ele>
        <time>2012-03-17T14:57:00Z</time>
      </trkpt>
      <trkpt lat="45.50246" lon="6.188">
        <ele>912.4284668</ele>
        <time>2012-03-17T14:57:08Z</time>
      </trkpt>
      <trkpt lat="45.50243" lon="6.18798">
        <ele>909.0639648</ele>
        <time>2012-03-17T14:57:11Z</time>
      </trkpt>
      <trkpt lat="45.50239" lon="6.1879">
        <ele>908.1027832</ele>
        <time>2012-03-17T14:57:31Z</time>
      </trkpt>
      <trkpt lat="45.50239" lon="6.18791">
        <ele>909.0639648</ele>
        <time>2012-03-17T14:57:38Z</time>
      </trkpt>
      <trkpt lat="45.50241" lon="6.18791">
        <ele>907.6218262</ele>
        <time>2012-03-17T14:57:41Z</time>
      </trkpt>
      <trkpt lat="45.50242" lon="6.18785">
        <ele>912.4284668</ele>
        <time>2012-03-17T14:58:02Z</time>
      </trkpt>
      <trkpt lat="45.50242" lon="6.18786">
        <ele>910.9865723</ele>
        <time>2012-03-17T14:58:05Z</time>
      </trkpt>
      <trkpt lat="45.50244" lon="6.18785">
        <ele>905.2185059</ele>
        <time>2012-03-17T14:58:10Z</time>
      </trkpt>
      <trkpt lat="45.50241" lon="6.18785">
        <ele>907.1411133</ele>
        <time>2012-03-17T14:58:12Z</time>
      </trkpt>
      <trkpt lat="45.50241" lon="6.18778">
        <ele>907.1411133</ele>
        <time>2012-03-17T14:58:17Z</time>
      </trkpt>
      <trkpt lat="45.50243" lon="6.18777">
        <ele>907.1411133</ele>
        <time>2012-03-17T14:58:18Z</time>
      </trkpt>
      <trkpt lat="45.50246" lon="6.18776">
        <ele>907.1411133</ele>
        <time>2012-03-17T14:58:21Z</time>
      </trkpt>
      <trkpt lat="45.50247" lon="6.18771">
        <ele>906.1796875</ele>
        <time>2012-03-17T14:58:26Z</time>
      </trkpt>
      <trkpt lat="45.50248" lon="6.18771">
        <ele>905.2185059</ele>
        <time>2012-03-17T14:58:27Z</time>
      </trkpt>
      <trkpt lat="45.50251" lon="6.1877">
        <ele>905.6992188</ele>
        <time>2012-03-17T14:58:31Z</time>
      </trkpt>
      <trkpt lat="45.5025" lon="6.18766">
        <ele>908.1027832</ele>
        <time>2012-03-17T14:58:34Z</time>
      </trkpt>
      <trkpt lat="45.50251" lon="6.18763">
        <ele>902.8151855</ele>
        <time>2012-03-17T14:58:39Z</time>
      </trkpt>
      <trkpt lat="45.50258" lon="6.18758">
        <ele>900.4121094</ele>
        <time>2012-03-17T14:58:45Z</time>
      </trkpt>
      <trkpt lat="45.50258" lon="6.18756">
        <ele>899.9313965</ele>
        <time>2012-03-17T14:58:46Z</time>
      </trkpt>
      <trkpt lat="45.50258" lon="6.18753">
        <ele>901.373291</ele>
        <time>2012-03-17T14:58:48Z</time>
      </trkpt>
      <trkpt lat="45.50255" lon="6.18749">
        <ele>905.6992188</ele>
        <time>2012-03-17T14:58:51Z</time>
      </trkpt>
      <trkpt lat="45.50256" lon="6.18739">
        <ele>904.737793</ele>
        <time>2012-03-17T14:58:56Z</time>
      </trkpt>
      <trkpt lat="45.50257" lon="6.18738">
        <ele>903.7766113</ele>
        <time>2012-03-17T14:58:57Z</time>
      </trkpt>
      <trkpt lat="45.50258" lon="6.18734">
        <ele>901.8540039</ele>
        <time>2012-03-17T14:59:00Z</time>
      </trkpt>
      <trkpt lat="45.50263" lon="6.18731">
        <ele>899.4506836</ele>
        <time>2012-03-17T14:59:05Z</time>
      </trkpt>
      <trkpt lat="45.50263" lon="6.18726">
        <ele>895.6054688</ele>
        <time>2012-03-17T14:59:10Z</time>
      </trkpt>
      <trkpt lat="45.50265" lon="6.18725">
        <ele>885.9921875</ele>
        <time>2012-03-17T14:59:17Z</time>
      </trkpt>
      <trkpt lat="45.5027" lon="6.18727">
        <ele>879.2629395</ele>
        <time>2012-03-17T14:59:23Z</time>
      </trkpt>
      <trkpt lat="45.50273" lon="6.18726">
        <ele>879.2629395</ele>
        <time>2012-03-17T14:59:26Z</time>
      </trkpt>
      <trkpt lat="45.50275" lon="6.18723">
        <ele>879.7436523</ele>
        <time>2012-03-17T14:59:31Z</time>
      </trkpt>
      <trkpt lat="45.50278" lon="6.18718">
        <ele>885.5114746</ele>
        <time>2012-03-17T14:59:36Z</time>
      </trkpt>
      <trkpt lat="45.50274" lon="6.18715">
        <ele>885.9921875</ele>
        <time>2012-03-17T14:59:42Z</time>
      </trkpt>
      <trkpt lat="45.50278" lon="6.18704">
        <ele>885.5114746</ele>
        <time>2012-03-17T14:59:48Z</time>
      </trkpt>
      <trkpt lat="45.50279" lon="6.187">
        <ele>885.0310059</ele>
        <time>2012-03-17T14:59:54Z</time>
      </trkpt>
      <trkpt lat="45.50281" lon="6.18704">
        <ele>876.8598633</ele>
        <time>2012-03-17T14:59:59Z</time>
      </trkpt>
      <trkpt lat="45.50282" lon="6.18707">
        <ele>869.6499023</ele>
        <time>2012-03-17T15:00:05Z</time>
      </trkpt>
      <trkpt lat="45.50285" lon="6.1871">
        <ele>861.4787598</ele>
        <time>2012-03-17T15:00:10Z</time>
      </trkpt>
      <trkpt lat="45.50286" lon="6.18711">
        <ele>857.1525879</ele>
        <time>2012-03-17T15:00:17Z</time>
      </trkpt>
      <trkpt lat="45.50287" lon="6.18713">
        <ele>853.7880859</ele>
        <time>2012-03-17T15:00:23Z</time>
      </trkpt>
      <trkpt lat="45.50292" lon="6.18712">
        <ele>847.5395508</ele>
        <time>2012-03-17T15:00:44Z</time>
      </trkpt>
      <trkpt lat="45.50292" lon="6.1871">
        <ele>848.0202637</ele>
        <time>2012-03-17T15:00:45Z</time>
      </trkpt>
      <trkpt lat="45.50286" lon="6.18703">
        <ele>848.0202637</ele>
        <time>2012-03-17T15:00:51Z</time>
      </trkpt>
      <trkpt lat="45.50288" lon="6.187">
        <ele>852.3459473</ele>
        <time>2012-03-17T15:00:57Z</time>
      </trkpt>
      <trkpt lat="45.50291" lon="6.18699">
        <ele>853.7880859</ele>
        <time>2012-03-17T15:01:02Z</time>
      </trkpt>
      <trkpt lat="45.50291" lon="6.18702">
        <ele>852.3459473</ele>
        <time>2012-03-17T15:01:11Z</time>
      </trkpt>
      <trkpt lat="45.50291" lon="6.18702">
        <ele>852.3459473</ele>
        <time>2012-03-17T15:01:32Z</time>
      </trkpt>
      <trkpt lat="45.50293" lon="6.18702">
        <ele>854.2687988</ele>
        <time>2012-03-17T15:01:40Z</time>
      </trkpt>
      <trkpt lat="45.50293" lon="6.18703">
        <ele>854.2687988</ele>
        <time>2012-03-17T15:01:41Z</time>
      </trkpt>
      <trkpt lat="45.50287" lon="6.18692">
        <ele>855.7106934</ele>
        <time>2012-03-17T15:01:47Z</time>
      </trkpt>
      <trkpt lat="45.50278" lon="6.18685">
        <ele>856.671875</ele>
        <time>2012-03-17T15:01:51Z</time>
      </trkpt>
      <trkpt lat="45.50265" lon="6.18676">
        <ele>856.671875</ele>
        <time>2012-03-17T15:01:56Z</time>
      </trkpt>
      <trkpt lat="45.50253" lon="6.1867">
        <ele>857.1525879</ele>
        <time>2012-03-17T15:02:01Z</time>
      </trkpt>
      <trkpt lat="45.50241" lon="6.18665">
        <ele>858.1140137</ele>
        <time>2012-03-17T15:02:06Z</time>
      </trkpt>
      <trkpt lat="45.50234" lon="6.18657">
        <ele>860.0366211</ele>
        <time>2012-03-17T15:02:10Z</time>
      </trkpt>
      <trkpt lat="45.50227" lon="6.18647">
        <ele>866.2851563</ele>
        <time>2012-03-17T15:02:14Z</time>
      </trkpt>
      <trkpt lat="45.50215" lon="6.18638">
        <ele>866.2851563</ele>
        <time>2012-03-17T15:02:19Z</time>
      </trkpt>
      <trkpt lat="45.50202" lon="6.18626">
        <ele>864.3625488</ele>
        <time>2012-03-17T15:02:25Z</time>
      </trkpt>
      <trkpt lat="45.50192" lon="6.18615">
        <ele>860.517334</ele>
        <time>2012-03-17T15:02:30Z</time>
      </trkpt>
      <trkpt lat="45.50184" lon="6.18603">
        <ele>857.1525879</ele>
        <time>2012-03-17T15:02:34Z</time>
      </trkpt>
      <trkpt lat="45.50174" lon="6.18591">
        <ele>855.2299805</ele>
        <time>2012-03-17T15:02:39Z</time>
      </trkpt>
      <trkpt lat="45.50163" lon="6.18582">
        <ele>852.8266602</ele>
        <time>2012-03-17T15:02:44Z</time>
      </trkpt>
      <trkpt lat="45.50156" lon="6.18574">
        <ele>851.8654785</ele>
        <time>2012-03-17T15:02:48Z</time>
      </trkpt>
      <trkpt lat="45.50146" lon="6.18565">
        <ele>851.8654785</ele>
        <time>2012-03-17T15:02:53Z</time>
      </trkpt>
      <trkpt lat="45.50133" lon="6.18557">
        <ele>851.3847656</ele>
        <time>2012-03-17T15:02:59Z</time>
      </trkpt>
      <trkpt lat="45.50122" lon="6.18551">
        <ele>854.7492676</ele>
        <time>2012-03-17T15:03:04Z</time>
      </trkpt>
      <trkpt lat="45.50108" lon="6.18542">
        <ele>857.6333008</ele>
        <time>2012-03-17T15:03:10Z</time>
      </trkpt>
      <trkpt lat="45.50094" lon="6.18537">
        <ele>858.5944824</ele>
        <time>2012-03-17T15:03:15Z</time>
      </trkpt>
      <trkpt lat="45.50082" lon="6.18532">
        <ele>859.0751953</ele>
        <time>2012-03-17T15:03:20Z</time>
      </trkpt>
      <trkpt lat="45.50071" lon="6.18528">
        <ele>858.5944824</ele>
        <time>2012-03-17T15:03:25Z</time>
      </trkpt>
      <trkpt lat="45.50058" lon="6.18529">
        <ele>855.7106934</ele>
        <time>2012-03-17T15:03:30Z</time>
      </trkpt>
      <trkpt lat="45.5005" lon="6.1852">
        <ele>854.2687988</ele>
        <time>2012-03-17T15:03:35Z</time>
      </trkpt>
      <trkpt lat="45.50039" lon="6.18508">
        <ele>852.3459473</ele>
        <time>2012-03-17T15:03:40Z</time>
      </trkpt>
      <trkpt lat="45.50035" lon="6.18497">
        <ele>853.307373</ele>
        <time>2012-03-17T15:03:44Z</time>
      </trkpt>
      <trkpt lat="45.50023" lon="6.18482">
        <ele>856.671875</ele>
        <time>2012-03-17T15:03:50Z</time>
      </trkpt>
      <trkpt lat="45.50017" lon="6.18474">
        <ele>856.671875</ele>
        <time>2012-03-17T15:03:53Z</time>
      </trkpt>
      <trkpt lat="45.50005" lon="6.18459">
        <ele>859.0751953</ele>
        <time>2012-03-17T15:03:59Z</time>
      </trkpt>
      <trkpt lat="45.49995" lon="6.18451">
        <ele>858.5944824</ele>
        <time>2012-03-17T15:04:03Z</time>
      </trkpt>
      <trkpt lat="45.49987" lon="6.18445">
        <ele>859.0751953</ele>
        <time>2012-03-17T15:04:07Z</time>
      </trkpt>
      <trkpt lat="45.49973" lon="6.18437">
        <ele>858.5944824</ele>
        <time>2012-03-17T15:04:13Z</time>
      </trkpt>
      <trkpt lat="45.49965" lon="6.18429">
        <ele>860.9980469</ele>
        <time>2012-03-17T15:04:17Z</time>
      </trkpt>
      <trkpt lat="45.49955" lon="6.18424">
        <ele>858.5944824</ele>
        <time>2012-03-17T15:04:22Z</time>
      </trkpt>
      <trkpt lat="45.49949" lon="6.18427">
        <ele>853.7880859</ele>
        <time>2012-03-17T15:04:28Z</time>
      </trkpt>
      <trkpt lat="45.49944" lon="6.18424">
        <ele>851.8654785</ele>
        <time>2012-03-17T15:04:33Z</time>
      </trkpt>
      <trkpt lat="45.4994" lon="6.18422">
        <ele>851.3847656</ele>
        <time>2012-03-17T15:04:38Z</time>
      </trkpt>
      <trkpt lat="45.49937" lon="6.18418">
        <ele>853.7880859</ele>
        <time>2012-03-17T15:04:42Z</time>
      </trkpt>
      <trkpt lat="45.49928" lon="6.18408">
        <ele>858.1140137</ele>
        <time>2012-03-17T15:04:50Z</time>
      </trkpt>
      <trkpt lat="45.49923" lon="6.18407">
        <ele>859.0751953</ele>
        <time>2012-03-17T15:04:54Z</time>
      </trkpt>
      <trkpt lat="45.4992" lon="6.18405">
        <ele>859.0751953</ele>
        <time>2012-03-17T15:04:57Z</time>
      </trkpt>
      <trkpt lat="45.49914" lon="6.18399">
        <ele>860.517334</ele>
        <time>2012-03-17T15:05:02Z</time>
      </trkpt>
      <trkpt lat="45.49907" lon="6.18399">
        <ele>860.517334</ele>
        <time>2012-03-17T15:05:08Z</time>
      </trkpt>
      <trkpt lat="45.499" lon="6.184">
        <ele>857.1525879</ele>
        <time>2012-03-17T15:05:14Z</time>
      </trkpt>
      <trkpt lat="45.4989" lon="6.18401">
        <ele>853.307373</ele>
        <time>2012-03-17T15:05:20Z</time>
      </trkpt>
      <trkpt lat="45.4988" lon="6.18404">
        <ele>848.5007324</ele>
        <time>2012-03-17T15:05:26Z</time>
      </trkpt>
      <trkpt lat="45.49866" lon="6.18414">
        <ele>842.2521973</ele>
        <time>2012-03-17T15:05:31Z</time>
      </trkpt>
      <trkpt lat="45.49857" lon="6.18422">
        <ele>837.4455566</ele>
        <time>2012-03-17T15:05:35Z</time>
      </trkpt>
      <trkpt lat="45.49843" lon="6.18428">
        <ele>833.1196289</ele>
        <time>2012-03-17T15:05:40Z</time>
      </trkpt>
      <trkpt lat="45.49834" lon="6.18427">
        <ele>833.1196289</ele>
        <time>2012-03-17T15:05:44Z</time>
      </trkpt>
      <trkpt lat="45.4982" lon="6.18418">
        <ele>844.1750488</ele>
        <time>2012-03-17T15:05:50Z</time>
      </trkpt>
      <trkpt lat="45.4981" lon="6.18404">
        <ele>848.5007324</ele>
        <time>2012-03-17T15:05:55Z</time>
      </trkpt>
      <trkpt lat="45.49804" lon="6.18392">
        <ele>851.3847656</ele>
        <time>2012-03-17T15:05:59Z</time>
      </trkpt>
      <trkpt lat="45.49796" lon="6.18381">
        <ele>850.9040527</ele>
        <time>2012-03-17T15:06:03Z</time>
      </trkpt>
      <trkpt lat="45.49794" lon="6.18359">
        <ele>850.423584</ele>
        <time>2012-03-17T15:06:08Z</time>
      </trkpt>
      <trkpt lat="45.49787" lon="6.18344">
        <ele>847.5395508</ele>
        <time>2012-03-17T15:06:13Z</time>
      </trkpt>
      <trkpt lat="45.49782" lon="6.1833">
        <ele>843.6940918</ele>
        <time>2012-03-17T15:06:18Z</time>
      </trkpt>
      <trkpt lat="45.49781" lon="6.18324">
        <ele>843.2133789</ele>
        <time>2012-03-17T15:06:20Z</time>
      </trkpt>
      <trkpt lat="45.49772" lon="6.18318">
        <ele>840.8100586</ele>
        <time>2012-03-17T15:06:25Z</time>
      </trkpt>
      <trkpt lat="45.49755" lon="6.18316">
        <ele>839.848877</ele>
        <time>2012-03-17T15:06:31Z</time>
      </trkpt>
      <trkpt lat="45.49745" lon="6.18307">
        <ele>839.3681641</ele>
        <time>2012-03-17T15:06:37Z</time>
      </trkpt>
      <trkpt lat="45.49737" lon="6.18294">
        <ele>838.8876953</ele>
        <time>2012-03-17T15:06:42Z</time>
      </trkpt>
      <trkpt lat="45.49727" lon="6.18284">
        <ele>834.5617676</ele>
        <time>2012-03-17T15:06:48Z</time>
      </trkpt>
      <trkpt lat="45.49719" lon="6.18277">
        <ele>830.2358398</ele>
        <time>2012-03-17T15:06:52Z</time>
      </trkpt>
      <trkpt lat="45.49711" lon="6.18266">
        <ele>828.3132324</ele>
        <time>2012-03-17T15:06:57Z</time>
      </trkpt>
      <trkpt lat="45.49701" lon="6.18252">
        <ele>830.2358398</ele>
        <time>2012-03-17T15:07:03Z</time>
      </trkpt>
      <trkpt lat="45.49694" lon="6.18234">
        <ele>834.5617676</ele>
        <time>2012-03-17T15:07:09Z</time>
      </trkpt>
      <trkpt lat="45.49686" lon="6.18221">
        <ele>838.8876953</ele>
        <time>2012-03-17T15:07:14Z</time>
      </trkpt>
      <trkpt lat="45.49686" lon="6.18218">
        <ele>838.8876953</ele>
        <time>2012-03-17T15:07:15Z</time>
      </trkpt>
      <trkpt lat="45.49674" lon="6.18205">
        <ele>843.6940918</ele>
        <time>2012-03-17T15:07:21Z</time>
      </trkpt>
      <trkpt lat="45.49664" lon="6.1819">
        <ele>847.5395508</ele>
        <time>2012-03-17T15:07:27Z</time>
      </trkpt>
      <trkpt lat="45.49652" lon="6.18178">
        <ele>842.7329102</ele>
        <time>2012-03-17T15:07:33Z</time>
      </trkpt>
      <trkpt lat="45.49648" lon="6.18169">
        <ele>841.7714844</ele>
        <time>2012-03-17T15:07:36Z</time>
      </trkpt>
      <trkpt lat="45.49646" lon="6.18146">
        <ele>846.0976563</ele>
        <time>2012-03-17T15:07:42Z</time>
      </trkpt>
      <trkpt lat="45.49643" lon="6.18136">
        <ele>845.1362305</ele>
        <time>2012-03-17T15:07:47Z</time>
      </trkpt>
      <trkpt lat="45.49641" lon="6.18135">
        <ele>844.1750488</ele>
        <time>2012-03-17T15:07:48Z</time>
      </trkpt>
      <trkpt lat="45.49632" lon="6.18127">
        <ele>843.2133789</ele>
        <time>2012-03-17T15:07:55Z</time>
      </trkpt>
      <trkpt lat="45.49628" lon="6.18118">
        <ele>845.6169434</ele>
        <time>2012-03-17T15:08:01Z</time>
      </trkpt>
      <trkpt lat="45.49625" lon="6.18114">
        <ele>844.1750488</ele>
        <time>2012-03-17T15:08:04Z</time>
      </trkpt>
      <trkpt lat="45.49617" lon="6.1811">
        <ele>842.7329102</ele>
        <time>2012-03-17T15:08:10Z</time>
      </trkpt>
      <trkpt lat="45.49611" lon="6.18102">
        <ele>844.1750488</ele>
        <time>2012-03-17T15:08:15Z</time>
      </trkpt>
      <trkpt lat="45.49607" lon="6.181">
        <ele>844.6555176</ele>
        <time>2012-03-17T15:08:19Z</time>
      </trkpt>
      <trkpt lat="45.49605" lon="6.18094">
        <ele>848.0202637</ele>
        <time>2012-03-17T15:08:22Z</time>
      </trkpt>
      <trkpt lat="45.49599" lon="6.18091">
        <ele>850.423584</ele>
        <time>2012-03-17T15:08:27Z</time>
      </trkpt>
      <trkpt lat="45.49591" lon="6.18086">
        <ele>852.8266602</ele>
        <time>2012-03-17T15:08:33Z</time>
      </trkpt>
      <trkpt lat="45.49582" lon="6.18084">
        <ele>851.8654785</ele>
        <time>2012-03-17T15:08:39Z</time>
      </trkpt>
      <trkpt lat="45.49578" lon="6.18084">
        <ele>850.9040527</ele>
        <time>2012-03-17T15:08:41Z</time>
      </trkpt>
      <trkpt lat="45.49575" lon="6.18081">
        <ele>851.8654785</ele>
        <time>2012-03-17T15:08:43Z</time>
      </trkpt>
      <trkpt lat="45.49569" lon="6.18078">
        <ele>852.8266602</ele>
        <time>2012-03-17T15:08:48Z</time>
      </trkpt>
      <trkpt lat="45.49562" lon="6.18075">
        <ele>851.3847656</ele>
        <time>2012-03-17T15:08:53Z</time>
      </trkpt>
      <trkpt lat="45.49553" lon="6.18073">
        <ele>847.0588379</ele>
        <time>2012-03-17T15:08:59Z</time>
      </trkpt>
      <trkpt lat="45.49546" lon="6.18071">
        <ele>848.9814453</ele>
        <time>2012-03-17T15:09:04Z</time>
      </trkpt>
      <trkpt lat="45.49544" lon="6.18071">
        <ele>848.9814453</ele>
        <time>2012-03-17T15:09:05Z</time>
      </trkpt>
      <trkpt lat="45.49536" lon="6.18069">
        <ele>845.1362305</ele>
        <time>2012-03-17T15:09:11Z</time>
      </trkpt>
      <trkpt lat="45.49531" lon="6.18061">
        <ele>846.0976563</ele>
        <time>2012-03-17T15:09:17Z</time>
      </trkpt>
      <trkpt lat="45.4953" lon="6.18057">
        <ele>847.0588379</ele>
        <time>2012-03-17T15:09:19Z</time>
      </trkpt>
      <trkpt lat="45.49528" lon="6.18053">
        <ele>848.0202637</ele>
        <time>2012-03-17T15:09:21Z</time>
      </trkpt>
      <trkpt lat="45.49524" lon="6.18042">
        <ele>850.423584</ele>
        <time>2012-03-17T15:09:27Z</time>
      </trkpt>
      <trkpt lat="45.4952" lon="6.1803">
        <ele>856.1911621</ele>
        <time>2012-03-17T15:09:32Z</time>
      </trkpt>
      <trkpt lat="45.4951" lon="6.18021">
        <ele>858.1140137</ele>
        <time>2012-03-17T15:09:40Z</time>
      </trkpt>
      <trkpt lat="45.49502" lon="6.18011">
        <ele>857.6333008</ele>
        <time>2012-03-17T15:09:47Z</time>
      </trkpt>
      <trkpt lat="45.49501" lon="6.1801">
        <ele>856.671875</ele>
        <time>2012-03-17T15:09:48Z</time>
      </trkpt>
      <trkpt lat="45.49498" lon="6.18003">
        <ele>853.307373</ele>
        <time>2012-03-17T15:09:53Z</time>
      </trkpt>
      <trkpt lat="45.49492" lon="6.17993">
        <ele>851.3847656</ele>
        <time>2012-03-17T15:09:59Z</time>
      </trkpt>
      <trkpt lat="45.49488" lon="6.17984">
        <ele>850.423584</ele>
        <time>2012-03-17T15:10:05Z</time>
      </trkpt>
      <trkpt lat="45.49484" lon="6.17979">
        <ele>849.9428711</ele>
        <time>2012-03-17T15:10:09Z</time>
      </trkpt>
      <trkpt lat="45.49477" lon="6.17973">
        <ele>848.0202637</ele>
        <time>2012-03-17T15:10:16Z</time>
      </trkpt>
      <trkpt lat="45.49472" lon="6.17964">
        <ele>850.423584</ele>
        <time>2012-03-17T15:10:22Z</time>
      </trkpt>
      <trkpt lat="45.49465" lon="6.17954">
        <ele>852.8266602</ele>
        <time>2012-03-17T15:10:29Z</time>
      </trkpt>
      <trkpt lat="45.49458" lon="6.17948">
        <ele>852.3459473</ele>
        <time>2012-03-17T15:10:35Z</time>
      </trkpt>
      <trkpt lat="45.49454" lon="6.17946">
        <ele>850.9040527</ele>
        <time>2012-03-17T15:10:38Z</time>
      </trkpt>
      <trkpt lat="45.4944" lon="6.17931">
        <ele>850.423584</ele>
        <time>2012-03-17T15:10:45Z</time>
      </trkpt>
      <trkpt lat="45.49431" lon="6.1792">
        <ele>852.3459473</ele>
        <time>2012-03-17T15:10:50Z</time>
      </trkpt>
      <trkpt lat="45.49421" lon="6.17909">
        <ele>852.3459473</ele>
        <time>2012-03-17T15:10:54Z</time>
      </trkpt>
      <trkpt lat="45.49409" lon="6.17894">
        <ele>850.9040527</ele>
        <time>2012-03-17T15:10:59Z</time>
      </trkpt>
      <trkpt lat="45.49397" lon="6.1788">
        <ele>850.423584</ele>
        <time>2012-03-17T15:11:04Z</time>
      </trkpt>
      <trkpt lat="45.49386" lon="6.17868">
        <ele>849.9428711</ele>
        <time>2012-03-17T15:11:09Z</time>
      </trkpt>
      <trkpt lat="45.49378" lon="6.17857">
        <ele>856.1911621</ele>
        <time>2012-03-17T15:11:13Z</time>
      </trkpt>
      <trkpt lat="45.49368" lon="6.17844">
        <ele>861.4787598</ele>
        <time>2012-03-17T15:11:18Z</time>
      </trkpt>
      <trkpt lat="45.49358" lon="6.17828">
        <ele>865.3239746</ele>
        <time>2012-03-17T15:11:23Z</time>
      </trkpt>
      <trkpt lat="45.49347" lon="6.17816">
        <ele>865.3239746</ele>
        <time>2012-03-17T15:11:28Z</time>
      </trkpt>
      <trkpt lat="45.49337" lon="6.17806">
        <ele>862.9206543</ele>
        <time>2012-03-17T15:11:32Z</time>
      </trkpt>
      <trkpt lat="45.49329" lon="6.17792">
        <ele>860.9980469</ele>
        <time>2012-03-17T15:11:37Z</time>
      </trkpt>
      <trkpt lat="45.49315" lon="6.17778">
        <ele>855.7106934</ele>
        <time>2012-03-17T15:11:43Z</time>
      </trkpt>
      <trkpt lat="45.49304" lon="6.17767">
        <ele>850.423584</ele>
        <time>2012-03-17T15:11:48Z</time>
      </trkpt>
      <trkpt lat="45.49292" lon="6.17755">
        <ele>846.5783691</ele>
        <time>2012-03-17T15:11:53Z</time>
      </trkpt>
      <trkpt lat="45.4928" lon="6.17743">
        <ele>842.7329102</ele>
        <time>2012-03-17T15:11:58Z</time>
      </trkpt>
      <trkpt lat="45.49272" lon="6.17738">
        <ele>840.8100586</ele>
        <time>2012-03-17T15:12:01Z</time>
      </trkpt>
      <trkpt lat="45.49256" lon="6.17722">
        <ele>839.3681641</ele>
        <time>2012-03-17T15:12:08Z</time>
      </trkpt>
      <trkpt lat="45.49242" lon="6.17708">
        <ele>840.3295898</ele>
        <time>2012-03-17T15:12:14Z</time>
      </trkpt>
      <trkpt lat="45.49241" lon="6.17705">
        <ele>839.3681641</ele>
        <time>2012-03-17T15:12:15Z</time>
      </trkpt>
      <trkpt lat="45.49245" lon="6.17698">
        <ele>836.0036621</ele>
        <time>2012-03-17T15:12:20Z</time>
      </trkpt>
      <trkpt lat="45.49248" lon="6.17699">
        <ele>834.5617676</ele>
        <time>2012-03-17T15:12:23Z</time>
      </trkpt>
      <trkpt lat="45.49249" lon="6.177">
        <ele>836.9648438</ele>
        <time>2012-03-17T15:12:28Z</time>
      </trkpt>
      <trkpt lat="45.49257" lon="6.17705">
        <ele>833.1196289</ele>
        <time>2012-03-17T15:12:35Z</time>
      </trkpt>
      <trkpt lat="45.49267" lon="6.17713">
        <ele>831.1972656</ele>
        <time>2012-03-17T15:12:42Z</time>
      </trkpt>
      <trkpt lat="45.49277" lon="6.17721">
        <ele>829.755127</ele>
        <time>2012-03-17T15:12:46Z</time>
      </trkpt>
      <trkpt lat="45.49282" lon="6.17721">
        <ele>829.2744141</ele>
        <time>2012-03-17T15:12:48Z</time>
      </trkpt>
      <trkpt lat="45.49279" lon="6.17709">
        <ele>828.7939453</ele>
        <time>2012-03-17T15:12:53Z</time>
      </trkpt>
      <trkpt lat="45.49266" lon="6.17695">
        <ele>827.3518066</ele>
        <time>2012-03-17T15:12:59Z</time>
      </trkpt>
      <trkpt lat="45.49255" lon="6.17684">
        <ele>825.4289551</ele>
        <time>2012-03-17T15:13:05Z</time>
      </trkpt>
      <trkpt lat="45.49245" lon="6.17673">
        <ele>823.9870605</ele>
        <time>2012-03-17T15:13:09Z</time>
      </trkpt>
      <trkpt lat="45.49233" lon="6.17661">
        <ele>823.0258789</ele>
        <time>2012-03-17T15:13:15Z</time>
      </trkpt>
      <trkpt lat="45.49228" lon="6.17654">
        <ele>822.0644531</ele>
        <time>2012-03-17T15:13:17Z</time>
      </trkpt>
      <trkpt lat="45.49232" lon="6.17642">
        <ele>817.7385254</ele>
        <time>2012-03-17T15:13:21Z</time>
      </trkpt>
      <trkpt lat="45.49241" lon="6.17644">
        <ele>813.8933105</ele>
        <time>2012-03-17T15:13:25Z</time>
      </trkpt>
      <trkpt lat="45.49253" lon="6.17649">
        <ele>811.0092773</ele>
        <time>2012-03-17T15:13:30Z</time>
      </trkpt>
      <trkpt lat="45.49256" lon="6.1765">
        <ele>811.0092773</ele>
        <time>2012-03-17T15:13:31Z</time>
      </trkpt>
      <trkpt lat="45.4927" lon="6.17657">
        <ele>808.605957</ele>
        <time>2012-03-17T15:13:37Z</time>
      </trkpt>
      <trkpt lat="45.49288" lon="6.17672">
        <ele>802.8381348</ele>
        <time>2012-03-17T15:13:44Z</time>
      </trkpt>
      <trkpt lat="45.49302" lon="6.17681">
        <ele>801.3962402</ele>
        <time>2012-03-17T15:13:49Z</time>
      </trkpt>
      <trkpt lat="45.49314" lon="6.17682">
        <ele>801.3962402</ele>
        <time>2012-03-17T15:13:54Z</time>
      </trkpt>
      <trkpt lat="45.49316" lon="6.17669">
        <ele>801.3962402</ele>
        <time>2012-03-17T15:13:58Z</time>
      </trkpt>
      <trkpt lat="45.49308" lon="6.17661">
        <ele>801.8769531</ele>
        <time>2012-03-17T15:14:02Z</time>
      </trkpt>
      <trkpt lat="45.49295" lon="6.17648">
        <ele>800.4350586</ele>
        <time>2012-03-17T15:14:08Z</time>
      </trkpt>
      <trkpt lat="45.4928" lon="6.17632">
        <ele>798.9929199</ele>
        <time>2012-03-17T15:14:15Z</time>
      </trkpt>
      <trkpt lat="45.49267" lon="6.17618">
        <ele>796.5898438</ele>
        <time>2012-03-17T15:14:21Z</time>
      </trkpt>
      <trkpt lat="45.49257" lon="6.17606">
        <ele>793.7055664</ele>
        <time>2012-03-17T15:14:26Z</time>
      </trkpt>
      <trkpt lat="45.49245" lon="6.1759">
        <ele>791.3022461</ele>
        <time>2012-03-17T15:14:32Z</time>
      </trkpt>
      <trkpt lat="45.49231" lon="6.17575">
        <ele>788.8991699</ele>
        <time>2012-03-17T15:14:38Z</time>
      </trkpt>
      <trkpt lat="45.49219" lon="6.17563">
        <ele>786.4958496</ele>
        <time>2012-03-17T15:14:43Z</time>
      </trkpt>
      <trkpt lat="45.49208" lon="6.17551">
        <ele>785.0539551</ele>
        <time>2012-03-17T15:14:48Z</time>
      </trkpt>
      <trkpt lat="45.49191" lon="6.17531">
        <ele>782.1699219</ele>
        <time>2012-03-17T15:14:55Z</time>
      </trkpt>
      <trkpt lat="45.4918" lon="6.17513">
        <ele>783.1311035</ele>
        <time>2012-03-17T15:15:00Z</time>
      </trkpt>
      <trkpt lat="45.49173" lon="6.17501">
        <ele>783.1311035</ele>
        <time>2012-03-17T15:15:04Z</time>
      </trkpt>
      <trkpt lat="45.49167" lon="6.17494">
        <ele>781.689209</ele>
        <time>2012-03-17T15:15:08Z</time>
      </trkpt>
      <trkpt lat="45.49165" lon="6.17489">
        <ele>780.2473145</ele>
        <time>2012-03-17T15:15:11Z</time>
      </trkpt>
      <trkpt lat="45.49162" lon="6.17483">
        <ele>779.2856445</ele>
        <time>2012-03-17T15:15:15Z</time>
      </trkpt>
      <trkpt lat="45.49156" lon="6.17472">
        <ele>778.8051758</ele>
        <time>2012-03-17T15:15:19Z</time>
      </trkpt>
      <trkpt lat="45.49143" lon="6.1746">
        <ele>776.4018555</ele>
        <time>2012-03-17T15:15:26Z</time>
      </trkpt>
      <trkpt lat="45.49142" lon="6.1746">
        <ele>775.4404297</ele>
        <time>2012-03-17T15:15:28Z</time>
      </trkpt>
      <trkpt lat="45.4914" lon="6.17459">
        <ele>773.9985352</ele>
        <time>2012-03-17T15:15:35Z</time>
      </trkpt>
      <trkpt lat="45.49139" lon="6.17459">
        <ele>774.479248</ele>
        <time>2012-03-17T15:15:37Z</time>
      </trkpt>
      <trkpt lat="45.49131" lon="6.17453">
        <ele>775.9211426</ele>
        <time>2012-03-17T15:15:44Z</time>
      </trkpt>
      <trkpt lat="45.49127" lon="6.17448">
        <ele>775.9211426</ele>
        <time>2012-03-17T15:15:48Z</time>
      </trkpt>
      <trkpt lat="45.49119" lon="6.17444">
        <ele>777.3632813</ele>
        <time>2012-03-17T15:15:54Z</time>
      </trkpt>
      <trkpt lat="45.4911" lon="6.17437">
        <ele>777.84375</ele>
        <time>2012-03-17T15:16:01Z</time>
      </trkpt>
      <trkpt lat="45.49102" lon="6.17432">
        <ele>776.4018555</ele>
        <time>2012-03-17T15:16:07Z</time>
      </trkpt>
      <trkpt lat="45.49091" lon="6.17424">
        <ele>776.8825684</ele>
        <time>2012-03-17T15:16:12Z</time>
      </trkpt>
      <trkpt lat="45.49081" lon="6.17416">
        <ele>776.8825684</ele>
        <time>2012-03-17T15:16:16Z</time>
      </trkpt>
      <trkpt lat="45.49072" lon="6.17408">
        <ele>775.4404297</ele>
        <time>2012-03-17T15:16:20Z</time>
      </trkpt>
      <trkpt lat="45.49055" lon="6.174">
        <ele>775.4404297</ele>
        <time>2012-03-17T15:16:26Z</time>
      </trkpt>
      <trkpt lat="45.49047" lon="6.17396">
        <ele>777.3632813</ele>
        <time>2012-03-17T15:16:29Z</time>
      </trkpt>
      <trkpt lat="45.49034" lon="6.17383">
        <ele>776.4018555</ele>
        <time>2012-03-17T15:16:34Z</time>
      </trkpt>
      <trkpt lat="45.4902" lon="6.17371">
        <ele>775.9211426</ele>
        <time>2012-03-17T15:16:40Z</time>
      </trkpt>
      <trkpt lat="45.49017" lon="6.17365">
        <ele>776.4018555</ele>
        <time>2012-03-17T15:16:42Z</time>
      </trkpt>
      <trkpt lat="45.4902" lon="6.17348">
        <ele>772.5566406</ele>
        <time>2012-03-17T15:16:47Z</time>
      </trkpt>
      <trkpt lat="45.49032" lon="6.17349">
        <ele>768.2307129</ele>
        <time>2012-03-17T15:16:51Z</time>
      </trkpt>
      <trkpt lat="45.49049" lon="6.17354">
        <ele>764.385498</ele>
        <time>2012-03-17T15:16:57Z</time>
      </trkpt>
      <trkpt lat="45.49065" lon="6.17355">
        <ele>761.9821777</ele>
        <time>2012-03-17T15:17:03Z</time>
      </trkpt>
      <trkpt lat="45.4908" lon="6.1736">
        <ele>756.6948242</ele>
        <time>2012-03-17T15:17:09Z</time>
      </trkpt>
      <trkpt lat="45.49092" lon="6.1736">
        <ele>754.7722168</ele>
        <time>2012-03-17T15:17:13Z</time>
      </trkpt>
      <trkpt lat="45.4911" lon="6.17365">
        <ele>749.4851074</ele>
        <time>2012-03-17T15:17:20Z</time>
      </trkpt>
      <trkpt lat="45.49124" lon="6.17369">
        <ele>746.6010742</ele>
        <time>2012-03-17T15:17:25Z</time>
      </trkpt>
      <trkpt lat="45.49138" lon="6.17376">
        <ele>742.2751465</ele>
        <time>2012-03-17T15:17:31Z</time>
      </trkpt>
      <trkpt lat="45.49153" lon="6.17379">
        <ele>740.3525391</ele>
        <time>2012-03-17T15:17:37Z</time>
      </trkpt>
      <trkpt lat="45.49168" lon="6.17379">
        <ele>740.3525391</ele>
        <time>2012-03-17T15:17:42Z</time>
      </trkpt>
      <trkpt lat="45.49187" lon="6.17376">
        <ele>738.9106445</ele>
        <time>2012-03-17T15:17:48Z</time>
      </trkpt>
      <trkpt lat="45.49204" lon="6.17375">
        <ele>737.4685059</ele>
        <time>2012-03-17T15:17:54Z</time>
      </trkpt>
      <trkpt lat="45.4922" lon="6.17378">
        <ele>736.987793</ele>
        <time>2012-03-17T15:18:00Z</time>
      </trkpt>
      <trkpt lat="45.49239" lon="6.17387">
        <ele>736.5073242</ele>
        <time>2012-03-17T15:18:07Z</time>
      </trkpt>
      <trkpt lat="45.4925" lon="6.17394">
        <ele>736.0266113</ele>
        <time>2012-03-17T15:18:12Z</time>
      </trkpt>
      <trkpt lat="45.49264" lon="6.17403">
        <ele>734.5847168</ele>
        <time>2012-03-17T15:18:18Z</time>
      </trkpt>
      <trkpt lat="45.49273" lon="6.17412">
        <ele>732.1813965</ele>
        <time>2012-03-17T15:18:23Z</time>
      </trkpt>
      <trkpt lat="45.49284" lon="6.17422">
        <ele>731.2199707</ele>
        <time>2012-03-17T15:18:28Z</time>
      </trkpt>
      <trkpt lat="45.49296" lon="6.17428">
        <ele>732.6621094</ele>
        <time>2012-03-17T15:18:33Z</time>
      </trkpt>
      <trkpt lat="45.49303" lon="6.17427">
        <ele>731.7004395</ele>
        <time>2012-03-17T15:18:36Z</time>
      </trkpt>
      <trkpt lat="45.4931" lon="6.17419">
        <ele>730.2585449</ele>
        <time>2012-03-17T15:18:40Z</time>
      </trkpt>
      <trkpt lat="45.49315" lon="6.17417">
        <ele>731.7004395</ele>
        <time>2012-03-17T15:18:50Z</time>
      </trkpt>
      <trkpt lat="45.49317" lon="6.17419">
        <ele>730.2585449</ele>
        <time>2012-03-17T15:18:59Z</time>
      </trkpt>
      <trkpt lat="45.49319" lon="6.17416">
        <ele>731.7004395</ele>
        <time>2012-03-17T15:19:11Z</time>
      </trkpt>
      <trkpt lat="45.49316" lon="6.17415">
        <ele>733.623291</ele>
        <time>2012-03-17T15:19:22Z</time>
      </trkpt>
      <trkpt lat="45.49317" lon="6.17414">
        <ele>731.7004395</ele>
        <time>2012-03-17T15:19:32Z</time>
      </trkpt>
      <trkpt lat="45.49319" lon="6.1742">
        <ele>735.0654297</ele>
        <time>2012-03-17T15:19:48Z</time>
      </trkpt>
      <trkpt lat="45.49311" lon="6.17411">
        <ele>737.4685059</ele>
        <time>2012-03-17T15:19:53Z</time>
      </trkpt>
      <trkpt lat="45.49309" lon="6.17409">
        <ele>737.9492188</ele>
        <time>2012-03-17T15:19:54Z</time>
      </trkpt>
      <trkpt lat="45.49293" lon="6.17392">
        <ele>740.3525391</ele>
        <time>2012-03-17T15:20:01Z</time>
      </trkpt>
      <trkpt lat="45.49275" lon="6.1737">
        <ele>739.3911133</ele>
        <time>2012-03-17T15:20:09Z</time>
      </trkpt>
      <trkpt lat="45.4926" lon="6.17348">
        <ele>736.0266113</ele>
        <time>2012-03-17T15:20:16Z</time>
      </trkpt>
      <trkpt lat="45.49252" lon="6.1733">
        <ele>732.6621094</ele>
        <time>2012-03-17T15:20:21Z</time>
      </trkpt>
      <trkpt lat="45.49242" lon="6.17315">
        <ele>727.3747559</ele>
        <time>2012-03-17T15:20:26Z</time>
      </trkpt>
      <trkpt lat="45.4923" lon="6.17303">
        <ele>722.5681152</ele>
        <time>2012-03-17T15:20:31Z</time>
      </trkpt>
      <trkpt lat="45.49211" lon="6.17288">
        <ele>717.2810059</ele>
        <time>2012-03-17T15:20:39Z</time>
      </trkpt>
      <trkpt lat="45.49194" lon="6.17283">
        <ele>711.5129395</ele>
        <time>2012-03-17T15:20:45Z</time>
      </trkpt>
      <trkpt lat="45.4918" lon="6.17284">
        <ele>711.9936523</ele>
        <time>2012-03-17T15:20:50Z</time>
      </trkpt>
      <trkpt lat="45.49163" lon="6.17284">
        <ele>711.0322266</ele>
        <time>2012-03-17T15:20:56Z</time>
      </trkpt>
      <trkpt lat="45.4915" lon="6.17278">
        <ele>712.4741211</ele>
        <time>2012-03-17T15:21:01Z</time>
      </trkpt>
      <trkpt lat="45.49137" lon="6.17271">
        <ele>711.9936523</ele>
        <time>2012-03-17T15:21:06Z</time>
      </trkpt>
      <trkpt lat="45.49127" lon="6.17267">
        <ele>712.4741211</ele>
        <time>2012-03-17T15:21:10Z</time>
      </trkpt>
      <trkpt lat="45.4912" lon="6.17262">
        <ele>711.9936523</ele>
        <time>2012-03-17T15:21:13Z</time>
      </trkpt>
      <trkpt lat="45.49122" lon="6.17252">
        <ele>710.0708008</ele>
        <time>2012-03-17T15:21:18Z</time>
      </trkpt>
      <trkpt lat="45.49125" lon="6.17252">
        <ele>709.590332</ele>
        <time>2012-03-17T15:21:19Z</time>
      </trkpt>
      <trkpt lat="45.49139" lon="6.17254">
        <ele>705.2644043</ele>
        <time>2012-03-17T15:21:25Z</time>
      </trkpt>
      <trkpt lat="45.49148" lon="6.17253">
        <ele>703.3417969</ele>
        <time>2012-03-17T15:21:29Z</time>
      </trkpt>
      <trkpt lat="45.49166" lon="6.17249">
        <ele>702.3803711</ele>
        <time>2012-03-17T15:21:35Z</time>
      </trkpt>
      <trkpt lat="45.49182" lon="6.17241">
        <ele>703.3417969</ele>
        <time>2012-03-17T15:21:41Z</time>
      </trkpt>
      <trkpt lat="45.49199" lon="6.17239">
        <ele>702.861084</ele>
        <time>2012-03-17T15:21:47Z</time>
      </trkpt>
      <trkpt lat="45.49211" lon="6.17242">
        <ele>703.3417969</ele>
        <time>2012-03-17T15:21:52Z</time>
      </trkpt>
      <trkpt lat="45.49226" lon="6.17248">
        <ele>702.3803711</ele>
        <time>2012-03-17T15:21:58Z</time>
      </trkpt>
      <trkpt lat="45.49235" lon="6.17255">
        <ele>700.4580078</ele>
        <time>2012-03-17T15:22:02Z</time>
      </trkpt>
      <trkpt lat="45.49244" lon="6.17262">
        <ele>698.0544434</ele>
        <time>2012-03-17T15:22:06Z</time>
      </trkpt>
      <trkpt lat="45.49247" lon="6.17262">
        <ele>697.0930176</ele>
        <time>2012-03-17T15:22:07Z</time>
      </trkpt>
      <trkpt lat="45.49249" lon="6.17251">
        <ele>697.5737305</ele>
        <time>2012-03-17T15:22:12Z</time>
      </trkpt>
      <trkpt lat="45.49236" lon="6.17242">
        <ele>698.0544434</ele>
        <time>2012-03-17T15:22:18Z</time>
      </trkpt>
      <trkpt lat="45.49224" lon="6.17233">
        <ele>700.4580078</ele>
        <time>2012-03-17T15:22:23Z</time>
      </trkpt>
      <trkpt lat="45.49212" lon="6.17225">
        <ele>699.015625</ele>
        <time>2012-03-17T15:22:28Z</time>
      </trkpt>
      <trkpt lat="45.49196" lon="6.17217">
        <ele>697.5737305</ele>
        <time>2012-03-17T15:22:34Z</time>
      </trkpt>
      <trkpt lat="45.49179" lon="6.17208">
        <ele>698.0544434</ele>
        <time>2012-03-17T15:22:40Z</time>
      </trkpt>
      <trkpt lat="45.49165" lon="6.172">
        <ele>696.1318359</ele>
        <time>2012-03-17T15:22:45Z</time>
      </trkpt>
      <trkpt lat="45.4915" lon="6.1719">
        <ele>694.6896973</ele>
        <time>2012-03-17T15:22:51Z</time>
      </trkpt>
      <trkpt lat="45.49135" lon="6.17179">
        <ele>692.767334</ele>
        <time>2012-03-17T15:22:57Z</time>
      </trkpt>
      <trkpt lat="45.49124" lon="6.1717">
        <ele>691.3251953</ele>
        <time>2012-03-17T15:23:02Z</time>
      </trkpt>
      <trkpt lat="45.49112" lon="6.17161">
        <ele>688.4414063</ele>
        <time>2012-03-17T15:23:07Z</time>
      </trkpt>
      <trkpt lat="45.49096" lon="6.17151">
        <ele>687.9606934</ele>
        <time>2012-03-17T15:23:13Z</time>
      </trkpt>
      <trkpt lat="45.49083" lon="6.17142">
        <ele>685.557373</ele>
        <time>2012-03-17T15:23:18Z</time>
      </trkpt>
      <trkpt lat="45.49072" lon="6.17136">
        <ele>684.5961914</ele>
        <time>2012-03-17T15:23:22Z</time>
      </trkpt>
      <trkpt lat="45.49059" lon="6.17128">
        <ele>682.6733398</ele>
        <time>2012-03-17T15:23:27Z</time>
      </trkpt>
      <trkpt lat="45.49045" lon="6.17121">
        <ele>681.2314453</ele>
        <time>2012-03-17T15:23:32Z</time>
      </trkpt>
      <trkpt lat="45.49032" lon="6.17114">
        <ele>676.9055176</ele>
        <time>2012-03-17T15:23:37Z</time>
      </trkpt>
      <trkpt lat="45.49016" lon="6.17107">
        <ele>674.5021973</ele>
        <time>2012-03-17T15:23:43Z</time>
      </trkpt>
      <trkpt lat="45.49" lon="6.17096">
        <ele>674.0214844</ele>
        <time>2012-03-17T15:23:49Z</time>
      </trkpt>
      <trkpt lat="45.48987" lon="6.1709">
        <ele>670.6569824</ele>
        <time>2012-03-17T15:23:54Z</time>
      </trkpt>
      <trkpt lat="45.48973" lon="6.17087">
        <ele>671.1376953</ele>
        <time>2012-03-17T15:23:59Z</time>
      </trkpt>
      <trkpt lat="45.48962" lon="6.17082">
        <ele>670.1762695</ele>
        <time>2012-03-17T15:24:03Z</time>
      </trkpt>
      <trkpt lat="45.48961" lon="6.17071">
        <ele>664.4082031</ele>
        <time>2012-03-17T15:24:07Z</time>
      </trkpt>
      <trkpt lat="45.48967" lon="6.17067">
        <ele>662.4855957</ele>
        <time>2012-03-17T15:24:09Z</time>
      </trkpt>
      <trkpt lat="45.48987" lon="6.17057">
        <ele>659.1210938</ele>
        <time>2012-03-17T15:24:16Z</time>
      </trkpt>
      <trkpt lat="45.48999" lon="6.17048">
        <ele>657.6791992</ele>
        <time>2012-03-17T15:24:21Z</time>
      </trkpt>
      <trkpt lat="45.49013" lon="6.1704">
        <ele>657.1984863</ele>
        <time>2012-03-17T15:24:26Z</time>
      </trkpt>
      <trkpt lat="45.49028" lon="6.1703">
        <ele>657.6791992</ele>
        <time>2012-03-17T15:24:32Z</time>
      </trkpt>
      <trkpt lat="45.4903" lon="6.17027">
        <ele>657.6791992</ele>
        <time>2012-03-17T15:24:33Z</time>
      </trkpt>
      <trkpt lat="45.49031" lon="6.17022">
        <ele>657.1984863</ele>
        <time>2012-03-17T15:24:35Z</time>
      </trkpt>
      <trkpt lat="45.49029" lon="6.17012">
        <ele>656.2370605</ele>
        <time>2012-03-17T15:24:41Z</time>
      </trkpt>
      <trkpt lat="45.49021" lon="6.17007">
        <ele>654.795166</ele>
        <time>2012-03-17T15:24:48Z</time>
      </trkpt>
      <trkpt lat="45.49014" lon="6.17006">
        <ele>653.3532715</ele>
        <time>2012-03-17T15:24:54Z</time>
      </trkpt>
      <trkpt lat="45.4901" lon="6.17006">
        <ele>652.8725586</ele>
        <time>2012-03-17T15:24:59Z</time>
      </trkpt>
      <trkpt lat="45.49" lon="6.17006">
        <ele>649.9885254</ele>
        <time>2012-03-17T15:25:06Z</time>
      </trkpt>
      <trkpt lat="45.48995" lon="6.17007">
        <ele>649.0270996</ele>
        <time>2012-03-17T15:25:10Z</time>
      </trkpt>
      <trkpt lat="45.48983" lon="6.17005">
        <ele>646.1433105</ele>
        <time>2012-03-17T15:25:17Z</time>
      </trkpt>
      <trkpt lat="45.48972" lon="6.17007">
        <ele>648.065918</ele>
        <time>2012-03-17T15:25:23Z</time>
      </trkpt>
      <trkpt lat="45.48964" lon="6.1701">
        <ele>653.3532715</ele>
        <time>2012-03-17T15:25:29Z</time>
      </trkpt>
      <trkpt lat="45.48952" lon="6.17013">
        <ele>645.1818848</ele>
        <time>2012-03-17T15:25:37Z</time>
      </trkpt>
      <trkpt lat="45.4895" lon="6.17013">
        <ele>644.7011719</ele>
        <time>2012-03-17T15:25:38Z</time>
      </trkpt>
      <trkpt lat="45.48944" lon="6.1702">
        <ele>643.7399902</ele>
        <time>2012-03-17T15:25:43Z</time>
      </trkpt>
      <trkpt lat="45.48938" lon="6.17028">
        <ele>650.949707</ele>
        <time>2012-03-17T15:25:48Z</time>
      </trkpt>
      <trkpt lat="45.48931" lon="6.1704">
        <ele>659.6018066</ele>
        <time>2012-03-17T15:25:56Z</time>
      </trkpt>
      <trkpt lat="45.48926" lon="6.17042">
        <ele>657.6791992</ele>
        <time>2012-03-17T15:25:59Z</time>
      </trkpt>
      <trkpt lat="45.48917" lon="6.17037">
        <ele>656.2370605</ele>
        <time>2012-03-17T15:26:06Z</time>
      </trkpt>
      <trkpt lat="45.48916" lon="6.17029">
        <ele>650.949707</ele>
        <time>2012-03-17T15:26:10Z</time>
      </trkpt>
      <trkpt lat="45.48914" lon="6.17019">
        <ele>647.1044922</ele>
        <time>2012-03-17T15:26:14Z</time>
      </trkpt>
      <trkpt lat="45.48913" lon="6.17007">
        <ele>644.7011719</ele>
        <time>2012-03-17T15:26:17Z</time>
      </trkpt>
      <trkpt lat="45.48911" lon="6.16992">
        <ele>643.2592773</ele>
        <time>2012-03-17T15:26:21Z</time>
      </trkpt>
      <trkpt lat="45.4891" lon="6.16989">
        <ele>642.7788086</ele>
        <time>2012-03-17T15:26:22Z</time>
      </trkpt>
      <trkpt lat="45.48903" lon="6.16964">
        <ele>640.3754883</ele>
        <time>2012-03-17T15:26:29Z</time>
      </trkpt>
      <trkpt lat="45.48897" lon="6.16947">
        <ele>637.0107422</ele>
        <time>2012-03-17T15:26:34Z</time>
      </trkpt>
      <trkpt lat="45.48889" lon="6.1693">
        <ele>635.0881348</ele>
        <time>2012-03-17T15:26:39Z</time>
      </trkpt>
      <trkpt lat="45.48878" lon="6.16911">
        <ele>631.7233887</ele>
        <time>2012-03-17T15:26:45Z</time>
      </trkpt>
      <trkpt lat="45.48865" lon="6.16892">
        <ele>630.2814941</ele>
        <time>2012-03-17T15:26:51Z</time>
      </trkpt>
      <trkpt lat="45.48845" lon="6.16869">
        <ele>629.3200684</ele>
        <time>2012-03-17T15:27:00Z</time>
      </trkpt>
      <trkpt lat="45.48834" lon="6.16857">
        <ele>629.8007813</ele>
        <time>2012-03-17T15:27:05Z</time>
      </trkpt>
      <trkpt lat="45.48822" lon="6.16846">
        <ele>628.8395996</ele>
        <time>2012-03-17T15:27:10Z</time>
      </trkpt>
      <trkpt lat="45.4881" lon="6.16835">
        <ele>626.9169922</ele>
        <time>2012-03-17T15:27:15Z</time>
      </trkpt>
      <trkpt lat="45.48792" lon="6.16815">
        <ele>628.3588867</ele>
        <time>2012-03-17T15:27:23Z</time>
      </trkpt>
      <trkpt lat="45.48781" lon="6.16803">
        <ele>629.3200684</ele>
        <time>2012-03-17T15:27:28Z</time>
      </trkpt>
      <trkpt lat="45.48772" lon="6.16794">
        <ele>629.8007813</ele>
        <time>2012-03-17T15:27:32Z</time>
      </trkpt>
      <trkpt lat="45.48758" lon="6.1678">
        <ele>631.2429199</ele>
        <time>2012-03-17T15:27:38Z</time>
      </trkpt>
      <trkpt lat="45.48744" lon="6.16766">
        <ele>635.5686035</ele>
        <time>2012-03-17T15:27:45Z</time>
      </trkpt>
      <trkpt lat="45.4874" lon="6.16748">
        <ele>633.6459961</ele>
        <time>2012-03-17T15:27:50Z</time>
      </trkpt>
      <trkpt lat="45.48732" lon="6.1673">
        <ele>631.7233887</ele>
        <time>2012-03-17T15:27:56Z</time>
      </trkpt>
      <trkpt lat="45.48718" lon="6.16721">
        <ele>631.2429199</ele>
        <time>2012-03-17T15:28:02Z</time>
      </trkpt>
      <trkpt lat="45.48703" lon="6.16713">
        <ele>626.9169922</ele>
        <time>2012-03-17T15:28:08Z</time>
      </trkpt>
      <trkpt lat="45.4869" lon="6.16702">
        <ele>624.032959</ele>
        <time>2012-03-17T15:28:14Z</time>
      </trkpt>
      <trkpt lat="45.48678" lon="6.16686">
        <ele>622.5910645</ele>
        <time>2012-03-17T15:28:20Z</time>
      </trkpt>
      <trkpt lat="45.48669" lon="6.16674">
        <ele>619.7070313</ele>
        <time>2012-03-17T15:28:25Z</time>
      </trkpt>
      <trkpt lat="45.48658" lon="6.16657">
        <ele>616.822998</ele>
        <time>2012-03-17T15:28:31Z</time>
      </trkpt>
      <trkpt lat="45.48654" lon="6.1665">
        <ele>614.9003906</ele>
        <time>2012-03-17T15:28:36Z</time>
      </trkpt>
      <trkpt lat="45.48648" lon="6.16641">
        <ele>613.4584961</ele>
        <time>2012-03-17T15:28:42Z</time>
      </trkpt>
      <trkpt lat="45.48647" lon="6.16638">
        <ele>613.4584961</ele>
        <time>2012-03-17T15:28:49Z</time>
      </trkpt>
      <trkpt lat="45.48647" lon="6.16634">
        <ele>610.09375</ele>
        <time>2012-03-17T15:28:59Z</time>
      </trkpt>
      <trkpt lat="45.48648" lon="6.16628">
        <ele>608.1713867</ele>
        <time>2012-03-17T15:29:03Z</time>
      </trkpt>
      <trkpt lat="45.48651" lon="6.1662">
        <ele>605.2873535</ele>
        <time>2012-03-17T15:29:07Z</time>
      </trkpt>
      <trkpt lat="45.48654" lon="6.16603">
        <ele>602.4030762</ele>
        <time>2012-03-17T15:29:14Z</time>
      </trkpt>
      <trkpt lat="45.48654" lon="6.16599">
        <ele>600.4807129</ele>
        <time>2012-03-17T15:29:20Z</time>
      </trkpt>
      <trkpt lat="45.48652" lon="6.16593">
        <ele>596.635498</ele>
        <time>2012-03-17T15:29:28Z</time>
      </trkpt>
      <trkpt lat="45.48653" lon="6.16589">
        <ele>594.7126465</ele>
        <time>2012-03-17T15:29:34Z</time>
      </trkpt>
      <trkpt lat="45.48653" lon="6.16584">
        <ele>594.2321777</ele>
        <time>2012-03-17T15:29:40Z</time>
      </trkpt>
      <trkpt lat="45.48652" lon="6.16581">
        <ele>595.1933594</ele>
        <time>2012-03-17T15:29:42Z</time>
      </trkpt>
      <trkpt lat="45.48651" lon="6.16573">
        <ele>591.8288574</ele>
        <time>2012-03-17T15:29:48Z</time>
      </trkpt>
      <trkpt lat="45.4865" lon="6.16566">
        <ele>590.8674316</ele>
        <time>2012-03-17T15:29:52Z</time>
      </trkpt>
      <trkpt lat="45.48651" lon="6.16559">
        <ele>589.90625</ele>
        <time>2012-03-17T15:29:56Z</time>
      </trkpt>
      <trkpt lat="45.48653" lon="6.16554">
        <ele>590.3869629</ele>
        <time>2012-03-17T15:30:01Z</time>
      </trkpt>
      <trkpt lat="45.48653" lon="6.16552">
        <ele>590.8674316</ele>
        <time>2012-03-17T15:30:03Z</time>
      </trkpt>
      <trkpt lat="45.48655" lon="6.16546">
        <ele>589.4255371</ele>
        <time>2012-03-17T15:30:10Z</time>
      </trkpt>
      <trkpt lat="45.48657" lon="6.16541">
        <ele>588.4643555</ele>
        <time>2012-03-17T15:30:15Z</time>
      </trkpt>
      <trkpt lat="45.48656" lon="6.1654">
        <ele>587.5026855</ele>
        <time>2012-03-17T15:30:16Z</time>
      </trkpt>
      <trkpt lat="45.48651" lon="6.16532">
        <ele>583.1767578</ele>
        <time>2012-03-17T15:30:22Z</time>
      </trkpt>
      <trkpt lat="45.48649" lon="6.16528">
        <ele>583.1767578</ele>
        <time>2012-03-17T15:30:29Z</time>
      </trkpt>
      <trkpt lat="45.48646" lon="6.16514">
        <ele>585.0996094</ele>
        <time>2012-03-17T15:30:37Z</time>
      </trkpt>
      <trkpt lat="45.48644" lon="6.1651">
        <ele>585.5800781</ele>
        <time>2012-03-17T15:30:41Z</time>
      </trkpt>
      <trkpt lat="45.4864" lon="6.16497">
        <ele>587.0219727</ele>
        <time>2012-03-17T15:30:47Z</time>
      </trkpt>
      <trkpt lat="45.48641" lon="6.16493">
        <ele>591.3481445</ele>
        <time>2012-03-17T15:30:51Z</time>
      </trkpt>
      <trkpt lat="45.48637" lon="6.16484">
        <ele>589.4255371</ele>
        <time>2012-03-17T15:30:58Z</time>
      </trkpt>
      <trkpt lat="45.48636" lon="6.16479">
        <ele>588.9450684</ele>
        <time>2012-03-17T15:31:01Z</time>
      </trkpt>
      <trkpt lat="45.48636" lon="6.16477">
        <ele>588.9450684</ele>
        <time>2012-03-17T15:31:03Z</time>
      </trkpt>
      <trkpt lat="45.48634" lon="6.16471">
        <ele>583.1767578</ele>
        <time>2012-03-17T15:31:11Z</time>
      </trkpt>
      <trkpt lat="45.48632" lon="6.16463">
        <ele>580.2929688</ele>
        <time>2012-03-17T15:31:32Z</time>
      </trkpt>
      <trkpt lat="45.48638" lon="6.16463">
        <ele>576.4477539</ele>
        <time>2012-03-17T15:31:50Z</time>
      </trkpt>
      <trkpt lat="45.48642" lon="6.16464">
        <ele>575.967041</ele>
        <time>2012-03-17T15:31:55Z</time>
      </trkpt>
      <trkpt lat="45.48643" lon="6.16465">
        <ele>575.4863281</ele>
        <time>2012-03-17T15:31:59Z</time>
      </trkpt>
      <trkpt lat="45.48649" lon="6.16468">
        <ele>574.5251465</ele>
        <time>2012-03-17T15:32:06Z</time>
      </trkpt>
      <trkpt lat="45.48653" lon="6.16467">
        <ele>576.9284668</ele>
        <time>2012-03-17T15:32:16Z</time>
      </trkpt>
      <trkpt lat="45.48645" lon="6.16474">
        <ele>569.237793</ele>
        <time>2012-03-17T15:32:51Z</time>
      </trkpt>
      <trkpt lat="45.48645" lon="6.16468">
        <ele>570.1989746</ele>
        <time>2012-03-17T15:32:54Z</time>
      </trkpt>
      <trkpt lat="45.48646" lon="6.16464">
        <ele>575.967041</ele>
        <time>2012-03-17T15:33:01Z</time>
      </trkpt>
      <trkpt lat="45.48646" lon="6.16464">
        <ele>576.4477539</ele>
        <time>2012-03-17T15:33:02Z</time>
      </trkpt>
      <trkpt lat="45.48648" lon="6.16454">
        <ele>579.331543</ele>
        <time>2012-03-17T15:33:08Z</time>
      </trkpt>
      <trkpt lat="45.48649" lon="6.16454">
        <ele>575.0058594</ele>
        <time>2012-03-17T15:33:26Z</time>
      </trkpt>
      <trkpt lat="45.48654" lon="6.16446">
        <ele>572.1218262</ele>
        <time>2012-03-17T15:33:37Z</time>
      </trkpt>
      <trkpt lat="45.48656" lon="6.16444">
        <ele>572.1218262</ele>
        <time>2012-03-17T15:33:44Z</time>
      </trkpt>
      <trkpt lat="45.48663" lon="6.16439">
        <ele>570.1989746</ele>
        <time>2012-03-17T15:33:55Z</time>
      </trkpt>
      <trkpt lat="45.48664" lon="6.16437">
        <ele>570.6796875</ele>
        <time>2012-03-17T15:33:57Z</time>
      </trkpt>
      <trkpt lat="45.48665" lon="6.16434">
        <ele>567.7956543</ele>
        <time>2012-03-17T15:34:02Z</time>
      </trkpt>
      <trkpt lat="45.48664" lon="6.16426">
        <ele>563.9504395</ele>
        <time>2012-03-17T15:34:08Z</time>
      </trkpt>
      <trkpt lat="45.48663" lon="6.16423">
        <ele>563.4699707</ele>
        <time>2012-03-17T15:34:10Z</time>
      </trkpt>
      <trkpt lat="45.48663" lon="6.16419">
        <ele>564.9118652</ele>
        <time>2012-03-17T15:34:12Z</time>
      </trkpt>
      <trkpt lat="45.48663" lon="6.16411">
        <ele>567.3151855</ele>
        <time>2012-03-17T15:34:20Z</time>
      </trkpt>
      <trkpt lat="45.48665" lon="6.16407">
        <ele>568.2763672</ele>
        <time>2012-03-17T15:34:29Z</time>
      </trkpt>
      <trkpt lat="45.48666" lon="6.16409">
        <ele>566.3537598</ele>
        <time>2012-03-17T15:34:39Z</time>
      </trkpt>
      <trkpt lat="45.48664" lon="6.164">
        <ele>564.4311523</ele>
        <time>2012-03-17T15:34:45Z</time>
      </trkpt>
      <trkpt lat="45.48661" lon="6.16394">
        <ele>563.4699707</ele>
        <time>2012-03-17T15:34:50Z</time>
      </trkpt>
      <trkpt lat="45.4866" lon="6.16393">
        <ele>563.4699707</ele>
        <time>2012-03-17T15:34:51Z</time>
      </trkpt>
      <trkpt lat="45.48659" lon="6.16392">
        <ele>562.9892578</ele>
        <time>2012-03-17T15:34:53Z</time>
      </trkpt>
      <trkpt lat="45.48657" lon="6.16392">
        <ele>562.0280762</ele>
        <time>2012-03-17T15:34:55Z</time>
      </trkpt>
      <trkpt lat="45.48653" lon="6.16388">
        <ele>560.1052246</ele>
        <time>2012-03-17T15:35:00Z</time>
      </trkpt>
      <trkpt lat="45.48648" lon="6.16375">
        <ele>556.7407227</ele>
        <time>2012-03-17T15:35:06Z</time>
      </trkpt>
      <trkpt lat="45.48643" lon="6.16369">
        <ele>549.5307617</ele>
        <time>2012-03-17T15:35:10Z</time>
      </trkpt>
      <trkpt lat="45.48638" lon="6.16358">
        <ele>548.0888672</ele>
        <time>2012-03-17T15:35:15Z</time>
      </trkpt>
      <trkpt lat="45.48637" lon="6.16356">
        <ele>547.1274414</ele>
        <time>2012-03-17T15:35:16Z</time>
      </trkpt>
      <trkpt lat="45.48629" lon="6.16346">
        <ele>548.0888672</ele>
        <time>2012-03-17T15:35:21Z</time>
      </trkpt>
      <trkpt lat="45.48626" lon="6.16343">
        <ele>547.6081543</ele>
        <time>2012-03-17T15:35:23Z</time>
      </trkpt>
      <trkpt lat="45.4862" lon="6.16334">
        <ele>547.6081543</ele>
        <time>2012-03-17T15:35:27Z</time>
      </trkpt>
      <trkpt lat="45.4861" lon="6.16322">
        <ele>543.7628174</ele>
        <time>2012-03-17T15:35:32Z</time>
      </trkpt>
      <trkpt lat="45.48597" lon="6.16308">
        <ele>541.3594971</ele>
        <time>2012-03-17T15:35:38Z</time>
      </trkpt>
      <trkpt lat="45.48584" lon="6.16296">
        <ele>537.5142822</ele>
        <time>2012-03-17T15:35:44Z</time>
      </trkpt>
      <trkpt lat="45.48573" lon="6.16287">
        <ele>537.0336914</ele>
        <time>2012-03-17T15:35:49Z</time>
      </trkpt>
      <trkpt lat="45.48563" lon="6.16274">
        <ele>536.0723877</ele>
        <time>2012-03-17T15:35:54Z</time>
      </trkpt>
      <trkpt lat="45.48554" lon="6.16262">
        <ele>534.6303711</ele>
        <time>2012-03-17T15:36:00Z</time>
      </trkpt>
      <trkpt lat="45.48545" lon="6.1625">
        <ele>531.7463379</ele>
        <time>2012-03-17T15:36:05Z</time>
      </trkpt>
      <trkpt lat="45.48536" lon="6.16241">
        <ele>532.2270508</ele>
        <time>2012-03-17T15:36:09Z</time>
      </trkpt>
      <trkpt lat="45.48527" lon="6.16227">
        <ele>528.8625488</ele>
        <time>2012-03-17T15:36:15Z</time>
      </trkpt>
      <trkpt lat="45.48518" lon="6.16219">
        <ele>527.901001</ele>
        <time>2012-03-17T15:36:19Z</time>
      </trkpt>
      <trkpt lat="45.48509" lon="6.16208">
        <ele>529.3431396</ele>
        <time>2012-03-17T15:36:23Z</time>
      </trkpt>
      <trkpt lat="45.48498" lon="6.16191">
        <ele>527.901001</ele>
        <time>2012-03-17T15:36:29Z</time>
      </trkpt>
      <trkpt lat="45.48485" lon="6.16176">
        <ele>527.4204102</ele>
        <time>2012-03-17T15:36:35Z</time>
      </trkpt>
      <trkpt lat="45.48479" lon="6.1617">
        <ele>525.4978027</ele>
        <time>2012-03-17T15:36:38Z</time>
      </trkpt>
      <trkpt lat="45.48476" lon="6.16163">
        <ele>522.6138916</ele>
        <time>2012-03-17T15:36:43Z</time>
      </trkpt>
      <trkpt lat="45.48476" lon="6.16161">
        <ele>523.5751953</ele>
        <time>2012-03-17T15:36:56Z</time>
      </trkpt>
      <trkpt lat="45.48475" lon="6.1616">
        <ele>524.536499</ele>
        <time>2012-03-17T15:36:59Z</time>
      </trkpt>
      <trkpt lat="45.48466" lon="6.16149">
        <ele>523.0946045</ele>
        <time>2012-03-17T15:37:05Z</time>
      </trkpt>
      <trkpt lat="45.48457" lon="6.16139">
        <ele>520.6912842</ele>
        <time>2012-03-17T15:37:10Z</time>
      </trkpt>
      <trkpt lat="45.48446" lon="6.16131">
        <ele>514.9233398</ele>
        <time>2012-03-17T15:37:15Z</time>
      </trkpt>
      <trkpt lat="45.48432" lon="6.16123">
        <ele>513.4814453</ele>
        <time>2012-03-17T15:37:20Z</time>
      </trkpt>
      <trkpt lat="45.48418" lon="6.16112">
        <ele>513.9620361</ele>
        <time>2012-03-17T15:37:25Z</time>
      </trkpt>
      <trkpt lat="45.48408" lon="6.16107">
        <ele>512.0394287</ele>
        <time>2012-03-17T15:37:29Z</time>
      </trkpt>
      <trkpt lat="45.48395" lon="6.16102">
        <ele>510.1166992</ele>
        <time>2012-03-17T15:37:34Z</time>
      </trkpt>
      <trkpt lat="45.48387" lon="6.16096">
        <ele>509.1553955</ele>
        <time>2012-03-17T15:37:39Z</time>
      </trkpt>
      <trkpt lat="45.48381" lon="6.16094">
        <ele>508.1940918</ele>
        <time>2012-03-17T15:37:46Z</time>
      </trkpt>
      <trkpt lat="45.48381" lon="6.16092">
        <ele>507.2327881</ele>
        <time>2012-03-17T15:37:51Z</time>
      </trkpt>
      <trkpt lat="45.48394" lon="6.1608">
        <ele>504.8294678</ele>
        <time>2012-03-17T15:37:58Z</time>
      </trkpt>
      <trkpt lat="45.48405" lon="6.1607">
        <ele>503.3874512</ele>
        <time>2012-03-17T15:38:03Z</time>
      </trkpt>
      <trkpt lat="45.48419" lon="6.16059">
        <ele>500.9841309</ele>
        <time>2012-03-17T15:38:09Z</time>
      </trkpt>
      <trkpt lat="45.48431" lon="6.16051">
        <ele>501.4648438</ele>
        <time>2012-03-17T15:38:14Z</time>
      </trkpt>
      <trkpt lat="45.48445" lon="6.16044">
        <ele>500.9841309</ele>
        <time>2012-03-17T15:38:20Z</time>
      </trkpt>
      <trkpt lat="45.48464" lon="6.16035">
        <ele>499.0615234</ele>
        <time>2012-03-17T15:38:27Z</time>
      </trkpt>
      <trkpt lat="45.4848" lon="6.1603">
        <ele>497.6196289</ele>
        <time>2012-03-17T15:38:33Z</time>
      </trkpt>
      <trkpt lat="45.48493" lon="6.16036">
        <ele>495.2161865</ele>
        <time>2012-03-17T15:38:38Z</time>
      </trkpt>
      <trkpt lat="45.48506" lon="6.16051">
        <ele>493.2935791</ele>
        <time>2012-03-17T15:38:44Z</time>
      </trkpt>
      <trkpt lat="45.48516" lon="6.16062">
        <ele>491.8516846</ele>
        <time>2012-03-17T15:38:49Z</time>
      </trkpt>
      <trkpt lat="45.4852" lon="6.16065">
        <ele>490.8903809</ele>
        <time>2012-03-17T15:38:51Z</time>
      </trkpt>
      <trkpt lat="45.48534" lon="6.16066">
        <ele>487.5256348</ele>
        <time>2012-03-17T15:38:58Z</time>
      </trkpt>
      <trkpt lat="45.48543" lon="6.1606">
        <ele>484.6418457</ele>
        <time>2012-03-17T15:39:03Z</time>
      </trkpt>
      <trkpt lat="45.48547" lon="6.16054">
        <ele>483.1998291</ele>
        <time>2012-03-17T15:39:06Z</time>
      </trkpt>
      <trkpt lat="45.48556" lon="6.16045">
        <ele>482.7192383</ele>
        <time>2012-03-17T15:39:11Z</time>
      </trkpt>
      <trkpt lat="45.48566" lon="6.16036">
        <ele>481.2772217</ele>
        <time>2012-03-17T15:39:16Z</time>
      </trkpt>
      <trkpt lat="45.48578" lon="6.16028">
        <ele>479.3544922</ele>
        <time>2012-03-17T15:39:21Z</time>
      </trkpt>
      <trkpt lat="45.48593" lon="6.1602">
        <ele>476.4705811</ele>
        <time>2012-03-17T15:39:27Z</time>
      </trkpt>
      <trkpt lat="45.48605" lon="6.16017">
        <ele>472.6253662</ele>
        <time>2012-03-17T15:39:32Z</time>
      </trkpt>
      <trkpt lat="45.48615" lon="6.16018">
        <ele>471.1833496</ele>
        <time>2012-03-17T15:39:37Z</time>
      </trkpt>
      <trkpt lat="45.48616" lon="6.16017">
        <ele>471.1833496</ele>
        <time>2012-03-17T15:39:38Z</time>
      </trkpt>
      <trkpt lat="45.48622" lon="6.16016">
        <ele>466.8574219</ele>
        <time>2012-03-17T15:39:44Z</time>
      </trkpt>
      <trkpt lat="45.48625" lon="6.16016">
        <ele>463.9733887</ele>
        <time>2012-03-17T15:39:47Z</time>
      </trkpt>
      <trkpt lat="45.48636" lon="6.16015">
        <ele>458.6861572</ele>
        <time>2012-03-17T15:39:54Z</time>
      </trkpt>
      <trkpt lat="45.48646" lon="6.16011">
        <ele>455.8022461</ele>
        <time>2012-03-17T15:40:00Z</time>
      </trkpt>
      <trkpt lat="45.48659" lon="6.16012">
        <ele>454.3602295</ele>
        <time>2012-03-17T15:40:05Z</time>
      </trkpt>
      <trkpt lat="45.48674" lon="6.16011">
        <ele>450.9956055</ele>
        <time>2012-03-17T15:40:11Z</time>
      </trkpt>
      <trkpt lat="45.48677" lon="6.16011">
        <ele>449.5537109</ele>
        <time>2012-03-17T15:40:15Z</time>
      </trkpt>
      <trkpt lat="45.48678" lon="6.16012">
        <ele>446.1890869</ele>
        <time>2012-03-17T15:40:18Z</time>
      </trkpt>
      <trkpt lat="45.48687" lon="6.16024">
        <ele>446.1890869</ele>
        <time>2012-03-17T15:40:24Z</time>
      </trkpt>
      <trkpt lat="45.48694" lon="6.16037">
        <ele>445.708374</ele>
        <time>2012-03-17T15:40:29Z</time>
      </trkpt>
      <trkpt lat="45.487" lon="6.16044">
        <ele>444.7470703</ele>
        <time>2012-03-17T15:40:33Z</time>
      </trkpt>
      <trkpt lat="45.48704" lon="6.16045">
        <ele>444.7470703</ele>
        <time>2012-03-17T15:40:35Z</time>
      </trkpt>
      <trkpt lat="45.48721" lon="6.16045">
        <ele>441.3824463</ele>
        <time>2012-03-17T15:40:42Z</time>
      </trkpt>
      <trkpt lat="45.48733" lon="6.16044">
        <ele>438.979126</ele>
        <time>2012-03-17T15:40:47Z</time>
      </trkpt>
      <trkpt lat="45.48742" lon="6.16049">
        <ele>438.4985352</ele>
        <time>2012-03-17T15:40:51Z</time>
      </trkpt>
      <trkpt lat="45.48751" lon="6.16052">
        <ele>437.5371094</ele>
        <time>2012-03-17T15:40:56Z</time>
      </trkpt>
      <trkpt lat="45.48752" lon="6.16053">
        <ele>438.0178223</ele>
        <time>2012-03-17T15:40:57Z</time>
      </trkpt>
      <trkpt lat="45.48754" lon="6.16053">
        <ele>437.5371094</ele>
        <time>2012-03-17T15:41:00Z</time>
      </trkpt>
      <trkpt lat="45.4876" lon="6.16058">
        <ele>435.1339111</ele>
        <time>2012-03-17T15:41:06Z</time>
      </trkpt>
      <trkpt lat="45.48766" lon="6.16056">
        <ele>434.6533203</ele>
        <time>2012-03-17T15:41:11Z</time>
      </trkpt>
      <trkpt lat="45.48769" lon="6.16052">
        <ele>433.6918945</ele>
        <time>2012-03-17T15:41:15Z</time>
      </trkpt>
      <trkpt lat="45.48768" lon="6.16039">
        <ele>431.2885742</ele>
        <time>2012-03-17T15:41:22Z</time>
      </trkpt>
      <trkpt lat="45.48764" lon="6.16028">
        <ele>429.3659668</ele>
        <time>2012-03-17T15:41:27Z</time>
      </trkpt>
      <trkpt lat="45.48757" lon="6.16012">
        <ele>429.8465576</ele>
        <time>2012-03-17T15:41:33Z</time>
      </trkpt>
      <trkpt lat="45.48756" lon="6.15999">
        <ele>429.8465576</ele>
        <time>2012-03-17T15:41:38Z</time>
      </trkpt>
      <trkpt lat="45.48757" lon="6.15996">
        <ele>429.3659668</ele>
        <time>2012-03-17T15:41:39Z</time>
      </trkpt>
      <trkpt lat="45.48768" lon="6.15982">
        <ele>430.8079834</ele>
        <time>2012-03-17T15:41:46Z</time>
      </trkpt>
      <trkpt lat="45.48775" lon="6.15977">
        <ele>429.3659668</ele>
        <time>2012-03-17T15:41:50Z</time>
      </trkpt>
      <trkpt lat="45.4878" lon="6.15974">
        <ele>428.4046631</ele>
        <time>2012-03-17T15:41:54Z</time>
      </trkpt>
      <trkpt lat="45.48783" lon="6.15974">
        <ele>427.9239502</ele>
        <time>2012-03-17T15:41:56Z</time>
      </trkpt>
      <trkpt lat="45.48787" lon="6.15979">
        <ele>426.4820557</ele>
        <time>2012-03-17T15:42:02Z</time>
      </trkpt>
      <trkpt lat="45.4879" lon="6.15984">
        <ele>425.520752</ele>
        <time>2012-03-17T15:42:07Z</time>
      </trkpt>
      <trkpt lat="45.48794" lon="6.1599">
        <ele>424.5594482</ele>
        <time>2012-03-17T15:42:12Z</time>
      </trkpt>
      <trkpt lat="45.488" lon="6.15994">
        <ele>424.0787354</ele>
        <time>2012-03-17T15:42:16Z</time>
      </trkpt>
      <trkpt lat="45.48802" lon="6.15994">
        <ele>424.0787354</ele>
        <time>2012-03-17T15:42:18Z</time>
      </trkpt>
      <trkpt lat="45.48807" lon="6.15994">
        <ele>423.5980225</ele>
        <time>2012-03-17T15:42:22Z</time>
      </trkpt>
      <trkpt lat="45.48815" lon="6.1599">
        <ele>421.675415</ele>
        <time>2012-03-17T15:42:29Z</time>
      </trkpt>
      <trkpt lat="45.48823" lon="6.1599">
        <ele>422.1560059</ele>
        <time>2012-03-17T15:42:34Z</time>
      </trkpt>
      <trkpt lat="45.48827" lon="6.1599">
        <ele>421.675415</ele>
        <time>2012-03-17T15:42:37Z</time>
      </trkpt>
      <trkpt lat="45.48837" lon="6.1599">
        <ele>417.8302002</ele>
        <time>2012-03-17T15:42:43Z</time>
      </trkpt>
      <trkpt lat="45.48843" lon="6.15987">
        <ele>417.3496094</ele>
        <time>2012-03-17T15:42:48Z</time>
      </trkpt>
      <trkpt lat="45.4885" lon="6.15986">
        <ele>419.2722168</ele>
        <time>2012-03-17T15:42:52Z</time>
      </trkpt>
      <trkpt lat="45.48862" lon="6.15986">
        <ele>421.1948242</ele>
        <time>2012-03-17T15:43:01Z</time>
      </trkpt>
      <trkpt lat="45.48867" lon="6.15989">
        <ele>420.7141113</ele>
        <time>2012-03-17T15:43:04Z</time>
      </trkpt>
      <trkpt lat="45.48869" lon="6.15994">
        <ele>419.2722168</ele>
        <time>2012-03-17T15:43:07Z</time>
      </trkpt>
      <trkpt lat="45.48875" lon="6.16003">
        <ele>415.9074707</ele>
        <time>2012-03-17T15:43:13Z</time>
      </trkpt>
      <trkpt lat="45.48876" lon="6.16007">
        <ele>414.946167</ele>
        <time>2012-03-17T15:43:15Z</time>
      </trkpt>
      <trkpt lat="45.48886" lon="6.16016">
        <ele>413.0235596</ele>
        <time>2012-03-17T15:43:22Z</time>
      </trkpt>
      <trkpt lat="45.48889" lon="6.1602">
        <ele>412.5428467</ele>
        <time>2012-03-17T15:43:25Z</time>
      </trkpt>
      <trkpt lat="45.48892" lon="6.16025">
        <ele>413.0235596</ele>
        <time>2012-03-17T15:43:29Z</time>
      </trkpt>
      <trkpt lat="45.489" lon="6.16034">
        <ele>412.0622559</ele>
        <time>2012-03-17T15:43:36Z</time>
      </trkpt>
      <trkpt lat="45.48907" lon="6.16042">
        <ele>411.1009521</ele>
        <time>2012-03-17T15:43:42Z</time>
      </trkpt>
      <trkpt lat="45.48917" lon="6.16056">
        <ele>409.1783447</ele>
        <time>2012-03-17T15:43:49Z</time>
      </trkpt>
      <trkpt lat="45.48924" lon="6.16069">
        <ele>407.2556152</ele>
        <time>2012-03-17T15:43:54Z</time>
      </trkpt>
      <trkpt lat="45.48932" lon="6.1608">
        <ele>407.2556152</ele>
        <time>2012-03-17T15:43:58Z</time>
      </trkpt>
      <trkpt lat="45.48934" lon="6.1609">
        <ele>406.7749023</ele>
        <time>2012-03-17T15:44:01Z</time>
      </trkpt>
      <trkpt lat="45.48944" lon="6.16105">
        <ele>402.4490967</ele>
        <time>2012-03-17T15:44:08Z</time>
      </trkpt>
      <trkpt lat="45.48955" lon="6.16123">
        <ele>397.6424561</ele>
        <time>2012-03-17T15:44:15Z</time>
      </trkpt>
      <trkpt lat="45.48962" lon="6.16134">
        <ele>395.7198486</ele>
        <time>2012-03-17T15:44:19Z</time>
      </trkpt>
      <trkpt lat="45.48975" lon="6.1615">
        <ele>395.7198486</ele>
        <time>2012-03-17T15:44:25Z</time>
      </trkpt>
      <trkpt lat="45.48986" lon="6.16167">
        <ele>396.2005615</ele>
        <time>2012-03-17T15:44:30Z</time>
      </trkpt>
      <trkpt lat="45.48988" lon="6.16171">
        <ele>396.2005615</ele>
        <time>2012-03-17T15:44:31Z</time>
      </trkpt>
      <trkpt lat="45.48998" lon="6.16181">
        <ele>398.6037598</ele>
        <time>2012-03-17T15:44:36Z</time>
      </trkpt>
      <trkpt lat="45.49006" lon="6.16193">
        <ele>398.1231689</ele>
        <time>2012-03-17T15:44:41Z</time>
      </trkpt>
      <trkpt lat="45.49012" lon="6.16203">
        <ele>398.1231689</ele>
        <time>2012-03-17T15:44:46Z</time>
      </trkpt>
      <trkpt lat="45.49024" lon="6.16213">
        <ele>397.1617432</ele>
        <time>2012-03-17T15:44:53Z</time>
      </trkpt>
      <trkpt lat="45.49031" lon="6.16224">
        <ele>392.3553467</ele>
        <time>2012-03-17T15:44:58Z</time>
      </trkpt>
      <trkpt lat="45.49034" lon="6.16236">
        <ele>390.4326172</ele>
        <time>2012-03-17T15:45:03Z</time>
      </trkpt>
      <trkpt lat="45.49037" lon="6.16236">
        <ele>390.4326172</ele>
        <time>2012-03-17T15:45:05Z</time>
      </trkpt>
      <trkpt lat="45.49041" lon="6.16232">
        <ele>385.6259766</ele>
        <time>2012-03-17T15:45:09Z</time>
      </trkpt>
      <trkpt lat="45.49042" lon="6.16224">
        <ele>382.2613525</ele>
        <time>2012-03-17T15:45:13Z</time>
      </trkpt>
      <trkpt lat="45.49042" lon="6.16221">
        <ele>381.3000488</ele>
        <time>2012-03-17T15:45:15Z</time>
      </trkpt>
      <trkpt lat="45.49044" lon="6.1621">
        <ele>379.8580322</ele>
        <time>2012-03-17T15:45:20Z</time>
      </trkpt>
      <trkpt lat="45.49042" lon="6.16194">
        <ele>375.5321045</ele>
        <time>2012-03-17T15:45:26Z</time>
      </trkpt>
      <trkpt lat="45.49039" lon="6.16185">
        <ele>378.8968506</ele>
        <time>2012-03-17T15:45:31Z</time>
      </trkpt>
      <trkpt lat="45.4904" lon="6.16182">
        <ele>383.2226563</ele>
        <time>2012-03-17T15:45:39Z</time>
      </trkpt>
      <trkpt lat="45.49036" lon="6.16166">
        <ele>377.9354248</ele>
        <time>2012-03-17T15:45:45Z</time>
      </trkpt>
      <trkpt lat="45.49031" lon="6.16139">
        <ele>378.4161377</ele>
        <time>2012-03-17T15:45:53Z</time>
      </trkpt>
      <trkpt lat="45.49026" lon="6.16122">
        <ele>381.3000488</ele>
        <time>2012-03-17T15:45:58Z</time>
      </trkpt>
      <trkpt lat="45.49025" lon="6.16116">
        <ele>379.3774414</ele>
        <time>2012-03-17T15:46:00Z</time>
      </trkpt>
      <trkpt lat="45.49023" lon="6.16102">
        <ele>376.0128174</ele>
        <time>2012-03-17T15:46:05Z</time>
      </trkpt>
      <trkpt lat="45.49021" lon="6.16096">
        <ele>375.0515137</ele>
        <time>2012-03-17T15:46:07Z</time>
      </trkpt>
      <trkpt lat="45.49018" lon="6.1608">
        <ele>374.5708008</ele>
        <time>2012-03-17T15:46:13Z</time>
      </trkpt>
      <trkpt lat="45.49019" lon="6.16078">
        <ele>373.6094971</ele>
        <time>2012-03-17T15:46:15Z</time>
      </trkpt>
      <trkpt lat="45.49029" lon="6.16089">
        <ele>366.880249</ele>
        <time>2012-03-17T15:46:22Z</time>
      </trkpt>
      <trkpt lat="45.49039" lon="6.16094">
        <ele>361.5931396</ele>
        <time>2012-03-17T15:46:27Z</time>
      </trkpt>
      <trkpt lat="45.49047" lon="6.161">
        <ele>359.1896973</ele>
        <time>2012-03-17T15:46:31Z</time>
      </trkpt>
      <trkpt lat="45.49056" lon="6.16105">
        <ele>355.8251953</ele>
        <time>2012-03-17T15:46:35Z</time>
      </trkpt>
      <trkpt lat="45.49066" lon="6.16108">
        <ele>353.9025879</ele>
        <time>2012-03-17T15:46:40Z</time>
      </trkpt>
      <trkpt lat="45.49071" lon="6.16107">
        <ele>352.9411621</ele>
        <time>2012-03-17T15:46:44Z</time>
      </trkpt>
      <trkpt lat="45.49073" lon="6.16108">
        <ele>353.421875</ele>
        <time>2012-03-17T15:46:53Z</time>
      </trkpt>
      <trkpt lat="45.49075" lon="6.1611">
        <ele>351.9798584</ele>
        <time>2012-03-17T15:46:56Z</time>
      </trkpt>
      <trkpt lat="45.49087" lon="6.16112">
        <ele>352.4605713</ele>
        <time>2012-03-17T15:47:02Z</time>
      </trkpt>
      <trkpt lat="45.49093" lon="6.16114">
        <ele>351.9798584</ele>
        <time>2012-03-17T15:47:06Z</time>
      </trkpt>
      <trkpt lat="45.49096" lon="6.16116">
        <ele>351.0184326</ele>
        <time>2012-03-17T15:47:09Z</time>
      </trkpt>
      <trkpt lat="45.49103" lon="6.16116">
        <ele>350.057251</ele>
        <time>2012-03-17T15:47:13Z</time>
      </trkpt>
      <trkpt lat="45.4911" lon="6.16107">
        <ele>349.0958252</ele>
        <time>2012-03-17T15:47:18Z</time>
      </trkpt>
      <trkpt lat="45.49114" lon="6.16098">
        <ele>351.0184326</ele>
        <time>2012-03-17T15:47:21Z</time>
      </trkpt>
      <trkpt lat="45.49124" lon="6.16087">
        <ele>351.9798584</ele>
        <time>2012-03-17T15:47:28Z</time>
      </trkpt>
      <trkpt lat="45.49134" lon="6.16083">
        <ele>351.0184326</ele>
        <time>2012-03-17T15:47:34Z</time>
      </trkpt>
      <trkpt lat="45.49135" lon="6.16083">
        <ele>350.057251</ele>
        <time>2012-03-17T15:47:35Z</time>
      </trkpt>
      <trkpt lat="45.49143" lon="6.16081">
        <ele>345.2506104</ele>
        <time>2012-03-17T15:47:41Z</time>
      </trkpt>
      <trkpt lat="45.49148" lon="6.16078">
        <ele>341.4052734</ele>
        <time>2012-03-17T15:47:47Z</time>
      </trkpt>
      <trkpt lat="45.49148" lon="6.16077">
        <ele>341.4052734</ele>
        <time>2012-03-17T15:47:48Z</time>
      </trkpt>
      <trkpt lat="45.49153" lon="6.16072">
        <ele>339.9633789</ele>
        <time>2012-03-17T15:47:56Z</time>
      </trkpt>
      <trkpt lat="45.49159" lon="6.16068">
        <ele>336.598877</ele>
        <time>2012-03-17T15:48:00Z</time>
      </trkpt>
      <trkpt lat="45.49164" lon="6.16069">
        <ele>334.6761475</ele>
        <time>2012-03-17T15:48:03Z</time>
      </trkpt>
      <trkpt lat="45.49169" lon="6.16067">
        <ele>332.2728271</ele>
        <time>2012-03-17T15:48:09Z</time>
      </trkpt>
      <trkpt lat="45.49177" lon="6.16057">
        <ele>330.8309326</ele>
        <time>2012-03-17T15:48:15Z</time>
      </trkpt>
      <trkpt lat="45.49186" lon="6.16055">
        <ele>335.1567383</ele>
        <time>2012-03-17T15:48:19Z</time>
      </trkpt>
      <trkpt lat="45.49191" lon="6.16057">
        <ele>334.1954346</ele>
        <time>2012-03-17T15:48:24Z</time>
      </trkpt>
      <trkpt lat="45.49191" lon="6.16058">
        <ele>334.6761475</ele>
        <time>2012-03-17T15:48:30Z</time>
      </trkpt>
      <trkpt lat="45.49191" lon="6.16057">
        <ele>334.6761475</ele>
        <time>2012-03-17T15:48:32Z</time>
      </trkpt>
      <trkpt lat="45.49205" lon="6.16057">
        <ele>338.5214844</ele>
        <time>2012-03-17T15:48:39Z</time>
      </trkpt>
      <trkpt lat="45.49212" lon="6.16059">
        <ele>335.6373291</ele>
        <time>2012-03-17T15:48:45Z</time>
      </trkpt>
      <trkpt lat="45.49222" lon="6.16068">
        <ele>331.3115234</ele>
        <time>2012-03-17T15:48:52Z</time>
      </trkpt>
      <trkpt lat="45.49224" lon="6.1607">
        <ele>331.3115234</ele>
        <time>2012-03-17T15:48:54Z</time>
      </trkpt>
      <trkpt lat="45.49232" lon="6.16078">
        <ele>328.4276123</ele>
        <time>2012-03-17T15:49:01Z</time>
      </trkpt>
      <trkpt lat="45.4924" lon="6.16075">
        <ele>327.4661865</ele>
        <time>2012-03-17T15:49:08Z</time>
      </trkpt>
      <trkpt lat="45.49246" lon="6.16065">
        <ele>326.9855957</ele>
        <time>2012-03-17T15:49:15Z</time>
      </trkpt>
      <trkpt lat="45.49252" lon="6.16055">
        <ele>326.5048828</ele>
        <time>2012-03-17T15:49:22Z</time>
      </trkpt>
      <trkpt lat="45.49258" lon="6.16045">
        <ele>328.9083252</ele>
        <time>2012-03-17T15:49:28Z</time>
      </trkpt>
    </trkseg>
  </trk>
</gpx>